<?xml version="1.0" encoding="UTF-8" standalone="no" ?>
<gpx xmlns="http://www.topografix.com/GPX/1/1" xmlns:xsi="http://www.w3.org/2001/XMLSchema-instance" xsi:schemaLocation="http://www.topografix.com/GPX/1/1 http://www.topografix.com/GPX/1/1/gpx.xsd" version="1.1" creator="VisuGPX - https://www.visugpx.com">
  <metadata>
    <name>VTT - Un tour sur le Causse Noir</name>
    <desc><![CDATA[Belle virée sur le Causse noir avec un détour vers le Larzac !]]></desc>
  </metadata>
  <trk>
    <name><![CDATA[06-JUIL-13 18:43:45]]></name>
    <trkseg>
      <trkpt lat="44.07666" lon="3.38923">
        <ele>451.96</ele>
        <time>2013-07-06T07:33:59Z</time>
      </trkpt>
      <trkpt lat="44.07667" lon="3.38918">
        <ele>455.8</ele>
        <time>2013-07-06T07:34:03Z</time>
      </trkpt>
      <trkpt lat="44.07667" lon="3.38915">
        <ele>459.17</ele>
        <time>2013-07-06T07:34:04Z</time>
      </trkpt>
      <trkpt lat="44.07667" lon="3.38915">
        <ele>462.53</ele>
        <time>2013-07-06T07:34:05Z</time>
      </trkpt>
      <trkpt lat="44.07667" lon="3.38916">
        <ele>465.9</ele>
        <time>2013-07-06T07:34:06Z</time>
      </trkpt>
      <trkpt lat="44.07665" lon="3.38919">
        <ele>471.66</ele>
        <time>2013-07-06T07:34:08Z</time>
      </trkpt>
      <trkpt lat="44.07664" lon="3.38921">
        <ele>475.51</ele>
        <time>2013-07-06T07:34:10Z</time>
      </trkpt>
      <trkpt lat="44.07664" lon="3.38922">
        <ele>480.32</ele>
        <time>2013-07-06T07:34:11Z</time>
      </trkpt>
      <trkpt lat="44.07664" lon="3.38922">
        <ele>484.64</ele>
        <time>2013-07-06T07:34:12Z</time>
      </trkpt>
      <trkpt lat="44.07664" lon="3.38922">
        <ele>488.49</ele>
        <time>2013-07-06T07:34:14Z</time>
      </trkpt>
      <trkpt lat="44.07871" lon="3.38759">
        <ele>464.45</ele>
        <time>2013-07-06T07:45:59Z</time>
      </trkpt>
      <trkpt lat="44.07872" lon="3.38751">
        <ele>464.93</ele>
        <time>2013-07-06T07:46:01Z</time>
      </trkpt>
      <trkpt lat="44.07873" lon="3.3874">
        <ele>469.74</ele>
        <time>2013-07-06T07:46:05Z</time>
      </trkpt>
      <trkpt lat="44.07873" lon="3.38737">
        <ele>473.59</ele>
        <time>2013-07-06T07:46:06Z</time>
      </trkpt>
      <trkpt lat="44.07873" lon="3.38734">
        <ele>477.43</ele>
        <time>2013-07-06T07:46:07Z</time>
      </trkpt>
      <trkpt lat="44.07874" lon="3.38731">
        <ele>480.8</ele>
        <time>2013-07-06T07:46:08Z</time>
      </trkpt>
      <trkpt lat="44.07874" lon="3.38729">
        <ele>484.64</ele>
        <time>2013-07-06T07:46:09Z</time>
      </trkpt>
      <trkpt lat="44.07874" lon="3.38726">
        <ele>488.01</ele>
        <time>2013-07-06T07:46:10Z</time>
      </trkpt>
      <trkpt lat="44.07875" lon="3.38721">
        <ele>494.74</ele>
        <time>2013-07-06T07:46:12Z</time>
      </trkpt>
      <trkpt lat="44.07875" lon="3.38719">
        <ele>497.62</ele>
        <time>2013-07-06T07:46:13Z</time>
      </trkpt>
      <trkpt lat="44.07877" lon="3.38714">
        <ele>503.39</ele>
        <time>2013-07-06T07:46:15Z</time>
      </trkpt>
      <trkpt lat="44.07878" lon="3.38708">
        <ele>509.16</ele>
        <time>2013-07-06T07:46:17Z</time>
      </trkpt>
      <trkpt lat="44.07879" lon="3.38703">
        <ele>514.44</ele>
        <time>2013-07-06T07:46:19Z</time>
      </trkpt>
      <trkpt lat="44.0788" lon="3.38698">
        <ele>519.25</ele>
        <time>2013-07-06T07:46:21Z</time>
      </trkpt>
      <trkpt lat="44.07881" lon="3.38692">
        <ele>524.06</ele>
        <time>2013-07-06T07:46:23Z</time>
      </trkpt>
      <trkpt lat="44.07882" lon="3.38688">
        <ele>527.9</ele>
        <time>2013-07-06T07:46:25Z</time>
      </trkpt>
      <trkpt lat="44.07883" lon="3.38682">
        <ele>532.23</ele>
        <time>2013-07-06T07:46:27Z</time>
      </trkpt>
      <trkpt lat="44.07884" lon="3.38677">
        <ele>536.07</ele>
        <time>2013-07-06T07:46:29Z</time>
      </trkpt>
      <trkpt lat="44.07885" lon="3.38671">
        <ele>539.44</ele>
        <time>2013-07-06T07:46:31Z</time>
      </trkpt>
      <trkpt lat="44.07887" lon="3.38665">
        <ele>542.8</ele>
        <time>2013-07-06T07:46:33Z</time>
      </trkpt>
      <trkpt lat="44.07888" lon="3.3866">
        <ele>545.69</ele>
        <time>2013-07-06T07:46:35Z</time>
      </trkpt>
      <trkpt lat="44.07889" lon="3.38654">
        <ele>549.05</ele>
        <time>2013-07-06T07:46:37Z</time>
      </trkpt>
      <trkpt lat="44.07891" lon="3.38646">
        <ele>553.38</ele>
        <time>2013-07-06T07:46:40Z</time>
      </trkpt>
      <trkpt lat="44.07892" lon="3.38638">
        <ele>556.74</ele>
        <time>2013-07-06T07:46:43Z</time>
      </trkpt>
      <trkpt lat="44.07893" lon="3.3863">
        <ele>560.11</ele>
        <time>2013-07-06T07:46:46Z</time>
      </trkpt>
      <trkpt lat="44.07894" lon="3.38622">
        <ele>563.47</ele>
        <time>2013-07-06T07:46:49Z</time>
      </trkpt>
      <trkpt lat="44.07895" lon="3.38611">
        <ele>566.83</ele>
        <time>2013-07-06T07:46:53Z</time>
      </trkpt>
      <trkpt lat="44.07896" lon="3.38599">
        <ele>570.2</ele>
        <time>2013-07-06T07:46:57Z</time>
      </trkpt>
      <trkpt lat="44.07897" lon="3.38585">
        <ele>574.04</ele>
        <time>2013-07-06T07:47:02Z</time>
      </trkpt>
      <trkpt lat="44.07904" lon="3.38573">
        <ele>576.93</ele>
        <time>2013-07-06T07:47:07Z</time>
      </trkpt>
      <trkpt lat="44.07911" lon="3.38568">
        <ele>579.81</ele>
        <time>2013-07-06T07:47:12Z</time>
      </trkpt>
      <trkpt lat="44.07924" lon="3.38563">
        <ele>583.18</ele>
        <time>2013-07-06T07:47:19Z</time>
      </trkpt>
      <trkpt lat="44.0794" lon="3.38556">
        <ele>586.54</ele>
        <time>2013-07-06T07:47:28Z</time>
      </trkpt>
      <trkpt lat="44.07955" lon="3.38547">
        <ele>589.43</ele>
        <time>2013-07-06T07:47:37Z</time>
      </trkpt>
      <trkpt lat="44.07973" lon="3.38533">
        <ele>593.27</ele>
        <time>2013-07-06T07:47:47Z</time>
      </trkpt>
      <trkpt lat="44.07993" lon="3.38521">
        <ele>596.15</ele>
        <time>2013-07-06T07:47:58Z</time>
      </trkpt>
      <trkpt lat="44.08004" lon="3.38514">
        <ele>597.6</ele>
        <time>2013-07-06T07:48:04Z</time>
      </trkpt>
      <trkpt lat="44.0801" lon="3.38508">
        <ele>598.08</ele>
        <time>2013-07-06T07:48:08Z</time>
      </trkpt>
      <trkpt lat="44.08031" lon="3.38495">
        <ele>600.48</ele>
        <time>2013-07-06T07:48:20Z</time>
      </trkpt>
      <trkpt lat="44.0805" lon="3.38487">
        <ele>602.88</ele>
        <time>2013-07-06T07:48:32Z</time>
      </trkpt>
      <trkpt lat="44.08074" lon="3.38481">
        <ele>605.77</ele>
        <time>2013-07-06T07:48:46Z</time>
      </trkpt>
      <trkpt lat="44.0808" lon="3.38482">
        <ele>606.73</ele>
        <time>2013-07-06T07:48:51Z</time>
      </trkpt>
      <trkpt lat="44.08097" lon="3.38479">
        <ele>608.17</ele>
        <time>2013-07-06T07:49:02Z</time>
      </trkpt>
      <trkpt lat="44.08119" lon="3.38468">
        <ele>610.57</ele>
        <time>2013-07-06T07:49:15Z</time>
      </trkpt>
      <trkpt lat="44.0812" lon="3.38465">
        <ele>610.57</ele>
        <time>2013-07-06T07:49:16Z</time>
      </trkpt>
      <trkpt lat="44.0811" lon="3.38446">
        <ele>612.02</ele>
        <time>2013-07-06T07:49:26Z</time>
      </trkpt>
      <trkpt lat="44.08101" lon="3.38436">
        <ele>612.5</ele>
        <time>2013-07-06T07:49:33Z</time>
      </trkpt>
      <trkpt lat="44.08098" lon="3.38434">
        <ele>612.98</ele>
        <time>2013-07-06T07:49:35Z</time>
      </trkpt>
      <trkpt lat="44.08093" lon="3.3843">
        <ele>613.46</ele>
        <time>2013-07-06T07:49:38Z</time>
      </trkpt>
      <trkpt lat="44.08072" lon="3.38419">
        <ele>614.9</ele>
        <time>2013-07-06T07:49:50Z</time>
      </trkpt>
      <trkpt lat="44.08069" lon="3.38416">
        <ele>615.38</ele>
        <time>2013-07-06T07:49:52Z</time>
      </trkpt>
      <trkpt lat="44.08053" lon="3.38406">
        <ele>616.82</ele>
        <time>2013-07-06T07:50:02Z</time>
      </trkpt>
      <trkpt lat="44.08047" lon="3.384">
        <ele>617.78</ele>
        <time>2013-07-06T07:50:06Z</time>
      </trkpt>
      <trkpt lat="44.08018" lon="3.38385">
        <ele>620.19</ele>
        <time>2013-07-06T07:50:21Z</time>
      </trkpt>
      <trkpt lat="44.07994" lon="3.38368">
        <ele>623.55</ele>
        <time>2013-07-06T07:50:34Z</time>
      </trkpt>
      <trkpt lat="44.07991" lon="3.38361">
        <ele>624.03</ele>
        <time>2013-07-06T07:50:37Z</time>
      </trkpt>
      <trkpt lat="44.07984" lon="3.38333">
        <ele>625.96</ele>
        <time>2013-07-06T07:50:49Z</time>
      </trkpt>
      <trkpt lat="44.07973" lon="3.38299">
        <ele>628.36</ele>
        <time>2013-07-06T07:51:02Z</time>
      </trkpt>
      <trkpt lat="44.07967" lon="3.38269">
        <ele>630.28</ele>
        <time>2013-07-06T07:51:12Z</time>
      </trkpt>
      <trkpt lat="44.07969" lon="3.38254">
        <ele>631.24</ele>
        <time>2013-07-06T07:51:17Z</time>
      </trkpt>
      <trkpt lat="44.07972" lon="3.38247">
        <ele>631.72</ele>
        <time>2013-07-06T07:51:20Z</time>
      </trkpt>
      <trkpt lat="44.07973" lon="3.38234">
        <ele>632.2</ele>
        <time>2013-07-06T07:51:27Z</time>
      </trkpt>
      <trkpt lat="44.07978" lon="3.38212">
        <ele>633.65</ele>
        <time>2013-07-06T07:51:39Z</time>
      </trkpt>
      <trkpt lat="44.07978" lon="3.38173">
        <ele>635.57</ele>
        <time>2013-07-06T07:51:56Z</time>
      </trkpt>
      <trkpt lat="44.07977" lon="3.38162">
        <ele>636.53</ele>
        <time>2013-07-06T07:52:01Z</time>
      </trkpt>
      <trkpt lat="44.07977" lon="3.38152">
        <ele>637.01</ele>
        <time>2013-07-06T07:52:05Z</time>
      </trkpt>
      <trkpt lat="44.07971" lon="3.38112">
        <ele>638.45</ele>
        <time>2013-07-06T07:52:20Z</time>
      </trkpt>
      <trkpt lat="44.07977" lon="3.38076">
        <ele>640.86</ele>
        <time>2013-07-06T07:52:33Z</time>
      </trkpt>
      <trkpt lat="44.07997" lon="3.38056">
        <ele>642.78</ele>
        <time>2013-07-06T07:52:46Z</time>
      </trkpt>
      <trkpt lat="44.08017" lon="3.3804">
        <ele>645.18</ele>
        <time>2013-07-06T07:52:59Z</time>
      </trkpt>
      <trkpt lat="44.08031" lon="3.38032">
        <ele>646.62</ele>
        <time>2013-07-06T07:53:08Z</time>
      </trkpt>
      <trkpt lat="44.08049" lon="3.38024">
        <ele>648.55</ele>
        <time>2013-07-06T07:53:19Z</time>
      </trkpt>
      <trkpt lat="44.08078" lon="3.38014">
        <ele>650.95</ele>
        <time>2013-07-06T07:53:33Z</time>
      </trkpt>
      <trkpt lat="44.0811" lon="3.37998">
        <ele>654.31</ele>
        <time>2013-07-06T07:53:49Z</time>
      </trkpt>
      <trkpt lat="44.08137" lon="3.37984">
        <ele>657.2</ele>
        <time>2013-07-06T07:54:04Z</time>
      </trkpt>
      <trkpt lat="44.08164" lon="3.37967">
        <ele>660.08</ele>
        <time>2013-07-06T07:54:19Z</time>
      </trkpt>
      <trkpt lat="44.08169" lon="3.37962">
        <ele>660.56</ele>
        <time>2013-07-06T07:54:23Z</time>
      </trkpt>
      <trkpt lat="44.08162" lon="3.37938">
        <ele>662.49</ele>
        <time>2013-07-06T07:54:34Z</time>
      </trkpt>
      <trkpt lat="44.08144" lon="3.37913">
        <ele>662.97</ele>
        <time>2013-07-06T07:54:46Z</time>
      </trkpt>
      <trkpt lat="44.0814" lon="3.37908">
        <ele>663.45</ele>
        <time>2013-07-06T07:54:48Z</time>
      </trkpt>
      <trkpt lat="44.08124" lon="3.37893">
        <ele>664.41</ele>
        <time>2013-07-06T07:54:57Z</time>
      </trkpt>
      <trkpt lat="44.08112" lon="3.3784">
        <ele>666.33</ele>
        <time>2013-07-06T07:55:10Z</time>
      </trkpt>
      <trkpt lat="44.08111" lon="3.37832">
        <ele>666.81</ele>
        <time>2013-07-06T07:55:12Z</time>
      </trkpt>
      <trkpt lat="44.08107" lon="3.37823">
        <ele>667.29</ele>
        <time>2013-07-06T07:55:15Z</time>
      </trkpt>
      <trkpt lat="44.08103" lon="3.37813">
        <ele>668.25</ele>
        <time>2013-07-06T07:55:21Z</time>
      </trkpt>
      <trkpt lat="44.08089" lon="3.37773">
        <ele>670.18</ele>
        <time>2013-07-06T07:55:35Z</time>
      </trkpt>
      <trkpt lat="44.08086" lon="3.37766">
        <ele>670.66</ele>
        <time>2013-07-06T07:55:38Z</time>
      </trkpt>
      <trkpt lat="44.08085" lon="3.37751">
        <ele>671.14</ele>
        <time>2013-07-06T07:55:43Z</time>
      </trkpt>
      <trkpt lat="44.08084" lon="3.37702">
        <ele>673.54</ele>
        <time>2013-07-06T07:55:56Z</time>
      </trkpt>
      <trkpt lat="44.08068" lon="3.37652">
        <ele>675.46</ele>
        <time>2013-07-06T07:56:12Z</time>
      </trkpt>
      <trkpt lat="44.08068" lon="3.37617">
        <ele>676.42</ele>
        <time>2013-07-06T07:56:21Z</time>
      </trkpt>
      <trkpt lat="44.08072" lon="3.37601">
        <ele>676.91</ele>
        <time>2013-07-06T07:56:27Z</time>
      </trkpt>
      <trkpt lat="44.08069" lon="3.37614">
        <ele>676.91</ele>
        <time>2013-07-06T07:56:33Z</time>
      </trkpt>
      <trkpt lat="44.08076" lon="3.37591">
        <ele>677.39</ele>
        <time>2013-07-06T07:56:41Z</time>
      </trkpt>
      <trkpt lat="44.08081" lon="3.37548">
        <ele>679.31</ele>
        <time>2013-07-06T07:56:54Z</time>
      </trkpt>
      <trkpt lat="44.08072" lon="3.37515">
        <ele>680.75</ele>
        <time>2013-07-06T07:57:05Z</time>
      </trkpt>
      <trkpt lat="44.08068" lon="3.37494">
        <ele>681.23</ele>
        <time>2013-07-06T07:57:11Z</time>
      </trkpt>
      <trkpt lat="44.08052" lon="3.37477">
        <ele>682.19</ele>
        <time>2013-07-06T07:57:19Z</time>
      </trkpt>
      <trkpt lat="44.08019" lon="3.3747">
        <ele>684.12</ele>
        <time>2013-07-06T07:57:33Z</time>
      </trkpt>
      <trkpt lat="44.07992" lon="3.37474">
        <ele>685.56</ele>
        <time>2013-07-06T07:57:45Z</time>
      </trkpt>
      <trkpt lat="44.07952" lon="3.37486">
        <ele>687.96</ele>
        <time>2013-07-06T07:58:01Z</time>
      </trkpt>
      <trkpt lat="44.07945" lon="3.37484">
        <ele>688.44</ele>
        <time>2013-07-06T07:58:04Z</time>
      </trkpt>
      <trkpt lat="44.07915" lon="3.37473">
        <ele>690.36</ele>
        <time>2013-07-06T07:58:18Z</time>
      </trkpt>
      <trkpt lat="44.079" lon="3.37438">
        <ele>692.29</ele>
        <time>2013-07-06T07:58:31Z</time>
      </trkpt>
      <trkpt lat="44.07889" lon="3.374">
        <ele>694.21</ele>
        <time>2013-07-06T07:58:44Z</time>
      </trkpt>
      <trkpt lat="44.07885" lon="3.37358">
        <ele>696.61</ele>
        <time>2013-07-06T07:58:57Z</time>
      </trkpt>
      <trkpt lat="44.07884" lon="3.37326">
        <ele>697.57</ele>
        <time>2013-07-06T07:59:07Z</time>
      </trkpt>
      <trkpt lat="44.07886" lon="3.3732">
        <ele>698.05</ele>
        <time>2013-07-06T07:59:09Z</time>
      </trkpt>
      <trkpt lat="44.07874" lon="3.37288">
        <ele>699.02</ele>
        <time>2013-07-06T07:59:20Z</time>
      </trkpt>
      <trkpt lat="44.07853" lon="3.3725">
        <ele>700.46</ele>
        <time>2013-07-06T07:59:32Z</time>
      </trkpt>
      <trkpt lat="44.07849" lon="3.37219">
        <ele>700.94</ele>
        <time>2013-07-06T07:59:39Z</time>
      </trkpt>
      <trkpt lat="44.07868" lon="3.37194">
        <ele>701.9</ele>
        <time>2013-07-06T07:59:48Z</time>
      </trkpt>
      <trkpt lat="44.07893" lon="3.37175">
        <ele>703.82</ele>
        <time>2013-07-06T07:59:59Z</time>
      </trkpt>
      <trkpt lat="44.07917" lon="3.37145">
        <ele>705.26</ele>
        <time>2013-07-06T08:00:12Z</time>
      </trkpt>
      <trkpt lat="44.07939" lon="3.3711">
        <ele>706.71</ele>
        <time>2013-07-06T08:00:25Z</time>
      </trkpt>
      <trkpt lat="44.0795" lon="3.37064">
        <ele>708.63</ele>
        <time>2013-07-06T08:00:39Z</time>
      </trkpt>
      <trkpt lat="44.07933" lon="3.37033">
        <ele>709.59</ele>
        <time>2013-07-06T08:00:49Z</time>
      </trkpt>
      <trkpt lat="44.07909" lon="3.37014">
        <ele>711.03</ele>
        <time>2013-07-06T08:00:59Z</time>
      </trkpt>
      <trkpt lat="44.07887" lon="3.36974">
        <ele>712.95</ele>
        <time>2013-07-06T08:01:14Z</time>
      </trkpt>
      <trkpt lat="44.07883" lon="3.36959">
        <ele>713.44</ele>
        <time>2013-07-06T08:01:19Z</time>
      </trkpt>
      <trkpt lat="44.07882" lon="3.36944">
        <ele>714.4</ele>
        <time>2013-07-06T08:01:24Z</time>
      </trkpt>
      <trkpt lat="44.07851" lon="3.36913">
        <ele>715.36</ele>
        <time>2013-07-06T08:01:40Z</time>
      </trkpt>
      <trkpt lat="44.07815" lon="3.36894">
        <ele>716.32</ele>
        <time>2013-07-06T08:01:53Z</time>
      </trkpt>
      <trkpt lat="44.07794" lon="3.36834">
        <ele>717.76</ele>
        <time>2013-07-06T08:02:09Z</time>
      </trkpt>
      <trkpt lat="44.07794" lon="3.36829">
        <ele>717.76</ele>
        <time>2013-07-06T08:02:10Z</time>
      </trkpt>
      <trkpt lat="44.07792" lon="3.36803">
        <ele>717.76</ele>
        <time>2013-07-06T08:02:15Z</time>
      </trkpt>
      <trkpt lat="44.07803" lon="3.36733">
        <ele>717.76</ele>
        <time>2013-07-06T08:02:29Z</time>
      </trkpt>
      <trkpt lat="44.07805" lon="3.36685">
        <ele>717.76</ele>
        <time>2013-07-06T08:02:38Z</time>
      </trkpt>
      <trkpt lat="44.07801" lon="3.36667">
        <ele>717.76</ele>
        <time>2013-07-06T08:02:41Z</time>
      </trkpt>
      <trkpt lat="44.078" lon="3.36656">
        <ele>717.76</ele>
        <time>2013-07-06T08:02:43Z</time>
      </trkpt>
      <trkpt lat="44.078" lon="3.3665">
        <ele>717.76</ele>
        <time>2013-07-06T08:02:44Z</time>
      </trkpt>
      <trkpt lat="44.078" lon="3.36637">
        <ele>717.76</ele>
        <time>2013-07-06T08:02:46Z</time>
      </trkpt>
      <trkpt lat="44.07801" lon="3.36631">
        <ele>717.28</ele>
        <time>2013-07-06T08:02:47Z</time>
      </trkpt>
      <trkpt lat="44.07802" lon="3.36625">
        <ele>717.28</ele>
        <time>2013-07-06T08:02:48Z</time>
      </trkpt>
      <trkpt lat="44.07808" lon="3.36608">
        <ele>717.28</ele>
        <time>2013-07-06T08:02:51Z</time>
      </trkpt>
      <trkpt lat="44.0781" lon="3.36602">
        <ele>717.28</ele>
        <time>2013-07-06T08:02:52Z</time>
      </trkpt>
      <trkpt lat="44.07826" lon="3.36571">
        <ele>717.28</ele>
        <time>2013-07-06T08:02:58Z</time>
      </trkpt>
      <trkpt lat="44.07829" lon="3.36566">
        <ele>717.28</ele>
        <time>2013-07-06T08:02:59Z</time>
      </trkpt>
      <trkpt lat="44.07835" lon="3.36555">
        <ele>717.28</ele>
        <time>2013-07-06T08:03:01Z</time>
      </trkpt>
      <trkpt lat="44.07837" lon="3.36549">
        <ele>717.28</ele>
        <time>2013-07-06T08:03:02Z</time>
      </trkpt>
      <trkpt lat="44.07838" lon="3.36543">
        <ele>717.76</ele>
        <time>2013-07-06T08:03:03Z</time>
      </trkpt>
      <trkpt lat="44.07839" lon="3.36538">
        <ele>717.76</ele>
        <time>2013-07-06T08:03:04Z</time>
      </trkpt>
      <trkpt lat="44.0784" lon="3.36532">
        <ele>717.76</ele>
        <time>2013-07-06T08:03:05Z</time>
      </trkpt>
      <trkpt lat="44.07839" lon="3.36526">
        <ele>717.76</ele>
        <time>2013-07-06T08:03:06Z</time>
      </trkpt>
      <trkpt lat="44.07838" lon="3.36519">
        <ele>717.76</ele>
        <time>2013-07-06T08:03:07Z</time>
      </trkpt>
      <trkpt lat="44.07836" lon="3.36513">
        <ele>717.76</ele>
        <time>2013-07-06T08:03:08Z</time>
      </trkpt>
      <trkpt lat="44.07833" lon="3.36508">
        <ele>717.76</ele>
        <time>2013-07-06T08:03:09Z</time>
      </trkpt>
      <trkpt lat="44.0783" lon="3.36503">
        <ele>718.24</ele>
        <time>2013-07-06T08:03:10Z</time>
      </trkpt>
      <trkpt lat="44.07812" lon="3.36447">
        <ele>721.13</ele>
        <time>2013-07-06T08:03:23Z</time>
      </trkpt>
      <trkpt lat="44.07821" lon="3.36395">
        <ele>723.53</ele>
        <time>2013-07-06T08:03:36Z</time>
      </trkpt>
      <trkpt lat="44.07851" lon="3.36345">
        <ele>725.93</ele>
        <time>2013-07-06T08:03:52Z</time>
      </trkpt>
      <trkpt lat="44.07882" lon="3.36295">
        <ele>728.34</ele>
        <time>2013-07-06T08:04:08Z</time>
      </trkpt>
      <trkpt lat="44.07901" lon="3.36255">
        <ele>730.74</ele>
        <time>2013-07-06T08:04:20Z</time>
      </trkpt>
      <trkpt lat="44.07915" lon="3.36193">
        <ele>733.62</ele>
        <time>2013-07-06T08:04:36Z</time>
      </trkpt>
      <trkpt lat="44.07905" lon="3.36125">
        <ele>736.51</ele>
        <time>2013-07-06T08:04:53Z</time>
      </trkpt>
      <trkpt lat="44.07887" lon="3.36061">
        <ele>739.87</ele>
        <time>2013-07-06T08:05:10Z</time>
      </trkpt>
      <trkpt lat="44.07892" lon="3.35998">
        <ele>741.79</ele>
        <time>2013-07-06T08:05:26Z</time>
      </trkpt>
      <trkpt lat="44.07897" lon="3.35989">
        <ele>742.28</ele>
        <time>2013-07-06T08:05:29Z</time>
      </trkpt>
      <trkpt lat="44.07922" lon="3.35978">
        <ele>744.2</ele>
        <time>2013-07-06T08:05:40Z</time>
      </trkpt>
      <trkpt lat="44.07945" lon="3.35986">
        <ele>745.16</ele>
        <time>2013-07-06T08:05:49Z</time>
      </trkpt>
      <trkpt lat="44.07965" lon="3.36003">
        <ele>747.08</ele>
        <time>2013-07-06T08:05:59Z</time>
      </trkpt>
      <trkpt lat="44.07971" lon="3.36008">
        <ele>747.56</ele>
        <time>2013-07-06T08:06:02Z</time>
      </trkpt>
      <trkpt lat="44.07973" lon="3.36009">
        <ele>747.56</ele>
        <time>2013-07-06T08:06:03Z</time>
      </trkpt>
      <trkpt lat="44.07974" lon="3.3601">
        <ele>747.56</ele>
        <time>2013-07-06T08:06:04Z</time>
      </trkpt>
      <trkpt lat="44.07975" lon="3.36011">
        <ele>748.04</ele>
        <time>2013-07-06T08:06:05Z</time>
      </trkpt>
      <trkpt lat="44.07977" lon="3.36012">
        <ele>748.04</ele>
        <time>2013-07-06T08:06:06Z</time>
      </trkpt>
      <trkpt lat="44.07979" lon="3.36013">
        <ele>748.52</ele>
        <time>2013-07-06T08:06:07Z</time>
      </trkpt>
      <trkpt lat="44.07981" lon="3.36015">
        <ele>748.52</ele>
        <time>2013-07-06T08:06:08Z</time>
      </trkpt>
      <trkpt lat="44.07981" lon="3.36018">
        <ele>749</ele>
        <time>2013-07-06T08:06:09Z</time>
      </trkpt>
      <trkpt lat="44.07982" lon="3.36019">
        <ele>749</ele>
        <time>2013-07-06T08:06:10Z</time>
      </trkpt>
      <trkpt lat="44.07984" lon="3.3602">
        <ele>749</ele>
        <time>2013-07-06T08:06:11Z</time>
      </trkpt>
      <trkpt lat="44.07985" lon="3.36021">
        <ele>749.49</ele>
        <time>2013-07-06T08:06:12Z</time>
      </trkpt>
      <trkpt lat="44.07991" lon="3.36028">
        <ele>749.97</ele>
        <time>2013-07-06T08:06:17Z</time>
      </trkpt>
      <trkpt lat="44.07993" lon="3.3603">
        <ele>749.97</ele>
        <time>2013-07-06T08:06:18Z</time>
      </trkpt>
      <trkpt lat="44.08018" lon="3.36049">
        <ele>753.33</ele>
        <time>2013-07-06T08:06:30Z</time>
      </trkpt>
      <trkpt lat="44.08022" lon="3.36055">
        <ele>753.81</ele>
        <time>2013-07-06T08:06:32Z</time>
      </trkpt>
      <trkpt lat="44.08038" lon="3.36087">
        <ele>755.73</ele>
        <time>2013-07-06T08:06:43Z</time>
      </trkpt>
      <trkpt lat="44.08038" lon="3.3609">
        <ele>755.73</ele>
        <time>2013-07-06T08:06:44Z</time>
      </trkpt>
      <trkpt lat="44.08038" lon="3.36103">
        <ele>756.69</ele>
        <time>2013-07-06T08:06:48Z</time>
      </trkpt>
      <trkpt lat="44.08039" lon="3.36106">
        <ele>757.18</ele>
        <time>2013-07-06T08:06:49Z</time>
      </trkpt>
      <trkpt lat="44.08045" lon="3.36121">
        <ele>758.14</ele>
        <time>2013-07-06T08:06:54Z</time>
      </trkpt>
      <trkpt lat="44.0806" lon="3.36146">
        <ele>760.54</ele>
        <time>2013-07-06T08:07:04Z</time>
      </trkpt>
      <trkpt lat="44.08075" lon="3.36165">
        <ele>762.94</ele>
        <time>2013-07-06T08:07:12Z</time>
      </trkpt>
      <trkpt lat="44.08078" lon="3.36168">
        <ele>762.94</ele>
        <time>2013-07-06T08:07:13Z</time>
      </trkpt>
      <trkpt lat="44.08088" lon="3.36181">
        <ele>764.39</ele>
        <time>2013-07-06T08:07:18Z</time>
      </trkpt>
      <trkpt lat="44.08105" lon="3.36199">
        <ele>766.79</ele>
        <time>2013-07-06T08:07:29Z</time>
      </trkpt>
      <trkpt lat="44.08118" lon="3.36214">
        <ele>768.71</ele>
        <time>2013-07-06T08:07:37Z</time>
      </trkpt>
      <trkpt lat="44.08123" lon="3.36219">
        <ele>769.19</ele>
        <time>2013-07-06T08:07:40Z</time>
      </trkpt>
      <trkpt lat="44.08125" lon="3.36221">
        <ele>769.19</ele>
        <time>2013-07-06T08:07:41Z</time>
      </trkpt>
      <trkpt lat="44.08127" lon="3.36223">
        <ele>769.67</ele>
        <time>2013-07-06T08:07:42Z</time>
      </trkpt>
      <trkpt lat="44.08129" lon="3.36225">
        <ele>769.67</ele>
        <time>2013-07-06T08:07:43Z</time>
      </trkpt>
      <trkpt lat="44.08131" lon="3.36227">
        <ele>770.15</ele>
        <time>2013-07-06T08:07:44Z</time>
      </trkpt>
      <trkpt lat="44.08134" lon="3.3623">
        <ele>770.15</ele>
        <time>2013-07-06T08:07:45Z</time>
      </trkpt>
      <trkpt lat="44.08138" lon="3.36234">
        <ele>770.63</ele>
        <time>2013-07-06T08:07:47Z</time>
      </trkpt>
      <trkpt lat="44.0814" lon="3.36236">
        <ele>770.63</ele>
        <time>2013-07-06T08:07:48Z</time>
      </trkpt>
      <trkpt lat="44.08141" lon="3.36238">
        <ele>771.11</ele>
        <time>2013-07-06T08:07:49Z</time>
      </trkpt>
      <trkpt lat="44.08143" lon="3.3624">
        <ele>771.11</ele>
        <time>2013-07-06T08:07:50Z</time>
      </trkpt>
      <trkpt lat="44.08144" lon="3.36242">
        <ele>771.6</ele>
        <time>2013-07-06T08:07:51Z</time>
      </trkpt>
      <trkpt lat="44.08146" lon="3.36244">
        <ele>771.6</ele>
        <time>2013-07-06T08:07:52Z</time>
      </trkpt>
      <trkpt lat="44.08158" lon="3.36253">
        <ele>772.56</ele>
        <time>2013-07-06T08:07:56Z</time>
      </trkpt>
      <trkpt lat="44.08168" lon="3.36261">
        <ele>773.52</ele>
        <time>2013-07-06T08:08:00Z</time>
      </trkpt>
      <trkpt lat="44.08172" lon="3.36263">
        <ele>773.52</ele>
        <time>2013-07-06T08:08:01Z</time>
      </trkpt>
      <trkpt lat="44.08178" lon="3.36266">
        <ele>774</ele>
        <time>2013-07-06T08:08:03Z</time>
      </trkpt>
      <trkpt lat="44.0818" lon="3.36269">
        <ele>774.48</ele>
        <time>2013-07-06T08:08:04Z</time>
      </trkpt>
      <trkpt lat="44.08201" lon="3.3629">
        <ele>776.4</ele>
        <time>2013-07-06T08:08:13Z</time>
      </trkpt>
      <trkpt lat="44.08227" lon="3.36314">
        <ele>778.81</ele>
        <time>2013-07-06T08:08:24Z</time>
      </trkpt>
      <trkpt lat="44.08228" lon="3.36317">
        <ele>778.81</ele>
        <time>2013-07-06T08:08:25Z</time>
      </trkpt>
      <trkpt lat="44.0823" lon="3.36319">
        <ele>779.29</ele>
        <time>2013-07-06T08:08:26Z</time>
      </trkpt>
      <trkpt lat="44.08233" lon="3.36321">
        <ele>779.29</ele>
        <time>2013-07-06T08:08:27Z</time>
      </trkpt>
      <trkpt lat="44.08235" lon="3.36323">
        <ele>779.77</ele>
        <time>2013-07-06T08:08:28Z</time>
      </trkpt>
      <trkpt lat="44.08238" lon="3.36325">
        <ele>779.77</ele>
        <time>2013-07-06T08:08:29Z</time>
      </trkpt>
      <trkpt lat="44.0824" lon="3.36326">
        <ele>779.77</ele>
        <time>2013-07-06T08:08:30Z</time>
      </trkpt>
      <trkpt lat="44.08243" lon="3.36326">
        <ele>780.25</ele>
        <time>2013-07-06T08:08:31Z</time>
      </trkpt>
      <trkpt lat="44.08246" lon="3.36327">
        <ele>780.25</ele>
        <time>2013-07-06T08:08:32Z</time>
      </trkpt>
      <trkpt lat="44.08283" lon="3.3634">
        <ele>783.13</ele>
        <time>2013-07-06T08:08:46Z</time>
      </trkpt>
      <trkpt lat="44.08315" lon="3.36351">
        <ele>786.02</ele>
        <time>2013-07-06T08:08:59Z</time>
      </trkpt>
      <trkpt lat="44.08338" lon="3.36363">
        <ele>787.94</ele>
        <time>2013-07-06T08:09:11Z</time>
      </trkpt>
      <trkpt lat="44.08358" lon="3.36376">
        <ele>790.34</ele>
        <time>2013-07-06T08:09:20Z</time>
      </trkpt>
      <trkpt lat="44.08372" lon="3.3638">
        <ele>791.3</ele>
        <time>2013-07-06T08:09:26Z</time>
      </trkpt>
      <trkpt lat="44.08373" lon="3.3638">
        <ele>791.3</ele>
        <time>2013-07-06T08:09:27Z</time>
      </trkpt>
      <trkpt lat="44.08375" lon="3.36381">
        <ele>791.3</ele>
        <time>2013-07-06T08:09:28Z</time>
      </trkpt>
      <trkpt lat="44.08376" lon="3.36382">
        <ele>791.78</ele>
        <time>2013-07-06T08:09:29Z</time>
      </trkpt>
      <trkpt lat="44.08377" lon="3.36383">
        <ele>791.78</ele>
        <time>2013-07-06T08:09:30Z</time>
      </trkpt>
      <trkpt lat="44.08381" lon="3.36385">
        <ele>792.26</ele>
        <time>2013-07-06T08:09:32Z</time>
      </trkpt>
      <trkpt lat="44.08383" lon="3.36385">
        <ele>792.26</ele>
        <time>2013-07-06T08:09:33Z</time>
      </trkpt>
      <trkpt lat="44.08403" lon="3.36394">
        <ele>794.19</ele>
        <time>2013-07-06T08:09:43Z</time>
      </trkpt>
      <trkpt lat="44.08429" lon="3.36411">
        <ele>796.59</ele>
        <time>2013-07-06T08:09:56Z</time>
      </trkpt>
      <trkpt lat="44.0843" lon="3.36413">
        <ele>796.59</ele>
        <time>2013-07-06T08:09:57Z</time>
      </trkpt>
      <trkpt lat="44.08451" lon="3.36443">
        <ele>798.99</ele>
        <time>2013-07-06T08:10:10Z</time>
      </trkpt>
      <trkpt lat="44.08471" lon="3.36472">
        <ele>801.4</ele>
        <time>2013-07-06T08:10:23Z</time>
      </trkpt>
      <trkpt lat="44.08493" lon="3.36491">
        <ele>803.32</ele>
        <time>2013-07-06T08:10:35Z</time>
      </trkpt>
      <trkpt lat="44.08527" lon="3.36505">
        <ele>805.72</ele>
        <time>2013-07-06T08:10:50Z</time>
      </trkpt>
      <trkpt lat="44.08554" lon="3.3651">
        <ele>807.16</ele>
        <time>2013-07-06T08:11:01Z</time>
      </trkpt>
      <trkpt lat="44.0859" lon="3.36514">
        <ele>810.05</ele>
        <time>2013-07-06T08:11:17Z</time>
      </trkpt>
      <trkpt lat="44.08612" lon="3.36519">
        <ele>812.45</ele>
        <time>2013-07-06T08:11:28Z</time>
      </trkpt>
      <trkpt lat="44.08635" lon="3.36526">
        <ele>814.37</ele>
        <time>2013-07-06T08:11:39Z</time>
      </trkpt>
      <trkpt lat="44.0865" lon="3.36534">
        <ele>815.82</ele>
        <time>2013-07-06T08:11:47Z</time>
      </trkpt>
      <trkpt lat="44.08652" lon="3.36536">
        <ele>815.82</ele>
        <time>2013-07-06T08:11:48Z</time>
      </trkpt>
      <trkpt lat="44.08653" lon="3.36537">
        <ele>816.3</ele>
        <time>2013-07-06T08:11:49Z</time>
      </trkpt>
      <trkpt lat="44.08656" lon="3.36538">
        <ele>816.3</ele>
        <time>2013-07-06T08:11:50Z</time>
      </trkpt>
      <trkpt lat="44.08658" lon="3.36539">
        <ele>816.3</ele>
        <time>2013-07-06T08:11:51Z</time>
      </trkpt>
      <trkpt lat="44.0866" lon="3.3654">
        <ele>816.78</ele>
        <time>2013-07-06T08:11:52Z</time>
      </trkpt>
      <trkpt lat="44.08662" lon="3.36541">
        <ele>816.78</ele>
        <time>2013-07-06T08:11:53Z</time>
      </trkpt>
      <trkpt lat="44.08678" lon="3.36555">
        <ele>818.22</ele>
        <time>2013-07-06T08:12:01Z</time>
      </trkpt>
      <trkpt lat="44.08679" lon="3.36557">
        <ele>818.7</ele>
        <time>2013-07-06T08:12:02Z</time>
      </trkpt>
      <trkpt lat="44.08681" lon="3.36559">
        <ele>818.7</ele>
        <time>2013-07-06T08:12:03Z</time>
      </trkpt>
      <trkpt lat="44.08683" lon="3.36561">
        <ele>818.7</ele>
        <time>2013-07-06T08:12:04Z</time>
      </trkpt>
      <trkpt lat="44.08685" lon="3.36563">
        <ele>819.18</ele>
        <time>2013-07-06T08:12:05Z</time>
      </trkpt>
      <trkpt lat="44.08686" lon="3.36565">
        <ele>819.18</ele>
        <time>2013-07-06T08:12:06Z</time>
      </trkpt>
      <trkpt lat="44.08688" lon="3.36568">
        <ele>819.18</ele>
        <time>2013-07-06T08:12:07Z</time>
      </trkpt>
      <trkpt lat="44.08705" lon="3.366">
        <ele>822.06</ele>
        <time>2013-07-06T08:12:19Z</time>
      </trkpt>
      <trkpt lat="44.08707" lon="3.36605">
        <ele>822.06</ele>
        <time>2013-07-06T08:12:21Z</time>
      </trkpt>
      <trkpt lat="44.08707" lon="3.36608">
        <ele>822.55</ele>
        <time>2013-07-06T08:12:22Z</time>
      </trkpt>
      <trkpt lat="44.08707" lon="3.36611">
        <ele>822.55</ele>
        <time>2013-07-06T08:12:23Z</time>
      </trkpt>
      <trkpt lat="44.08708" lon="3.36613">
        <ele>823.03</ele>
        <time>2013-07-06T08:12:24Z</time>
      </trkpt>
      <trkpt lat="44.0871" lon="3.36614">
        <ele>823.03</ele>
        <time>2013-07-06T08:12:25Z</time>
      </trkpt>
      <trkpt lat="44.08711" lon="3.36615">
        <ele>823.03</ele>
        <time>2013-07-06T08:12:26Z</time>
      </trkpt>
      <trkpt lat="44.08712" lon="3.36617">
        <ele>823.03</ele>
        <time>2013-07-06T08:12:27Z</time>
      </trkpt>
      <trkpt lat="44.08713" lon="3.36619">
        <ele>823.03</ele>
        <time>2013-07-06T08:12:28Z</time>
      </trkpt>
      <trkpt lat="44.08713" lon="3.36622">
        <ele>823.51</ele>
        <time>2013-07-06T08:12:29Z</time>
      </trkpt>
      <trkpt lat="44.08714" lon="3.36625">
        <ele>823.51</ele>
        <time>2013-07-06T08:12:30Z</time>
      </trkpt>
      <trkpt lat="44.08715" lon="3.36628">
        <ele>823.51</ele>
        <time>2013-07-06T08:12:31Z</time>
      </trkpt>
      <trkpt lat="44.08722" lon="3.36663">
        <ele>825.43</ele>
        <time>2013-07-06T08:12:44Z</time>
      </trkpt>
      <trkpt lat="44.08715" lon="3.36688">
        <ele>827.83</ele>
        <time>2013-07-06T08:12:55Z</time>
      </trkpt>
      <trkpt lat="44.087" lon="3.36715">
        <ele>830.24</ele>
        <time>2013-07-06T08:13:07Z</time>
      </trkpt>
      <trkpt lat="44.08682" lon="3.36747">
        <ele>832.64</ele>
        <time>2013-07-06T08:13:20Z</time>
      </trkpt>
      <trkpt lat="44.0868" lon="3.36772">
        <ele>834.08</ele>
        <time>2013-07-06T08:13:29Z</time>
      </trkpt>
      <trkpt lat="44.0868" lon="3.36774">
        <ele>834.56</ele>
        <time>2013-07-06T08:13:30Z</time>
      </trkpt>
      <trkpt lat="44.08681" lon="3.36776">
        <ele>834.56</ele>
        <time>2013-07-06T08:13:31Z</time>
      </trkpt>
      <trkpt lat="44.08682" lon="3.36778">
        <ele>834.56</ele>
        <time>2013-07-06T08:13:32Z</time>
      </trkpt>
      <trkpt lat="44.08683" lon="3.3678">
        <ele>834.56</ele>
        <time>2013-07-06T08:13:33Z</time>
      </trkpt>
      <trkpt lat="44.08683" lon="3.36782">
        <ele>834.56</ele>
        <time>2013-07-06T08:13:34Z</time>
      </trkpt>
      <trkpt lat="44.08685" lon="3.36784">
        <ele>834.56</ele>
        <time>2013-07-06T08:13:35Z</time>
      </trkpt>
      <trkpt lat="44.08685" lon="3.36785">
        <ele>835.04</ele>
        <time>2013-07-06T08:13:36Z</time>
      </trkpt>
      <trkpt lat="44.08686" lon="3.36785">
        <ele>835.04</ele>
        <time>2013-07-06T08:13:37Z</time>
      </trkpt>
      <trkpt lat="44.08691" lon="3.36786">
        <ele>835.04</ele>
        <time>2013-07-06T08:13:41Z</time>
      </trkpt>
      <trkpt lat="44.08698" lon="3.36785">
        <ele>835.04</ele>
        <time>2013-07-06T08:13:52Z</time>
      </trkpt>
      <trkpt lat="44.08708" lon="3.36782">
        <ele>836</ele>
        <time>2013-07-06T08:14:04Z</time>
      </trkpt>
      <trkpt lat="44.0871" lon="3.36781">
        <ele>836</ele>
        <time>2013-07-06T08:14:06Z</time>
      </trkpt>
      <trkpt lat="44.0871" lon="3.36778">
        <ele>836.48</ele>
        <time>2013-07-06T08:14:08Z</time>
      </trkpt>
      <trkpt lat="44.08709" lon="3.36782">
        <ele>836</ele>
        <time>2013-07-06T08:14:12Z</time>
      </trkpt>
      <trkpt lat="44.08714" lon="3.36779">
        <ele>836.48</ele>
        <time>2013-07-06T08:14:17Z</time>
      </trkpt>
      <trkpt lat="44.0872" lon="3.36778">
        <ele>837.45</ele>
        <time>2013-07-06T08:14:29Z</time>
      </trkpt>
      <trkpt lat="44.08717" lon="3.36774">
        <ele>836.96</ele>
        <time>2013-07-06T08:14:32Z</time>
      </trkpt>
      <trkpt lat="44.08721" lon="3.36773">
        <ele>836.96</ele>
        <time>2013-07-06T08:14:36Z</time>
      </trkpt>
      <trkpt lat="44.08724" lon="3.36775">
        <ele>837.45</ele>
        <time>2013-07-06T08:14:39Z</time>
      </trkpt>
      <trkpt lat="44.0873" lon="3.36775">
        <ele>837.45</ele>
        <time>2013-07-06T08:14:47Z</time>
      </trkpt>
      <trkpt lat="44.08724" lon="3.36772">
        <ele>837.45</ele>
        <time>2013-07-06T08:14:53Z</time>
      </trkpt>
      <trkpt lat="44.08726" lon="3.36777">
        <ele>836.96</ele>
        <time>2013-07-06T08:14:58Z</time>
      </trkpt>
      <trkpt lat="44.08734" lon="3.36776">
        <ele>837.93</ele>
        <time>2013-07-06T08:15:05Z</time>
      </trkpt>
      <trkpt lat="44.08728" lon="3.36777">
        <ele>837.45</ele>
        <time>2013-07-06T08:15:08Z</time>
      </trkpt>
      <trkpt lat="44.08721" lon="3.36774">
        <ele>837.45</ele>
        <time>2013-07-06T08:15:13Z</time>
      </trkpt>
      <trkpt lat="44.08719" lon="3.36775">
        <ele>836.96</ele>
        <time>2013-07-06T08:15:14Z</time>
      </trkpt>
      <trkpt lat="44.08719" lon="3.36777">
        <ele>836.96</ele>
        <time>2013-07-06T08:15:16Z</time>
      </trkpt>
      <trkpt lat="44.08727" lon="3.36777">
        <ele>837.45</ele>
        <time>2013-07-06T08:15:22Z</time>
      </trkpt>
      <trkpt lat="44.08732" lon="3.36776">
        <ele>837.93</ele>
        <time>2013-07-06T08:15:27Z</time>
      </trkpt>
      <trkpt lat="44.08731" lon="3.36774">
        <ele>837.93</ele>
        <time>2013-07-06T08:15:29Z</time>
      </trkpt>
      <trkpt lat="44.08728" lon="3.36774">
        <ele>837.45</ele>
        <time>2013-07-06T08:15:31Z</time>
      </trkpt>
      <trkpt lat="44.0873" lon="3.36776">
        <ele>837.45</ele>
        <time>2013-07-06T08:15:36Z</time>
      </trkpt>
      <trkpt lat="44.08733" lon="3.36775">
        <ele>837.45</ele>
        <time>2013-07-06T08:15:38Z</time>
      </trkpt>
      <trkpt lat="44.08738" lon="3.36775">
        <ele>837.93</ele>
        <time>2013-07-06T08:15:43Z</time>
      </trkpt>
      <trkpt lat="44.08741" lon="3.36775">
        <ele>837.93</ele>
        <time>2013-07-06T08:15:45Z</time>
      </trkpt>
      <trkpt lat="44.08747" lon="3.36779">
        <ele>838.41</ele>
        <time>2013-07-06T08:15:50Z</time>
      </trkpt>
      <trkpt lat="44.08749" lon="3.36779">
        <ele>838.41</ele>
        <time>2013-07-06T08:15:51Z</time>
      </trkpt>
      <trkpt lat="44.08752" lon="3.36778">
        <ele>838.89</ele>
        <time>2013-07-06T08:15:58Z</time>
      </trkpt>
      <trkpt lat="44.08767" lon="3.36781">
        <ele>839.37</ele>
        <time>2013-07-06T08:16:07Z</time>
      </trkpt>
      <trkpt lat="44.08774" lon="3.36784">
        <ele>840.33</ele>
        <time>2013-07-06T08:16:11Z</time>
      </trkpt>
      <trkpt lat="44.08794" lon="3.36803">
        <ele>842.25</ele>
        <time>2013-07-06T08:16:24Z</time>
      </trkpt>
      <trkpt lat="44.08815" lon="3.36832">
        <ele>844.18</ele>
        <time>2013-07-06T08:16:39Z</time>
      </trkpt>
      <trkpt lat="44.08827" lon="3.36846">
        <ele>846.1</ele>
        <time>2013-07-06T08:16:48Z</time>
      </trkpt>
      <trkpt lat="44.08832" lon="3.36856">
        <ele>847.06</ele>
        <time>2013-07-06T08:16:54Z</time>
      </trkpt>
      <trkpt lat="44.08834" lon="3.3686">
        <ele>847.06</ele>
        <time>2013-07-06T08:16:56Z</time>
      </trkpt>
      <trkpt lat="44.08842" lon="3.36865">
        <ele>848.02</ele>
        <time>2013-07-06T08:17:00Z</time>
      </trkpt>
      <trkpt lat="44.08848" lon="3.36873">
        <ele>848.5</ele>
        <time>2013-07-06T08:17:04Z</time>
      </trkpt>
      <trkpt lat="44.08873" lon="3.36903">
        <ele>850.9</ele>
        <time>2013-07-06T08:17:20Z</time>
      </trkpt>
      <trkpt lat="44.08885" lon="3.36918">
        <ele>852.35</ele>
        <time>2013-07-06T08:17:30Z</time>
      </trkpt>
      <trkpt lat="44.08895" lon="3.36923">
        <ele>852.83</ele>
        <time>2013-07-06T08:17:34Z</time>
      </trkpt>
      <trkpt lat="44.08929" lon="3.36945">
        <ele>855.71</ele>
        <time>2013-07-06T08:17:49Z</time>
      </trkpt>
      <trkpt lat="44.08946" lon="3.36957">
        <ele>857.63</ele>
        <time>2013-07-06T08:18:01Z</time>
      </trkpt>
      <trkpt lat="44.08948" lon="3.36959">
        <ele>857.63</ele>
        <time>2013-07-06T08:18:11Z</time>
      </trkpt>
      <trkpt lat="44.08979" lon="3.36983">
        <ele>855.23</ele>
        <time>2013-07-06T08:18:22Z</time>
      </trkpt>
      <trkpt lat="44.08991" lon="3.36994">
        <ele>854.75</ele>
        <time>2013-07-06T08:18:25Z</time>
      </trkpt>
      <trkpt lat="44.08994" lon="3.36999">
        <ele>854.27</ele>
        <time>2013-07-06T08:18:26Z</time>
      </trkpt>
      <trkpt lat="44.08997" lon="3.37004">
        <ele>853.79</ele>
        <time>2013-07-06T08:18:27Z</time>
      </trkpt>
      <trkpt lat="44.09" lon="3.3701">
        <ele>853.79</ele>
        <time>2013-07-06T08:18:28Z</time>
      </trkpt>
      <trkpt lat="44.09003" lon="3.37015">
        <ele>853.79</ele>
        <time>2013-07-06T08:18:29Z</time>
      </trkpt>
      <trkpt lat="44.09006" lon="3.37021">
        <ele>853.31</ele>
        <time>2013-07-06T08:18:30Z</time>
      </trkpt>
      <trkpt lat="44.0901" lon="3.37026">
        <ele>852.83</ele>
        <time>2013-07-06T08:18:31Z</time>
      </trkpt>
      <trkpt lat="44.09014" lon="3.37028">
        <ele>853.31</ele>
        <time>2013-07-06T08:18:32Z</time>
      </trkpt>
      <trkpt lat="44.09018" lon="3.37029">
        <ele>853.31</ele>
        <time>2013-07-06T08:18:33Z</time>
      </trkpt>
      <trkpt lat="44.09022" lon="3.37028">
        <ele>853.31</ele>
        <time>2013-07-06T08:18:34Z</time>
      </trkpt>
      <trkpt lat="44.09025" lon="3.37026">
        <ele>853.79</ele>
        <time>2013-07-06T08:18:35Z</time>
      </trkpt>
      <trkpt lat="44.09027" lon="3.37024">
        <ele>853.79</ele>
        <time>2013-07-06T08:18:36Z</time>
      </trkpt>
      <trkpt lat="44.09029" lon="3.37021">
        <ele>854.27</ele>
        <time>2013-07-06T08:18:37Z</time>
      </trkpt>
      <trkpt lat="44.09032" lon="3.37018">
        <ele>854.27</ele>
        <time>2013-07-06T08:18:38Z</time>
      </trkpt>
      <trkpt lat="44.09035" lon="3.37015">
        <ele>854.27</ele>
        <time>2013-07-06T08:18:39Z</time>
      </trkpt>
      <trkpt lat="44.09071" lon="3.36984">
        <ele>853.79</ele>
        <time>2013-07-06T08:18:52Z</time>
      </trkpt>
      <trkpt lat="44.09072" lon="3.36983">
        <ele>854.27</ele>
        <time>2013-07-06T08:19:05Z</time>
      </trkpt>
      <trkpt lat="44.09072" lon="3.36983">
        <ele>854.27</ele>
        <time>2013-07-06T08:19:31Z</time>
      </trkpt>
      <trkpt lat="44.09072" lon="3.36983">
        <ele>854.27</ele>
        <time>2013-07-06T08:19:56Z</time>
      </trkpt>
      <trkpt lat="44.09072" lon="3.36983">
        <ele>854.27</ele>
        <time>2013-07-06T08:20:14Z</time>
      </trkpt>
      <trkpt lat="44.09072" lon="3.36983">
        <ele>854.27</ele>
        <time>2013-07-06T08:20:38Z</time>
      </trkpt>
      <trkpt lat="44.09072" lon="3.36983">
        <ele>854.75</ele>
        <time>2013-07-06T08:21:05Z</time>
      </trkpt>
      <trkpt lat="44.09074" lon="3.36974">
        <ele>854.75</ele>
        <time>2013-07-06T08:21:18Z</time>
      </trkpt>
      <trkpt lat="44.09075" lon="3.36972">
        <ele>854.75</ele>
        <time>2013-07-06T08:21:19Z</time>
      </trkpt>
      <trkpt lat="44.09075" lon="3.3697">
        <ele>854.75</ele>
        <time>2013-07-06T08:21:20Z</time>
      </trkpt>
      <trkpt lat="44.09075" lon="3.36968">
        <ele>854.27</ele>
        <time>2013-07-06T08:21:21Z</time>
      </trkpt>
      <trkpt lat="44.09075" lon="3.36966">
        <ele>854.27</ele>
        <time>2013-07-06T08:21:22Z</time>
      </trkpt>
      <trkpt lat="44.09074" lon="3.36964">
        <ele>854.75</ele>
        <time>2013-07-06T08:21:23Z</time>
      </trkpt>
      <trkpt lat="44.09074" lon="3.36962">
        <ele>854.27</ele>
        <time>2013-07-06T08:21:24Z</time>
      </trkpt>
      <trkpt lat="44.09073" lon="3.36959">
        <ele>854.75</ele>
        <time>2013-07-06T08:21:25Z</time>
      </trkpt>
      <trkpt lat="44.09073" lon="3.36957">
        <ele>854.27</ele>
        <time>2013-07-06T08:21:26Z</time>
      </trkpt>
      <trkpt lat="44.09072" lon="3.36955">
        <ele>854.75</ele>
        <time>2013-07-06T08:21:27Z</time>
      </trkpt>
      <trkpt lat="44.0907" lon="3.36952">
        <ele>854.27</ele>
        <time>2013-07-06T08:21:28Z</time>
      </trkpt>
      <trkpt lat="44.09069" lon="3.36949">
        <ele>854.75</ele>
        <time>2013-07-06T08:21:29Z</time>
      </trkpt>
      <trkpt lat="44.09055" lon="3.36909">
        <ele>854.75</ele>
        <time>2013-07-06T08:21:43Z</time>
      </trkpt>
      <trkpt lat="44.09039" lon="3.36859">
        <ele>856.19</ele>
        <time>2013-07-06T08:21:59Z</time>
      </trkpt>
      <trkpt lat="44.09024" lon="3.36814">
        <ele>857.63</ele>
        <time>2013-07-06T08:22:14Z</time>
      </trkpt>
      <trkpt lat="44.0901" lon="3.36772">
        <ele>858.59</ele>
        <time>2013-07-06T08:22:28Z</time>
      </trkpt>
      <trkpt lat="44.08995" lon="3.36731">
        <ele>860.04</ele>
        <time>2013-07-06T08:22:42Z</time>
      </trkpt>
      <trkpt lat="44.0898" lon="3.36692">
        <ele>861.96</ele>
        <time>2013-07-06T08:22:56Z</time>
      </trkpt>
      <trkpt lat="44.08972" lon="3.36656">
        <ele>863.88</ele>
        <time>2013-07-06T08:23:08Z</time>
      </trkpt>
      <trkpt lat="44.0897" lon="3.36603">
        <ele>864.84</ele>
        <time>2013-07-06T08:23:24Z</time>
      </trkpt>
      <trkpt lat="44.08981" lon="3.36541">
        <ele>864.36</ele>
        <time>2013-07-06T08:23:43Z</time>
      </trkpt>
      <trkpt lat="44.08995" lon="3.3649">
        <ele>862.92</ele>
        <time>2013-07-06T08:23:56Z</time>
      </trkpt>
      <trkpt lat="44.09001" lon="3.36464">
        <ele>861.96</ele>
        <time>2013-07-06T08:24:01Z</time>
      </trkpt>
      <trkpt lat="44.09009" lon="3.3644">
        <ele>860.52</ele>
        <time>2013-07-06T08:24:06Z</time>
      </trkpt>
      <trkpt lat="44.09016" lon="3.36423">
        <ele>859.56</ele>
        <time>2013-07-06T08:24:09Z</time>
      </trkpt>
      <trkpt lat="44.09017" lon="3.36417">
        <ele>859.56</ele>
        <time>2013-07-06T08:24:10Z</time>
      </trkpt>
      <trkpt lat="44.09016" lon="3.36411">
        <ele>859.56</ele>
        <time>2013-07-06T08:24:11Z</time>
      </trkpt>
      <trkpt lat="44.09014" lon="3.36406">
        <ele>859.08</ele>
        <time>2013-07-06T08:24:12Z</time>
      </trkpt>
      <trkpt lat="44.09012" lon="3.36403">
        <ele>859.56</ele>
        <time>2013-07-06T08:24:13Z</time>
      </trkpt>
      <trkpt lat="44.0901" lon="3.364">
        <ele>859.56</ele>
        <time>2013-07-06T08:24:14Z</time>
      </trkpt>
      <trkpt lat="44.08989" lon="3.36372">
        <ele>861.96</ele>
        <time>2013-07-06T08:24:25Z</time>
      </trkpt>
      <trkpt lat="44.08982" lon="3.36334">
        <ele>864.84</ele>
        <time>2013-07-06T08:24:39Z</time>
      </trkpt>
      <trkpt lat="44.0898" lon="3.36306">
        <ele>866.29</ele>
        <time>2013-07-06T08:24:51Z</time>
      </trkpt>
      <trkpt lat="44.0898" lon="3.36301">
        <ele>866.77</ele>
        <time>2013-07-06T08:24:54Z</time>
      </trkpt>
      <trkpt lat="44.0898" lon="3.36296">
        <ele>866.77</ele>
        <time>2013-07-06T08:24:56Z</time>
      </trkpt>
      <trkpt lat="44.08979" lon="3.36294">
        <ele>866.77</ele>
        <time>2013-07-06T08:24:57Z</time>
      </trkpt>
      <trkpt lat="44.08973" lon="3.36259">
        <ele>868.69</ele>
        <time>2013-07-06T08:25:09Z</time>
      </trkpt>
      <trkpt lat="44.08973" lon="3.36257">
        <ele>869.17</ele>
        <time>2013-07-06T08:25:10Z</time>
      </trkpt>
      <trkpt lat="44.08973" lon="3.36254">
        <ele>869.17</ele>
        <time>2013-07-06T08:25:11Z</time>
      </trkpt>
      <trkpt lat="44.08973" lon="3.36251">
        <ele>869.17</ele>
        <time>2013-07-06T08:25:12Z</time>
      </trkpt>
      <trkpt lat="44.08973" lon="3.36248">
        <ele>869.65</ele>
        <time>2013-07-06T08:25:13Z</time>
      </trkpt>
      <trkpt lat="44.08973" lon="3.36246">
        <ele>869.65</ele>
        <time>2013-07-06T08:25:14Z</time>
      </trkpt>
      <trkpt lat="44.08972" lon="3.36244">
        <ele>869.65</ele>
        <time>2013-07-06T08:25:15Z</time>
      </trkpt>
      <trkpt lat="44.08971" lon="3.36241">
        <ele>870.13</ele>
        <time>2013-07-06T08:25:16Z</time>
      </trkpt>
      <trkpt lat="44.08971" lon="3.36239">
        <ele>870.13</ele>
        <time>2013-07-06T08:25:17Z</time>
      </trkpt>
      <trkpt lat="44.08971" lon="3.36236">
        <ele>870.61</ele>
        <time>2013-07-06T08:25:18Z</time>
      </trkpt>
      <trkpt lat="44.08971" lon="3.36234">
        <ele>870.61</ele>
        <time>2013-07-06T08:25:19Z</time>
      </trkpt>
      <trkpt lat="44.0897" lon="3.36231">
        <ele>870.61</ele>
        <time>2013-07-06T08:25:20Z</time>
      </trkpt>
      <trkpt lat="44.0897" lon="3.36229">
        <ele>871.09</ele>
        <time>2013-07-06T08:25:21Z</time>
      </trkpt>
      <trkpt lat="44.08964" lon="3.36194">
        <ele>873.98</ele>
        <time>2013-07-06T08:25:35Z</time>
      </trkpt>
      <trkpt lat="44.08959" lon="3.36162">
        <ele>876.86</ele>
        <time>2013-07-06T08:25:50Z</time>
      </trkpt>
      <trkpt lat="44.08953" lon="3.36125">
        <ele>879.26</ele>
        <time>2013-07-06T08:26:05Z</time>
      </trkpt>
      <trkpt lat="44.08952" lon="3.36092">
        <ele>880.22</ele>
        <time>2013-07-06T08:26:17Z</time>
      </trkpt>
      <trkpt lat="44.08956" lon="3.36073">
        <ele>880.22</ele>
        <time>2013-07-06T08:26:25Z</time>
      </trkpt>
      <trkpt lat="44.08957" lon="3.36072">
        <ele>880.22</ele>
        <time>2013-07-06T08:26:26Z</time>
      </trkpt>
      <trkpt lat="44.08959" lon="3.36071">
        <ele>880.22</ele>
        <time>2013-07-06T08:26:27Z</time>
      </trkpt>
      <trkpt lat="44.0896" lon="3.36071">
        <ele>880.22</ele>
        <time>2013-07-06T08:26:28Z</time>
      </trkpt>
      <trkpt lat="44.08961" lon="3.3607">
        <ele>880.22</ele>
        <time>2013-07-06T08:26:29Z</time>
      </trkpt>
      <trkpt lat="44.08962" lon="3.36069">
        <ele>880.71</ele>
        <time>2013-07-06T08:26:30Z</time>
      </trkpt>
      <trkpt lat="44.08962" lon="3.36067">
        <ele>880.71</ele>
        <time>2013-07-06T08:26:31Z</time>
      </trkpt>
      <trkpt lat="44.08961" lon="3.36066">
        <ele>880.71</ele>
        <time>2013-07-06T08:26:32Z</time>
      </trkpt>
      <trkpt lat="44.0896" lon="3.36065">
        <ele>880.71</ele>
        <time>2013-07-06T08:26:45Z</time>
      </trkpt>
      <trkpt lat="44.0896" lon="3.36065">
        <ele>881.19</ele>
        <time>2013-07-06T08:27:14Z</time>
      </trkpt>
      <trkpt lat="44.08959" lon="3.36066">
        <ele>881.19</ele>
        <time>2013-07-06T08:27:28Z</time>
      </trkpt>
      <trkpt lat="44.08959" lon="3.36066">
        <ele>881.19</ele>
        <time>2013-07-06T08:27:52Z</time>
      </trkpt>
      <trkpt lat="44.08959" lon="3.36066">
        <ele>880.71</ele>
        <time>2013-07-06T08:28:10Z</time>
      </trkpt>
      <trkpt lat="44.08959" lon="3.36066">
        <ele>880.71</ele>
        <time>2013-07-06T08:28:32Z</time>
      </trkpt>
      <trkpt lat="44.08959" lon="3.36066">
        <ele>881.19</ele>
        <time>2013-07-06T08:28:55Z</time>
      </trkpt>
      <trkpt lat="44.08958" lon="3.36066">
        <ele>881.19</ele>
        <time>2013-07-06T08:29:14Z</time>
      </trkpt>
      <trkpt lat="44.08958" lon="3.36066">
        <ele>881.19</ele>
        <time>2013-07-06T08:29:30Z</time>
      </trkpt>
      <trkpt lat="44.08967" lon="3.36032">
        <ele>879.74</ele>
        <time>2013-07-06T08:29:41Z</time>
      </trkpt>
      <trkpt lat="44.08973" lon="3.35993">
        <ele>878.3</ele>
        <time>2013-07-06T08:29:49Z</time>
      </trkpt>
      <trkpt lat="44.08974" lon="3.35987">
        <ele>877.82</ele>
        <time>2013-07-06T08:29:50Z</time>
      </trkpt>
      <trkpt lat="44.08974" lon="3.35982">
        <ele>877.82</ele>
        <time>2013-07-06T08:29:51Z</time>
      </trkpt>
      <trkpt lat="44.08974" lon="3.35975">
        <ele>877.82</ele>
        <time>2013-07-06T08:29:59Z</time>
      </trkpt>
      <trkpt lat="44.08975" lon="3.35962">
        <ele>877.34</ele>
        <time>2013-07-06T08:30:14Z</time>
      </trkpt>
      <trkpt lat="44.08977" lon="3.35936">
        <ele>875.42</ele>
        <time>2013-07-06T08:30:19Z</time>
      </trkpt>
      <trkpt lat="44.08977" lon="3.35929">
        <ele>875.42</ele>
        <time>2013-07-06T08:30:20Z</time>
      </trkpt>
      <trkpt lat="44.08979" lon="3.35916">
        <ele>873.98</ele>
        <time>2013-07-06T08:30:22Z</time>
      </trkpt>
      <trkpt lat="44.08984" lon="3.35869">
        <ele>871.57</ele>
        <time>2013-07-06T08:30:28Z</time>
      </trkpt>
      <trkpt lat="44.08986" lon="3.35861">
        <ele>871.57</ele>
        <time>2013-07-06T08:30:29Z</time>
      </trkpt>
      <trkpt lat="44.08988" lon="3.35855">
        <ele>871.57</ele>
        <time>2013-07-06T08:30:30Z</time>
      </trkpt>
      <trkpt lat="44.08989" lon="3.35842">
        <ele>871.09</ele>
        <time>2013-07-06T08:30:33Z</time>
      </trkpt>
      <trkpt lat="44.08987" lon="3.35836">
        <ele>870.13</ele>
        <time>2013-07-06T08:30:34Z</time>
      </trkpt>
      <trkpt lat="44.08985" lon="3.35829">
        <ele>869.17</ele>
        <time>2013-07-06T08:30:35Z</time>
      </trkpt>
      <trkpt lat="44.08974" lon="3.35774">
        <ele>865.8</ele>
        <time>2013-07-06T08:30:43Z</time>
      </trkpt>
      <trkpt lat="44.08963" lon="3.3572">
        <ele>866.29</ele>
        <time>2013-07-06T08:30:55Z</time>
      </trkpt>
      <trkpt lat="44.0894" lon="3.3567">
        <ele>866.29</ele>
        <time>2013-07-06T08:31:07Z</time>
      </trkpt>
      <trkpt lat="44.08919" lon="3.35604">
        <ele>863.88</ele>
        <time>2013-07-06T08:31:18Z</time>
      </trkpt>
      <trkpt lat="44.089" lon="3.35549">
        <ele>863.4</ele>
        <time>2013-07-06T08:31:29Z</time>
      </trkpt>
      <trkpt lat="44.08867" lon="3.35446">
        <ele>860.04</ele>
        <time>2013-07-06T08:31:45Z</time>
      </trkpt>
      <trkpt lat="44.08851" lon="3.35391">
        <ele>860.04</ele>
        <time>2013-07-06T08:31:52Z</time>
      </trkpt>
      <trkpt lat="44.08844" lon="3.35373">
        <ele>860.52</ele>
        <time>2013-07-06T08:31:55Z</time>
      </trkpt>
      <trkpt lat="44.08824" lon="3.35308">
        <ele>862.44</ele>
        <time>2013-07-06T08:32:09Z</time>
      </trkpt>
      <trkpt lat="44.08812" lon="3.35252">
        <ele>863.88</ele>
        <time>2013-07-06T08:32:22Z</time>
      </trkpt>
      <trkpt lat="44.08803" lon="3.35197">
        <ele>865.32</ele>
        <time>2013-07-06T08:32:35Z</time>
      </trkpt>
      <trkpt lat="44.08784" lon="3.35137">
        <ele>867.73</ele>
        <time>2013-07-06T08:32:51Z</time>
      </trkpt>
      <trkpt lat="44.08764" lon="3.35103">
        <ele>870.61</ele>
        <time>2013-07-06T08:33:03Z</time>
      </trkpt>
      <trkpt lat="44.08745" lon="3.35064">
        <ele>873.5</ele>
        <time>2013-07-06T08:33:18Z</time>
      </trkpt>
      <trkpt lat="44.08733" lon="3.35027">
        <ele>875.9</ele>
        <time>2013-07-06T08:33:33Z</time>
      </trkpt>
      <trkpt lat="44.08728" lon="3.34983">
        <ele>878.78</ele>
        <time>2013-07-06T08:33:48Z</time>
      </trkpt>
      <trkpt lat="44.08725" lon="3.3494">
        <ele>881.19</ele>
        <time>2013-07-06T08:34:00Z</time>
      </trkpt>
      <trkpt lat="44.08726" lon="3.34894">
        <ele>884.07</ele>
        <time>2013-07-06T08:34:14Z</time>
      </trkpt>
      <trkpt lat="44.08739" lon="3.34853">
        <ele>886.95</ele>
        <time>2013-07-06T08:34:29Z</time>
      </trkpt>
      <trkpt lat="44.08754" lon="3.34821">
        <ele>889.84</ele>
        <time>2013-07-06T08:34:42Z</time>
      </trkpt>
      <trkpt lat="44.0876" lon="3.34803">
        <ele>890.32</ele>
        <time>2013-07-06T08:34:51Z</time>
      </trkpt>
      <trkpt lat="44.08769" lon="3.34774">
        <ele>890.32</ele>
        <time>2013-07-06T08:35:02Z</time>
      </trkpt>
      <trkpt lat="44.08769" lon="3.34771">
        <ele>890.32</ele>
        <time>2013-07-06T08:35:03Z</time>
      </trkpt>
      <trkpt lat="44.0877" lon="3.34768">
        <ele>890.32</ele>
        <time>2013-07-06T08:35:04Z</time>
      </trkpt>
      <trkpt lat="44.08771" lon="3.34766">
        <ele>890.32</ele>
        <time>2013-07-06T08:35:05Z</time>
      </trkpt>
      <trkpt lat="44.08771" lon="3.34763">
        <ele>890.32</ele>
        <time>2013-07-06T08:35:06Z</time>
      </trkpt>
      <trkpt lat="44.0877" lon="3.3476">
        <ele>890.32</ele>
        <time>2013-07-06T08:35:07Z</time>
      </trkpt>
      <trkpt lat="44.08769" lon="3.34759">
        <ele>890.32</ele>
        <time>2013-07-06T08:35:08Z</time>
      </trkpt>
      <trkpt lat="44.08767" lon="3.3476">
        <ele>890.32</ele>
        <time>2013-07-06T08:35:09Z</time>
      </trkpt>
      <trkpt lat="44.08766" lon="3.34762">
        <ele>890.32</ele>
        <time>2013-07-06T08:35:10Z</time>
      </trkpt>
      <trkpt lat="44.08765" lon="3.34764">
        <ele>890.32</ele>
        <time>2013-07-06T08:35:11Z</time>
      </trkpt>
      <trkpt lat="44.08765" lon="3.34766">
        <ele>890.32</ele>
        <time>2013-07-06T08:35:12Z</time>
      </trkpt>
      <trkpt lat="44.08765" lon="3.34768">
        <ele>890.32</ele>
        <time>2013-07-06T08:35:13Z</time>
      </trkpt>
      <trkpt lat="44.08766" lon="3.3477">
        <ele>890.32</ele>
        <time>2013-07-06T08:35:14Z</time>
      </trkpt>
      <trkpt lat="44.08768" lon="3.34771">
        <ele>890.32</ele>
        <time>2013-07-06T08:35:17Z</time>
      </trkpt>
      <trkpt lat="44.08768" lon="3.3477">
        <ele>890.32</ele>
        <time>2013-07-06T08:35:18Z</time>
      </trkpt>
      <trkpt lat="44.08768" lon="3.34767">
        <ele>890.8</ele>
        <time>2013-07-06T08:35:31Z</time>
      </trkpt>
      <trkpt lat="44.08772" lon="3.34764">
        <ele>890.8</ele>
        <time>2013-07-06T08:35:45Z</time>
      </trkpt>
      <trkpt lat="44.08771" lon="3.34762">
        <ele>890.32</ele>
        <time>2013-07-06T08:35:46Z</time>
      </trkpt>
      <trkpt lat="44.0877" lon="3.34762">
        <ele>890.32</ele>
        <time>2013-07-06T08:35:47Z</time>
      </trkpt>
      <trkpt lat="44.08769" lon="3.34762">
        <ele>890.32</ele>
        <time>2013-07-06T08:35:48Z</time>
      </trkpt>
      <trkpt lat="44.08768" lon="3.34762">
        <ele>890.32</ele>
        <time>2013-07-06T08:35:49Z</time>
      </trkpt>
      <trkpt lat="44.08766" lon="3.34762">
        <ele>890.32</ele>
        <time>2013-07-06T08:35:50Z</time>
      </trkpt>
      <trkpt lat="44.08765" lon="3.34763">
        <ele>890.32</ele>
        <time>2013-07-06T08:35:51Z</time>
      </trkpt>
      <trkpt lat="44.08765" lon="3.34764">
        <ele>890.32</ele>
        <time>2013-07-06T08:35:52Z</time>
      </trkpt>
      <trkpt lat="44.08764" lon="3.34765">
        <ele>890.32</ele>
        <time>2013-07-06T08:35:53Z</time>
      </trkpt>
      <trkpt lat="44.08764" lon="3.34767">
        <ele>890.32</ele>
        <time>2013-07-06T08:35:54Z</time>
      </trkpt>
      <trkpt lat="44.08764" lon="3.34769">
        <ele>890.8</ele>
        <time>2013-07-06T08:36:06Z</time>
      </trkpt>
      <trkpt lat="44.08764" lon="3.34769">
        <ele>890.8</ele>
        <time>2013-07-06T08:36:08Z</time>
      </trkpt>
      <trkpt lat="44.08764" lon="3.34771">
        <ele>890.32</ele>
        <time>2013-07-06T08:36:09Z</time>
      </trkpt>
      <trkpt lat="44.08765" lon="3.34772">
        <ele>890.32</ele>
        <time>2013-07-06T08:36:10Z</time>
      </trkpt>
      <trkpt lat="44.08767" lon="3.34774">
        <ele>890.8</ele>
        <time>2013-07-06T08:36:11Z</time>
      </trkpt>
      <trkpt lat="44.08768" lon="3.34776">
        <ele>890.32</ele>
        <time>2013-07-06T08:36:12Z</time>
      </trkpt>
      <trkpt lat="44.08769" lon="3.3478">
        <ele>890.32</ele>
        <time>2013-07-06T08:36:13Z</time>
      </trkpt>
      <trkpt lat="44.08769" lon="3.34783">
        <ele>890.8</ele>
        <time>2013-07-06T08:36:14Z</time>
      </trkpt>
      <trkpt lat="44.0877" lon="3.34787">
        <ele>890.32</ele>
        <time>2013-07-06T08:36:15Z</time>
      </trkpt>
      <trkpt lat="44.0877" lon="3.34791">
        <ele>890.32</ele>
        <time>2013-07-06T08:36:16Z</time>
      </trkpt>
      <trkpt lat="44.08771" lon="3.34794">
        <ele>890.8</ele>
        <time>2013-07-06T08:36:17Z</time>
      </trkpt>
      <trkpt lat="44.08773" lon="3.34806">
        <ele>891.28</ele>
        <time>2013-07-06T08:36:21Z</time>
      </trkpt>
      <trkpt lat="44.08775" lon="3.34807">
        <ele>891.28</ele>
        <time>2013-07-06T08:36:22Z</time>
      </trkpt>
      <trkpt lat="44.08779" lon="3.34808">
        <ele>891.76</ele>
        <time>2013-07-06T08:36:24Z</time>
      </trkpt>
      <trkpt lat="44.08781" lon="3.34807">
        <ele>891.76</ele>
        <time>2013-07-06T08:36:25Z</time>
      </trkpt>
      <trkpt lat="44.088" lon="3.34778">
        <ele>891.76</ele>
        <time>2013-07-06T08:36:36Z</time>
      </trkpt>
      <trkpt lat="44.08801" lon="3.34744">
        <ele>891.28</ele>
        <time>2013-07-06T08:36:47Z</time>
      </trkpt>
      <trkpt lat="44.08799" lon="3.34698">
        <ele>890.8</ele>
        <time>2013-07-06T08:36:59Z</time>
      </trkpt>
      <trkpt lat="44.08807" lon="3.34646">
        <ele>889.84</ele>
        <time>2013-07-06T08:37:12Z</time>
      </trkpt>
      <trkpt lat="44.08818" lon="3.34628">
        <ele>890.32</ele>
        <time>2013-07-06T08:37:19Z</time>
      </trkpt>
      <trkpt lat="44.08836" lon="3.34614">
        <ele>891.76</ele>
        <time>2013-07-06T08:37:32Z</time>
      </trkpt>
      <trkpt lat="44.08851" lon="3.34592">
        <ele>893.68</ele>
        <time>2013-07-06T08:37:47Z</time>
      </trkpt>
      <trkpt lat="44.08853" lon="3.3459">
        <ele>893.68</ele>
        <time>2013-07-06T08:37:48Z</time>
      </trkpt>
      <trkpt lat="44.08854" lon="3.34589">
        <ele>893.68</ele>
        <time>2013-07-06T08:37:49Z</time>
      </trkpt>
      <trkpt lat="44.08856" lon="3.34583">
        <ele>894.64</ele>
        <time>2013-07-06T08:37:59Z</time>
      </trkpt>
      <trkpt lat="44.08857" lon="3.34582">
        <ele>894.64</ele>
        <time>2013-07-06T08:38:00Z</time>
      </trkpt>
      <trkpt lat="44.08857" lon="3.3458">
        <ele>894.64</ele>
        <time>2013-07-06T08:38:01Z</time>
      </trkpt>
      <trkpt lat="44.08858" lon="3.34578">
        <ele>894.64</ele>
        <time>2013-07-06T08:38:02Z</time>
      </trkpt>
      <trkpt lat="44.08859" lon="3.34576">
        <ele>894.64</ele>
        <time>2013-07-06T08:38:03Z</time>
      </trkpt>
      <trkpt lat="44.0886" lon="3.34574">
        <ele>894.64</ele>
        <time>2013-07-06T08:38:04Z</time>
      </trkpt>
      <trkpt lat="44.08862" lon="3.34572">
        <ele>895.12</ele>
        <time>2013-07-06T08:38:05Z</time>
      </trkpt>
      <trkpt lat="44.08863" lon="3.34571">
        <ele>895.12</ele>
        <time>2013-07-06T08:38:06Z</time>
      </trkpt>
      <trkpt lat="44.08864" lon="3.3457">
        <ele>895.61</ele>
        <time>2013-07-06T08:38:07Z</time>
      </trkpt>
      <trkpt lat="44.08865" lon="3.34569">
        <ele>895.61</ele>
        <time>2013-07-06T08:38:08Z</time>
      </trkpt>
      <trkpt lat="44.08866" lon="3.34566">
        <ele>895.61</ele>
        <time>2013-07-06T08:38:09Z</time>
      </trkpt>
      <trkpt lat="44.08866" lon="3.34564">
        <ele>896.09</ele>
        <time>2013-07-06T08:38:10Z</time>
      </trkpt>
      <trkpt lat="44.08866" lon="3.34561">
        <ele>896.09</ele>
        <time>2013-07-06T08:38:11Z</time>
      </trkpt>
      <trkpt lat="44.08866" lon="3.34559">
        <ele>896.57</ele>
        <time>2013-07-06T08:38:12Z</time>
      </trkpt>
      <trkpt lat="44.0887" lon="3.34548">
        <ele>897.05</ele>
        <time>2013-07-06T08:38:18Z</time>
      </trkpt>
      <trkpt lat="44.0887" lon="3.34547">
        <ele>897.53</ele>
        <time>2013-07-06T08:38:19Z</time>
      </trkpt>
      <trkpt lat="44.08871" lon="3.34545">
        <ele>897.53</ele>
        <time>2013-07-06T08:38:20Z</time>
      </trkpt>
      <trkpt lat="44.08871" lon="3.34544">
        <ele>898.01</ele>
        <time>2013-07-06T08:38:21Z</time>
      </trkpt>
      <trkpt lat="44.08876" lon="3.34525">
        <ele>899.93</ele>
        <time>2013-07-06T08:38:31Z</time>
      </trkpt>
      <trkpt lat="44.08879" lon="3.34516">
        <ele>900.89</ele>
        <time>2013-07-06T08:38:35Z</time>
      </trkpt>
      <trkpt lat="44.08879" lon="3.34513">
        <ele>900.89</ele>
        <time>2013-07-06T08:38:36Z</time>
      </trkpt>
      <trkpt lat="44.08879" lon="3.34511">
        <ele>901.37</ele>
        <time>2013-07-06T08:38:37Z</time>
      </trkpt>
      <trkpt lat="44.08879" lon="3.34509">
        <ele>901.37</ele>
        <time>2013-07-06T08:38:38Z</time>
      </trkpt>
      <trkpt lat="44.08879" lon="3.34507">
        <ele>901.37</ele>
        <time>2013-07-06T08:38:39Z</time>
      </trkpt>
      <trkpt lat="44.08879" lon="3.34495">
        <ele>902.82</ele>
        <time>2013-07-06T08:38:46Z</time>
      </trkpt>
      <trkpt lat="44.0888" lon="3.34493">
        <ele>902.82</ele>
        <time>2013-07-06T08:38:47Z</time>
      </trkpt>
      <trkpt lat="44.0888" lon="3.34491">
        <ele>902.82</ele>
        <time>2013-07-06T08:38:48Z</time>
      </trkpt>
      <trkpt lat="44.0888" lon="3.34489">
        <ele>903.3</ele>
        <time>2013-07-06T08:38:49Z</time>
      </trkpt>
      <trkpt lat="44.0888" lon="3.34486">
        <ele>903.3</ele>
        <time>2013-07-06T08:38:50Z</time>
      </trkpt>
      <trkpt lat="44.0888" lon="3.34484">
        <ele>903.3</ele>
        <time>2013-07-06T08:38:51Z</time>
      </trkpt>
      <trkpt lat="44.08879" lon="3.34481">
        <ele>903.78</ele>
        <time>2013-07-06T08:38:52Z</time>
      </trkpt>
      <trkpt lat="44.08881" lon="3.34446">
        <ele>905.22</ele>
        <time>2013-07-06T08:39:06Z</time>
      </trkpt>
      <trkpt lat="44.08875" lon="3.34397">
        <ele>907.14</ele>
        <time>2013-07-06T08:39:25Z</time>
      </trkpt>
      <trkpt lat="44.08872" lon="3.3438">
        <ele>908.1</ele>
        <time>2013-07-06T08:39:32Z</time>
      </trkpt>
      <trkpt lat="44.08872" lon="3.34377">
        <ele>908.58</ele>
        <time>2013-07-06T08:39:33Z</time>
      </trkpt>
      <trkpt lat="44.08872" lon="3.34375">
        <ele>908.58</ele>
        <time>2013-07-06T08:39:34Z</time>
      </trkpt>
      <trkpt lat="44.08871" lon="3.34372">
        <ele>908.58</ele>
        <time>2013-07-06T08:39:35Z</time>
      </trkpt>
      <trkpt lat="44.08871" lon="3.3437">
        <ele>909.06</ele>
        <time>2013-07-06T08:39:36Z</time>
      </trkpt>
      <trkpt lat="44.08871" lon="3.34367">
        <ele>908.58</ele>
        <time>2013-07-06T08:39:37Z</time>
      </trkpt>
      <trkpt lat="44.08869" lon="3.3433">
        <ele>909.54</ele>
        <time>2013-07-06T08:39:51Z</time>
      </trkpt>
      <trkpt lat="44.08879" lon="3.34295">
        <ele>910.99</ele>
        <time>2013-07-06T08:40:05Z</time>
      </trkpt>
      <trkpt lat="44.08891" lon="3.34268">
        <ele>912.43</ele>
        <time>2013-07-06T08:40:17Z</time>
      </trkpt>
      <trkpt lat="44.08913" lon="3.3424">
        <ele>911.47</ele>
        <time>2013-07-06T08:40:29Z</time>
      </trkpt>
      <trkpt lat="44.08931" lon="3.342">
        <ele>911.47</ele>
        <time>2013-07-06T08:40:41Z</time>
      </trkpt>
      <trkpt lat="44.0893" lon="3.34176">
        <ele>911.47</ele>
        <time>2013-07-06T08:40:48Z</time>
      </trkpt>
      <trkpt lat="44.08928" lon="3.34173">
        <ele>910.99</ele>
        <time>2013-07-06T08:40:49Z</time>
      </trkpt>
      <trkpt lat="44.08926" lon="3.3417">
        <ele>910.51</ele>
        <time>2013-07-06T08:40:50Z</time>
      </trkpt>
      <trkpt lat="44.08898" lon="3.34111">
        <ele>908.58</ele>
        <time>2013-07-06T08:41:03Z</time>
      </trkpt>
      <trkpt lat="44.08886" lon="3.34075">
        <ele>909.54</ele>
        <time>2013-07-06T08:41:14Z</time>
      </trkpt>
      <trkpt lat="44.08889" lon="3.34053">
        <ele>911.47</ele>
        <time>2013-07-06T08:41:27Z</time>
      </trkpt>
      <trkpt lat="44.08891" lon="3.34041">
        <ele>912.43</ele>
        <time>2013-07-06T08:41:33Z</time>
      </trkpt>
      <trkpt lat="44.08891" lon="3.34039">
        <ele>912.43</ele>
        <time>2013-07-06T08:41:34Z</time>
      </trkpt>
      <trkpt lat="44.08892" lon="3.34037">
        <ele>912.43</ele>
        <time>2013-07-06T08:41:35Z</time>
      </trkpt>
      <trkpt lat="44.08891" lon="3.34015">
        <ele>913.87</ele>
        <time>2013-07-06T08:41:44Z</time>
      </trkpt>
      <trkpt lat="44.0889" lon="3.34012">
        <ele>913.87</ele>
        <time>2013-07-06T08:41:45Z</time>
      </trkpt>
      <trkpt lat="44.08889" lon="3.3401">
        <ele>913.87</ele>
        <time>2013-07-06T08:41:46Z</time>
      </trkpt>
      <trkpt lat="44.08889" lon="3.34007">
        <ele>913.87</ele>
        <time>2013-07-06T08:41:47Z</time>
      </trkpt>
      <trkpt lat="44.08889" lon="3.34004">
        <ele>913.87</ele>
        <time>2013-07-06T08:41:48Z</time>
      </trkpt>
      <trkpt lat="44.08888" lon="3.34001">
        <ele>913.87</ele>
        <time>2013-07-06T08:41:49Z</time>
      </trkpt>
      <trkpt lat="44.08888" lon="3.33998">
        <ele>913.87</ele>
        <time>2013-07-06T08:41:50Z</time>
      </trkpt>
      <trkpt lat="44.08888" lon="3.33996">
        <ele>913.87</ele>
        <time>2013-07-06T08:41:51Z</time>
      </trkpt>
      <trkpt lat="44.08886" lon="3.33984">
        <ele>913.87</ele>
        <time>2013-07-06T08:42:01Z</time>
      </trkpt>
      <trkpt lat="44.08883" lon="3.33973">
        <ele>913.39</ele>
        <time>2013-07-06T08:42:08Z</time>
      </trkpt>
      <trkpt lat="44.08883" lon="3.33971">
        <ele>913.39</ele>
        <time>2013-07-06T08:42:09Z</time>
      </trkpt>
      <trkpt lat="44.08884" lon="3.33969">
        <ele>913.87</ele>
        <time>2013-07-06T08:42:10Z</time>
      </trkpt>
      <trkpt lat="44.08883" lon="3.33966">
        <ele>913.87</ele>
        <time>2013-07-06T08:42:11Z</time>
      </trkpt>
      <trkpt lat="44.08883" lon="3.33964">
        <ele>913.39</ele>
        <time>2013-07-06T08:42:12Z</time>
      </trkpt>
      <trkpt lat="44.08882" lon="3.33962">
        <ele>913.39</ele>
        <time>2013-07-06T08:42:13Z</time>
      </trkpt>
      <trkpt lat="44.08877" lon="3.33931">
        <ele>912.43</ele>
        <time>2013-07-06T08:42:23Z</time>
      </trkpt>
      <trkpt lat="44.08871" lon="3.33908">
        <ele>911.95</ele>
        <time>2013-07-06T08:42:29Z</time>
      </trkpt>
      <trkpt lat="44.0887" lon="3.33905">
        <ele>911.47</ele>
        <time>2013-07-06T08:42:30Z</time>
      </trkpt>
      <trkpt lat="44.08868" lon="3.33901">
        <ele>911.47</ele>
        <time>2013-07-06T08:42:31Z</time>
      </trkpt>
      <trkpt lat="44.08867" lon="3.33897">
        <ele>910.99</ele>
        <time>2013-07-06T08:42:32Z</time>
      </trkpt>
      <trkpt lat="44.08865" lon="3.33894">
        <ele>910.99</ele>
        <time>2013-07-06T08:42:33Z</time>
      </trkpt>
      <trkpt lat="44.08863" lon="3.33891">
        <ele>910.99</ele>
        <time>2013-07-06T08:42:34Z</time>
      </trkpt>
      <trkpt lat="44.08862" lon="3.33889">
        <ele>910.51</ele>
        <time>2013-07-06T08:42:35Z</time>
      </trkpt>
      <trkpt lat="44.08851" lon="3.33856">
        <ele>910.03</ele>
        <time>2013-07-06T08:42:47Z</time>
      </trkpt>
      <trkpt lat="44.08851" lon="3.33854">
        <ele>910.03</ele>
        <time>2013-07-06T08:42:48Z</time>
      </trkpt>
      <trkpt lat="44.0885" lon="3.33851">
        <ele>910.03</ele>
        <time>2013-07-06T08:42:49Z</time>
      </trkpt>
      <trkpt lat="44.0885" lon="3.33848">
        <ele>910.03</ele>
        <time>2013-07-06T08:42:50Z</time>
      </trkpt>
      <trkpt lat="44.0885" lon="3.33845">
        <ele>910.03</ele>
        <time>2013-07-06T08:42:51Z</time>
      </trkpt>
      <trkpt lat="44.0885" lon="3.33842">
        <ele>910.51</ele>
        <time>2013-07-06T08:42:52Z</time>
      </trkpt>
      <trkpt lat="44.08849" lon="3.3384">
        <ele>910.51</ele>
        <time>2013-07-06T08:42:53Z</time>
      </trkpt>
      <trkpt lat="44.08849" lon="3.33837">
        <ele>910.51</ele>
        <time>2013-07-06T08:42:54Z</time>
      </trkpt>
      <trkpt lat="44.08849" lon="3.33834">
        <ele>910.51</ele>
        <time>2013-07-06T08:42:55Z</time>
      </trkpt>
      <trkpt lat="44.08849" lon="3.33816">
        <ele>910.51</ele>
        <time>2013-07-06T08:43:01Z</time>
      </trkpt>
      <trkpt lat="44.08848" lon="3.33813">
        <ele>910.51</ele>
        <time>2013-07-06T08:43:02Z</time>
      </trkpt>
      <trkpt lat="44.08848" lon="3.3381">
        <ele>910.51</ele>
        <time>2013-07-06T08:43:03Z</time>
      </trkpt>
      <trkpt lat="44.08848" lon="3.33807">
        <ele>910.03</ele>
        <time>2013-07-06T08:43:04Z</time>
      </trkpt>
      <trkpt lat="44.08848" lon="3.33803">
        <ele>910.03</ele>
        <time>2013-07-06T08:43:05Z</time>
      </trkpt>
      <trkpt lat="44.08848" lon="3.338">
        <ele>910.03</ele>
        <time>2013-07-06T08:43:06Z</time>
      </trkpt>
      <trkpt lat="44.08857" lon="3.33763">
        <ele>909.06</ele>
        <time>2013-07-06T08:43:17Z</time>
      </trkpt>
      <trkpt lat="44.08858" lon="3.3376">
        <ele>909.06</ele>
        <time>2013-07-06T08:43:18Z</time>
      </trkpt>
      <trkpt lat="44.08859" lon="3.33757">
        <ele>909.06</ele>
        <time>2013-07-06T08:43:19Z</time>
      </trkpt>
      <trkpt lat="44.0886" lon="3.33754">
        <ele>909.06</ele>
        <time>2013-07-06T08:43:20Z</time>
      </trkpt>
      <trkpt lat="44.08862" lon="3.33751">
        <ele>909.06</ele>
        <time>2013-07-06T08:43:21Z</time>
      </trkpt>
      <trkpt lat="44.08862" lon="3.33747">
        <ele>909.06</ele>
        <time>2013-07-06T08:43:22Z</time>
      </trkpt>
      <trkpt lat="44.08864" lon="3.33744">
        <ele>909.06</ele>
        <time>2013-07-06T08:43:23Z</time>
      </trkpt>
      <trkpt lat="44.08865" lon="3.33741">
        <ele>909.06</ele>
        <time>2013-07-06T08:43:24Z</time>
      </trkpt>
      <trkpt lat="44.08867" lon="3.33738">
        <ele>909.06</ele>
        <time>2013-07-06T08:43:25Z</time>
      </trkpt>
      <trkpt lat="44.08869" lon="3.33735">
        <ele>909.06</ele>
        <time>2013-07-06T08:43:26Z</time>
      </trkpt>
      <trkpt lat="44.08871" lon="3.33732">
        <ele>909.06</ele>
        <time>2013-07-06T08:43:27Z</time>
      </trkpt>
      <trkpt lat="44.08873" lon="3.33729">
        <ele>909.06</ele>
        <time>2013-07-06T08:43:28Z</time>
      </trkpt>
      <trkpt lat="44.08899" lon="3.33694">
        <ele>910.03</ele>
        <time>2013-07-06T08:43:41Z</time>
      </trkpt>
      <trkpt lat="44.08917" lon="3.33654">
        <ele>908.1</ele>
        <time>2013-07-06T08:43:52Z</time>
      </trkpt>
      <trkpt lat="44.08927" lon="3.33631">
        <ele>908.1</ele>
        <time>2013-07-06T08:44:01Z</time>
      </trkpt>
      <trkpt lat="44.08937" lon="3.33607">
        <ele>908.1</ele>
        <time>2013-07-06T08:44:14Z</time>
      </trkpt>
      <trkpt lat="44.08944" lon="3.33596">
        <ele>908.1</ele>
        <time>2013-07-06T08:44:20Z</time>
      </trkpt>
      <trkpt lat="44.08946" lon="3.33592">
        <ele>908.58</ele>
        <time>2013-07-06T08:44:22Z</time>
      </trkpt>
      <trkpt lat="44.08947" lon="3.3359">
        <ele>908.58</ele>
        <time>2013-07-06T08:44:23Z</time>
      </trkpt>
      <trkpt lat="44.08948" lon="3.33587">
        <ele>908.1</ele>
        <time>2013-07-06T08:44:24Z</time>
      </trkpt>
      <trkpt lat="44.08949" lon="3.33584">
        <ele>908.1</ele>
        <time>2013-07-06T08:44:25Z</time>
      </trkpt>
      <trkpt lat="44.0895" lon="3.33582">
        <ele>908.1</ele>
        <time>2013-07-06T08:44:26Z</time>
      </trkpt>
      <trkpt lat="44.08951" lon="3.3358">
        <ele>908.1</ele>
        <time>2013-07-06T08:44:27Z</time>
      </trkpt>
      <trkpt lat="44.08951" lon="3.33577">
        <ele>908.1</ele>
        <time>2013-07-06T08:44:28Z</time>
      </trkpt>
      <trkpt lat="44.08952" lon="3.33575">
        <ele>908.1</ele>
        <time>2013-07-06T08:44:29Z</time>
      </trkpt>
      <trkpt lat="44.08953" lon="3.33572">
        <ele>908.1</ele>
        <time>2013-07-06T08:44:30Z</time>
      </trkpt>
      <trkpt lat="44.08954" lon="3.33569">
        <ele>908.1</ele>
        <time>2013-07-06T08:44:31Z</time>
      </trkpt>
      <trkpt lat="44.08955" lon="3.33566">
        <ele>908.1</ele>
        <time>2013-07-06T08:44:32Z</time>
      </trkpt>
      <trkpt lat="44.0896" lon="3.33552">
        <ele>907.62</ele>
        <time>2013-07-06T08:44:37Z</time>
      </trkpt>
      <trkpt lat="44.0896" lon="3.3355">
        <ele>907.62</ele>
        <time>2013-07-06T08:44:38Z</time>
      </trkpt>
      <trkpt lat="44.08961" lon="3.33547">
        <ele>907.62</ele>
        <time>2013-07-06T08:44:39Z</time>
      </trkpt>
      <trkpt lat="44.08961" lon="3.33545">
        <ele>907.62</ele>
        <time>2013-07-06T08:44:40Z</time>
      </trkpt>
      <trkpt lat="44.08961" lon="3.33544">
        <ele>907.62</ele>
        <time>2013-07-06T08:44:41Z</time>
      </trkpt>
      <trkpt lat="44.08961" lon="3.33542">
        <ele>907.62</ele>
        <time>2013-07-06T08:44:42Z</time>
      </trkpt>
      <trkpt lat="44.08961" lon="3.3354">
        <ele>907.14</ele>
        <time>2013-07-06T08:44:43Z</time>
      </trkpt>
      <trkpt lat="44.0896" lon="3.33538">
        <ele>907.14</ele>
        <time>2013-07-06T08:44:44Z</time>
      </trkpt>
      <trkpt lat="44.0896" lon="3.33535">
        <ele>906.66</ele>
        <time>2013-07-06T08:44:45Z</time>
      </trkpt>
      <trkpt lat="44.0896" lon="3.33533">
        <ele>906.66</ele>
        <time>2013-07-06T08:44:46Z</time>
      </trkpt>
      <trkpt lat="44.08959" lon="3.3353">
        <ele>906.66</ele>
        <time>2013-07-06T08:44:48Z</time>
      </trkpt>
      <trkpt lat="44.08959" lon="3.33529">
        <ele>906.18</ele>
        <time>2013-07-06T08:44:49Z</time>
      </trkpt>
      <trkpt lat="44.08959" lon="3.33523">
        <ele>905.7</ele>
        <time>2013-07-06T08:45:02Z</time>
      </trkpt>
      <trkpt lat="44.08957" lon="3.33517">
        <ele>905.22</ele>
        <time>2013-07-06T08:45:13Z</time>
      </trkpt>
      <trkpt lat="44.08955" lon="3.33508">
        <ele>904.74</ele>
        <time>2013-07-06T08:45:25Z</time>
      </trkpt>
      <trkpt lat="44.08953" lon="3.33499">
        <ele>903.78</ele>
        <time>2013-07-06T08:45:37Z</time>
      </trkpt>
      <trkpt lat="44.08952" lon="3.33495">
        <ele>903.78</ele>
        <time>2013-07-06T08:45:44Z</time>
      </trkpt>
      <trkpt lat="44.08952" lon="3.33493">
        <ele>903.3</ele>
        <time>2013-07-06T08:45:45Z</time>
      </trkpt>
      <trkpt lat="44.08951" lon="3.33489">
        <ele>902.82</ele>
        <time>2013-07-06T08:45:46Z</time>
      </trkpt>
      <trkpt lat="44.0895" lon="3.33486">
        <ele>902.82</ele>
        <time>2013-07-06T08:45:47Z</time>
      </trkpt>
      <trkpt lat="44.08949" lon="3.33481">
        <ele>902.82</ele>
        <time>2013-07-06T08:45:48Z</time>
      </trkpt>
      <trkpt lat="44.08948" lon="3.33477">
        <ele>902.33</ele>
        <time>2013-07-06T08:45:49Z</time>
      </trkpt>
      <trkpt lat="44.08946" lon="3.33413">
        <ele>900.89</ele>
        <time>2013-07-06T08:46:03Z</time>
      </trkpt>
      <trkpt lat="44.08957" lon="3.33353">
        <ele>898.97</ele>
        <time>2013-07-06T08:46:15Z</time>
      </trkpt>
      <trkpt lat="44.0896" lon="3.33323">
        <ele>898.01</ele>
        <time>2013-07-06T08:46:20Z</time>
      </trkpt>
      <trkpt lat="44.08963" lon="3.3329">
        <ele>896.57</ele>
        <time>2013-07-06T08:46:26Z</time>
      </trkpt>
      <trkpt lat="44.08964" lon="3.33284">
        <ele>896.09</ele>
        <time>2013-07-06T08:46:27Z</time>
      </trkpt>
      <trkpt lat="44.08965" lon="3.33266">
        <ele>895.61</ele>
        <time>2013-07-06T08:46:30Z</time>
      </trkpt>
      <trkpt lat="44.08965" lon="3.33256">
        <ele>895.12</ele>
        <time>2013-07-06T08:46:32Z</time>
      </trkpt>
      <trkpt lat="44.08966" lon="3.33252">
        <ele>895.12</ele>
        <time>2013-07-06T08:46:33Z</time>
      </trkpt>
      <trkpt lat="44.08967" lon="3.33247">
        <ele>895.12</ele>
        <time>2013-07-06T08:46:34Z</time>
      </trkpt>
      <trkpt lat="44.08968" lon="3.33242">
        <ele>894.16</ele>
        <time>2013-07-06T08:46:35Z</time>
      </trkpt>
      <trkpt lat="44.08969" lon="3.33237">
        <ele>894.16</ele>
        <time>2013-07-06T08:46:36Z</time>
      </trkpt>
      <trkpt lat="44.08969" lon="3.33232">
        <ele>894.16</ele>
        <time>2013-07-06T08:46:37Z</time>
      </trkpt>
      <trkpt lat="44.08969" lon="3.33228">
        <ele>893.68</ele>
        <time>2013-07-06T08:46:38Z</time>
      </trkpt>
      <trkpt lat="44.08969" lon="3.33224">
        <ele>893.68</ele>
        <time>2013-07-06T08:46:39Z</time>
      </trkpt>
      <trkpt lat="44.08969" lon="3.33221">
        <ele>893.68</ele>
        <time>2013-07-06T08:46:40Z</time>
      </trkpt>
      <trkpt lat="44.0897" lon="3.33217">
        <ele>893.68</ele>
        <time>2013-07-06T08:46:41Z</time>
      </trkpt>
      <trkpt lat="44.0897" lon="3.33213">
        <ele>893.68</ele>
        <time>2013-07-06T08:46:42Z</time>
      </trkpt>
      <trkpt lat="44.08971" lon="3.33209">
        <ele>893.2</ele>
        <time>2013-07-06T08:46:43Z</time>
      </trkpt>
      <trkpt lat="44.08972" lon="3.33205">
        <ele>893.2</ele>
        <time>2013-07-06T08:46:44Z</time>
      </trkpt>
      <trkpt lat="44.08972" lon="3.332">
        <ele>892.72</ele>
        <time>2013-07-06T08:46:45Z</time>
      </trkpt>
      <trkpt lat="44.08972" lon="3.33195">
        <ele>892.24</ele>
        <time>2013-07-06T08:46:46Z</time>
      </trkpt>
      <trkpt lat="44.08973" lon="3.33189">
        <ele>892.24</ele>
        <time>2013-07-06T08:46:47Z</time>
      </trkpt>
      <trkpt lat="44.08974" lon="3.33184">
        <ele>892.24</ele>
        <time>2013-07-06T08:46:48Z</time>
      </trkpt>
      <trkpt lat="44.08975" lon="3.33159">
        <ele>891.76</ele>
        <time>2013-07-06T08:46:53Z</time>
      </trkpt>
      <trkpt lat="44.08982" lon="3.33115">
        <ele>888.4</ele>
        <time>2013-07-06T08:47:04Z</time>
      </trkpt>
      <trkpt lat="44.08982" lon="3.3311">
        <ele>888.4</ele>
        <time>2013-07-06T08:47:05Z</time>
      </trkpt>
      <trkpt lat="44.08981" lon="3.33107">
        <ele>888.4</ele>
        <time>2013-07-06T08:47:06Z</time>
      </trkpt>
      <trkpt lat="44.0898" lon="3.33103">
        <ele>887.91</ele>
        <time>2013-07-06T08:47:07Z</time>
      </trkpt>
      <trkpt lat="44.0898" lon="3.331">
        <ele>887.91</ele>
        <time>2013-07-06T08:47:08Z</time>
      </trkpt>
      <trkpt lat="44.08979" lon="3.33097">
        <ele>887.91</ele>
        <time>2013-07-06T08:47:09Z</time>
      </trkpt>
      <trkpt lat="44.08978" lon="3.33094">
        <ele>887.91</ele>
        <time>2013-07-06T08:47:10Z</time>
      </trkpt>
      <trkpt lat="44.08978" lon="3.33092">
        <ele>887.43</ele>
        <time>2013-07-06T08:47:11Z</time>
      </trkpt>
      <trkpt lat="44.08976" lon="3.33076">
        <ele>885.03</ele>
        <time>2013-07-06T08:47:16Z</time>
      </trkpt>
      <trkpt lat="44.08975" lon="3.33073">
        <ele>884.55</ele>
        <time>2013-07-06T08:47:17Z</time>
      </trkpt>
      <trkpt lat="44.08975" lon="3.3307">
        <ele>884.07</ele>
        <time>2013-07-06T08:47:18Z</time>
      </trkpt>
      <trkpt lat="44.08975" lon="3.33066">
        <ele>883.59</ele>
        <time>2013-07-06T08:47:19Z</time>
      </trkpt>
      <trkpt lat="44.08975" lon="3.33064">
        <ele>883.11</ele>
        <time>2013-07-06T08:47:20Z</time>
      </trkpt>
      <trkpt lat="44.08974" lon="3.33061">
        <ele>882.63</ele>
        <time>2013-07-06T08:47:21Z</time>
      </trkpt>
      <trkpt lat="44.08974" lon="3.33058">
        <ele>882.63</ele>
        <time>2013-07-06T08:47:22Z</time>
      </trkpt>
      <trkpt lat="44.08973" lon="3.33055">
        <ele>881.19</ele>
        <time>2013-07-06T08:47:23Z</time>
      </trkpt>
      <trkpt lat="44.08972" lon="3.33052">
        <ele>881.19</ele>
        <time>2013-07-06T08:47:24Z</time>
      </trkpt>
      <trkpt lat="44.08972" lon="3.33049">
        <ele>880.71</ele>
        <time>2013-07-06T08:47:25Z</time>
      </trkpt>
      <trkpt lat="44.08971" lon="3.33046">
        <ele>880.22</ele>
        <time>2013-07-06T08:47:26Z</time>
      </trkpt>
      <trkpt lat="44.0897" lon="3.33042">
        <ele>879.74</ele>
        <time>2013-07-06T08:47:27Z</time>
      </trkpt>
      <trkpt lat="44.0897" lon="3.33039">
        <ele>878.78</ele>
        <time>2013-07-06T08:47:28Z</time>
      </trkpt>
      <trkpt lat="44.0897" lon="3.33036">
        <ele>878.3</ele>
        <time>2013-07-06T08:47:29Z</time>
      </trkpt>
      <trkpt lat="44.0897" lon="3.33033">
        <ele>877.82</ele>
        <time>2013-07-06T08:47:30Z</time>
      </trkpt>
      <trkpt lat="44.0897" lon="3.33031">
        <ele>877.34</ele>
        <time>2013-07-06T08:47:41Z</time>
      </trkpt>
      <trkpt lat="44.08971" lon="3.33027">
        <ele>876.86</ele>
        <time>2013-07-06T08:47:43Z</time>
      </trkpt>
      <trkpt lat="44.08971" lon="3.33024">
        <ele>875.9</ele>
        <time>2013-07-06T08:47:44Z</time>
      </trkpt>
      <trkpt lat="44.0897" lon="3.33021">
        <ele>875.42</ele>
        <time>2013-07-06T08:47:45Z</time>
      </trkpt>
      <trkpt lat="44.0897" lon="3.33017">
        <ele>875.42</ele>
        <time>2013-07-06T08:47:46Z</time>
      </trkpt>
      <trkpt lat="44.08968" lon="3.33011">
        <ele>873.98</ele>
        <time>2013-07-06T08:47:48Z</time>
      </trkpt>
      <trkpt lat="44.08969" lon="3.33008">
        <ele>873.5</ele>
        <time>2013-07-06T08:47:49Z</time>
      </trkpt>
      <trkpt lat="44.08969" lon="3.33004">
        <ele>873.01</ele>
        <time>2013-07-06T08:47:50Z</time>
      </trkpt>
      <trkpt lat="44.08969" lon="3.32995">
        <ele>871.57</ele>
        <time>2013-07-06T08:47:52Z</time>
      </trkpt>
      <trkpt lat="44.08968" lon="3.32991">
        <ele>871.09</ele>
        <time>2013-07-06T08:47:53Z</time>
      </trkpt>
      <trkpt lat="44.08967" lon="3.32987">
        <ele>870.61</ele>
        <time>2013-07-06T08:47:54Z</time>
      </trkpt>
      <trkpt lat="44.08967" lon="3.32983">
        <ele>870.13</ele>
        <time>2013-07-06T08:47:55Z</time>
      </trkpt>
      <trkpt lat="44.08966" lon="3.3298">
        <ele>869.65</ele>
        <time>2013-07-06T08:47:56Z</time>
      </trkpt>
      <trkpt lat="44.08966" lon="3.32978">
        <ele>869.17</ele>
        <time>2013-07-06T08:47:57Z</time>
      </trkpt>
      <trkpt lat="44.08965" lon="3.32978">
        <ele>868.69</ele>
        <time>2013-07-06T08:48:09Z</time>
      </trkpt>
      <trkpt lat="44.08966" lon="3.32977">
        <ele>868.69</ele>
        <time>2013-07-06T08:48:15Z</time>
      </trkpt>
      <trkpt lat="44.08966" lon="3.32974">
        <ele>868.69</ele>
        <time>2013-07-06T08:48:16Z</time>
      </trkpt>
      <trkpt lat="44.08967" lon="3.3297">
        <ele>867.73</ele>
        <time>2013-07-06T08:48:17Z</time>
      </trkpt>
      <trkpt lat="44.08968" lon="3.32965">
        <ele>866.29</ele>
        <time>2013-07-06T08:48:18Z</time>
      </trkpt>
      <trkpt lat="44.08968" lon="3.3296">
        <ele>865.8</ele>
        <time>2013-07-06T08:48:19Z</time>
      </trkpt>
      <trkpt lat="44.08968" lon="3.32954">
        <ele>864.84</ele>
        <time>2013-07-06T08:48:20Z</time>
      </trkpt>
      <trkpt lat="44.08968" lon="3.32949">
        <ele>863.88</ele>
        <time>2013-07-06T08:48:21Z</time>
      </trkpt>
      <trkpt lat="44.08967" lon="3.32933">
        <ele>861.96</ele>
        <time>2013-07-06T08:48:24Z</time>
      </trkpt>
      <trkpt lat="44.08963" lon="3.32906">
        <ele>858.59</ele>
        <time>2013-07-06T08:48:31Z</time>
      </trkpt>
      <trkpt lat="44.08959" lon="3.32892">
        <ele>857.63</ele>
        <time>2013-07-06T08:48:35Z</time>
      </trkpt>
      <trkpt lat="44.08959" lon="3.32889">
        <ele>857.63</ele>
        <time>2013-07-06T08:48:36Z</time>
      </trkpt>
      <trkpt lat="44.0896" lon="3.32886">
        <ele>857.15</ele>
        <time>2013-07-06T08:48:37Z</time>
      </trkpt>
      <trkpt lat="44.08959" lon="3.32883">
        <ele>857.15</ele>
        <time>2013-07-06T08:48:38Z</time>
      </trkpt>
      <trkpt lat="44.08958" lon="3.32879">
        <ele>856.67</ele>
        <time>2013-07-06T08:48:39Z</time>
      </trkpt>
      <trkpt lat="44.08957" lon="3.32875">
        <ele>856.67</ele>
        <time>2013-07-06T08:48:40Z</time>
      </trkpt>
      <trkpt lat="44.08957" lon="3.32869">
        <ele>856.19</ele>
        <time>2013-07-06T08:48:41Z</time>
      </trkpt>
      <trkpt lat="44.08957" lon="3.32863">
        <ele>854.75</ele>
        <time>2013-07-06T08:48:42Z</time>
      </trkpt>
      <trkpt lat="44.08957" lon="3.32857">
        <ele>853.79</ele>
        <time>2013-07-06T08:48:43Z</time>
      </trkpt>
      <trkpt lat="44.08956" lon="3.32851">
        <ele>852.83</ele>
        <time>2013-07-06T08:48:44Z</time>
      </trkpt>
      <trkpt lat="44.08954" lon="3.32835">
        <ele>851.38</ele>
        <time>2013-07-06T08:48:47Z</time>
      </trkpt>
      <trkpt lat="44.08955" lon="3.3283">
        <ele>850.42</ele>
        <time>2013-07-06T08:48:48Z</time>
      </trkpt>
      <trkpt lat="44.08955" lon="3.32824">
        <ele>849.46</ele>
        <time>2013-07-06T08:48:49Z</time>
      </trkpt>
      <trkpt lat="44.08955" lon="3.32817">
        <ele>848.5</ele>
        <time>2013-07-06T08:48:50Z</time>
      </trkpt>
      <trkpt lat="44.08954" lon="3.32809">
        <ele>847.54</ele>
        <time>2013-07-06T08:48:51Z</time>
      </trkpt>
      <trkpt lat="44.08954" lon="3.32793">
        <ele>846.1</ele>
        <time>2013-07-06T08:48:53Z</time>
      </trkpt>
      <trkpt lat="44.08955" lon="3.32767">
        <ele>843.69</ele>
        <time>2013-07-06T08:48:56Z</time>
      </trkpt>
      <trkpt lat="44.08954" lon="3.32742">
        <ele>841.77</ele>
        <time>2013-07-06T08:48:59Z</time>
      </trkpt>
      <trkpt lat="44.08955" lon="3.32736">
        <ele>842.25</ele>
        <time>2013-07-06T08:49:00Z</time>
      </trkpt>
      <trkpt lat="44.08955" lon="3.32732">
        <ele>842.25</ele>
        <time>2013-07-06T08:49:01Z</time>
      </trkpt>
      <trkpt lat="44.08954" lon="3.3273">
        <ele>842.25</ele>
        <time>2013-07-06T08:49:10Z</time>
      </trkpt>
      <trkpt lat="44.08954" lon="3.3273">
        <ele>842.73</ele>
        <time>2013-07-06T08:49:36Z</time>
      </trkpt>
      <trkpt lat="44.08954" lon="3.3273">
        <ele>842.73</ele>
        <time>2013-07-06T08:50:00Z</time>
      </trkpt>
      <trkpt lat="44.08954" lon="3.3273">
        <ele>842.73</ele>
        <time>2013-07-06T08:50:28Z</time>
      </trkpt>
      <trkpt lat="44.08954" lon="3.3273">
        <ele>842.73</ele>
        <time>2013-07-06T08:50:59Z</time>
      </trkpt>
      <trkpt lat="44.08954" lon="3.3273">
        <ele>842.73</ele>
        <time>2013-07-06T08:51:18Z</time>
      </trkpt>
      <trkpt lat="44.08954" lon="3.3273">
        <ele>842.73</ele>
        <time>2013-07-06T08:51:47Z</time>
      </trkpt>
      <trkpt lat="44.08954" lon="3.32727">
        <ele>842.73</ele>
        <time>2013-07-06T08:52:06Z</time>
      </trkpt>
      <trkpt lat="44.08954" lon="3.32727">
        <ele>842.73</ele>
        <time>2013-07-06T08:52:28Z</time>
      </trkpt>
      <trkpt lat="44.08954" lon="3.32727">
        <ele>842.73</ele>
        <time>2013-07-06T08:52:55Z</time>
      </trkpt>
      <trkpt lat="44.08952" lon="3.32724">
        <ele>842.73</ele>
        <time>2013-07-06T08:53:06Z</time>
      </trkpt>
      <trkpt lat="44.0895" lon="3.32724">
        <ele>842.73</ele>
        <time>2013-07-06T08:53:08Z</time>
      </trkpt>
      <trkpt lat="44.08934" lon="3.32723">
        <ele>842.25</ele>
        <time>2013-07-06T08:53:18Z</time>
      </trkpt>
      <trkpt lat="44.089" lon="3.32719">
        <ele>838.89</ele>
        <time>2013-07-06T08:53:29Z</time>
      </trkpt>
      <trkpt lat="44.08887" lon="3.32719">
        <ele>837.93</ele>
        <time>2013-07-06T08:53:32Z</time>
      </trkpt>
      <trkpt lat="44.08871" lon="3.32717">
        <ele>836</ele>
        <time>2013-07-06T08:53:35Z</time>
      </trkpt>
      <trkpt lat="44.08856" lon="3.32717">
        <ele>834.56</ele>
        <time>2013-07-06T08:53:38Z</time>
      </trkpt>
      <trkpt lat="44.08852" lon="3.32717">
        <ele>833.6</ele>
        <time>2013-07-06T08:53:39Z</time>
      </trkpt>
      <trkpt lat="44.08849" lon="3.32717">
        <ele>833.6</ele>
        <time>2013-07-06T08:53:40Z</time>
      </trkpt>
      <trkpt lat="44.0884" lon="3.32715">
        <ele>832.64</ele>
        <time>2013-07-06T08:53:49Z</time>
      </trkpt>
      <trkpt lat="44.0884" lon="3.32715">
        <ele>833.12</ele>
        <time>2013-07-06T08:54:16Z</time>
      </trkpt>
      <trkpt lat="44.0884" lon="3.32715">
        <ele>832.64</ele>
        <time>2013-07-06T08:54:43Z</time>
      </trkpt>
      <trkpt lat="44.08824" lon="3.32712">
        <ele>831.68</ele>
        <time>2013-07-06T08:54:55Z</time>
      </trkpt>
      <trkpt lat="44.08818" lon="3.32712">
        <ele>831.2</ele>
        <time>2013-07-06T08:55:06Z</time>
      </trkpt>
      <trkpt lat="44.08814" lon="3.32711">
        <ele>831.2</ele>
        <time>2013-07-06T08:55:17Z</time>
      </trkpt>
      <trkpt lat="44.08809" lon="3.32707">
        <ele>831.68</ele>
        <time>2013-07-06T08:55:29Z</time>
      </trkpt>
      <trkpt lat="44.08807" lon="3.327">
        <ele>831.2</ele>
        <time>2013-07-06T08:55:42Z</time>
      </trkpt>
      <trkpt lat="44.08808" lon="3.32698">
        <ele>831.2</ele>
        <time>2013-07-06T08:55:45Z</time>
      </trkpt>
      <trkpt lat="44.0881" lon="3.32691">
        <ele>831.68</ele>
        <time>2013-07-06T08:55:49Z</time>
      </trkpt>
      <trkpt lat="44.08824" lon="3.32671">
        <ele>834.08</ele>
        <time>2013-07-06T08:56:06Z</time>
      </trkpt>
      <trkpt lat="44.08835" lon="3.32653">
        <ele>836.96</ele>
        <time>2013-07-06T08:56:21Z</time>
      </trkpt>
      <trkpt lat="44.08841" lon="3.32644">
        <ele>838.89</ele>
        <time>2013-07-06T08:56:30Z</time>
      </trkpt>
      <trkpt lat="44.08848" lon="3.32633">
        <ele>842.25</ele>
        <time>2013-07-06T08:56:45Z</time>
      </trkpt>
      <trkpt lat="44.08855" lon="3.32623">
        <ele>845.14</ele>
        <time>2013-07-06T08:56:58Z</time>
      </trkpt>
      <trkpt lat="44.08862" lon="3.32609">
        <ele>847.54</ele>
        <time>2013-07-06T08:57:09Z</time>
      </trkpt>
      <trkpt lat="44.08869" lon="3.32597">
        <ele>849.46</ele>
        <time>2013-07-06T08:57:19Z</time>
      </trkpt>
      <trkpt lat="44.08877" lon="3.32587">
        <ele>850.42</ele>
        <time>2013-07-06T08:57:28Z</time>
      </trkpt>
      <trkpt lat="44.08884" lon="3.32574">
        <ele>851.38</ele>
        <time>2013-07-06T08:57:41Z</time>
      </trkpt>
      <trkpt lat="44.08888" lon="3.32565">
        <ele>851.87</ele>
        <time>2013-07-06T08:57:46Z</time>
      </trkpt>
      <trkpt lat="44.08897" lon="3.32543">
        <ele>851.38</ele>
        <time>2013-07-06T08:58:00Z</time>
      </trkpt>
      <trkpt lat="44.08897" lon="3.32543">
        <ele>851.38</ele>
        <time>2013-07-06T08:58:17Z</time>
      </trkpt>
      <trkpt lat="44.08897" lon="3.32543">
        <ele>851.38</ele>
        <time>2013-07-06T08:58:47Z</time>
      </trkpt>
      <trkpt lat="44.08897" lon="3.32543">
        <ele>851.38</ele>
        <time>2013-07-06T08:59:07Z</time>
      </trkpt>
      <trkpt lat="44.08896" lon="3.32544">
        <ele>851.38</ele>
        <time>2013-07-06T08:59:33Z</time>
      </trkpt>
      <trkpt lat="44.08895" lon="3.32546">
        <ele>851.87</ele>
        <time>2013-07-06T08:59:37Z</time>
      </trkpt>
      <trkpt lat="44.08897" lon="3.32549">
        <ele>852.35</ele>
        <time>2013-07-06T08:59:50Z</time>
      </trkpt>
      <trkpt lat="44.08897" lon="3.32549">
        <ele>851.87</ele>
        <time>2013-07-06T09:00:14Z</time>
      </trkpt>
      <trkpt lat="44.08897" lon="3.32549">
        <ele>851.87</ele>
        <time>2013-07-06T09:00:37Z</time>
      </trkpt>
      <trkpt lat="44.08897" lon="3.32549">
        <ele>852.35</ele>
        <time>2013-07-06T09:01:05Z</time>
      </trkpt>
      <trkpt lat="44.08897" lon="3.32549">
        <ele>852.35</ele>
        <time>2013-07-06T09:01:29Z</time>
      </trkpt>
      <trkpt lat="44.08898" lon="3.32544">
        <ele>851.87</ele>
        <time>2013-07-06T09:01:52Z</time>
      </trkpt>
      <trkpt lat="44.08909" lon="3.3251">
        <ele>848.5</ele>
        <time>2013-07-06T09:02:03Z</time>
      </trkpt>
      <trkpt lat="44.0892" lon="3.32485">
        <ele>845.14</ele>
        <time>2013-07-06T09:02:11Z</time>
      </trkpt>
      <trkpt lat="44.08929" lon="3.32458">
        <ele>842.25</ele>
        <time>2013-07-06T09:02:17Z</time>
      </trkpt>
      <trkpt lat="44.0893" lon="3.32455">
        <ele>841.77</ele>
        <time>2013-07-06T09:02:18Z</time>
      </trkpt>
      <trkpt lat="44.08937" lon="3.32437">
        <ele>837.93</ele>
        <time>2013-07-06T09:02:23Z</time>
      </trkpt>
      <trkpt lat="44.08944" lon="3.32425">
        <ele>836</ele>
        <time>2013-07-06T09:02:27Z</time>
      </trkpt>
      <trkpt lat="44.08951" lon="3.32406">
        <ele>832.16</ele>
        <time>2013-07-06T09:02:33Z</time>
      </trkpt>
      <trkpt lat="44.08957" lon="3.32388">
        <ele>828.79</ele>
        <time>2013-07-06T09:02:39Z</time>
      </trkpt>
      <trkpt lat="44.08963" lon="3.32371">
        <ele>825.43</ele>
        <time>2013-07-06T09:02:43Z</time>
      </trkpt>
      <trkpt lat="44.08968" lon="3.3236">
        <ele>822.06</ele>
        <time>2013-07-06T09:02:47Z</time>
      </trkpt>
      <trkpt lat="44.08969" lon="3.32358">
        <ele>822.06</ele>
        <time>2013-07-06T09:02:48Z</time>
      </trkpt>
      <trkpt lat="44.08969" lon="3.32355">
        <ele>821.1</ele>
        <time>2013-07-06T09:02:59Z</time>
      </trkpt>
      <trkpt lat="44.0897" lon="3.32354">
        <ele>821.1</ele>
        <time>2013-07-06T09:03:00Z</time>
      </trkpt>
      <trkpt lat="44.08971" lon="3.32348">
        <ele>820.14</ele>
        <time>2013-07-06T09:03:02Z</time>
      </trkpt>
      <trkpt lat="44.0898" lon="3.32333">
        <ele>816.3</ele>
        <time>2013-07-06T09:03:08Z</time>
      </trkpt>
      <trkpt lat="44.08985" lon="3.32323">
        <ele>812.93</ele>
        <time>2013-07-06T09:03:12Z</time>
      </trkpt>
      <trkpt lat="44.08986" lon="3.32315">
        <ele>811.01</ele>
        <time>2013-07-06T09:03:23Z</time>
      </trkpt>
      <trkpt lat="44.08989" lon="3.32309">
        <ele>809.09</ele>
        <time>2013-07-06T09:03:36Z</time>
      </trkpt>
      <trkpt lat="44.0899" lon="3.32302">
        <ele>807.64</ele>
        <time>2013-07-06T09:03:43Z</time>
      </trkpt>
      <trkpt lat="44.0899" lon="3.32298">
        <ele>806.68</ele>
        <time>2013-07-06T09:03:55Z</time>
      </trkpt>
      <trkpt lat="44.08991" lon="3.32297">
        <ele>806.68</ele>
        <time>2013-07-06T09:03:57Z</time>
      </trkpt>
      <trkpt lat="44.0899" lon="3.32286">
        <ele>803.8</ele>
        <time>2013-07-06T09:04:10Z</time>
      </trkpt>
      <trkpt lat="44.08992" lon="3.32279">
        <ele>802.36</ele>
        <time>2013-07-06T09:04:21Z</time>
      </trkpt>
      <trkpt lat="44.08992" lon="3.32277">
        <ele>800.92</ele>
        <time>2013-07-06T09:04:33Z</time>
      </trkpt>
      <trkpt lat="44.08992" lon="3.32277">
        <ele>800.44</ele>
        <time>2013-07-06T09:04:49Z</time>
      </trkpt>
      <trkpt lat="44.08993" lon="3.32277">
        <ele>799.95</ele>
        <time>2013-07-06T09:05:02Z</time>
      </trkpt>
      <trkpt lat="44.08993" lon="3.3227">
        <ele>798.99</ele>
        <time>2013-07-06T09:05:16Z</time>
      </trkpt>
      <trkpt lat="44.08995" lon="3.32264">
        <ele>798.03</ele>
        <time>2013-07-06T09:05:25Z</time>
      </trkpt>
      <trkpt lat="44.08995" lon="3.32264">
        <ele>798.03</ele>
        <time>2013-07-06T09:05:27Z</time>
      </trkpt>
      <trkpt lat="44.08999" lon="3.32254">
        <ele>799.47</ele>
        <time>2013-07-06T09:05:37Z</time>
      </trkpt>
      <trkpt lat="44.09006" lon="3.32252">
        <ele>800.92</ele>
        <time>2013-07-06T09:05:45Z</time>
      </trkpt>
      <trkpt lat="44.09015" lon="3.32251">
        <ele>802.84</ele>
        <time>2013-07-06T09:05:54Z</time>
      </trkpt>
      <trkpt lat="44.09023" lon="3.32253">
        <ele>803.8</ele>
        <time>2013-07-06T09:06:04Z</time>
      </trkpt>
      <trkpt lat="44.09033" lon="3.32256">
        <ele>804.76</ele>
        <time>2013-07-06T09:06:17Z</time>
      </trkpt>
      <trkpt lat="44.09042" lon="3.32253">
        <ele>807.16</ele>
        <time>2013-07-06T09:06:32Z</time>
      </trkpt>
      <trkpt lat="44.09046" lon="3.32245">
        <ele>810.05</ele>
        <time>2013-07-06T09:06:45Z</time>
      </trkpt>
      <trkpt lat="44.0905" lon="3.32248">
        <ele>810.05</ele>
        <time>2013-07-06T09:06:58Z</time>
      </trkpt>
      <trkpt lat="44.0905" lon="3.32248">
        <ele>810.53</ele>
        <time>2013-07-06T09:07:01Z</time>
      </trkpt>
      <trkpt lat="44.09051" lon="3.32248">
        <ele>810.53</ele>
        <time>2013-07-06T09:07:03Z</time>
      </trkpt>
      <trkpt lat="44.09053" lon="3.32247">
        <ele>810.53</ele>
        <time>2013-07-06T09:07:05Z</time>
      </trkpt>
      <trkpt lat="44.09061" lon="3.32245">
        <ele>812.45</ele>
        <time>2013-07-06T09:07:17Z</time>
      </trkpt>
      <trkpt lat="44.09073" lon="3.32246">
        <ele>813.89</ele>
        <time>2013-07-06T09:07:30Z</time>
      </trkpt>
      <trkpt lat="44.09079" lon="3.32245">
        <ele>815.34</ele>
        <time>2013-07-06T09:07:42Z</time>
      </trkpt>
      <trkpt lat="44.09083" lon="3.32243">
        <ele>816.78</ele>
        <time>2013-07-06T09:07:47Z</time>
      </trkpt>
      <trkpt lat="44.09095" lon="3.32236">
        <ele>820.14</ele>
        <time>2013-07-06T09:08:02Z</time>
      </trkpt>
      <trkpt lat="44.09099" lon="3.32237">
        <ele>821.1</ele>
        <time>2013-07-06T09:08:08Z</time>
      </trkpt>
      <trkpt lat="44.09101" lon="3.32237">
        <ele>821.1</ele>
        <time>2013-07-06T09:08:10Z</time>
      </trkpt>
      <trkpt lat="44.09104" lon="3.32237">
        <ele>821.58</ele>
        <time>2013-07-06T09:08:13Z</time>
      </trkpt>
      <trkpt lat="44.09108" lon="3.32236">
        <ele>822.06</ele>
        <time>2013-07-06T09:08:17Z</time>
      </trkpt>
      <trkpt lat="44.09116" lon="3.32227">
        <ele>823.51</ele>
        <time>2013-07-06T09:08:30Z</time>
      </trkpt>
      <trkpt lat="44.0912" lon="3.32221">
        <ele>823.99</ele>
        <time>2013-07-06T09:08:44Z</time>
      </trkpt>
      <trkpt lat="44.09134" lon="3.32211">
        <ele>825.91</ele>
        <time>2013-07-06T09:09:00Z</time>
      </trkpt>
      <trkpt lat="44.09147" lon="3.32207">
        <ele>827.83</ele>
        <time>2013-07-06T09:09:13Z</time>
      </trkpt>
      <trkpt lat="44.09152" lon="3.32202">
        <ele>828.79</ele>
        <time>2013-07-06T09:09:35Z</time>
      </trkpt>
      <trkpt lat="44.09166" lon="3.32193">
        <ele>831.68</ele>
        <time>2013-07-06T09:09:50Z</time>
      </trkpt>
      <trkpt lat="44.09177" lon="3.32183">
        <ele>834.08</ele>
        <time>2013-07-06T09:10:04Z</time>
      </trkpt>
      <trkpt lat="44.09188" lon="3.32179">
        <ele>836.48</ele>
        <time>2013-07-06T09:10:17Z</time>
      </trkpt>
      <trkpt lat="44.09189" lon="3.32179">
        <ele>836.48</ele>
        <time>2013-07-06T09:10:18Z</time>
      </trkpt>
      <trkpt lat="44.09192" lon="3.32179">
        <ele>836.48</ele>
        <time>2013-07-06T09:10:21Z</time>
      </trkpt>
      <trkpt lat="44.09204" lon="3.32177">
        <ele>837.93</ele>
        <time>2013-07-06T09:10:34Z</time>
      </trkpt>
      <trkpt lat="44.09212" lon="3.32175">
        <ele>839.85</ele>
        <time>2013-07-06T09:10:43Z</time>
      </trkpt>
      <trkpt lat="44.09221" lon="3.32169">
        <ele>841.77</ele>
        <time>2013-07-06T09:10:56Z</time>
      </trkpt>
      <trkpt lat="44.09226" lon="3.32169">
        <ele>842.73</ele>
        <time>2013-07-06T09:11:17Z</time>
      </trkpt>
      <trkpt lat="44.09227" lon="3.32168">
        <ele>842.73</ele>
        <time>2013-07-06T09:11:18Z</time>
      </trkpt>
      <trkpt lat="44.09236" lon="3.32166">
        <ele>845.14</ele>
        <time>2013-07-06T09:11:28Z</time>
      </trkpt>
      <trkpt lat="44.0925" lon="3.32159">
        <ele>848.5</ele>
        <time>2013-07-06T09:11:43Z</time>
      </trkpt>
      <trkpt lat="44.09259" lon="3.32153">
        <ele>850.42</ele>
        <time>2013-07-06T09:11:56Z</time>
      </trkpt>
      <trkpt lat="44.09274" lon="3.32145">
        <ele>852.83</ele>
        <time>2013-07-06T09:12:12Z</time>
      </trkpt>
      <trkpt lat="44.09279" lon="3.32139">
        <ele>853.79</ele>
        <time>2013-07-06T09:12:18Z</time>
      </trkpt>
      <trkpt lat="44.09293" lon="3.32118">
        <ele>856.19</ele>
        <time>2013-07-06T09:12:36Z</time>
      </trkpt>
      <trkpt lat="44.09302" lon="3.32109">
        <ele>856.67</ele>
        <time>2013-07-06T09:12:45Z</time>
      </trkpt>
      <trkpt lat="44.09313" lon="3.32096">
        <ele>856.67</ele>
        <time>2013-07-06T09:12:59Z</time>
      </trkpt>
      <trkpt lat="44.09318" lon="3.32093">
        <ele>857.15</ele>
        <time>2013-07-06T09:13:14Z</time>
      </trkpt>
      <trkpt lat="44.09318" lon="3.32093">
        <ele>857.63</ele>
        <time>2013-07-06T09:13:26Z</time>
      </trkpt>
      <trkpt lat="44.09323" lon="3.32084">
        <ele>857.15</ele>
        <time>2013-07-06T09:13:33Z</time>
      </trkpt>
      <trkpt lat="44.09325" lon="3.32077">
        <ele>857.15</ele>
        <time>2013-07-06T09:13:37Z</time>
      </trkpt>
      <trkpt lat="44.09332" lon="3.32069">
        <ele>856.67</ele>
        <time>2013-07-06T09:13:52Z</time>
      </trkpt>
      <trkpt lat="44.09332" lon="3.32069">
        <ele>856.67</ele>
        <time>2013-07-06T09:14:16Z</time>
      </trkpt>
      <trkpt lat="44.09332" lon="3.32069">
        <ele>856.67</ele>
        <time>2013-07-06T09:14:38Z</time>
      </trkpt>
      <trkpt lat="44.09332" lon="3.32069">
        <ele>856.67</ele>
        <time>2013-07-06T09:14:57Z</time>
      </trkpt>
      <trkpt lat="44.09332" lon="3.32069">
        <ele>856.67</ele>
        <time>2013-07-06T09:15:01Z</time>
      </trkpt>
      <trkpt lat="44.09337" lon="3.32074">
        <ele>857.15</ele>
        <time>2013-07-06T09:15:06Z</time>
      </trkpt>
      <trkpt lat="44.09366" lon="3.3209">
        <ele>859.08</ele>
        <time>2013-07-06T09:15:21Z</time>
      </trkpt>
      <trkpt lat="44.09385" lon="3.32103">
        <ele>861</ele>
        <time>2013-07-06T09:15:32Z</time>
      </trkpt>
      <trkpt lat="44.09406" lon="3.32118">
        <ele>861.96</ele>
        <time>2013-07-06T09:15:43Z</time>
      </trkpt>
      <trkpt lat="44.09434" lon="3.32143">
        <ele>864.36</ele>
        <time>2013-07-06T09:15:58Z</time>
      </trkpt>
      <trkpt lat="44.0946" lon="3.32172">
        <ele>865.8</ele>
        <time>2013-07-06T09:16:12Z</time>
      </trkpt>
      <trkpt lat="44.09489" lon="3.32193">
        <ele>866.29</ele>
        <time>2013-07-06T09:16:24Z</time>
      </trkpt>
      <trkpt lat="44.09524" lon="3.32221">
        <ele>865.32</ele>
        <time>2013-07-06T09:16:36Z</time>
      </trkpt>
      <trkpt lat="44.09527" lon="3.32225">
        <ele>864.84</ele>
        <time>2013-07-06T09:16:37Z</time>
      </trkpt>
      <trkpt lat="44.09542" lon="3.32245">
        <ele>863.88</ele>
        <time>2013-07-06T09:16:41Z</time>
      </trkpt>
      <trkpt lat="44.09546" lon="3.3225">
        <ele>863.88</ele>
        <time>2013-07-06T09:16:42Z</time>
      </trkpt>
      <trkpt lat="44.09551" lon="3.32254">
        <ele>863.4</ele>
        <time>2013-07-06T09:16:43Z</time>
      </trkpt>
      <trkpt lat="44.09557" lon="3.32257">
        <ele>862.44</ele>
        <time>2013-07-06T09:16:44Z</time>
      </trkpt>
      <trkpt lat="44.09563" lon="3.32259">
        <ele>861.96</ele>
        <time>2013-07-06T09:16:45Z</time>
      </trkpt>
      <trkpt lat="44.09569" lon="3.32259">
        <ele>861.48</ele>
        <time>2013-07-06T09:16:46Z</time>
      </trkpt>
      <trkpt lat="44.09576" lon="3.32259">
        <ele>861</ele>
        <time>2013-07-06T09:16:47Z</time>
      </trkpt>
      <trkpt lat="44.09581" lon="3.32257">
        <ele>860.04</ele>
        <time>2013-07-06T09:16:48Z</time>
      </trkpt>
      <trkpt lat="44.09584" lon="3.32255">
        <ele>859.56</ele>
        <time>2013-07-06T09:16:49Z</time>
      </trkpt>
      <trkpt lat="44.09586" lon="3.32252">
        <ele>859.08</ele>
        <time>2013-07-06T09:16:50Z</time>
      </trkpt>
      <trkpt lat="44.09587" lon="3.3225">
        <ele>859.56</ele>
        <time>2013-07-06T09:16:51Z</time>
      </trkpt>
      <trkpt lat="44.09582" lon="3.32243">
        <ele>859.08</ele>
        <time>2013-07-06T09:16:58Z</time>
      </trkpt>
      <trkpt lat="44.09581" lon="3.32242">
        <ele>859.08</ele>
        <time>2013-07-06T09:16:59Z</time>
      </trkpt>
      <trkpt lat="44.09579" lon="3.32241">
        <ele>859.08</ele>
        <time>2013-07-06T09:17:00Z</time>
      </trkpt>
      <trkpt lat="44.09578" lon="3.32241">
        <ele>859.08</ele>
        <time>2013-07-06T09:17:01Z</time>
      </trkpt>
      <trkpt lat="44.09576" lon="3.32242">
        <ele>859.56</ele>
        <time>2013-07-06T09:17:02Z</time>
      </trkpt>
      <trkpt lat="44.09575" lon="3.32241">
        <ele>859.56</ele>
        <time>2013-07-06T09:17:03Z</time>
      </trkpt>
      <trkpt lat="44.09574" lon="3.3224">
        <ele>859.56</ele>
        <time>2013-07-06T09:17:04Z</time>
      </trkpt>
      <trkpt lat="44.09574" lon="3.32238">
        <ele>859.08</ele>
        <time>2013-07-06T09:17:05Z</time>
      </trkpt>
      <trkpt lat="44.09573" lon="3.32236">
        <ele>859.08</ele>
        <time>2013-07-06T09:17:06Z</time>
      </trkpt>
      <trkpt lat="44.09571" lon="3.32236">
        <ele>859.08</ele>
        <time>2013-07-06T09:17:07Z</time>
      </trkpt>
      <trkpt lat="44.0957" lon="3.32238">
        <ele>859.08</ele>
        <time>2013-07-06T09:17:08Z</time>
      </trkpt>
      <trkpt lat="44.09572" lon="3.32241">
        <ele>859.56</ele>
        <time>2013-07-06T09:17:15Z</time>
      </trkpt>
      <trkpt lat="44.09573" lon="3.32241">
        <ele>859.56</ele>
        <time>2013-07-06T09:17:34Z</time>
      </trkpt>
      <trkpt lat="44.09575" lon="3.3224">
        <ele>859.56</ele>
        <time>2013-07-06T09:17:35Z</time>
      </trkpt>
      <trkpt lat="44.09575" lon="3.32237">
        <ele>859.08</ele>
        <time>2013-07-06T09:17:36Z</time>
      </trkpt>
      <trkpt lat="44.09574" lon="3.32235">
        <ele>859.08</ele>
        <time>2013-07-06T09:17:37Z</time>
      </trkpt>
      <trkpt lat="44.09564" lon="3.32228">
        <ele>859.08</ele>
        <time>2013-07-06T09:17:42Z</time>
      </trkpt>
      <trkpt lat="44.0956" lon="3.32223">
        <ele>858.59</ele>
        <time>2013-07-06T09:17:48Z</time>
      </trkpt>
      <trkpt lat="44.09566" lon="3.32232">
        <ele>859.08</ele>
        <time>2013-07-06T09:17:52Z</time>
      </trkpt>
      <trkpt lat="44.09575" lon="3.32238">
        <ele>859.08</ele>
        <time>2013-07-06T09:17:56Z</time>
      </trkpt>
      <trkpt lat="44.09575" lon="3.32236">
        <ele>859.08</ele>
        <time>2013-07-06T09:18:02Z</time>
      </trkpt>
      <trkpt lat="44.09545" lon="3.32194">
        <ele>858.11</ele>
        <time>2013-07-06T09:18:17Z</time>
      </trkpt>
      <trkpt lat="44.09541" lon="3.32133">
        <ele>857.15</ele>
        <time>2013-07-06T09:18:31Z</time>
      </trkpt>
      <trkpt lat="44.09551" lon="3.32066">
        <ele>856.19</ele>
        <time>2013-07-06T09:18:44Z</time>
      </trkpt>
      <trkpt lat="44.09572" lon="3.31954">
        <ele>852.83</ele>
        <time>2013-07-06T09:19:00Z</time>
      </trkpt>
      <trkpt lat="44.09572" lon="3.31947">
        <ele>852.83</ele>
        <time>2013-07-06T09:19:01Z</time>
      </trkpt>
      <trkpt lat="44.09573" lon="3.31939">
        <ele>852.83</ele>
        <time>2013-07-06T09:19:02Z</time>
      </trkpt>
      <trkpt lat="44.09573" lon="3.31931">
        <ele>851.87</ele>
        <time>2013-07-06T09:19:03Z</time>
      </trkpt>
      <trkpt lat="44.09572" lon="3.31923">
        <ele>851.87</ele>
        <time>2013-07-06T09:19:04Z</time>
      </trkpt>
      <trkpt lat="44.09572" lon="3.31915">
        <ele>851.87</ele>
        <time>2013-07-06T09:19:05Z</time>
      </trkpt>
      <trkpt lat="44.0957" lon="3.31908">
        <ele>851.87</ele>
        <time>2013-07-06T09:19:06Z</time>
      </trkpt>
      <trkpt lat="44.09569" lon="3.319">
        <ele>851.87</ele>
        <time>2013-07-06T09:19:07Z</time>
      </trkpt>
      <trkpt lat="44.09542" lon="3.31789">
        <ele>848.98</ele>
        <time>2013-07-06T09:19:21Z</time>
      </trkpt>
      <trkpt lat="44.09532" lon="3.31741">
        <ele>847.54</ele>
        <time>2013-07-06T09:19:27Z</time>
      </trkpt>
      <trkpt lat="44.09532" lon="3.31733">
        <ele>847.06</ele>
        <time>2013-07-06T09:19:28Z</time>
      </trkpt>
      <trkpt lat="44.09532" lon="3.31717">
        <ele>847.06</ele>
        <time>2013-07-06T09:19:30Z</time>
      </trkpt>
      <trkpt lat="44.09533" lon="3.31709">
        <ele>847.06</ele>
        <time>2013-07-06T09:19:31Z</time>
      </trkpt>
      <trkpt lat="44.09547" lon="3.31639">
        <ele>845.14</ele>
        <time>2013-07-06T09:19:40Z</time>
      </trkpt>
      <trkpt lat="44.0955" lon="3.31631">
        <ele>845.14</ele>
        <time>2013-07-06T09:19:41Z</time>
      </trkpt>
      <trkpt lat="44.09553" lon="3.31624">
        <ele>844.66</ele>
        <time>2013-07-06T09:19:42Z</time>
      </trkpt>
      <trkpt lat="44.09557" lon="3.31617">
        <ele>844.66</ele>
        <time>2013-07-06T09:19:43Z</time>
      </trkpt>
      <trkpt lat="44.09562" lon="3.31611">
        <ele>844.18</ele>
        <time>2013-07-06T09:19:44Z</time>
      </trkpt>
      <trkpt lat="44.09566" lon="3.31606">
        <ele>844.18</ele>
        <time>2013-07-06T09:19:45Z</time>
      </trkpt>
      <trkpt lat="44.09572" lon="3.316">
        <ele>844.18</ele>
        <time>2013-07-06T09:19:46Z</time>
      </trkpt>
      <trkpt lat="44.09577" lon="3.31596">
        <ele>843.69</ele>
        <time>2013-07-06T09:19:47Z</time>
      </trkpt>
      <trkpt lat="44.09583" lon="3.31592">
        <ele>843.21</ele>
        <time>2013-07-06T09:19:48Z</time>
      </trkpt>
      <trkpt lat="44.09633" lon="3.31561">
        <ele>842.25</ele>
        <time>2013-07-06T09:19:56Z</time>
      </trkpt>
      <trkpt lat="44.09639" lon="3.31556">
        <ele>841.77</ele>
        <time>2013-07-06T09:19:57Z</time>
      </trkpt>
      <trkpt lat="44.09645" lon="3.31549">
        <ele>841.77</ele>
        <time>2013-07-06T09:19:58Z</time>
      </trkpt>
      <trkpt lat="44.09649" lon="3.31542">
        <ele>842.25</ele>
        <time>2013-07-06T09:19:59Z</time>
      </trkpt>
      <trkpt lat="44.09654" lon="3.31535">
        <ele>841.77</ele>
        <time>2013-07-06T09:20:00Z</time>
      </trkpt>
      <trkpt lat="44.09659" lon="3.31528">
        <ele>841.29</ele>
        <time>2013-07-06T09:20:01Z</time>
      </trkpt>
      <trkpt lat="44.09665" lon="3.31522">
        <ele>840.81</ele>
        <time>2013-07-06T09:20:02Z</time>
      </trkpt>
      <trkpt lat="44.0967" lon="3.31516">
        <ele>840.81</ele>
        <time>2013-07-06T09:20:03Z</time>
      </trkpt>
      <trkpt lat="44.09673" lon="3.31508">
        <ele>840.33</ele>
        <time>2013-07-06T09:20:04Z</time>
      </trkpt>
      <trkpt lat="44.09676" lon="3.315">
        <ele>840.33</ele>
        <time>2013-07-06T09:20:05Z</time>
      </trkpt>
      <trkpt lat="44.09678" lon="3.31495">
        <ele>840.33</ele>
        <time>2013-07-06T09:20:06Z</time>
      </trkpt>
      <trkpt lat="44.09683" lon="3.31489">
        <ele>840.81</ele>
        <time>2013-07-06T09:20:14Z</time>
      </trkpt>
      <trkpt lat="44.09681" lon="3.3149">
        <ele>840.81</ele>
        <time>2013-07-06T09:20:23Z</time>
      </trkpt>
      <trkpt lat="44.0968" lon="3.31491">
        <ele>840.81</ele>
        <time>2013-07-06T09:20:24Z</time>
      </trkpt>
      <trkpt lat="44.09679" lon="3.31493">
        <ele>840.81</ele>
        <time>2013-07-06T09:20:25Z</time>
      </trkpt>
      <trkpt lat="44.09676" lon="3.315">
        <ele>840.81</ele>
        <time>2013-07-06T09:20:28Z</time>
      </trkpt>
      <trkpt lat="44.09676" lon="3.31501">
        <ele>840.81</ele>
        <time>2013-07-06T09:20:29Z</time>
      </trkpt>
      <trkpt lat="44.09677" lon="3.31501">
        <ele>841.29</ele>
        <time>2013-07-06T09:20:40Z</time>
      </trkpt>
      <trkpt lat="44.09677" lon="3.31501">
        <ele>841.29</ele>
        <time>2013-07-06T09:21:03Z</time>
      </trkpt>
      <trkpt lat="44.09677" lon="3.31501">
        <ele>841.29</ele>
        <time>2013-07-06T09:21:30Z</time>
      </trkpt>
      <trkpt lat="44.09677" lon="3.31501">
        <ele>841.29</ele>
        <time>2013-07-06T09:21:55Z</time>
      </trkpt>
      <trkpt lat="44.09677" lon="3.31501">
        <ele>841.29</ele>
        <time>2013-07-06T09:22:22Z</time>
      </trkpt>
      <trkpt lat="44.09677" lon="3.31501">
        <ele>841.29</ele>
        <time>2013-07-06T09:22:51Z</time>
      </trkpt>
      <trkpt lat="44.09677" lon="3.31501">
        <ele>841.29</ele>
        <time>2013-07-06T09:23:17Z</time>
      </trkpt>
      <trkpt lat="44.09677" lon="3.31501">
        <ele>841.29</ele>
        <time>2013-07-06T09:23:43Z</time>
      </trkpt>
      <trkpt lat="44.09677" lon="3.31501">
        <ele>841.29</ele>
        <time>2013-07-06T09:24:05Z</time>
      </trkpt>
      <trkpt lat="44.09677" lon="3.315">
        <ele>841.29</ele>
        <time>2013-07-06T09:24:15Z</time>
      </trkpt>
      <trkpt lat="44.09677" lon="3.31498">
        <ele>841.29</ele>
        <time>2013-07-06T09:24:16Z</time>
      </trkpt>
      <trkpt lat="44.09678" lon="3.31496">
        <ele>841.29</ele>
        <time>2013-07-06T09:24:17Z</time>
      </trkpt>
      <trkpt lat="44.0968" lon="3.31492">
        <ele>841.29</ele>
        <time>2013-07-06T09:24:19Z</time>
      </trkpt>
      <trkpt lat="44.09681" lon="3.31489">
        <ele>840.81</ele>
        <time>2013-07-06T09:24:20Z</time>
      </trkpt>
      <trkpt lat="44.09682" lon="3.31486">
        <ele>840.81</ele>
        <time>2013-07-06T09:24:21Z</time>
      </trkpt>
      <trkpt lat="44.09684" lon="3.31483">
        <ele>840.81</ele>
        <time>2013-07-06T09:24:22Z</time>
      </trkpt>
      <trkpt lat="44.09686" lon="3.3148">
        <ele>840.33</ele>
        <time>2013-07-06T09:24:23Z</time>
      </trkpt>
      <trkpt lat="44.09697" lon="3.31452">
        <ele>839.85</ele>
        <time>2013-07-06T09:24:29Z</time>
      </trkpt>
      <trkpt lat="44.09698" lon="3.31446">
        <ele>839.85</ele>
        <time>2013-07-06T09:24:30Z</time>
      </trkpt>
      <trkpt lat="44.09698" lon="3.3144">
        <ele>839.37</ele>
        <time>2013-07-06T09:24:31Z</time>
      </trkpt>
      <trkpt lat="44.09698" lon="3.31434">
        <ele>839.37</ele>
        <time>2013-07-06T09:24:32Z</time>
      </trkpt>
      <trkpt lat="44.09697" lon="3.31428">
        <ele>839.37</ele>
        <time>2013-07-06T09:24:33Z</time>
      </trkpt>
      <trkpt lat="44.09696" lon="3.31422">
        <ele>839.37</ele>
        <time>2013-07-06T09:24:34Z</time>
      </trkpt>
      <trkpt lat="44.09688" lon="3.31388">
        <ele>838.89</ele>
        <time>2013-07-06T09:24:40Z</time>
      </trkpt>
      <trkpt lat="44.09677" lon="3.31364">
        <ele>837.93</ele>
        <time>2013-07-06T09:24:44Z</time>
      </trkpt>
      <trkpt lat="44.09675" lon="3.31358">
        <ele>837.45</ele>
        <time>2013-07-06T09:24:45Z</time>
      </trkpt>
      <trkpt lat="44.09673" lon="3.3135">
        <ele>837.45</ele>
        <time>2013-07-06T09:24:46Z</time>
      </trkpt>
      <trkpt lat="44.09673" lon="3.31343">
        <ele>837.45</ele>
        <time>2013-07-06T09:24:47Z</time>
      </trkpt>
      <trkpt lat="44.09673" lon="3.31337">
        <ele>837.93</ele>
        <time>2013-07-06T09:24:48Z</time>
      </trkpt>
      <trkpt lat="44.09675" lon="3.31299">
        <ele>840.81</ele>
        <time>2013-07-06T09:24:58Z</time>
      </trkpt>
      <trkpt lat="44.09678" lon="3.31277">
        <ele>842.73</ele>
        <time>2013-07-06T09:25:03Z</time>
      </trkpt>
      <trkpt lat="44.09681" lon="3.31246">
        <ele>845.62</ele>
        <time>2013-07-06T09:25:11Z</time>
      </trkpt>
      <trkpt lat="44.09678" lon="3.3118">
        <ele>848.98</ele>
        <time>2013-07-06T09:25:27Z</time>
      </trkpt>
      <trkpt lat="44.09678" lon="3.31121">
        <ele>850.9</ele>
        <time>2013-07-06T09:25:43Z</time>
      </trkpt>
      <trkpt lat="44.09685" lon="3.31086">
        <ele>850.9</ele>
        <time>2013-07-06T09:25:55Z</time>
      </trkpt>
      <trkpt lat="44.09694" lon="3.31037">
        <ele>849.46</ele>
        <time>2013-07-06T09:26:08Z</time>
      </trkpt>
      <trkpt lat="44.09703" lon="3.30977">
        <ele>846.1</ele>
        <time>2013-07-06T09:26:18Z</time>
      </trkpt>
      <trkpt lat="44.09708" lon="3.30948">
        <ele>845.14</ele>
        <time>2013-07-06T09:26:22Z</time>
      </trkpt>
      <trkpt lat="44.09708" lon="3.3094">
        <ele>845.14</ele>
        <time>2013-07-06T09:26:23Z</time>
      </trkpt>
      <trkpt lat="44.09707" lon="3.30932">
        <ele>844.66</ele>
        <time>2013-07-06T09:26:24Z</time>
      </trkpt>
      <trkpt lat="44.09705" lon="3.30924">
        <ele>844.18</ele>
        <time>2013-07-06T09:26:25Z</time>
      </trkpt>
      <trkpt lat="44.09703" lon="3.30917">
        <ele>844.18</ele>
        <time>2013-07-06T09:26:26Z</time>
      </trkpt>
      <trkpt lat="44.09677" lon="3.30834">
        <ele>845.62</ele>
        <time>2013-07-06T09:26:40Z</time>
      </trkpt>
      <trkpt lat="44.09672" lon="3.30796">
        <ele>845.14</ele>
        <time>2013-07-06T09:26:47Z</time>
      </trkpt>
      <trkpt lat="44.09671" lon="3.30791">
        <ele>844.66</ele>
        <time>2013-07-06T09:26:48Z</time>
      </trkpt>
      <trkpt lat="44.09669" lon="3.30786">
        <ele>844.66</ele>
        <time>2013-07-06T09:26:49Z</time>
      </trkpt>
      <trkpt lat="44.09667" lon="3.30781">
        <ele>844.66</ele>
        <time>2013-07-06T09:26:50Z</time>
      </trkpt>
      <trkpt lat="44.09664" lon="3.30776">
        <ele>844.18</ele>
        <time>2013-07-06T09:26:51Z</time>
      </trkpt>
      <trkpt lat="44.0966" lon="3.30766">
        <ele>844.18</ele>
        <time>2013-07-06T09:26:53Z</time>
      </trkpt>
      <trkpt lat="44.09659" lon="3.3076">
        <ele>844.18</ele>
        <time>2013-07-06T09:26:54Z</time>
      </trkpt>
      <trkpt lat="44.09655" lon="3.30744">
        <ele>843.69</ele>
        <time>2013-07-06T09:26:57Z</time>
      </trkpt>
      <trkpt lat="44.09654" lon="3.30739">
        <ele>843.21</ele>
        <time>2013-07-06T09:26:58Z</time>
      </trkpt>
      <trkpt lat="44.09653" lon="3.30736">
        <ele>843.69</ele>
        <time>2013-07-06T09:26:59Z</time>
      </trkpt>
      <trkpt lat="44.09652" lon="3.30735">
        <ele>844.66</ele>
        <time>2013-07-06T09:27:09Z</time>
      </trkpt>
      <trkpt lat="44.09652" lon="3.30736">
        <ele>844.18</ele>
        <time>2013-07-06T09:27:20Z</time>
      </trkpt>
      <trkpt lat="44.09652" lon="3.30739">
        <ele>844.18</ele>
        <time>2013-07-06T09:27:21Z</time>
      </trkpt>
      <trkpt lat="44.09653" lon="3.30741">
        <ele>844.18</ele>
        <time>2013-07-06T09:27:22Z</time>
      </trkpt>
      <trkpt lat="44.09654" lon="3.30745">
        <ele>844.18</ele>
        <time>2013-07-06T09:27:23Z</time>
      </trkpt>
      <trkpt lat="44.09655" lon="3.30748">
        <ele>844.18</ele>
        <time>2013-07-06T09:27:24Z</time>
      </trkpt>
      <trkpt lat="44.09671" lon="3.30795">
        <ele>845.14</ele>
        <time>2013-07-06T09:27:41Z</time>
      </trkpt>
      <trkpt lat="44.09674" lon="3.30808">
        <ele>846.1</ele>
        <time>2013-07-06T09:27:52Z</time>
      </trkpt>
      <trkpt lat="44.09675" lon="3.30808">
        <ele>845.62</ele>
        <time>2013-07-06T09:27:53Z</time>
      </trkpt>
      <trkpt lat="44.09676" lon="3.30807">
        <ele>845.62</ele>
        <time>2013-07-06T09:27:54Z</time>
      </trkpt>
      <trkpt lat="44.0968" lon="3.30805">
        <ele>845.62</ele>
        <time>2013-07-06T09:27:56Z</time>
      </trkpt>
      <trkpt lat="44.09682" lon="3.30804">
        <ele>845.62</ele>
        <time>2013-07-06T09:27:57Z</time>
      </trkpt>
      <trkpt lat="44.09684" lon="3.30804">
        <ele>845.62</ele>
        <time>2013-07-06T09:27:58Z</time>
      </trkpt>
      <trkpt lat="44.09686" lon="3.30805">
        <ele>845.62</ele>
        <time>2013-07-06T09:27:59Z</time>
      </trkpt>
      <trkpt lat="44.09689" lon="3.30804">
        <ele>845.62</ele>
        <time>2013-07-06T09:28:00Z</time>
      </trkpt>
      <trkpt lat="44.09733" lon="3.30806">
        <ele>845.14</ele>
        <time>2013-07-06T09:28:14Z</time>
      </trkpt>
      <trkpt lat="44.09781" lon="3.30809">
        <ele>846.58</ele>
        <time>2013-07-06T09:28:29Z</time>
      </trkpt>
      <trkpt lat="44.09842" lon="3.30827">
        <ele>847.54</ele>
        <time>2013-07-06T09:28:47Z</time>
      </trkpt>
      <trkpt lat="44.09879" lon="3.30863">
        <ele>846.1</ele>
        <time>2013-07-06T09:29:00Z</time>
      </trkpt>
      <trkpt lat="44.09898" lon="3.30876">
        <ele>844.66</ele>
        <time>2013-07-06T09:29:04Z</time>
      </trkpt>
      <trkpt lat="44.09911" lon="3.30889">
        <ele>843.21</ele>
        <time>2013-07-06T09:29:07Z</time>
      </trkpt>
      <trkpt lat="44.09939" lon="3.3091">
        <ele>840.81</ele>
        <time>2013-07-06T09:29:12Z</time>
      </trkpt>
      <trkpt lat="44.09944" lon="3.30913">
        <ele>840.81</ele>
        <time>2013-07-06T09:29:13Z</time>
      </trkpt>
      <trkpt lat="44.09985" lon="3.30929">
        <ele>837.93</ele>
        <time>2013-07-06T09:29:20Z</time>
      </trkpt>
      <trkpt lat="44.10005" lon="3.30937">
        <ele>837.45</ele>
        <time>2013-07-06T09:29:24Z</time>
      </trkpt>
      <trkpt lat="44.10022" lon="3.30939">
        <ele>836</ele>
        <time>2013-07-06T09:29:27Z</time>
      </trkpt>
      <trkpt lat="44.10034" lon="3.30942">
        <ele>835.04</ele>
        <time>2013-07-06T09:29:29Z</time>
      </trkpt>
      <trkpt lat="44.10057" lon="3.30953">
        <ele>833.12</ele>
        <time>2013-07-06T09:29:33Z</time>
      </trkpt>
      <trkpt lat="44.10061" lon="3.30955">
        <ele>832.64</ele>
        <time>2013-07-06T09:29:34Z</time>
      </trkpt>
      <trkpt lat="44.10066" lon="3.30958">
        <ele>832.16</ele>
        <time>2013-07-06T09:29:35Z</time>
      </trkpt>
      <trkpt lat="44.10071" lon="3.30963">
        <ele>831.68</ele>
        <time>2013-07-06T09:29:36Z</time>
      </trkpt>
      <trkpt lat="44.10075" lon="3.30967">
        <ele>831.2</ele>
        <time>2013-07-06T09:29:37Z</time>
      </trkpt>
      <trkpt lat="44.10086" lon="3.30974">
        <ele>829.76</ele>
        <time>2013-07-06T09:29:39Z</time>
      </trkpt>
      <trkpt lat="44.10098" lon="3.30981">
        <ele>828.79</ele>
        <time>2013-07-06T09:29:41Z</time>
      </trkpt>
      <trkpt lat="44.10111" lon="3.30988">
        <ele>827.35</ele>
        <time>2013-07-06T09:29:43Z</time>
      </trkpt>
      <trkpt lat="44.10125" lon="3.30992">
        <ele>826.39</ele>
        <time>2013-07-06T09:29:45Z</time>
      </trkpt>
      <trkpt lat="44.10152" lon="3.31019">
        <ele>825.43</ele>
        <time>2013-07-06T09:29:52Z</time>
      </trkpt>
      <trkpt lat="44.10148" lon="3.31045">
        <ele>825.43</ele>
        <time>2013-07-06T09:29:57Z</time>
      </trkpt>
      <trkpt lat="44.10144" lon="3.31065">
        <ele>825.43</ele>
        <time>2013-07-06T09:30:01Z</time>
      </trkpt>
      <trkpt lat="44.1015" lon="3.31083">
        <ele>825.43</ele>
        <time>2013-07-06T09:30:08Z</time>
      </trkpt>
      <trkpt lat="44.10151" lon="3.31085">
        <ele>824.95</ele>
        <time>2013-07-06T09:30:28Z</time>
      </trkpt>
      <trkpt lat="44.1017" lon="3.31096">
        <ele>822.55</ele>
        <time>2013-07-06T09:30:36Z</time>
      </trkpt>
      <trkpt lat="44.1018" lon="3.31092">
        <ele>823.03</ele>
        <time>2013-07-06T09:30:40Z</time>
      </trkpt>
      <trkpt lat="44.10192" lon="3.31091">
        <ele>822.55</ele>
        <time>2013-07-06T09:30:45Z</time>
      </trkpt>
      <trkpt lat="44.10201" lon="3.31092">
        <ele>822.06</ele>
        <time>2013-07-06T09:30:49Z</time>
      </trkpt>
      <trkpt lat="44.1021" lon="3.31091">
        <ele>821.58</ele>
        <time>2013-07-06T09:31:03Z</time>
      </trkpt>
      <trkpt lat="44.10219" lon="3.31093">
        <ele>822.06</ele>
        <time>2013-07-06T09:31:12Z</time>
      </trkpt>
      <trkpt lat="44.10219" lon="3.311">
        <ele>823.03</ele>
        <time>2013-07-06T09:31:19Z</time>
      </trkpt>
      <trkpt lat="44.10224" lon="3.31122">
        <ele>825.43</ele>
        <time>2013-07-06T09:31:29Z</time>
      </trkpt>
      <trkpt lat="44.10221" lon="3.31135">
        <ele>826.87</ele>
        <time>2013-07-06T09:31:35Z</time>
      </trkpt>
      <trkpt lat="44.10221" lon="3.31146">
        <ele>827.83</ele>
        <time>2013-07-06T09:31:49Z</time>
      </trkpt>
      <trkpt lat="44.10221" lon="3.31146">
        <ele>827.83</ele>
        <time>2013-07-06T09:32:10Z</time>
      </trkpt>
      <trkpt lat="44.10222" lon="3.31143">
        <ele>827.83</ele>
        <time>2013-07-06T09:32:17Z</time>
      </trkpt>
      <trkpt lat="44.10223" lon="3.31134">
        <ele>826.87</ele>
        <time>2013-07-06T09:32:21Z</time>
      </trkpt>
      <trkpt lat="44.10225" lon="3.31107">
        <ele>824.47</ele>
        <time>2013-07-06T09:32:29Z</time>
      </trkpt>
      <trkpt lat="44.10235" lon="3.31088">
        <ele>821.58</ele>
        <time>2013-07-06T09:32:34Z</time>
      </trkpt>
      <trkpt lat="44.10239" lon="3.31085">
        <ele>821.1</ele>
        <time>2013-07-06T09:32:35Z</time>
      </trkpt>
      <trkpt lat="44.10244" lon="3.31082">
        <ele>820.14</ele>
        <time>2013-07-06T09:32:36Z</time>
      </trkpt>
      <trkpt lat="44.10248" lon="3.31079">
        <ele>819.66</ele>
        <time>2013-07-06T09:32:37Z</time>
      </trkpt>
      <trkpt lat="44.10252" lon="3.31075">
        <ele>818.7</ele>
        <time>2013-07-06T09:32:38Z</time>
      </trkpt>
      <trkpt lat="44.10256" lon="3.31071">
        <ele>817.74</ele>
        <time>2013-07-06T09:32:39Z</time>
      </trkpt>
      <trkpt lat="44.1026" lon="3.31067">
        <ele>817.26</ele>
        <time>2013-07-06T09:32:40Z</time>
      </trkpt>
      <trkpt lat="44.10263" lon="3.31063">
        <ele>816.3</ele>
        <time>2013-07-06T09:32:41Z</time>
      </trkpt>
      <trkpt lat="44.10266" lon="3.3106">
        <ele>815.34</ele>
        <time>2013-07-06T09:32:42Z</time>
      </trkpt>
      <trkpt lat="44.1027" lon="3.31057">
        <ele>814.85</ele>
        <time>2013-07-06T09:32:43Z</time>
      </trkpt>
      <trkpt lat="44.10275" lon="3.31055">
        <ele>813.41</ele>
        <time>2013-07-06T09:32:44Z</time>
      </trkpt>
      <trkpt lat="44.10279" lon="3.31053">
        <ele>812.45</ele>
        <time>2013-07-06T09:32:45Z</time>
      </trkpt>
      <trkpt lat="44.10283" lon="3.31051">
        <ele>811.49</ele>
        <time>2013-07-06T09:32:46Z</time>
      </trkpt>
      <trkpt lat="44.10287" lon="3.31048">
        <ele>810.53</ele>
        <time>2013-07-06T09:32:47Z</time>
      </trkpt>
      <trkpt lat="44.10304" lon="3.31038">
        <ele>807.64</ele>
        <time>2013-07-06T09:32:51Z</time>
      </trkpt>
      <trkpt lat="44.10313" lon="3.31033">
        <ele>805.72</ele>
        <time>2013-07-06T09:32:53Z</time>
      </trkpt>
      <trkpt lat="44.1033" lon="3.3102">
        <ele>802.36</ele>
        <time>2013-07-06T09:32:57Z</time>
      </trkpt>
      <trkpt lat="44.10343" lon="3.31008">
        <ele>798.03</ele>
        <time>2013-07-06T09:33:01Z</time>
      </trkpt>
      <trkpt lat="44.1035" lon="3.30994">
        <ele>795.15</ele>
        <time>2013-07-06T09:33:06Z</time>
      </trkpt>
      <trkpt lat="44.10357" lon="3.30991">
        <ele>792.74</ele>
        <time>2013-07-06T09:33:10Z</time>
      </trkpt>
      <trkpt lat="44.1036" lon="3.30993">
        <ele>791.78</ele>
        <time>2013-07-06T09:33:12Z</time>
      </trkpt>
      <trkpt lat="44.10371" lon="3.31007">
        <ele>787.94</ele>
        <time>2013-07-06T09:33:17Z</time>
      </trkpt>
      <trkpt lat="44.10371" lon="3.3101">
        <ele>787.46</ele>
        <time>2013-07-06T09:33:18Z</time>
      </trkpt>
      <trkpt lat="44.10379" lon="3.31031">
        <ele>783.61</ele>
        <time>2013-07-06T09:33:23Z</time>
      </trkpt>
      <trkpt lat="44.10383" lon="3.31044">
        <ele>780.25</ele>
        <time>2013-07-06T09:33:26Z</time>
      </trkpt>
      <trkpt lat="44.1039" lon="3.31065">
        <ele>776.4</ele>
        <time>2013-07-06T09:33:32Z</time>
      </trkpt>
      <trkpt lat="44.10396" lon="3.31079">
        <ele>774.48</ele>
        <time>2013-07-06T09:33:35Z</time>
      </trkpt>
      <trkpt lat="44.10408" lon="3.31096">
        <ele>770.63</ele>
        <time>2013-07-06T09:33:40Z</time>
      </trkpt>
      <trkpt lat="44.10417" lon="3.31112">
        <ele>767.27</ele>
        <time>2013-07-06T09:33:45Z</time>
      </trkpt>
      <trkpt lat="44.10425" lon="3.31117">
        <ele>764.87</ele>
        <time>2013-07-06T09:33:48Z</time>
      </trkpt>
      <trkpt lat="44.10428" lon="3.31117">
        <ele>764.39</ele>
        <time>2013-07-06T09:33:49Z</time>
      </trkpt>
      <trkpt lat="44.10432" lon="3.31119">
        <ele>763.42</ele>
        <time>2013-07-06T09:33:50Z</time>
      </trkpt>
      <trkpt lat="44.10438" lon="3.31125">
        <ele>762.94</ele>
        <time>2013-07-06T09:33:52Z</time>
      </trkpt>
      <trkpt lat="44.10439" lon="3.31129">
        <ele>763.42</ele>
        <time>2013-07-06T09:33:53Z</time>
      </trkpt>
      <trkpt lat="44.10438" lon="3.31132">
        <ele>763.9</ele>
        <time>2013-07-06T09:33:54Z</time>
      </trkpt>
      <trkpt lat="44.10438" lon="3.31134">
        <ele>764.39</ele>
        <time>2013-07-06T09:33:55Z</time>
      </trkpt>
      <trkpt lat="44.10437" lon="3.31136">
        <ele>764.39</ele>
        <time>2013-07-06T09:33:56Z</time>
      </trkpt>
      <trkpt lat="44.10436" lon="3.31138">
        <ele>764.39</ele>
        <time>2013-07-06T09:33:57Z</time>
      </trkpt>
      <trkpt lat="44.10435" lon="3.3114">
        <ele>764.87</ele>
        <time>2013-07-06T09:33:58Z</time>
      </trkpt>
      <trkpt lat="44.10434" lon="3.31143">
        <ele>765.35</ele>
        <time>2013-07-06T09:34:00Z</time>
      </trkpt>
      <trkpt lat="44.10436" lon="3.31155">
        <ele>766.31</ele>
        <time>2013-07-06T09:34:13Z</time>
      </trkpt>
      <trkpt lat="44.10438" lon="3.3116">
        <ele>766.31</ele>
        <time>2013-07-06T09:34:30Z</time>
      </trkpt>
      <trkpt lat="44.10437" lon="3.31163">
        <ele>766.79</ele>
        <time>2013-07-06T09:34:36Z</time>
      </trkpt>
      <trkpt lat="44.10437" lon="3.31167">
        <ele>766.79</ele>
        <time>2013-07-06T09:34:38Z</time>
      </trkpt>
      <trkpt lat="44.10437" lon="3.31171">
        <ele>767.27</ele>
        <time>2013-07-06T09:34:40Z</time>
      </trkpt>
      <trkpt lat="44.10437" lon="3.31173">
        <ele>767.27</ele>
        <time>2013-07-06T09:34:41Z</time>
      </trkpt>
      <trkpt lat="44.10437" lon="3.31176">
        <ele>767.75</ele>
        <time>2013-07-06T09:34:42Z</time>
      </trkpt>
      <trkpt lat="44.10437" lon="3.31178">
        <ele>767.75</ele>
        <time>2013-07-06T09:34:43Z</time>
      </trkpt>
      <trkpt lat="44.10438" lon="3.31186">
        <ele>768.71</ele>
        <time>2013-07-06T09:34:47Z</time>
      </trkpt>
      <trkpt lat="44.10443" lon="3.31184">
        <ele>769.67</ele>
        <time>2013-07-06T09:34:52Z</time>
      </trkpt>
      <trkpt lat="44.10443" lon="3.31182">
        <ele>769.67</ele>
        <time>2013-07-06T09:34:54Z</time>
      </trkpt>
      <trkpt lat="44.10445" lon="3.31173">
        <ele>770.15</ele>
        <time>2013-07-06T09:34:59Z</time>
      </trkpt>
      <trkpt lat="44.10455" lon="3.31143">
        <ele>772.08</ele>
        <time>2013-07-06T09:35:12Z</time>
      </trkpt>
      <trkpt lat="44.10462" lon="3.31096">
        <ele>774.48</ele>
        <time>2013-07-06T09:35:26Z</time>
      </trkpt>
      <trkpt lat="44.10463" lon="3.31054">
        <ele>776.4</ele>
        <time>2013-07-06T09:35:38Z</time>
      </trkpt>
      <trkpt lat="44.10463" lon="3.31051">
        <ele>776.88</ele>
        <time>2013-07-06T09:35:40Z</time>
      </trkpt>
      <trkpt lat="44.10464" lon="3.31042">
        <ele>777.84</ele>
        <time>2013-07-06T09:35:43Z</time>
      </trkpt>
      <trkpt lat="44.10471" lon="3.31021">
        <ele>781.21</ele>
        <time>2013-07-06T09:35:54Z</time>
      </trkpt>
      <trkpt lat="44.10484" lon="3.31003">
        <ele>783.13</ele>
        <time>2013-07-06T09:36:07Z</time>
      </trkpt>
      <trkpt lat="44.10486" lon="3.31002">
        <ele>783.13</ele>
        <time>2013-07-06T09:36:09Z</time>
      </trkpt>
      <trkpt lat="44.1049" lon="3.30998">
        <ele>784.09</ele>
        <time>2013-07-06T09:36:21Z</time>
      </trkpt>
      <trkpt lat="44.1049" lon="3.30998">
        <ele>784.09</ele>
        <time>2013-07-06T09:36:45Z</time>
      </trkpt>
      <trkpt lat="44.1049" lon="3.30998">
        <ele>784.09</ele>
        <time>2013-07-06T09:37:15Z</time>
      </trkpt>
      <trkpt lat="44.1049" lon="3.30998">
        <ele>784.09</ele>
        <time>2013-07-06T09:37:43Z</time>
      </trkpt>
      <trkpt lat="44.1049" lon="3.30998">
        <ele>783.61</ele>
        <time>2013-07-06T09:38:08Z</time>
      </trkpt>
      <trkpt lat="44.1049" lon="3.30998">
        <ele>783.13</ele>
        <time>2013-07-06T09:38:17Z</time>
      </trkpt>
      <trkpt lat="44.10491" lon="3.30987">
        <ele>784.09</ele>
        <time>2013-07-06T09:43:56Z</time>
      </trkpt>
      <trkpt lat="44.10492" lon="3.30987">
        <ele>784.09</ele>
        <time>2013-07-06T09:43:57Z</time>
      </trkpt>
      <trkpt lat="44.10491" lon="3.3099">
        <ele>784.09</ele>
        <time>2013-07-06T09:44:11Z</time>
      </trkpt>
      <trkpt lat="44.10494" lon="3.30986">
        <ele>784.09</ele>
        <time>2013-07-06T09:44:16Z</time>
      </trkpt>
      <trkpt lat="44.10505" lon="3.30975">
        <ele>785.05</ele>
        <time>2013-07-06T09:44:27Z</time>
      </trkpt>
      <trkpt lat="44.10513" lon="3.30957">
        <ele>787.94</ele>
        <time>2013-07-06T09:44:39Z</time>
      </trkpt>
      <trkpt lat="44.10515" lon="3.30962">
        <ele>788.9</ele>
        <time>2013-07-06T09:44:47Z</time>
      </trkpt>
      <trkpt lat="44.10513" lon="3.30966">
        <ele>789.86</ele>
        <time>2013-07-06T09:44:56Z</time>
      </trkpt>
      <trkpt lat="44.10512" lon="3.30972">
        <ele>790.34</ele>
        <time>2013-07-06T09:45:03Z</time>
      </trkpt>
      <trkpt lat="44.10512" lon="3.30977">
        <ele>790.82</ele>
        <time>2013-07-06T09:45:05Z</time>
      </trkpt>
      <trkpt lat="44.1051" lon="3.30992">
        <ele>791.78</ele>
        <time>2013-07-06T09:45:10Z</time>
      </trkpt>
      <trkpt lat="44.10506" lon="3.31023">
        <ele>795.15</ele>
        <time>2013-07-06T09:45:22Z</time>
      </trkpt>
      <trkpt lat="44.10507" lon="3.31055">
        <ele>797.55</ele>
        <time>2013-07-06T09:45:35Z</time>
      </trkpt>
      <trkpt lat="44.10526" lon="3.31065">
        <ele>800.44</ele>
        <time>2013-07-06T09:45:47Z</time>
      </trkpt>
      <trkpt lat="44.10532" lon="3.31059">
        <ele>801.4</ele>
        <time>2013-07-06T09:45:52Z</time>
      </trkpt>
      <trkpt lat="44.10539" lon="3.31028">
        <ele>803.8</ele>
        <time>2013-07-06T09:46:07Z</time>
      </trkpt>
      <trkpt lat="44.10542" lon="3.3101">
        <ele>805.24</ele>
        <time>2013-07-06T09:46:15Z</time>
      </trkpt>
      <trkpt lat="44.10544" lon="3.30998">
        <ele>806.2</ele>
        <time>2013-07-06T09:46:22Z</time>
      </trkpt>
      <trkpt lat="44.10545" lon="3.30987">
        <ele>807.16</ele>
        <time>2013-07-06T09:46:28Z</time>
      </trkpt>
      <trkpt lat="44.10553" lon="3.30963">
        <ele>809.57</ele>
        <time>2013-07-06T09:46:42Z</time>
      </trkpt>
      <trkpt lat="44.10558" lon="3.30952">
        <ele>810.53</ele>
        <time>2013-07-06T09:46:49Z</time>
      </trkpt>
      <trkpt lat="44.10568" lon="3.30928">
        <ele>812.45</ele>
        <time>2013-07-06T09:47:01Z</time>
      </trkpt>
      <trkpt lat="44.10588" lon="3.30896">
        <ele>815.34</ele>
        <time>2013-07-06T09:47:16Z</time>
      </trkpt>
      <trkpt lat="44.1061" lon="3.30872">
        <ele>818.22</ele>
        <time>2013-07-06T09:47:29Z</time>
      </trkpt>
      <trkpt lat="44.10635" lon="3.30848">
        <ele>814.85</ele>
        <time>2013-07-06T09:47:43Z</time>
      </trkpt>
      <trkpt lat="44.10636" lon="3.30847">
        <ele>821.58</ele>
        <time>2013-07-06T09:47:44Z</time>
      </trkpt>
      <trkpt lat="44.1067" lon="3.30817">
        <ele>822.06</ele>
        <time>2013-07-06T09:48:01Z</time>
      </trkpt>
      <trkpt lat="44.10697" lon="3.30802">
        <ele>824.47</ele>
        <time>2013-07-06T09:48:15Z</time>
      </trkpt>
      <trkpt lat="44.10721" lon="3.30795">
        <ele>826.87</ele>
        <time>2013-07-06T09:48:27Z</time>
      </trkpt>
      <trkpt lat="44.1075" lon="3.3078">
        <ele>829.27</ele>
        <time>2013-07-06T09:48:42Z</time>
      </trkpt>
      <trkpt lat="44.10773" lon="3.30755">
        <ele>830.24</ele>
        <time>2013-07-06T09:48:54Z</time>
      </trkpt>
      <trkpt lat="44.10778" lon="3.30736">
        <ele>831.68</ele>
        <time>2013-07-06T09:49:01Z</time>
      </trkpt>
      <trkpt lat="44.10793" lon="3.30698">
        <ele>833.12</ele>
        <time>2013-07-06T09:49:15Z</time>
      </trkpt>
      <trkpt lat="44.10811" lon="3.30662">
        <ele>834.56</ele>
        <time>2013-07-06T09:49:29Z</time>
      </trkpt>
      <trkpt lat="44.10826" lon="3.30622">
        <ele>835.52</ele>
        <time>2013-07-06T09:49:44Z</time>
      </trkpt>
      <trkpt lat="44.10841" lon="3.30591">
        <ele>837.45</ele>
        <time>2013-07-06T09:49:58Z</time>
      </trkpt>
      <trkpt lat="44.10855" lon="3.30559">
        <ele>839.85</ele>
        <time>2013-07-06T09:50:14Z</time>
      </trkpt>
      <trkpt lat="44.10868" lon="3.30527">
        <ele>842.73</ele>
        <time>2013-07-06T09:50:27Z</time>
      </trkpt>
      <trkpt lat="44.10881" lon="3.30478">
        <ele>844.66</ele>
        <time>2013-07-06T09:50:43Z</time>
      </trkpt>
      <trkpt lat="44.10879" lon="3.30412">
        <ele>844.66</ele>
        <time>2013-07-06T09:50:59Z</time>
      </trkpt>
      <trkpt lat="44.10889" lon="3.30378">
        <ele>844.18</ele>
        <time>2013-07-06T09:51:09Z</time>
      </trkpt>
      <trkpt lat="44.10889" lon="3.30377">
        <ele>844.18</ele>
        <time>2013-07-06T09:51:21Z</time>
      </trkpt>
      <trkpt lat="44.10889" lon="3.30377">
        <ele>844.18</ele>
        <time>2013-07-06T09:51:47Z</time>
      </trkpt>
      <trkpt lat="44.10889" lon="3.30376">
        <ele>843.69</ele>
        <time>2013-07-06T09:52:14Z</time>
      </trkpt>
      <trkpt lat="44.1089" lon="3.30375">
        <ele>844.18</ele>
        <time>2013-07-06T09:52:17Z</time>
      </trkpt>
      <trkpt lat="44.10894" lon="3.30363">
        <ele>843.69</ele>
        <time>2013-07-06T09:52:24Z</time>
      </trkpt>
      <trkpt lat="44.10903" lon="3.30332">
        <ele>841.77</ele>
        <time>2013-07-06T09:52:31Z</time>
      </trkpt>
      <trkpt lat="44.10906" lon="3.30328">
        <ele>841.29</ele>
        <time>2013-07-06T09:52:32Z</time>
      </trkpt>
      <trkpt lat="44.10917" lon="3.30308">
        <ele>839.37</ele>
        <time>2013-07-06T09:52:36Z</time>
      </trkpt>
      <trkpt lat="44.10927" lon="3.30286">
        <ele>836</ele>
        <time>2013-07-06T09:52:42Z</time>
      </trkpt>
      <trkpt lat="44.10929" lon="3.30284">
        <ele>835.52</ele>
        <time>2013-07-06T09:52:43Z</time>
      </trkpt>
      <trkpt lat="44.10932" lon="3.30282">
        <ele>834.56</ele>
        <time>2013-07-06T09:52:44Z</time>
      </trkpt>
      <trkpt lat="44.10936" lon="3.30279">
        <ele>834.56</ele>
        <time>2013-07-06T09:52:45Z</time>
      </trkpt>
      <trkpt lat="44.10942" lon="3.30274">
        <ele>833.6</ele>
        <time>2013-07-06T09:52:47Z</time>
      </trkpt>
      <trkpt lat="44.10945" lon="3.3027">
        <ele>833.12</ele>
        <time>2013-07-06T09:52:48Z</time>
      </trkpt>
      <trkpt lat="44.10948" lon="3.30268">
        <ele>832.64</ele>
        <time>2013-07-06T09:52:49Z</time>
      </trkpt>
      <trkpt lat="44.10951" lon="3.30265">
        <ele>832.16</ele>
        <time>2013-07-06T09:52:50Z</time>
      </trkpt>
      <trkpt lat="44.10953" lon="3.30263">
        <ele>832.16</ele>
        <time>2013-07-06T09:52:51Z</time>
      </trkpt>
      <trkpt lat="44.10965" lon="3.30259">
        <ele>831.2</ele>
        <time>2013-07-06T09:52:58Z</time>
      </trkpt>
      <trkpt lat="44.10967" lon="3.3026">
        <ele>831.2</ele>
        <time>2013-07-06T09:52:59Z</time>
      </trkpt>
      <trkpt lat="44.10968" lon="3.30261">
        <ele>831.68</ele>
        <time>2013-07-06T09:53:00Z</time>
      </trkpt>
      <trkpt lat="44.10989" lon="3.30265">
        <ele>831.2</ele>
        <time>2013-07-06T09:53:13Z</time>
      </trkpt>
      <trkpt lat="44.11" lon="3.30265">
        <ele>831.2</ele>
        <time>2013-07-06T09:53:24Z</time>
      </trkpt>
      <trkpt lat="44.11004" lon="3.30266">
        <ele>831.2</ele>
        <time>2013-07-06T09:53:26Z</time>
      </trkpt>
      <trkpt lat="44.11007" lon="3.30268">
        <ele>830.72</ele>
        <time>2013-07-06T09:53:27Z</time>
      </trkpt>
      <trkpt lat="44.1101" lon="3.30269">
        <ele>830.72</ele>
        <time>2013-07-06T09:53:28Z</time>
      </trkpt>
      <trkpt lat="44.11017" lon="3.30272">
        <ele>831.2</ele>
        <time>2013-07-06T09:53:31Z</time>
      </trkpt>
      <trkpt lat="44.11019" lon="3.30273">
        <ele>831.2</ele>
        <time>2013-07-06T09:53:32Z</time>
      </trkpt>
      <trkpt lat="44.1102" lon="3.30277">
        <ele>831.2</ele>
        <time>2013-07-06T09:53:41Z</time>
      </trkpt>
      <trkpt lat="44.1102" lon="3.30277">
        <ele>831.2</ele>
        <time>2013-07-06T09:54:06Z</time>
      </trkpt>
      <trkpt lat="44.11054" lon="3.30239">
        <ele>832.64</ele>
        <time>2013-07-06T09:59:00Z</time>
      </trkpt>
      <trkpt lat="44.11055" lon="3.30221">
        <ele>833.6</ele>
        <time>2013-07-06T09:59:06Z</time>
      </trkpt>
      <trkpt lat="44.11045" lon="3.30182">
        <ele>836.48</ele>
        <time>2013-07-06T09:59:20Z</time>
      </trkpt>
      <trkpt lat="44.11042" lon="3.30152">
        <ele>838.89</ele>
        <time>2013-07-06T09:59:32Z</time>
      </trkpt>
      <trkpt lat="44.1104" lon="3.30114">
        <ele>840.81</ele>
        <time>2013-07-06T09:59:47Z</time>
      </trkpt>
      <trkpt lat="44.1104" lon="3.30077">
        <ele>844.66</ele>
        <time>2013-07-06T10:00:01Z</time>
      </trkpt>
      <trkpt lat="44.11041" lon="3.30034">
        <ele>847.54</ele>
        <time>2013-07-06T10:00:17Z</time>
      </trkpt>
      <trkpt lat="44.11049" lon="3.29997">
        <ele>849.94</ele>
        <time>2013-07-06T10:00:31Z</time>
      </trkpt>
      <trkpt lat="44.11069" lon="3.29968">
        <ele>851.87</ele>
        <time>2013-07-06T10:00:46Z</time>
      </trkpt>
      <trkpt lat="44.11079" lon="3.29958">
        <ele>852.83</ele>
        <time>2013-07-06T10:00:53Z</time>
      </trkpt>
      <trkpt lat="44.1111" lon="3.29923">
        <ele>854.27</ele>
        <time>2013-07-06T10:01:08Z</time>
      </trkpt>
      <trkpt lat="44.11152" lon="3.29877">
        <ele>853.31</ele>
        <time>2013-07-06T10:01:23Z</time>
      </trkpt>
      <trkpt lat="44.1119" lon="3.29835">
        <ele>850.42</ele>
        <time>2013-07-06T10:01:32Z</time>
      </trkpt>
      <trkpt lat="44.11212" lon="3.29812">
        <ele>848.98</ele>
        <time>2013-07-06T10:01:37Z</time>
      </trkpt>
      <trkpt lat="44.11216" lon="3.29809">
        <ele>848.98</ele>
        <time>2013-07-06T10:01:38Z</time>
      </trkpt>
      <trkpt lat="44.1122" lon="3.29807">
        <ele>848.02</ele>
        <time>2013-07-06T10:01:39Z</time>
      </trkpt>
      <trkpt lat="44.11224" lon="3.29805">
        <ele>848.98</ele>
        <time>2013-07-06T10:01:40Z</time>
      </trkpt>
      <trkpt lat="44.11226" lon="3.29802">
        <ele>848.98</ele>
        <time>2013-07-06T10:01:41Z</time>
      </trkpt>
      <trkpt lat="44.11235" lon="3.29794">
        <ele>848.5</ele>
        <time>2013-07-06T10:01:46Z</time>
      </trkpt>
      <trkpt lat="44.11236" lon="3.29793">
        <ele>848.5</ele>
        <time>2013-07-06T10:01:57Z</time>
      </trkpt>
      <trkpt lat="44.11238" lon="3.29791">
        <ele>848.5</ele>
        <time>2013-07-06T10:02:04Z</time>
      </trkpt>
      <trkpt lat="44.11239" lon="3.29791">
        <ele>848.5</ele>
        <time>2013-07-06T10:02:05Z</time>
      </trkpt>
      <trkpt lat="44.1124" lon="3.29789">
        <ele>848.5</ele>
        <time>2013-07-06T10:02:06Z</time>
      </trkpt>
      <trkpt lat="44.11241" lon="3.29788">
        <ele>848.5</ele>
        <time>2013-07-06T10:02:07Z</time>
      </trkpt>
      <trkpt lat="44.11244" lon="3.29785">
        <ele>848.02</ele>
        <time>2013-07-06T10:02:08Z</time>
      </trkpt>
      <trkpt lat="44.11261" lon="3.29749">
        <ele>845.62</ele>
        <time>2013-07-06T10:02:19Z</time>
      </trkpt>
      <trkpt lat="44.11263" lon="3.29733">
        <ele>844.18</ele>
        <time>2013-07-06T10:02:29Z</time>
      </trkpt>
      <trkpt lat="44.11265" lon="3.29729">
        <ele>843.69</ele>
        <time>2013-07-06T10:02:47Z</time>
      </trkpt>
      <trkpt lat="44.11266" lon="3.29727">
        <ele>843.69</ele>
        <time>2013-07-06T10:02:48Z</time>
      </trkpt>
      <trkpt lat="44.11272" lon="3.2972">
        <ele>842.73</ele>
        <time>2013-07-06T10:02:58Z</time>
      </trkpt>
      <trkpt lat="44.11273" lon="3.29718">
        <ele>842.73</ele>
        <time>2013-07-06T10:03:01Z</time>
      </trkpt>
      <trkpt lat="44.11274" lon="3.29715">
        <ele>842.25</ele>
        <time>2013-07-06T10:03:02Z</time>
      </trkpt>
      <trkpt lat="44.11274" lon="3.29713">
        <ele>842.25</ele>
        <time>2013-07-06T10:03:03Z</time>
      </trkpt>
      <trkpt lat="44.11279" lon="3.29702">
        <ele>841.77</ele>
        <time>2013-07-06T10:03:10Z</time>
      </trkpt>
      <trkpt lat="44.1128" lon="3.29699">
        <ele>841.77</ele>
        <time>2013-07-06T10:03:11Z</time>
      </trkpt>
      <trkpt lat="44.11282" lon="3.29696">
        <ele>841.29</ele>
        <time>2013-07-06T10:03:12Z</time>
      </trkpt>
      <trkpt lat="44.11283" lon="3.29692">
        <ele>841.29</ele>
        <time>2013-07-06T10:03:13Z</time>
      </trkpt>
      <trkpt lat="44.11284" lon="3.29687">
        <ele>841.29</ele>
        <time>2013-07-06T10:03:14Z</time>
      </trkpt>
      <trkpt lat="44.11284" lon="3.29682">
        <ele>840.81</ele>
        <time>2013-07-06T10:03:15Z</time>
      </trkpt>
      <trkpt lat="44.11283" lon="3.29678">
        <ele>840.33</ele>
        <time>2013-07-06T10:03:16Z</time>
      </trkpt>
      <trkpt lat="44.11282" lon="3.29675">
        <ele>840.33</ele>
        <time>2013-07-06T10:03:17Z</time>
      </trkpt>
      <trkpt lat="44.1128" lon="3.29671">
        <ele>839.37</ele>
        <time>2013-07-06T10:03:18Z</time>
      </trkpt>
      <trkpt lat="44.11279" lon="3.29667">
        <ele>839.37</ele>
        <time>2013-07-06T10:03:19Z</time>
      </trkpt>
      <trkpt lat="44.11278" lon="3.29662">
        <ele>838.89</ele>
        <time>2013-07-06T10:03:20Z</time>
      </trkpt>
      <trkpt lat="44.11276" lon="3.29657">
        <ele>838.89</ele>
        <time>2013-07-06T10:03:21Z</time>
      </trkpt>
      <trkpt lat="44.11274" lon="3.29652">
        <ele>838.89</ele>
        <time>2013-07-06T10:03:22Z</time>
      </trkpt>
      <trkpt lat="44.1127" lon="3.29642">
        <ele>837.93</ele>
        <time>2013-07-06T10:03:24Z</time>
      </trkpt>
      <trkpt lat="44.1127" lon="3.29637">
        <ele>837.93</ele>
        <time>2013-07-06T10:03:25Z</time>
      </trkpt>
      <trkpt lat="44.1127" lon="3.29631">
        <ele>837.93</ele>
        <time>2013-07-06T10:03:26Z</time>
      </trkpt>
      <trkpt lat="44.11276" lon="3.29602">
        <ele>836.48</ele>
        <time>2013-07-06T10:03:31Z</time>
      </trkpt>
      <trkpt lat="44.11277" lon="3.29596">
        <ele>836</ele>
        <time>2013-07-06T10:03:32Z</time>
      </trkpt>
      <trkpt lat="44.11281" lon="3.2957">
        <ele>835.52</ele>
        <time>2013-07-06T10:03:37Z</time>
      </trkpt>
      <trkpt lat="44.11282" lon="3.29564">
        <ele>835.04</ele>
        <time>2013-07-06T10:03:38Z</time>
      </trkpt>
      <trkpt lat="44.11283" lon="3.29558">
        <ele>834.56</ele>
        <time>2013-07-06T10:03:39Z</time>
      </trkpt>
      <trkpt lat="44.11289" lon="3.29522">
        <ele>832.16</ele>
        <time>2013-07-06T10:03:47Z</time>
      </trkpt>
      <trkpt lat="44.11291" lon="3.2952">
        <ele>831.68</ele>
        <time>2013-07-06T10:03:48Z</time>
      </trkpt>
      <trkpt lat="44.11292" lon="3.29518">
        <ele>831.68</ele>
        <time>2013-07-06T10:03:49Z</time>
      </trkpt>
      <trkpt lat="44.11313" lon="3.29512">
        <ele>828.79</ele>
        <time>2013-07-06T10:03:59Z</time>
      </trkpt>
      <trkpt lat="44.11317" lon="3.29513">
        <ele>828.31</ele>
        <time>2013-07-06T10:04:01Z</time>
      </trkpt>
      <trkpt lat="44.11318" lon="3.29514">
        <ele>828.31</ele>
        <time>2013-07-06T10:04:02Z</time>
      </trkpt>
      <trkpt lat="44.11339" lon="3.29527">
        <ele>824.47</ele>
        <time>2013-07-06T10:04:12Z</time>
      </trkpt>
      <trkpt lat="44.11343" lon="3.29529">
        <ele>823.99</ele>
        <time>2013-07-06T10:04:14Z</time>
      </trkpt>
      <trkpt lat="44.11345" lon="3.29531">
        <ele>823.51</ele>
        <time>2013-07-06T10:04:15Z</time>
      </trkpt>
      <trkpt lat="44.11347" lon="3.29532">
        <ele>823.03</ele>
        <time>2013-07-06T10:04:16Z</time>
      </trkpt>
      <trkpt lat="44.11365" lon="3.29546">
        <ele>820.14</ele>
        <time>2013-07-06T10:04:26Z</time>
      </trkpt>
      <trkpt lat="44.11373" lon="3.29552">
        <ele>818.7</ele>
        <time>2013-07-06T10:04:31Z</time>
      </trkpt>
      <trkpt lat="44.11374" lon="3.29554">
        <ele>818.22</ele>
        <time>2013-07-06T10:04:32Z</time>
      </trkpt>
      <trkpt lat="44.11401" lon="3.29565">
        <ele>815.34</ele>
        <time>2013-07-06T10:04:43Z</time>
      </trkpt>
      <trkpt lat="44.11403" lon="3.29565">
        <ele>814.85</ele>
        <time>2013-07-06T10:04:44Z</time>
      </trkpt>
      <trkpt lat="44.11421" lon="3.29549">
        <ele>811.97</ele>
        <time>2013-07-06T10:04:55Z</time>
      </trkpt>
      <trkpt lat="44.11448" lon="3.29538">
        <ele>810.05</ele>
        <time>2013-07-06T10:05:04Z</time>
      </trkpt>
      <trkpt lat="44.11455" lon="3.29536">
        <ele>809.57</ele>
        <time>2013-07-06T10:05:06Z</time>
      </trkpt>
      <trkpt lat="44.11479" lon="3.29514">
        <ele>809.57</ele>
        <time>2013-07-06T10:05:18Z</time>
      </trkpt>
      <trkpt lat="44.11497" lon="3.29507">
        <ele>811.49</ele>
        <time>2013-07-06T10:05:29Z</time>
      </trkpt>
      <trkpt lat="44.11513" lon="3.29513">
        <ele>812.45</ele>
        <time>2013-07-06T10:05:39Z</time>
      </trkpt>
      <trkpt lat="44.11514" lon="3.29514">
        <ele>812.45</ele>
        <time>2013-07-06T10:05:40Z</time>
      </trkpt>
      <trkpt lat="44.11516" lon="3.29514">
        <ele>812.45</ele>
        <time>2013-07-06T10:05:41Z</time>
      </trkpt>
      <trkpt lat="44.11521" lon="3.29516">
        <ele>812.93</ele>
        <time>2013-07-06T10:05:46Z</time>
      </trkpt>
      <trkpt lat="44.11522" lon="3.29517">
        <ele>812.93</ele>
        <time>2013-07-06T10:05:47Z</time>
      </trkpt>
      <trkpt lat="44.11524" lon="3.29518">
        <ele>813.41</ele>
        <time>2013-07-06T10:05:48Z</time>
      </trkpt>
      <trkpt lat="44.11525" lon="3.29518">
        <ele>813.41</ele>
        <time>2013-07-06T10:05:49Z</time>
      </trkpt>
      <trkpt lat="44.11527" lon="3.29519">
        <ele>813.41</ele>
        <time>2013-07-06T10:05:50Z</time>
      </trkpt>
      <trkpt lat="44.11528" lon="3.29519">
        <ele>813.41</ele>
        <time>2013-07-06T10:05:51Z</time>
      </trkpt>
      <trkpt lat="44.1153" lon="3.2952">
        <ele>813.41</ele>
        <time>2013-07-06T10:05:52Z</time>
      </trkpt>
      <trkpt lat="44.11558" lon="3.29528">
        <ele>815.82</ele>
        <time>2013-07-06T10:06:09Z</time>
      </trkpt>
      <trkpt lat="44.11561" lon="3.29526">
        <ele>816.78</ele>
        <time>2013-07-06T10:06:13Z</time>
      </trkpt>
      <trkpt lat="44.11558" lon="3.29519">
        <ele>816.78</ele>
        <time>2013-07-06T10:06:24Z</time>
      </trkpt>
      <trkpt lat="44.11556" lon="3.29519">
        <ele>816.3</ele>
        <time>2013-07-06T10:06:27Z</time>
      </trkpt>
      <trkpt lat="44.11555" lon="3.29518">
        <ele>816.3</ele>
        <time>2013-07-06T10:06:28Z</time>
      </trkpt>
      <trkpt lat="44.11553" lon="3.29519">
        <ele>815.82</ele>
        <time>2013-07-06T10:06:29Z</time>
      </trkpt>
      <trkpt lat="44.1155" lon="3.2952">
        <ele>815.82</ele>
        <time>2013-07-06T10:06:30Z</time>
      </trkpt>
      <trkpt lat="44.11548" lon="3.2952">
        <ele>815.82</ele>
        <time>2013-07-06T10:06:31Z</time>
      </trkpt>
      <trkpt lat="44.11545" lon="3.29521">
        <ele>815.34</ele>
        <time>2013-07-06T10:06:32Z</time>
      </trkpt>
      <trkpt lat="44.11542" lon="3.29521">
        <ele>815.34</ele>
        <time>2013-07-06T10:06:33Z</time>
      </trkpt>
      <trkpt lat="44.11539" lon="3.2952">
        <ele>814.85</ele>
        <time>2013-07-06T10:06:34Z</time>
      </trkpt>
      <trkpt lat="44.11535" lon="3.29519">
        <ele>814.37</ele>
        <time>2013-07-06T10:06:35Z</time>
      </trkpt>
      <trkpt lat="44.11531" lon="3.29517">
        <ele>813.89</ele>
        <time>2013-07-06T10:06:36Z</time>
      </trkpt>
      <trkpt lat="44.11519" lon="3.29511">
        <ele>813.41</ele>
        <time>2013-07-06T10:06:39Z</time>
      </trkpt>
      <trkpt lat="44.11516" lon="3.29507">
        <ele>813.41</ele>
        <time>2013-07-06T10:06:40Z</time>
      </trkpt>
      <trkpt lat="44.11513" lon="3.29502">
        <ele>812.93</ele>
        <time>2013-07-06T10:06:41Z</time>
      </trkpt>
      <trkpt lat="44.11511" lon="3.29497">
        <ele>812.93</ele>
        <time>2013-07-06T10:06:42Z</time>
      </trkpt>
      <trkpt lat="44.1151" lon="3.29492">
        <ele>812.93</ele>
        <time>2013-07-06T10:06:43Z</time>
      </trkpt>
      <trkpt lat="44.11508" lon="3.29488">
        <ele>812.93</ele>
        <time>2013-07-06T10:06:44Z</time>
      </trkpt>
      <trkpt lat="44.11507" lon="3.29483">
        <ele>812.93</ele>
        <time>2013-07-06T10:06:45Z</time>
      </trkpt>
      <trkpt lat="44.11496" lon="3.29412">
        <ele>810.53</ele>
        <time>2013-07-06T10:06:58Z</time>
      </trkpt>
      <trkpt lat="44.11475" lon="3.29346">
        <ele>808.61</ele>
        <time>2013-07-06T10:07:08Z</time>
      </trkpt>
      <trkpt lat="44.11454" lon="3.29265">
        <ele>807.16</ele>
        <time>2013-07-06T10:07:22Z</time>
      </trkpt>
      <trkpt lat="44.11456" lon="3.29261">
        <ele>807.64</ele>
        <time>2013-07-06T10:07:23Z</time>
      </trkpt>
      <trkpt lat="44.11458" lon="3.29259">
        <ele>807.64</ele>
        <time>2013-07-06T10:07:24Z</time>
      </trkpt>
      <trkpt lat="44.11479" lon="3.29236">
        <ele>809.57</ele>
        <time>2013-07-06T10:07:38Z</time>
      </trkpt>
      <trkpt lat="44.11487" lon="3.29227">
        <ele>810.53</ele>
        <time>2013-07-06T10:07:44Z</time>
      </trkpt>
      <trkpt lat="44.11489" lon="3.29224">
        <ele>811.01</ele>
        <time>2013-07-06T10:07:56Z</time>
      </trkpt>
      <trkpt lat="44.11489" lon="3.29225">
        <ele>810.53</ele>
        <time>2013-07-06T10:08:29Z</time>
      </trkpt>
      <trkpt lat="44.11487" lon="3.29227">
        <ele>810.53</ele>
        <time>2013-07-06T10:08:40Z</time>
      </trkpt>
      <trkpt lat="44.11486" lon="3.29229">
        <ele>810.53</ele>
        <time>2013-07-06T10:08:41Z</time>
      </trkpt>
      <trkpt lat="44.11484" lon="3.29232">
        <ele>810.05</ele>
        <time>2013-07-06T10:08:42Z</time>
      </trkpt>
      <trkpt lat="44.11483" lon="3.29235">
        <ele>810.05</ele>
        <time>2013-07-06T10:08:43Z</time>
      </trkpt>
      <trkpt lat="44.1148" lon="3.29239">
        <ele>809.57</ele>
        <time>2013-07-06T10:08:44Z</time>
      </trkpt>
      <trkpt lat="44.11477" lon="3.29243">
        <ele>809.09</ele>
        <time>2013-07-06T10:08:45Z</time>
      </trkpt>
      <trkpt lat="44.11474" lon="3.29247">
        <ele>809.09</ele>
        <time>2013-07-06T10:08:46Z</time>
      </trkpt>
      <trkpt lat="44.11463" lon="3.29257">
        <ele>808.13</ele>
        <time>2013-07-06T10:08:49Z</time>
      </trkpt>
      <trkpt lat="44.11433" lon="3.29263">
        <ele>805.72</ele>
        <time>2013-07-06T10:08:59Z</time>
      </trkpt>
      <trkpt lat="44.11431" lon="3.29261">
        <ele>805.24</ele>
        <time>2013-07-06T10:09:00Z</time>
      </trkpt>
      <trkpt lat="44.11429" lon="3.29258">
        <ele>805.24</ele>
        <time>2013-07-06T10:09:01Z</time>
      </trkpt>
      <trkpt lat="44.11427" lon="3.29254">
        <ele>804.76</ele>
        <time>2013-07-06T10:09:02Z</time>
      </trkpt>
      <trkpt lat="44.11424" lon="3.2925">
        <ele>804.28</ele>
        <time>2013-07-06T10:09:03Z</time>
      </trkpt>
      <trkpt lat="44.11421" lon="3.29246">
        <ele>803.32</ele>
        <time>2013-07-06T10:09:04Z</time>
      </trkpt>
      <trkpt lat="44.11417" lon="3.29242">
        <ele>803.32</ele>
        <time>2013-07-06T10:09:05Z</time>
      </trkpt>
      <trkpt lat="44.11413" lon="3.29237">
        <ele>802.84</ele>
        <time>2013-07-06T10:09:06Z</time>
      </trkpt>
      <trkpt lat="44.11411" lon="3.29232">
        <ele>802.36</ele>
        <time>2013-07-06T10:09:07Z</time>
      </trkpt>
      <trkpt lat="44.11384" lon="3.29151">
        <ele>799.47</ele>
        <time>2013-07-06T10:09:21Z</time>
      </trkpt>
      <trkpt lat="44.11376" lon="3.29099">
        <ele>798.03</ele>
        <time>2013-07-06T10:09:32Z</time>
      </trkpt>
      <trkpt lat="44.11376" lon="3.29094">
        <ele>797.55</ele>
        <time>2013-07-06T10:09:33Z</time>
      </trkpt>
      <trkpt lat="44.11371" lon="3.29069">
        <ele>796.59</ele>
        <time>2013-07-06T10:09:38Z</time>
      </trkpt>
      <trkpt lat="44.11365" lon="3.29048">
        <ele>795.63</ele>
        <time>2013-07-06T10:09:42Z</time>
      </trkpt>
      <trkpt lat="44.11366" lon="3.29045">
        <ele>796.11</ele>
        <time>2013-07-06T10:09:43Z</time>
      </trkpt>
      <trkpt lat="44.11367" lon="3.29042">
        <ele>796.11</ele>
        <time>2013-07-06T10:09:44Z</time>
      </trkpt>
      <trkpt lat="44.11368" lon="3.2904">
        <ele>796.59</ele>
        <time>2013-07-06T10:09:45Z</time>
      </trkpt>
      <trkpt lat="44.11369" lon="3.29038">
        <ele>797.07</ele>
        <time>2013-07-06T10:09:46Z</time>
      </trkpt>
      <trkpt lat="44.1137" lon="3.29035">
        <ele>797.07</ele>
        <time>2013-07-06T10:09:47Z</time>
      </trkpt>
      <trkpt lat="44.11371" lon="3.29033">
        <ele>797.07</ele>
        <time>2013-07-06T10:09:48Z</time>
      </trkpt>
      <trkpt lat="44.11371" lon="3.2903">
        <ele>797.07</ele>
        <time>2013-07-06T10:09:49Z</time>
      </trkpt>
      <trkpt lat="44.11371" lon="3.29027">
        <ele>797.07</ele>
        <time>2013-07-06T10:09:50Z</time>
      </trkpt>
      <trkpt lat="44.11371" lon="3.29024">
        <ele>797.07</ele>
        <time>2013-07-06T10:09:51Z</time>
      </trkpt>
      <trkpt lat="44.11371" lon="3.29021">
        <ele>797.07</ele>
        <time>2013-07-06T10:09:52Z</time>
      </trkpt>
      <trkpt lat="44.11371" lon="3.29018">
        <ele>797.07</ele>
        <time>2013-07-06T10:09:53Z</time>
      </trkpt>
      <trkpt lat="44.1137" lon="3.29014">
        <ele>797.07</ele>
        <time>2013-07-06T10:09:54Z</time>
      </trkpt>
      <trkpt lat="44.11369" lon="3.29011">
        <ele>797.07</ele>
        <time>2013-07-06T10:09:55Z</time>
      </trkpt>
      <trkpt lat="44.11367" lon="3.29008">
        <ele>796.59</ele>
        <time>2013-07-06T10:09:56Z</time>
      </trkpt>
      <trkpt lat="44.11371" lon="3.28964">
        <ele>794.19</ele>
        <time>2013-07-06T10:10:06Z</time>
      </trkpt>
      <trkpt lat="44.11371" lon="3.28948">
        <ele>794.19</ele>
        <time>2013-07-06T10:10:17Z</time>
      </trkpt>
      <trkpt lat="44.11371" lon="3.28948">
        <ele>793.71</ele>
        <time>2013-07-06T10:10:46Z</time>
      </trkpt>
      <trkpt lat="44.11371" lon="3.28948">
        <ele>793.71</ele>
        <time>2013-07-06T10:11:19Z</time>
      </trkpt>
      <trkpt lat="44.11372" lon="3.28941">
        <ele>793.71</ele>
        <time>2013-07-06T10:11:26Z</time>
      </trkpt>
      <trkpt lat="44.11373" lon="3.2894">
        <ele>793.22</ele>
        <time>2013-07-06T10:11:27Z</time>
      </trkpt>
      <trkpt lat="44.11374" lon="3.28937">
        <ele>793.22</ele>
        <time>2013-07-06T10:11:28Z</time>
      </trkpt>
      <trkpt lat="44.11376" lon="3.28935">
        <ele>792.74</ele>
        <time>2013-07-06T10:11:29Z</time>
      </trkpt>
      <trkpt lat="44.11377" lon="3.28934">
        <ele>792.26</ele>
        <time>2013-07-06T10:11:30Z</time>
      </trkpt>
      <trkpt lat="44.11379" lon="3.28932">
        <ele>791.78</ele>
        <time>2013-07-06T10:11:31Z</time>
      </trkpt>
      <trkpt lat="44.1138" lon="3.2893">
        <ele>791.3</ele>
        <time>2013-07-06T10:11:32Z</time>
      </trkpt>
      <trkpt lat="44.11381" lon="3.28928">
        <ele>790.82</ele>
        <time>2013-07-06T10:11:33Z</time>
      </trkpt>
      <trkpt lat="44.11382" lon="3.28925">
        <ele>790.82</ele>
        <time>2013-07-06T10:11:34Z</time>
      </trkpt>
      <trkpt lat="44.11382" lon="3.28924">
        <ele>790.82</ele>
        <time>2013-07-06T10:11:45Z</time>
      </trkpt>
      <trkpt lat="44.11383" lon="3.28922">
        <ele>790.34</ele>
        <time>2013-07-06T10:12:09Z</time>
      </trkpt>
      <trkpt lat="44.11382" lon="3.2892">
        <ele>789.86</ele>
        <time>2013-07-06T10:12:28Z</time>
      </trkpt>
      <trkpt lat="44.11384" lon="3.28917">
        <ele>789.86</ele>
        <time>2013-07-06T10:12:30Z</time>
      </trkpt>
      <trkpt lat="44.11385" lon="3.28915">
        <ele>789.38</ele>
        <time>2013-07-06T10:12:31Z</time>
      </trkpt>
      <trkpt lat="44.11387" lon="3.28913">
        <ele>788.9</ele>
        <time>2013-07-06T10:12:32Z</time>
      </trkpt>
      <trkpt lat="44.11388" lon="3.28911">
        <ele>787.94</ele>
        <time>2013-07-06T10:12:33Z</time>
      </trkpt>
      <trkpt lat="44.1139" lon="3.28903">
        <ele>789.86</ele>
        <time>2013-07-06T10:12:43Z</time>
      </trkpt>
      <trkpt lat="44.11394" lon="3.28901">
        <ele>791.3</ele>
        <time>2013-07-06T10:12:55Z</time>
      </trkpt>
      <trkpt lat="44.11394" lon="3.28901">
        <ele>791.3</ele>
        <time>2013-07-06T10:13:15Z</time>
      </trkpt>
      <trkpt lat="44.11394" lon="3.28892">
        <ele>791.78</ele>
        <time>2013-07-06T10:13:26Z</time>
      </trkpt>
      <trkpt lat="44.114" lon="3.28886">
        <ele>792.74</ele>
        <time>2013-07-06T10:13:37Z</time>
      </trkpt>
      <trkpt lat="44.11405" lon="3.28888">
        <ele>794.19</ele>
        <time>2013-07-06T10:13:42Z</time>
      </trkpt>
      <trkpt lat="44.11407" lon="3.2889">
        <ele>794.67</ele>
        <time>2013-07-06T10:13:45Z</time>
      </trkpt>
      <trkpt lat="44.11407" lon="3.28893">
        <ele>795.15</ele>
        <time>2013-07-06T10:13:47Z</time>
      </trkpt>
      <trkpt lat="44.11414" lon="3.2889">
        <ele>796.11</ele>
        <time>2013-07-06T10:13:54Z</time>
      </trkpt>
      <trkpt lat="44.11419" lon="3.28884">
        <ele>797.07</ele>
        <time>2013-07-06T10:14:06Z</time>
      </trkpt>
      <trkpt lat="44.11424" lon="3.28877">
        <ele>798.51</ele>
        <time>2013-07-06T10:14:12Z</time>
      </trkpt>
      <trkpt lat="44.11437" lon="3.28863">
        <ele>801.4</ele>
        <time>2013-07-06T10:14:25Z</time>
      </trkpt>
      <trkpt lat="44.11443" lon="3.28852">
        <ele>802.36</ele>
        <time>2013-07-06T10:14:37Z</time>
      </trkpt>
      <trkpt lat="44.11447" lon="3.28844">
        <ele>803.32</ele>
        <time>2013-07-06T10:14:41Z</time>
      </trkpt>
      <trkpt lat="44.1146" lon="3.28798">
        <ele>804.76</ele>
        <time>2013-07-06T10:14:56Z</time>
      </trkpt>
      <trkpt lat="44.11464" lon="3.28773">
        <ele>804.76</ele>
        <time>2013-07-06T10:15:04Z</time>
      </trkpt>
      <trkpt lat="44.11467" lon="3.28757">
        <ele>804.76</ele>
        <time>2013-07-06T10:15:09Z</time>
      </trkpt>
      <trkpt lat="44.11481" lon="3.287">
        <ele>802.36</ele>
        <time>2013-07-06T10:15:22Z</time>
      </trkpt>
      <trkpt lat="44.11495" lon="3.28679">
        <ele>800.44</ele>
        <time>2013-07-06T10:15:27Z</time>
      </trkpt>
      <trkpt lat="44.11502" lon="3.28667">
        <ele>798.99</ele>
        <time>2013-07-06T10:15:29Z</time>
      </trkpt>
      <trkpt lat="44.11511" lon="3.28644">
        <ele>795.63</ele>
        <time>2013-07-06T10:15:32Z</time>
      </trkpt>
      <trkpt lat="44.1152" lon="3.28625">
        <ele>791.78</ele>
        <time>2013-07-06T10:15:35Z</time>
      </trkpt>
      <trkpt lat="44.11523" lon="3.28619">
        <ele>791.78</ele>
        <time>2013-07-06T10:15:36Z</time>
      </trkpt>
      <trkpt lat="44.1153" lon="3.286">
        <ele>788.42</ele>
        <time>2013-07-06T10:15:41Z</time>
      </trkpt>
      <trkpt lat="44.1153" lon="3.28602">
        <ele>788.42</ele>
        <time>2013-07-06T10:15:57Z</time>
      </trkpt>
      <trkpt lat="44.1153" lon="3.28602">
        <ele>788.42</ele>
        <time>2013-07-06T10:16:23Z</time>
      </trkpt>
      <trkpt lat="44.1153" lon="3.28602">
        <ele>788.42</ele>
        <time>2013-07-06T10:16:42Z</time>
      </trkpt>
      <trkpt lat="44.1153" lon="3.28602">
        <ele>788.42</ele>
        <time>2013-07-06T10:17:14Z</time>
      </trkpt>
      <trkpt lat="44.1153" lon="3.286">
        <ele>788.42</ele>
        <time>2013-07-06T10:17:41Z</time>
      </trkpt>
      <trkpt lat="44.1154" lon="3.28568">
        <ele>785.05</ele>
        <time>2013-07-06T10:17:49Z</time>
      </trkpt>
      <trkpt lat="44.11543" lon="3.28555">
        <ele>783.61</ele>
        <time>2013-07-06T10:17:51Z</time>
      </trkpt>
      <trkpt lat="44.11547" lon="3.28538">
        <ele>782.17</ele>
        <time>2013-07-06T10:17:54Z</time>
      </trkpt>
      <trkpt lat="44.11553" lon="3.28518">
        <ele>779.29</ele>
        <time>2013-07-06T10:17:58Z</time>
      </trkpt>
      <trkpt lat="44.11566" lon="3.28499">
        <ele>775.92</ele>
        <time>2013-07-06T10:18:04Z</time>
      </trkpt>
      <trkpt lat="44.11578" lon="3.28477">
        <ele>772.08</ele>
        <time>2013-07-06T10:18:10Z</time>
      </trkpt>
      <trkpt lat="44.11591" lon="3.28456">
        <ele>769.19</ele>
        <time>2013-07-06T10:18:16Z</time>
      </trkpt>
      <trkpt lat="44.11611" lon="3.28424">
        <ele>765.35</ele>
        <time>2013-07-06T10:18:25Z</time>
      </trkpt>
      <trkpt lat="44.11612" lon="3.28421">
        <ele>764.87</ele>
        <time>2013-07-06T10:18:26Z</time>
      </trkpt>
      <trkpt lat="44.11614" lon="3.28419">
        <ele>764.87</ele>
        <time>2013-07-06T10:18:27Z</time>
      </trkpt>
      <trkpt lat="44.11639" lon="3.28384">
        <ele>762.46</ele>
        <time>2013-07-06T10:18:38Z</time>
      </trkpt>
      <trkpt lat="44.11656" lon="3.28354">
        <ele>760.06</ele>
        <time>2013-07-06T10:18:48Z</time>
      </trkpt>
      <trkpt lat="44.11661" lon="3.28345">
        <ele>759.58</ele>
        <time>2013-07-06T10:18:52Z</time>
      </trkpt>
      <trkpt lat="44.11663" lon="3.28342">
        <ele>759.1</ele>
        <time>2013-07-06T10:18:53Z</time>
      </trkpt>
      <trkpt lat="44.11676" lon="3.28323">
        <ele>756.21</ele>
        <time>2013-07-06T10:19:00Z</time>
      </trkpt>
      <trkpt lat="44.11677" lon="3.28321">
        <ele>755.73</ele>
        <time>2013-07-06T10:19:01Z</time>
      </trkpt>
      <trkpt lat="44.11679" lon="3.28317">
        <ele>754.77</ele>
        <time>2013-07-06T10:19:03Z</time>
      </trkpt>
      <trkpt lat="44.11679" lon="3.28314">
        <ele>754.77</ele>
        <time>2013-07-06T10:19:04Z</time>
      </trkpt>
      <trkpt lat="44.1168" lon="3.28311">
        <ele>754.77</ele>
        <time>2013-07-06T10:19:05Z</time>
      </trkpt>
      <trkpt lat="44.1168" lon="3.28308">
        <ele>754.29</ele>
        <time>2013-07-06T10:19:06Z</time>
      </trkpt>
      <trkpt lat="44.11681" lon="3.28305">
        <ele>753.33</ele>
        <time>2013-07-06T10:19:07Z</time>
      </trkpt>
      <trkpt lat="44.11682" lon="3.28302">
        <ele>753.33</ele>
        <time>2013-07-06T10:19:08Z</time>
      </trkpt>
      <trkpt lat="44.11683" lon="3.283">
        <ele>752.85</ele>
        <time>2013-07-06T10:19:09Z</time>
      </trkpt>
      <trkpt lat="44.11683" lon="3.28297">
        <ele>752.37</ele>
        <time>2013-07-06T10:19:10Z</time>
      </trkpt>
      <trkpt lat="44.11684" lon="3.28294">
        <ele>750.93</ele>
        <time>2013-07-06T10:19:12Z</time>
      </trkpt>
      <trkpt lat="44.11685" lon="3.28292">
        <ele>750.93</ele>
        <time>2013-07-06T10:19:13Z</time>
      </trkpt>
      <trkpt lat="44.11686" lon="3.28288">
        <ele>750.45</ele>
        <time>2013-07-06T10:19:14Z</time>
      </trkpt>
      <trkpt lat="44.11686" lon="3.28285">
        <ele>749.97</ele>
        <time>2013-07-06T10:19:15Z</time>
      </trkpt>
      <trkpt lat="44.11687" lon="3.28281">
        <ele>749.97</ele>
        <time>2013-07-06T10:19:16Z</time>
      </trkpt>
      <trkpt lat="44.11688" lon="3.28277">
        <ele>749.49</ele>
        <time>2013-07-06T10:19:17Z</time>
      </trkpt>
      <trkpt lat="44.11689" lon="3.28273">
        <ele>749</ele>
        <time>2013-07-06T10:19:18Z</time>
      </trkpt>
      <trkpt lat="44.1169" lon="3.28269">
        <ele>748.52</ele>
        <time>2013-07-06T10:19:19Z</time>
      </trkpt>
      <trkpt lat="44.11691" lon="3.28266">
        <ele>748.52</ele>
        <time>2013-07-06T10:19:20Z</time>
      </trkpt>
      <trkpt lat="44.117" lon="3.28229">
        <ele>745.64</ele>
        <time>2013-07-06T10:19:29Z</time>
      </trkpt>
      <trkpt lat="44.11705" lon="3.28211">
        <ele>744.68</ele>
        <time>2013-07-06T10:19:33Z</time>
      </trkpt>
      <trkpt lat="44.11705" lon="3.28208">
        <ele>744.2</ele>
        <time>2013-07-06T10:19:34Z</time>
      </trkpt>
      <trkpt lat="44.11706" lon="3.28203">
        <ele>744.2</ele>
        <time>2013-07-06T10:19:35Z</time>
      </trkpt>
      <trkpt lat="44.11706" lon="3.28197">
        <ele>743.72</ele>
        <time>2013-07-06T10:19:36Z</time>
      </trkpt>
      <trkpt lat="44.11704" lon="3.28191">
        <ele>743.24</ele>
        <time>2013-07-06T10:19:37Z</time>
      </trkpt>
      <trkpt lat="44.11703" lon="3.28187">
        <ele>742.76</ele>
        <time>2013-07-06T10:19:38Z</time>
      </trkpt>
      <trkpt lat="44.11697" lon="3.28147">
        <ele>740.83</ele>
        <time>2013-07-06T10:19:46Z</time>
      </trkpt>
      <trkpt lat="44.11694" lon="3.28141">
        <ele>740.83</ele>
        <time>2013-07-06T10:19:47Z</time>
      </trkpt>
      <trkpt lat="44.11691" lon="3.28137">
        <ele>739.87</ele>
        <time>2013-07-06T10:19:48Z</time>
      </trkpt>
      <trkpt lat="44.11687" lon="3.28133">
        <ele>739.39</ele>
        <time>2013-07-06T10:19:49Z</time>
      </trkpt>
      <trkpt lat="44.11683" lon="3.28129">
        <ele>738.43</ele>
        <time>2013-07-06T10:19:50Z</time>
      </trkpt>
      <trkpt lat="44.11675" lon="3.28122">
        <ele>736.99</ele>
        <time>2013-07-06T10:19:52Z</time>
      </trkpt>
      <trkpt lat="44.11672" lon="3.28118">
        <ele>736.03</ele>
        <time>2013-07-06T10:19:53Z</time>
      </trkpt>
      <trkpt lat="44.11669" lon="3.28116">
        <ele>735.55</ele>
        <time>2013-07-06T10:19:54Z</time>
      </trkpt>
      <trkpt lat="44.11662" lon="3.2811">
        <ele>734.58</ele>
        <time>2013-07-06T10:19:56Z</time>
      </trkpt>
      <trkpt lat="44.11643" lon="3.28094">
        <ele>731.22</ele>
        <time>2013-07-06T10:20:02Z</time>
      </trkpt>
      <trkpt lat="44.1163" lon="3.28083">
        <ele>727.86</ele>
        <time>2013-07-06T10:20:06Z</time>
      </trkpt>
      <trkpt lat="44.11618" lon="3.28078">
        <ele>724.49</ele>
        <time>2013-07-06T10:20:09Z</time>
      </trkpt>
      <trkpt lat="44.11613" lon="3.28076">
        <ele>724.49</ele>
        <time>2013-07-06T10:20:10Z</time>
      </trkpt>
      <trkpt lat="44.11589" lon="3.28077">
        <ele>724.49</ele>
        <time>2013-07-06T10:20:18Z</time>
      </trkpt>
      <trkpt lat="44.11566" lon="3.28067">
        <ele>725.45</ele>
        <time>2013-07-06T10:20:27Z</time>
      </trkpt>
      <trkpt lat="44.11526" lon="3.28066">
        <ele>722.09</ele>
        <time>2013-07-06T10:20:37Z</time>
      </trkpt>
      <trkpt lat="44.11523" lon="3.28065">
        <ele>722.09</ele>
        <time>2013-07-06T10:20:38Z</time>
      </trkpt>
      <trkpt lat="44.11501" lon="3.28056">
        <ele>718.72</ele>
        <time>2013-07-06T10:20:45Z</time>
      </trkpt>
      <trkpt lat="44.11484" lon="3.28033">
        <ele>715.36</ele>
        <time>2013-07-06T10:20:52Z</time>
      </trkpt>
      <trkpt lat="44.11483" lon="3.28029">
        <ele>714.88</ele>
        <time>2013-07-06T10:20:53Z</time>
      </trkpt>
      <trkpt lat="44.11474" lon="3.28005">
        <ele>711.99</ele>
        <time>2013-07-06T10:21:00Z</time>
      </trkpt>
      <trkpt lat="44.11473" lon="3.28002">
        <ele>711.51</ele>
        <time>2013-07-06T10:21:01Z</time>
      </trkpt>
      <trkpt lat="44.11467" lon="3.27988">
        <ele>710.55</ele>
        <time>2013-07-06T10:21:04Z</time>
      </trkpt>
      <trkpt lat="44.11465" lon="3.27984">
        <ele>709.59</ele>
        <time>2013-07-06T10:21:05Z</time>
      </trkpt>
      <trkpt lat="44.11462" lon="3.27981">
        <ele>709.11</ele>
        <time>2013-07-06T10:21:06Z</time>
      </trkpt>
      <trkpt lat="44.11459" lon="3.27978">
        <ele>709.11</ele>
        <time>2013-07-06T10:21:07Z</time>
      </trkpt>
      <trkpt lat="44.11456" lon="3.27976">
        <ele>708.63</ele>
        <time>2013-07-06T10:21:08Z</time>
      </trkpt>
      <trkpt lat="44.11453" lon="3.27975">
        <ele>708.15</ele>
        <time>2013-07-06T10:21:09Z</time>
      </trkpt>
      <trkpt lat="44.1145" lon="3.27974">
        <ele>707.19</ele>
        <time>2013-07-06T10:21:10Z</time>
      </trkpt>
      <trkpt lat="44.11447" lon="3.27972">
        <ele>707.19</ele>
        <time>2013-07-06T10:21:11Z</time>
      </trkpt>
      <trkpt lat="44.11429" lon="3.27968">
        <ele>705.26</ele>
        <time>2013-07-06T10:21:17Z</time>
      </trkpt>
      <trkpt lat="44.11425" lon="3.27966">
        <ele>704.78</ele>
        <time>2013-07-06T10:21:28Z</time>
      </trkpt>
      <trkpt lat="44.11424" lon="3.27966">
        <ele>704.78</ele>
        <time>2013-07-06T10:21:41Z</time>
      </trkpt>
      <trkpt lat="44.11423" lon="3.27965">
        <ele>704.78</ele>
        <time>2013-07-06T10:21:42Z</time>
      </trkpt>
      <trkpt lat="44.11421" lon="3.27964">
        <ele>704.78</ele>
        <time>2013-07-06T10:21:43Z</time>
      </trkpt>
      <trkpt lat="44.11419" lon="3.27962">
        <ele>704.3</ele>
        <time>2013-07-06T10:21:44Z</time>
      </trkpt>
      <trkpt lat="44.11417" lon="3.2796">
        <ele>704.3</ele>
        <time>2013-07-06T10:21:45Z</time>
      </trkpt>
      <trkpt lat="44.11412" lon="3.27957">
        <ele>703.82</ele>
        <time>2013-07-06T10:21:48Z</time>
      </trkpt>
      <trkpt lat="44.11411" lon="3.27956">
        <ele>703.82</ele>
        <time>2013-07-06T10:21:49Z</time>
      </trkpt>
      <trkpt lat="44.11408" lon="3.27955">
        <ele>703.34</ele>
        <time>2013-07-06T10:21:50Z</time>
      </trkpt>
      <trkpt lat="44.11406" lon="3.27954">
        <ele>703.34</ele>
        <time>2013-07-06T10:21:51Z</time>
      </trkpt>
      <trkpt lat="44.11403" lon="3.27953">
        <ele>702.86</ele>
        <time>2013-07-06T10:21:52Z</time>
      </trkpt>
      <trkpt lat="44.114" lon="3.27952">
        <ele>702.86</ele>
        <time>2013-07-06T10:21:53Z</time>
      </trkpt>
      <trkpt lat="44.11384" lon="3.27935">
        <ele>701.9</ele>
        <time>2013-07-06T10:21:58Z</time>
      </trkpt>
      <trkpt lat="44.11381" lon="3.27931">
        <ele>700.94</ele>
        <time>2013-07-06T10:21:59Z</time>
      </trkpt>
      <trkpt lat="44.11379" lon="3.27927">
        <ele>700.46</ele>
        <time>2013-07-06T10:22:00Z</time>
      </trkpt>
      <trkpt lat="44.11376" lon="3.27923">
        <ele>699.98</ele>
        <time>2013-07-06T10:22:01Z</time>
      </trkpt>
      <trkpt lat="44.11373" lon="3.27919">
        <ele>699.5</ele>
        <time>2013-07-06T10:22:02Z</time>
      </trkpt>
      <trkpt lat="44.11368" lon="3.27917">
        <ele>698.53</ele>
        <time>2013-07-06T10:22:03Z</time>
      </trkpt>
      <trkpt lat="44.11363" lon="3.27915">
        <ele>698.53</ele>
        <time>2013-07-06T10:22:04Z</time>
      </trkpt>
      <trkpt lat="44.11358" lon="3.27913">
        <ele>697.57</ele>
        <time>2013-07-06T10:22:05Z</time>
      </trkpt>
      <trkpt lat="44.11354" lon="3.2791">
        <ele>696.13</ele>
        <time>2013-07-06T10:22:06Z</time>
      </trkpt>
      <trkpt lat="44.11349" lon="3.27905">
        <ele>694.69</ele>
        <time>2013-07-06T10:22:07Z</time>
      </trkpt>
      <trkpt lat="44.11344" lon="3.279">
        <ele>693.73</ele>
        <time>2013-07-06T10:22:08Z</time>
      </trkpt>
      <trkpt lat="44.11326" lon="3.27889">
        <ele>691.33</ele>
        <time>2013-07-06T10:22:11Z</time>
      </trkpt>
      <trkpt lat="44.11321" lon="3.27886">
        <ele>690.84</ele>
        <time>2013-07-06T10:22:12Z</time>
      </trkpt>
      <trkpt lat="44.11309" lon="3.27879">
        <ele>688.92</ele>
        <time>2013-07-06T10:22:15Z</time>
      </trkpt>
      <trkpt lat="44.11303" lon="3.27875">
        <ele>687.96</ele>
        <time>2013-07-06T10:22:17Z</time>
      </trkpt>
      <trkpt lat="44.11289" lon="3.27872">
        <ele>687</ele>
        <time>2013-07-06T10:22:20Z</time>
      </trkpt>
      <trkpt lat="44.11284" lon="3.27872">
        <ele>686.52</ele>
        <time>2013-07-06T10:22:21Z</time>
      </trkpt>
      <trkpt lat="44.11279" lon="3.2787">
        <ele>686.04</ele>
        <time>2013-07-06T10:22:22Z</time>
      </trkpt>
      <trkpt lat="44.11275" lon="3.27869">
        <ele>686.04</ele>
        <time>2013-07-06T10:22:23Z</time>
      </trkpt>
      <trkpt lat="44.11273" lon="3.27868">
        <ele>686.04</ele>
        <time>2013-07-06T10:22:24Z</time>
      </trkpt>
      <trkpt lat="44.11272" lon="3.27866">
        <ele>685.56</ele>
        <time>2013-07-06T10:22:25Z</time>
      </trkpt>
      <trkpt lat="44.11272" lon="3.27865">
        <ele>684.6</ele>
        <time>2013-07-06T10:22:35Z</time>
      </trkpt>
      <trkpt lat="44.11269" lon="3.27865">
        <ele>684.6</ele>
        <time>2013-07-06T10:22:46Z</time>
      </trkpt>
      <trkpt lat="44.11267" lon="3.27864">
        <ele>684.6</ele>
        <time>2013-07-06T10:22:47Z</time>
      </trkpt>
      <trkpt lat="44.11265" lon="3.27862">
        <ele>684.12</ele>
        <time>2013-07-06T10:22:48Z</time>
      </trkpt>
      <trkpt lat="44.11262" lon="3.27859">
        <ele>683.15</ele>
        <time>2013-07-06T10:22:49Z</time>
      </trkpt>
      <trkpt lat="44.11259" lon="3.27857">
        <ele>683.15</ele>
        <time>2013-07-06T10:22:50Z</time>
      </trkpt>
      <trkpt lat="44.11256" lon="3.27855">
        <ele>682.67</ele>
        <time>2013-07-06T10:22:51Z</time>
      </trkpt>
      <trkpt lat="44.11243" lon="3.27849">
        <ele>680.27</ele>
        <time>2013-07-06T10:22:56Z</time>
      </trkpt>
      <trkpt lat="44.11237" lon="3.27847">
        <ele>678.35</ele>
        <time>2013-07-06T10:22:58Z</time>
      </trkpt>
      <trkpt lat="44.11234" lon="3.27847">
        <ele>677.39</ele>
        <time>2013-07-06T10:22:59Z</time>
      </trkpt>
      <trkpt lat="44.11231" lon="3.27846">
        <ele>676.91</ele>
        <time>2013-07-06T10:23:00Z</time>
      </trkpt>
      <trkpt lat="44.11228" lon="3.27846">
        <ele>675.94</ele>
        <time>2013-07-06T10:23:01Z</time>
      </trkpt>
      <trkpt lat="44.11225" lon="3.27846">
        <ele>675.46</ele>
        <time>2013-07-06T10:23:02Z</time>
      </trkpt>
      <trkpt lat="44.11222" lon="3.27847">
        <ele>674.5</ele>
        <time>2013-07-06T10:23:03Z</time>
      </trkpt>
      <trkpt lat="44.11218" lon="3.27849">
        <ele>674.02</ele>
        <time>2013-07-06T10:23:04Z</time>
      </trkpt>
      <trkpt lat="44.11216" lon="3.27851">
        <ele>673.54</ele>
        <time>2013-07-06T10:23:05Z</time>
      </trkpt>
      <trkpt lat="44.11204" lon="3.27856">
        <ele>672.58</ele>
        <time>2013-07-06T10:23:09Z</time>
      </trkpt>
      <trkpt lat="44.11202" lon="3.27856">
        <ele>672.1</ele>
        <time>2013-07-06T10:23:10Z</time>
      </trkpt>
      <trkpt lat="44.11199" lon="3.27856">
        <ele>671.62</ele>
        <time>2013-07-06T10:23:11Z</time>
      </trkpt>
      <trkpt lat="44.11196" lon="3.27857">
        <ele>671.14</ele>
        <time>2013-07-06T10:23:12Z</time>
      </trkpt>
      <trkpt lat="44.11193" lon="3.27858">
        <ele>671.14</ele>
        <time>2013-07-06T10:23:13Z</time>
      </trkpt>
      <trkpt lat="44.1119" lon="3.27858">
        <ele>670.18</ele>
        <time>2013-07-06T10:23:14Z</time>
      </trkpt>
      <trkpt lat="44.11166" lon="3.27846">
        <ele>666.81</ele>
        <time>2013-07-06T10:23:21Z</time>
      </trkpt>
      <trkpt lat="44.11143" lon="3.27847">
        <ele>663.93</ele>
        <time>2013-07-06T10:23:27Z</time>
      </trkpt>
      <trkpt lat="44.11131" lon="3.2785">
        <ele>662.97</ele>
        <time>2013-07-06T10:23:34Z</time>
      </trkpt>
      <trkpt lat="44.11131" lon="3.27849">
        <ele>662.49</ele>
        <time>2013-07-06T10:23:55Z</time>
      </trkpt>
      <trkpt lat="44.1113" lon="3.2785">
        <ele>662.97</ele>
        <time>2013-07-06T10:24:09Z</time>
      </trkpt>
      <trkpt lat="44.1113" lon="3.2785">
        <ele>662.97</ele>
        <time>2013-07-06T10:24:36Z</time>
      </trkpt>
      <trkpt lat="44.1113" lon="3.27851">
        <ele>662.49</ele>
        <time>2013-07-06T10:25:03Z</time>
      </trkpt>
      <trkpt lat="44.1113" lon="3.27851">
        <ele>662.97</ele>
        <time>2013-07-06T10:25:30Z</time>
      </trkpt>
      <trkpt lat="44.1113" lon="3.27851">
        <ele>662.49</ele>
        <time>2013-07-06T10:25:55Z</time>
      </trkpt>
      <trkpt lat="44.1113" lon="3.2785">
        <ele>662.97</ele>
        <time>2013-07-06T10:26:20Z</time>
      </trkpt>
      <trkpt lat="44.1113" lon="3.2785">
        <ele>662.49</ele>
        <time>2013-07-06T10:26:29Z</time>
      </trkpt>
      <trkpt lat="44.11127" lon="3.27847">
        <ele>662.01</ele>
        <time>2013-07-06T10:26:31Z</time>
      </trkpt>
      <trkpt lat="44.11124" lon="3.27845">
        <ele>661.04</ele>
        <time>2013-07-06T10:26:32Z</time>
      </trkpt>
      <trkpt lat="44.11116" lon="3.27839">
        <ele>659.12</ele>
        <time>2013-07-06T10:26:34Z</time>
      </trkpt>
      <trkpt lat="44.11108" lon="3.27833">
        <ele>658.16</ele>
        <time>2013-07-06T10:26:36Z</time>
      </trkpt>
      <trkpt lat="44.11094" lon="3.2782">
        <ele>658.16</ele>
        <time>2013-07-06T10:26:45Z</time>
      </trkpt>
      <trkpt lat="44.11095" lon="3.27818">
        <ele>658.16</ele>
        <time>2013-07-06T10:26:58Z</time>
      </trkpt>
      <trkpt lat="44.11094" lon="3.27816">
        <ele>657.68</ele>
        <time>2013-07-06T10:26:59Z</time>
      </trkpt>
      <trkpt lat="44.11093" lon="3.27811">
        <ele>657.2</ele>
        <time>2013-07-06T10:27:00Z</time>
      </trkpt>
      <trkpt lat="44.11092" lon="3.27804">
        <ele>656.24</ele>
        <time>2013-07-06T10:27:01Z</time>
      </trkpt>
      <trkpt lat="44.11092" lon="3.27796">
        <ele>655.28</ele>
        <time>2013-07-06T10:27:02Z</time>
      </trkpt>
      <trkpt lat="44.1109" lon="3.27791">
        <ele>654.8</ele>
        <time>2013-07-06T10:27:03Z</time>
      </trkpt>
      <trkpt lat="44.11088" lon="3.27787">
        <ele>654.8</ele>
        <time>2013-07-06T10:27:04Z</time>
      </trkpt>
      <trkpt lat="44.11087" lon="3.27784">
        <ele>654.8</ele>
        <time>2013-07-06T10:27:05Z</time>
      </trkpt>
      <trkpt lat="44.11086" lon="3.27783">
        <ele>655.28</ele>
        <time>2013-07-06T10:27:16Z</time>
      </trkpt>
      <trkpt lat="44.11086" lon="3.27783">
        <ele>655.28</ele>
        <time>2013-07-06T10:27:35Z</time>
      </trkpt>
      <trkpt lat="44.11086" lon="3.27784">
        <ele>654.8</ele>
        <time>2013-07-06T10:27:59Z</time>
      </trkpt>
      <trkpt lat="44.11086" lon="3.27784">
        <ele>654.8</ele>
        <time>2013-07-06T10:28:22Z</time>
      </trkpt>
      <trkpt lat="44.11086" lon="3.27784">
        <ele>654.8</ele>
        <time>2013-07-06T10:28:44Z</time>
      </trkpt>
      <trkpt lat="44.11086" lon="3.27784">
        <ele>654.8</ele>
        <time>2013-07-06T10:29:04Z</time>
      </trkpt>
      <trkpt lat="44.11088" lon="3.27784">
        <ele>654.8</ele>
        <time>2013-07-06T10:29:32Z</time>
      </trkpt>
      <trkpt lat="44.11088" lon="3.27784">
        <ele>654.31</ele>
        <time>2013-07-06T10:29:47Z</time>
      </trkpt>
      <trkpt lat="44.11088" lon="3.2778">
        <ele>653.83</ele>
        <time>2013-07-06T10:29:48Z</time>
      </trkpt>
      <trkpt lat="44.11087" lon="3.27774">
        <ele>653.35</ele>
        <time>2013-07-06T10:29:49Z</time>
      </trkpt>
      <trkpt lat="44.11086" lon="3.27768">
        <ele>652.87</ele>
        <time>2013-07-06T10:29:50Z</time>
      </trkpt>
      <trkpt lat="44.11084" lon="3.27764">
        <ele>652.39</ele>
        <time>2013-07-06T10:29:51Z</time>
      </trkpt>
      <trkpt lat="44.11081" lon="3.27758">
        <ele>653.83</ele>
        <time>2013-07-06T10:29:55Z</time>
      </trkpt>
      <trkpt lat="44.11079" lon="3.27745">
        <ele>653.83</ele>
        <time>2013-07-06T10:30:06Z</time>
      </trkpt>
      <trkpt lat="44.11079" lon="3.27743">
        <ele>653.35</ele>
        <time>2013-07-06T10:30:07Z</time>
      </trkpt>
      <trkpt lat="44.11078" lon="3.27739">
        <ele>653.35</ele>
        <time>2013-07-06T10:30:08Z</time>
      </trkpt>
      <trkpt lat="44.11077" lon="3.27735">
        <ele>652.87</ele>
        <time>2013-07-06T10:30:09Z</time>
      </trkpt>
      <trkpt lat="44.11075" lon="3.2773">
        <ele>652.39</ele>
        <time>2013-07-06T10:30:10Z</time>
      </trkpt>
      <trkpt lat="44.11073" lon="3.27717">
        <ele>651.43</ele>
        <time>2013-07-06T10:30:14Z</time>
      </trkpt>
      <trkpt lat="44.11072" lon="3.27714">
        <ele>650.95</ele>
        <time>2013-07-06T10:30:24Z</time>
      </trkpt>
      <trkpt lat="44.1107" lon="3.27711">
        <ele>650.47</ele>
        <time>2013-07-06T10:30:46Z</time>
      </trkpt>
      <trkpt lat="44.11069" lon="3.27708">
        <ele>650.47</ele>
        <time>2013-07-06T10:30:47Z</time>
      </trkpt>
      <trkpt lat="44.11067" lon="3.27706">
        <ele>650.47</ele>
        <time>2013-07-06T10:30:48Z</time>
      </trkpt>
      <trkpt lat="44.11065" lon="3.27704">
        <ele>649.51</ele>
        <time>2013-07-06T10:30:49Z</time>
      </trkpt>
      <trkpt lat="44.11063" lon="3.27699">
        <ele>648.55</ele>
        <time>2013-07-06T10:30:50Z</time>
      </trkpt>
      <trkpt lat="44.11062" lon="3.27696">
        <ele>648.07</ele>
        <time>2013-07-06T10:30:51Z</time>
      </trkpt>
      <trkpt lat="44.11062" lon="3.27694">
        <ele>648.07</ele>
        <time>2013-07-06T10:30:52Z</time>
      </trkpt>
      <trkpt lat="44.11051" lon="3.27691">
        <ele>647.59</ele>
        <time>2013-07-06T10:31:04Z</time>
      </trkpt>
      <trkpt lat="44.11048" lon="3.27689">
        <ele>647.1</ele>
        <time>2013-07-06T10:31:06Z</time>
      </trkpt>
      <trkpt lat="44.11051" lon="3.27681">
        <ele>648.07</ele>
        <time>2013-07-06T10:31:16Z</time>
      </trkpt>
      <trkpt lat="44.11051" lon="3.27678">
        <ele>648.55</ele>
        <time>2013-07-06T10:31:18Z</time>
      </trkpt>
      <trkpt lat="44.11054" lon="3.27662">
        <ele>649.99</ele>
        <time>2013-07-06T10:31:34Z</time>
      </trkpt>
      <trkpt lat="44.11053" lon="3.27658">
        <ele>649.51</ele>
        <time>2013-07-06T10:31:45Z</time>
      </trkpt>
      <trkpt lat="44.11054" lon="3.27648">
        <ele>649.03</ele>
        <time>2013-07-06T10:31:49Z</time>
      </trkpt>
      <trkpt lat="44.11055" lon="3.27643">
        <ele>647.59</ele>
        <time>2013-07-06T10:31:51Z</time>
      </trkpt>
      <trkpt lat="44.11058" lon="3.27616">
        <ele>645.66</ele>
        <time>2013-07-06T10:31:59Z</time>
      </trkpt>
      <trkpt lat="44.11055" lon="3.27602">
        <ele>644.7</ele>
        <time>2013-07-06T10:32:06Z</time>
      </trkpt>
      <trkpt lat="44.11056" lon="3.27583">
        <ele>643.74</ele>
        <time>2013-07-06T10:32:12Z</time>
      </trkpt>
      <trkpt lat="44.11057" lon="3.27577">
        <ele>643.26</ele>
        <time>2013-07-06T10:32:14Z</time>
      </trkpt>
      <trkpt lat="44.11054" lon="3.27563">
        <ele>643.26</ele>
        <time>2013-07-06T10:32:19Z</time>
      </trkpt>
      <trkpt lat="44.11056" lon="3.27549">
        <ele>643.74</ele>
        <time>2013-07-06T10:32:24Z</time>
      </trkpt>
      <trkpt lat="44.11054" lon="3.27542">
        <ele>643.74</ele>
        <time>2013-07-06T10:32:29Z</time>
      </trkpt>
      <trkpt lat="44.11055" lon="3.27532">
        <ele>643.26</ele>
        <time>2013-07-06T10:32:38Z</time>
      </trkpt>
      <trkpt lat="44.11047" lon="3.27504">
        <ele>640.86</ele>
        <time>2013-07-06T10:32:45Z</time>
      </trkpt>
      <trkpt lat="44.11052" lon="3.27483">
        <ele>637.01</ele>
        <time>2013-07-06T10:32:51Z</time>
      </trkpt>
      <trkpt lat="44.11051" lon="3.27479">
        <ele>637.01</ele>
        <time>2013-07-06T10:32:52Z</time>
      </trkpt>
      <trkpt lat="44.11051" lon="3.27475">
        <ele>636.53</ele>
        <time>2013-07-06T10:32:53Z</time>
      </trkpt>
      <trkpt lat="44.11026" lon="3.27459">
        <ele>635.57</ele>
        <time>2013-07-06T10:33:06Z</time>
      </trkpt>
      <trkpt lat="44.11021" lon="3.27455">
        <ele>636.05</ele>
        <time>2013-07-06T10:33:08Z</time>
      </trkpt>
      <trkpt lat="44.11017" lon="3.2745">
        <ele>634.61</ele>
        <time>2013-07-06T10:33:19Z</time>
      </trkpt>
      <trkpt lat="44.11017" lon="3.2745">
        <ele>634.13</ele>
        <time>2013-07-06T10:33:32Z</time>
      </trkpt>
      <trkpt lat="44.11017" lon="3.2745">
        <ele>634.13</ele>
        <time>2013-07-06T10:33:36Z</time>
      </trkpt>
      <trkpt lat="44.11004" lon="3.27433">
        <ele>631.24</ele>
        <time>2013-07-06T10:33:43Z</time>
      </trkpt>
      <trkpt lat="44.10998" lon="3.27428">
        <ele>629.32</ele>
        <time>2013-07-06T10:33:48Z</time>
      </trkpt>
      <trkpt lat="44.10998" lon="3.27431">
        <ele>629.32</ele>
        <time>2013-07-06T10:33:59Z</time>
      </trkpt>
      <trkpt lat="44.10998" lon="3.27431">
        <ele>628.84</ele>
        <time>2013-07-06T10:34:00Z</time>
      </trkpt>
      <trkpt lat="44.11" lon="3.27441">
        <ele>628.84</ele>
        <time>2013-07-06T10:34:05Z</time>
      </trkpt>
      <trkpt lat="44.10987" lon="3.27423">
        <ele>625.96</ele>
        <time>2013-07-06T10:34:14Z</time>
      </trkpt>
      <trkpt lat="44.10985" lon="3.27421">
        <ele>624.99</ele>
        <time>2013-07-06T10:34:15Z</time>
      </trkpt>
      <trkpt lat="44.10984" lon="3.27414">
        <ele>624.51</ele>
        <time>2013-07-06T10:34:17Z</time>
      </trkpt>
      <trkpt lat="44.10985" lon="3.27404">
        <ele>622.59</ele>
        <time>2013-07-06T10:34:28Z</time>
      </trkpt>
      <trkpt lat="44.10985" lon="3.27399">
        <ele>621.63</ele>
        <time>2013-07-06T10:34:37Z</time>
      </trkpt>
      <trkpt lat="44.10985" lon="3.27396">
        <ele>620.19</ele>
        <time>2013-07-06T10:34:50Z</time>
      </trkpt>
      <trkpt lat="44.10987" lon="3.27386">
        <ele>619.23</ele>
        <time>2013-07-06T10:35:06Z</time>
      </trkpt>
      <trkpt lat="44.10987" lon="3.27378">
        <ele>616.82</ele>
        <time>2013-07-06T10:35:18Z</time>
      </trkpt>
      <trkpt lat="44.10988" lon="3.27373">
        <ele>615.86</ele>
        <time>2013-07-06T10:35:21Z</time>
      </trkpt>
      <trkpt lat="44.1099" lon="3.27364">
        <ele>613.94</ele>
        <time>2013-07-06T10:35:24Z</time>
      </trkpt>
      <trkpt lat="44.10986" lon="3.27339">
        <ele>611.54</ele>
        <time>2013-07-06T10:35:33Z</time>
      </trkpt>
      <trkpt lat="44.10986" lon="3.2734">
        <ele>611.06</ele>
        <time>2013-07-06T10:35:51Z</time>
      </trkpt>
      <trkpt lat="44.10984" lon="3.27336">
        <ele>611.06</ele>
        <time>2013-07-06T10:36:06Z</time>
      </trkpt>
      <trkpt lat="44.10978" lon="3.27324">
        <ele>609.13</ele>
        <time>2013-07-06T10:36:09Z</time>
      </trkpt>
      <trkpt lat="44.10977" lon="3.27318">
        <ele>608.65</ele>
        <time>2013-07-06T10:36:10Z</time>
      </trkpt>
      <trkpt lat="44.10976" lon="3.27312">
        <ele>608.17</ele>
        <time>2013-07-06T10:36:11Z</time>
      </trkpt>
      <trkpt lat="44.10975" lon="3.27307">
        <ele>608.17</ele>
        <time>2013-07-06T10:36:12Z</time>
      </trkpt>
      <trkpt lat="44.10973" lon="3.27305">
        <ele>608.17</ele>
        <time>2013-07-06T10:36:13Z</time>
      </trkpt>
      <trkpt lat="44.10971" lon="3.27297">
        <ele>609.13</ele>
        <time>2013-07-06T10:36:22Z</time>
      </trkpt>
      <trkpt lat="44.10971" lon="3.27291">
        <ele>609.61</ele>
        <time>2013-07-06T10:36:33Z</time>
      </trkpt>
      <trkpt lat="44.10973" lon="3.27276">
        <ele>608.17</ele>
        <time>2013-07-06T10:36:48Z</time>
      </trkpt>
      <trkpt lat="44.10977" lon="3.27246">
        <ele>608.17</ele>
        <time>2013-07-06T10:36:57Z</time>
      </trkpt>
      <trkpt lat="44.10984" lon="3.27214">
        <ele>610.09</ele>
        <time>2013-07-06T10:37:07Z</time>
      </trkpt>
      <trkpt lat="44.10983" lon="3.27211">
        <ele>610.09</ele>
        <time>2013-07-06T10:37:08Z</time>
      </trkpt>
      <trkpt lat="44.10982" lon="3.27208">
        <ele>610.57</ele>
        <time>2013-07-06T10:37:09Z</time>
      </trkpt>
      <trkpt lat="44.10981" lon="3.27207">
        <ele>610.57</ele>
        <time>2013-07-06T10:37:10Z</time>
      </trkpt>
      <trkpt lat="44.10979" lon="3.27206">
        <ele>611.06</ele>
        <time>2013-07-06T10:37:11Z</time>
      </trkpt>
      <trkpt lat="44.10977" lon="3.27204">
        <ele>610.57</ele>
        <time>2013-07-06T10:37:12Z</time>
      </trkpt>
      <trkpt lat="44.10975" lon="3.27203">
        <ele>610.57</ele>
        <time>2013-07-06T10:37:13Z</time>
      </trkpt>
      <trkpt lat="44.10972" lon="3.27201">
        <ele>610.57</ele>
        <time>2013-07-06T10:37:14Z</time>
      </trkpt>
      <trkpt lat="44.10951" lon="3.27185">
        <ele>611.54</ele>
        <time>2013-07-06T10:37:23Z</time>
      </trkpt>
      <trkpt lat="44.1095" lon="3.27182">
        <ele>611.06</ele>
        <time>2013-07-06T10:37:24Z</time>
      </trkpt>
      <trkpt lat="44.10949" lon="3.2718">
        <ele>611.54</ele>
        <time>2013-07-06T10:37:25Z</time>
      </trkpt>
      <trkpt lat="44.10948" lon="3.27177">
        <ele>612.02</ele>
        <time>2013-07-06T10:37:32Z</time>
      </trkpt>
      <trkpt lat="44.10948" lon="3.27175">
        <ele>612.02</ele>
        <time>2013-07-06T10:37:33Z</time>
      </trkpt>
      <trkpt lat="44.10944" lon="3.27159">
        <ele>613.46</ele>
        <time>2013-07-06T10:37:45Z</time>
      </trkpt>
      <trkpt lat="44.10945" lon="3.27153">
        <ele>614.42</ele>
        <time>2013-07-06T10:37:53Z</time>
      </trkpt>
      <trkpt lat="44.10946" lon="3.27151">
        <ele>613.94</ele>
        <time>2013-07-06T10:37:54Z</time>
      </trkpt>
      <trkpt lat="44.10946" lon="3.27148">
        <ele>614.42</ele>
        <time>2013-07-06T10:37:55Z</time>
      </trkpt>
      <trkpt lat="44.10947" lon="3.27121">
        <ele>616.34</ele>
        <time>2013-07-06T10:38:05Z</time>
      </trkpt>
      <trkpt lat="44.10948" lon="3.27112">
        <ele>617.3</ele>
        <time>2013-07-06T10:38:15Z</time>
      </trkpt>
      <trkpt lat="44.10946" lon="3.2709">
        <ele>620.19</ele>
        <time>2013-07-06T10:38:28Z</time>
      </trkpt>
      <trkpt lat="44.10945" lon="3.27083">
        <ele>620.19</ele>
        <time>2013-07-06T10:38:40Z</time>
      </trkpt>
      <trkpt lat="44.10945" lon="3.27072">
        <ele>620.67</ele>
        <time>2013-07-06T10:38:54Z</time>
      </trkpt>
      <trkpt lat="44.10945" lon="3.2707">
        <ele>620.67</ele>
        <time>2013-07-06T10:38:55Z</time>
      </trkpt>
      <trkpt lat="44.10946" lon="3.27047">
        <ele>621.63</ele>
        <time>2013-07-06T10:39:03Z</time>
      </trkpt>
      <trkpt lat="44.10946" lon="3.27044">
        <ele>622.11</ele>
        <time>2013-07-06T10:39:04Z</time>
      </trkpt>
      <trkpt lat="44.10947" lon="3.27041">
        <ele>622.59</ele>
        <time>2013-07-06T10:39:05Z</time>
      </trkpt>
      <trkpt lat="44.10949" lon="3.27027">
        <ele>624.03</ele>
        <time>2013-07-06T10:39:15Z</time>
      </trkpt>
      <trkpt lat="44.10949" lon="3.27022">
        <ele>624.51</ele>
        <time>2013-07-06T10:39:19Z</time>
      </trkpt>
      <trkpt lat="44.10945" lon="3.27008">
        <ele>625.96</ele>
        <time>2013-07-06T10:39:30Z</time>
      </trkpt>
      <trkpt lat="44.10944" lon="3.27005">
        <ele>626.44</ele>
        <time>2013-07-06T10:39:38Z</time>
      </trkpt>
      <trkpt lat="44.10944" lon="3.27004">
        <ele>626.44</ele>
        <time>2013-07-06T10:39:39Z</time>
      </trkpt>
      <trkpt lat="44.10938" lon="3.2699">
        <ele>627.4</ele>
        <time>2013-07-06T10:39:51Z</time>
      </trkpt>
      <trkpt lat="44.10938" lon="3.26986">
        <ele>627.4</ele>
        <time>2013-07-06T10:39:54Z</time>
      </trkpt>
      <trkpt lat="44.1094" lon="3.26978">
        <ele>626.44</ele>
        <time>2013-07-06T10:40:04Z</time>
      </trkpt>
      <trkpt lat="44.1094" lon="3.26972">
        <ele>625.96</ele>
        <time>2013-07-06T10:40:06Z</time>
      </trkpt>
      <trkpt lat="44.10939" lon="3.26969">
        <ele>625.47</ele>
        <time>2013-07-06T10:40:07Z</time>
      </trkpt>
      <trkpt lat="44.10939" lon="3.26965">
        <ele>624.99</ele>
        <time>2013-07-06T10:40:08Z</time>
      </trkpt>
      <trkpt lat="44.10938" lon="3.26962">
        <ele>624.51</ele>
        <time>2013-07-06T10:40:09Z</time>
      </trkpt>
      <trkpt lat="44.10937" lon="3.26958">
        <ele>624.99</ele>
        <time>2013-07-06T10:40:10Z</time>
      </trkpt>
      <trkpt lat="44.10928" lon="3.26942">
        <ele>624.03</ele>
        <time>2013-07-06T10:40:17Z</time>
      </trkpt>
      <trkpt lat="44.10927" lon="3.26942">
        <ele>623.55</ele>
        <time>2013-07-06T10:40:29Z</time>
      </trkpt>
      <trkpt lat="44.10928" lon="3.26938">
        <ele>622.59</ele>
        <time>2013-07-06T10:40:37Z</time>
      </trkpt>
      <trkpt lat="44.10928" lon="3.26937">
        <ele>622.59</ele>
        <time>2013-07-06T10:40:50Z</time>
      </trkpt>
      <trkpt lat="44.10928" lon="3.26937">
        <ele>623.07</ele>
        <time>2013-07-06T10:40:58Z</time>
      </trkpt>
      <trkpt lat="44.10935" lon="3.26933">
        <ele>621.63</ele>
        <time>2013-07-06T10:41:01Z</time>
      </trkpt>
      <trkpt lat="44.10937" lon="3.26931">
        <ele>621.15</ele>
        <time>2013-07-06T10:41:02Z</time>
      </trkpt>
      <trkpt lat="44.10941" lon="3.26931">
        <ele>620.19</ele>
        <time>2013-07-06T10:41:04Z</time>
      </trkpt>
      <trkpt lat="44.10943" lon="3.26932">
        <ele>619.23</ele>
        <time>2013-07-06T10:41:05Z</time>
      </trkpt>
      <trkpt lat="44.10945" lon="3.26932">
        <ele>619.23</ele>
        <time>2013-07-06T10:41:06Z</time>
      </trkpt>
      <trkpt lat="44.10948" lon="3.2693">
        <ele>617.78</ele>
        <time>2013-07-06T10:41:08Z</time>
      </trkpt>
      <trkpt lat="44.10949" lon="3.26927">
        <ele>617.3</ele>
        <time>2013-07-06T10:41:09Z</time>
      </trkpt>
      <trkpt lat="44.10949" lon="3.26923">
        <ele>616.82</ele>
        <time>2013-07-06T10:41:10Z</time>
      </trkpt>
      <trkpt lat="44.10948" lon="3.26915">
        <ele>615.38</ele>
        <time>2013-07-06T10:41:12Z</time>
      </trkpt>
      <trkpt lat="44.10949" lon="3.26907">
        <ele>615.38</ele>
        <time>2013-07-06T10:41:14Z</time>
      </trkpt>
      <trkpt lat="44.10943" lon="3.26874">
        <ele>615.38</ele>
        <time>2013-07-06T10:41:24Z</time>
      </trkpt>
      <trkpt lat="44.10941" lon="3.26867">
        <ele>615.86</ele>
        <time>2013-07-06T10:41:26Z</time>
      </trkpt>
      <trkpt lat="44.10937" lon="3.26856">
        <ele>615.86</ele>
        <time>2013-07-06T10:41:30Z</time>
      </trkpt>
      <trkpt lat="44.10931" lon="3.26838">
        <ele>617.3</ele>
        <time>2013-07-06T10:41:40Z</time>
      </trkpt>
      <trkpt lat="44.10922" lon="3.26823">
        <ele>617.78</ele>
        <time>2013-07-06T10:41:47Z</time>
      </trkpt>
      <trkpt lat="44.10909" lon="3.26805">
        <ele>620.67</ele>
        <time>2013-07-06T10:41:57Z</time>
      </trkpt>
      <trkpt lat="44.10903" lon="3.26788">
        <ele>622.11</ele>
        <time>2013-07-06T10:42:10Z</time>
      </trkpt>
      <trkpt lat="44.10902" lon="3.2678">
        <ele>621.15</ele>
        <time>2013-07-06T10:42:22Z</time>
      </trkpt>
      <trkpt lat="44.10902" lon="3.2678">
        <ele>621.15</ele>
        <time>2013-07-06T10:42:31Z</time>
      </trkpt>
      <trkpt lat="44.10895" lon="3.2677">
        <ele>618.75</ele>
        <time>2013-07-06T10:42:35Z</time>
      </trkpt>
      <trkpt lat="44.10882" lon="3.26763">
        <ele>616.34</ele>
        <time>2013-07-06T10:42:40Z</time>
      </trkpt>
      <trkpt lat="44.10876" lon="3.26761">
        <ele>615.38</ele>
        <time>2013-07-06T10:42:44Z</time>
      </trkpt>
      <trkpt lat="44.10862" lon="3.26767">
        <ele>612.98</ele>
        <time>2013-07-06T10:42:53Z</time>
      </trkpt>
      <trkpt lat="44.10864" lon="3.2675">
        <ele>611.54</ele>
        <time>2013-07-06T10:42:59Z</time>
      </trkpt>
      <trkpt lat="44.10857" lon="3.26717">
        <ele>609.13</ele>
        <time>2013-07-06T10:43:10Z</time>
      </trkpt>
      <trkpt lat="44.10857" lon="3.26717">
        <ele>609.13</ele>
        <time>2013-07-06T10:43:27Z</time>
      </trkpt>
      <trkpt lat="44.10857" lon="3.26717">
        <ele>608.65</ele>
        <time>2013-07-06T10:43:50Z</time>
      </trkpt>
      <trkpt lat="44.10857" lon="3.26717">
        <ele>608.65</ele>
        <time>2013-07-06T10:43:52Z</time>
      </trkpt>
      <trkpt lat="44.10855" lon="3.26708">
        <ele>607.21</ele>
        <time>2013-07-06T10:43:58Z</time>
      </trkpt>
      <trkpt lat="44.10849" lon="3.26699">
        <ele>604.33</ele>
        <time>2013-07-06T10:44:05Z</time>
      </trkpt>
      <trkpt lat="44.10839" lon="3.26685">
        <ele>601.44</ele>
        <time>2013-07-06T10:44:12Z</time>
      </trkpt>
      <trkpt lat="44.10833" lon="3.26681">
        <ele>600.48</ele>
        <time>2013-07-06T10:44:14Z</time>
      </trkpt>
      <trkpt lat="44.10811" lon="3.26674">
        <ele>599.52</ele>
        <time>2013-07-06T10:44:21Z</time>
      </trkpt>
      <trkpt lat="44.10802" lon="3.26663">
        <ele>599.52</ele>
        <time>2013-07-06T10:44:26Z</time>
      </trkpt>
      <trkpt lat="44.10796" lon="3.26658">
        <ele>599.04</ele>
        <time>2013-07-06T10:44:29Z</time>
      </trkpt>
      <trkpt lat="44.10797" lon="3.26634">
        <ele>598.56</ele>
        <time>2013-07-06T10:44:38Z</time>
      </trkpt>
      <trkpt lat="44.10796" lon="3.2663">
        <ele>598.56</ele>
        <time>2013-07-06T10:44:43Z</time>
      </trkpt>
      <trkpt lat="44.10786" lon="3.26605">
        <ele>596.15</ele>
        <time>2013-07-06T10:44:53Z</time>
      </trkpt>
      <trkpt lat="44.10792" lon="3.26598">
        <ele>593.75</ele>
        <time>2013-07-06T10:44:57Z</time>
      </trkpt>
      <trkpt lat="44.10804" lon="3.26587">
        <ele>590.39</ele>
        <time>2013-07-06T10:45:04Z</time>
      </trkpt>
      <trkpt lat="44.10805" lon="3.26583">
        <ele>589.91</ele>
        <time>2013-07-06T10:45:05Z</time>
      </trkpt>
      <trkpt lat="44.10805" lon="3.26575">
        <ele>588.46</ele>
        <time>2013-07-06T10:45:07Z</time>
      </trkpt>
      <trkpt lat="44.10812" lon="3.26562">
        <ele>587.02</ele>
        <time>2013-07-06T10:45:11Z</time>
      </trkpt>
      <trkpt lat="44.10818" lon="3.26556">
        <ele>586.06</ele>
        <time>2013-07-06T10:45:13Z</time>
      </trkpt>
      <trkpt lat="44.10834" lon="3.26538">
        <ele>583.18</ele>
        <time>2013-07-06T10:45:22Z</time>
      </trkpt>
      <trkpt lat="44.10833" lon="3.26536">
        <ele>583.18</ele>
        <time>2013-07-06T10:45:37Z</time>
      </trkpt>
      <trkpt lat="44.10833" lon="3.26536">
        <ele>583.18</ele>
        <time>2013-07-06T10:45:57Z</time>
      </trkpt>
      <trkpt lat="44.10833" lon="3.26537">
        <ele>582.7</ele>
        <time>2013-07-06T10:46:19Z</time>
      </trkpt>
      <trkpt lat="44.10833" lon="3.26537">
        <ele>582.7</ele>
        <time>2013-07-06T10:46:41Z</time>
      </trkpt>
      <trkpt lat="44.10834" lon="3.26537">
        <ele>581.25</ele>
        <time>2013-07-06T10:46:59Z</time>
      </trkpt>
      <trkpt lat="44.10832" lon="3.26564">
        <ele>581.73</ele>
        <time>2013-07-06T10:53:19Z</time>
      </trkpt>
      <trkpt lat="44.10833" lon="3.26561">
        <ele>581.73</ele>
        <time>2013-07-06T10:53:20Z</time>
      </trkpt>
      <trkpt lat="44.10834" lon="3.26556">
        <ele>582.22</ele>
        <time>2013-07-06T10:53:42Z</time>
      </trkpt>
      <trkpt lat="44.10836" lon="3.26559">
        <ele>585.58</ele>
        <time>2013-07-06T10:53:49Z</time>
      </trkpt>
      <trkpt lat="44.10835" lon="3.26561">
        <ele>588.46</ele>
        <time>2013-07-06T10:53:54Z</time>
      </trkpt>
      <trkpt lat="44.10834" lon="3.26561">
        <ele>591.83</ele>
        <time>2013-07-06T10:53:59Z</time>
      </trkpt>
      <trkpt lat="44.10833" lon="3.26561">
        <ele>595.19</ele>
        <time>2013-07-06T10:54:05Z</time>
      </trkpt>
      <trkpt lat="44.10832" lon="3.26562">
        <ele>598.56</ele>
        <time>2013-07-06T10:54:11Z</time>
      </trkpt>
      <trkpt lat="44.1083" lon="3.26562">
        <ele>601.44</ele>
        <time>2013-07-06T10:54:18Z</time>
      </trkpt>
      <trkpt lat="44.10836" lon="3.26555">
        <ele>602.88</ele>
        <time>2013-07-06T10:54:36Z</time>
      </trkpt>
      <trkpt lat="44.10835" lon="3.26553">
        <ele>603.36</ele>
        <time>2013-07-06T10:55:06Z</time>
      </trkpt>
      <trkpt lat="44.10835" lon="3.26553">
        <ele>603.36</ele>
        <time>2013-07-06T10:55:32Z</time>
      </trkpt>
      <trkpt lat="44.10834" lon="3.26553">
        <ele>603.36</ele>
        <time>2013-07-06T10:55:53Z</time>
      </trkpt>
      <trkpt lat="44.10838" lon="3.26556">
        <ele>602.88</ele>
        <time>2013-07-06T10:56:04Z</time>
      </trkpt>
      <trkpt lat="44.10841" lon="3.26553">
        <ele>602.88</ele>
        <time>2013-07-06T10:56:07Z</time>
      </trkpt>
      <trkpt lat="44.10849" lon="3.26535">
        <ele>603.36</ele>
        <time>2013-07-06T10:56:19Z</time>
      </trkpt>
      <trkpt lat="44.10854" lon="3.26534">
        <ele>603.36</ele>
        <time>2013-07-06T10:56:41Z</time>
      </trkpt>
      <trkpt lat="44.1086" lon="3.26531">
        <ele>603.36</ele>
        <time>2013-07-06T10:56:43Z</time>
      </trkpt>
      <trkpt lat="44.10872" lon="3.26528">
        <ele>603.85</ele>
        <time>2013-07-06T10:56:47Z</time>
      </trkpt>
      <trkpt lat="44.10885" lon="3.26526">
        <ele>605.29</ele>
        <time>2013-07-06T10:57:00Z</time>
      </trkpt>
      <trkpt lat="44.10885" lon="3.26527">
        <ele>605.29</ele>
        <time>2013-07-06T10:57:15Z</time>
      </trkpt>
      <trkpt lat="44.10891" lon="3.26528">
        <ele>605.77</ele>
        <time>2013-07-06T10:57:25Z</time>
      </trkpt>
      <trkpt lat="44.10898" lon="3.26529">
        <ele>606.73</ele>
        <time>2013-07-06T10:57:31Z</time>
      </trkpt>
      <trkpt lat="44.10904" lon="3.26528">
        <ele>608.17</ele>
        <time>2013-07-06T10:57:43Z</time>
      </trkpt>
      <trkpt lat="44.10907" lon="3.26518">
        <ele>609.61</ele>
        <time>2013-07-06T10:57:56Z</time>
      </trkpt>
      <trkpt lat="44.10911" lon="3.26511">
        <ele>611.06</ele>
        <time>2013-07-06T10:58:09Z</time>
      </trkpt>
      <trkpt lat="44.10917" lon="3.26508">
        <ele>612.5</ele>
        <time>2013-07-06T10:58:20Z</time>
      </trkpt>
      <trkpt lat="44.10918" lon="3.26509">
        <ele>612.5</ele>
        <time>2013-07-06T10:58:21Z</time>
      </trkpt>
      <trkpt lat="44.10929" lon="3.26502">
        <ele>614.9</ele>
        <time>2013-07-06T10:58:34Z</time>
      </trkpt>
      <trkpt lat="44.10929" lon="3.265">
        <ele>614.9</ele>
        <time>2013-07-06T10:58:35Z</time>
      </trkpt>
      <trkpt lat="44.10937" lon="3.26488">
        <ele>615.86</ele>
        <time>2013-07-06T10:58:50Z</time>
      </trkpt>
      <trkpt lat="44.10937" lon="3.26488">
        <ele>615.86</ele>
        <time>2013-07-06T10:59:10Z</time>
      </trkpt>
      <trkpt lat="44.10936" lon="3.26488">
        <ele>615.38</ele>
        <time>2013-07-06T10:59:40Z</time>
      </trkpt>
      <trkpt lat="44.10939" lon="3.26486">
        <ele>614.9</ele>
        <time>2013-07-06T11:00:02Z</time>
      </trkpt>
      <trkpt lat="44.10952" lon="3.26479">
        <ele>616.34</ele>
        <time>2013-07-06T11:00:16Z</time>
      </trkpt>
      <trkpt lat="44.10959" lon="3.26477">
        <ele>617.3</ele>
        <time>2013-07-06T11:00:28Z</time>
      </trkpt>
      <trkpt lat="44.10967" lon="3.26478">
        <ele>619.23</ele>
        <time>2013-07-06T11:00:38Z</time>
      </trkpt>
      <trkpt lat="44.10975" lon="3.26484">
        <ele>620.19</ele>
        <time>2013-07-06T11:00:51Z</time>
      </trkpt>
      <trkpt lat="44.10979" lon="3.26485">
        <ele>620.67</ele>
        <time>2013-07-06T11:01:09Z</time>
      </trkpt>
      <trkpt lat="44.10983" lon="3.26486">
        <ele>621.63</ele>
        <time>2013-07-06T11:01:22Z</time>
      </trkpt>
      <trkpt lat="44.10983" lon="3.26486">
        <ele>621.63</ele>
        <time>2013-07-06T11:01:41Z</time>
      </trkpt>
      <trkpt lat="44.10981" lon="3.26485">
        <ele>620.67</ele>
        <time>2013-07-06T11:01:49Z</time>
      </trkpt>
      <trkpt lat="44.10969" lon="3.26479">
        <ele>618.26</ele>
        <time>2013-07-06T11:02:02Z</time>
      </trkpt>
      <trkpt lat="44.10957" lon="3.26477">
        <ele>615.38</ele>
        <time>2013-07-06T11:02:16Z</time>
      </trkpt>
      <trkpt lat="44.10954" lon="3.26477">
        <ele>614.9</ele>
        <time>2013-07-06T11:02:19Z</time>
      </trkpt>
      <trkpt lat="44.10953" lon="3.26473">
        <ele>613.46</ele>
        <time>2013-07-06T11:02:31Z</time>
      </trkpt>
      <trkpt lat="44.10956" lon="3.2647">
        <ele>611.54</ele>
        <time>2013-07-06T11:02:42Z</time>
      </trkpt>
      <trkpt lat="44.10959" lon="3.26468">
        <ele>611.54</ele>
        <time>2013-07-06T11:02:45Z</time>
      </trkpt>
      <trkpt lat="44.10964" lon="3.26464">
        <ele>611.06</ele>
        <time>2013-07-06T11:02:50Z</time>
      </trkpt>
      <trkpt lat="44.10975" lon="3.26459">
        <ele>612.02</ele>
        <time>2013-07-06T11:03:02Z</time>
      </trkpt>
      <trkpt lat="44.10979" lon="3.26459">
        <ele>612.5</ele>
        <time>2013-07-06T11:03:05Z</time>
      </trkpt>
      <trkpt lat="44.10985" lon="3.26455">
        <ele>611.54</ele>
        <time>2013-07-06T11:03:18Z</time>
      </trkpt>
      <trkpt lat="44.10985" lon="3.26455">
        <ele>611.54</ele>
        <time>2013-07-06T11:03:32Z</time>
      </trkpt>
      <trkpt lat="44.10986" lon="3.26453">
        <ele>611.06</ele>
        <time>2013-07-06T11:03:47Z</time>
      </trkpt>
      <trkpt lat="44.10992" lon="3.26448">
        <ele>611.06</ele>
        <time>2013-07-06T11:03:51Z</time>
      </trkpt>
      <trkpt lat="44.11002" lon="3.26437">
        <ele>611.06</ele>
        <time>2013-07-06T11:03:59Z</time>
      </trkpt>
      <trkpt lat="44.11031" lon="3.26418">
        <ele>612.02</ele>
        <time>2013-07-06T11:04:11Z</time>
      </trkpt>
      <trkpt lat="44.11041" lon="3.26415">
        <ele>613.94</ele>
        <time>2013-07-06T11:04:15Z</time>
      </trkpt>
      <trkpt lat="44.11056" lon="3.26398">
        <ele>611.06</ele>
        <time>2013-07-06T11:04:23Z</time>
      </trkpt>
      <trkpt lat="44.11062" lon="3.26391">
        <ele>609.61</ele>
        <time>2013-07-06T11:04:25Z</time>
      </trkpt>
      <trkpt lat="44.11065" lon="3.26387">
        <ele>608.17</ele>
        <time>2013-07-06T11:04:26Z</time>
      </trkpt>
      <trkpt lat="44.11068" lon="3.26385">
        <ele>607.69</ele>
        <time>2013-07-06T11:04:27Z</time>
      </trkpt>
      <trkpt lat="44.11071" lon="3.26383">
        <ele>607.21</ele>
        <time>2013-07-06T11:04:28Z</time>
      </trkpt>
      <trkpt lat="44.11075" lon="3.26382">
        <ele>606.25</ele>
        <time>2013-07-06T11:04:29Z</time>
      </trkpt>
      <trkpt lat="44.11079" lon="3.26382">
        <ele>605.77</ele>
        <time>2013-07-06T11:04:30Z</time>
      </trkpt>
      <trkpt lat="44.11083" lon="3.26381">
        <ele>605.77</ele>
        <time>2013-07-06T11:04:31Z</time>
      </trkpt>
      <trkpt lat="44.11085" lon="3.26379">
        <ele>606.25</ele>
        <time>2013-07-06T11:04:32Z</time>
      </trkpt>
      <trkpt lat="44.11088" lon="3.26376">
        <ele>606.25</ele>
        <time>2013-07-06T11:04:33Z</time>
      </trkpt>
      <trkpt lat="44.11091" lon="3.26374">
        <ele>606.25</ele>
        <time>2013-07-06T11:04:34Z</time>
      </trkpt>
      <trkpt lat="44.11095" lon="3.26368">
        <ele>605.77</ele>
        <time>2013-07-06T11:04:36Z</time>
      </trkpt>
      <trkpt lat="44.11096" lon="3.26362">
        <ele>605.29</ele>
        <time>2013-07-06T11:04:37Z</time>
      </trkpt>
      <trkpt lat="44.11099" lon="3.26348">
        <ele>602.88</ele>
        <time>2013-07-06T11:04:40Z</time>
      </trkpt>
      <trkpt lat="44.11102" lon="3.2634">
        <ele>601.44</ele>
        <time>2013-07-06T11:04:49Z</time>
      </trkpt>
      <trkpt lat="44.11103" lon="3.2634">
        <ele>601.44</ele>
        <time>2013-07-06T11:04:50Z</time>
      </trkpt>
      <trkpt lat="44.11113" lon="3.26332">
        <ele>601.92</ele>
        <time>2013-07-06T11:04:56Z</time>
      </trkpt>
      <trkpt lat="44.1112" lon="3.26312">
        <ele>601.44</ele>
        <time>2013-07-06T11:05:02Z</time>
      </trkpt>
      <trkpt lat="44.11138" lon="3.26265">
        <ele>601.44</ele>
        <time>2013-07-06T11:05:15Z</time>
      </trkpt>
      <trkpt lat="44.11158" lon="3.2622">
        <ele>601.92</ele>
        <time>2013-07-06T11:05:30Z</time>
      </trkpt>
      <trkpt lat="44.11159" lon="3.26213">
        <ele>600.96</ele>
        <time>2013-07-06T11:05:39Z</time>
      </trkpt>
      <trkpt lat="44.11162" lon="3.26199">
        <ele>599.52</ele>
        <time>2013-07-06T11:05:45Z</time>
      </trkpt>
      <trkpt lat="44.11167" lon="3.26189">
        <ele>598.08</ele>
        <time>2013-07-06T11:05:48Z</time>
      </trkpt>
      <trkpt lat="44.11174" lon="3.26178">
        <ele>597.6</ele>
        <time>2013-07-06T11:05:51Z</time>
      </trkpt>
      <trkpt lat="44.11194" lon="3.26169">
        <ele>597.12</ele>
        <time>2013-07-06T11:05:58Z</time>
      </trkpt>
      <trkpt lat="44.11198" lon="3.26167">
        <ele>596.64</ele>
        <time>2013-07-06T11:05:59Z</time>
      </trkpt>
      <trkpt lat="44.11202" lon="3.26166">
        <ele>596.64</ele>
        <time>2013-07-06T11:06:00Z</time>
      </trkpt>
      <trkpt lat="44.11232" lon="3.26165">
        <ele>597.12</ele>
        <time>2013-07-06T11:06:10Z</time>
      </trkpt>
      <trkpt lat="44.11258" lon="3.26174">
        <ele>597.6</ele>
        <time>2013-07-06T11:06:21Z</time>
      </trkpt>
      <trkpt lat="44.11264" lon="3.26173">
        <ele>597.12</ele>
        <time>2013-07-06T11:06:34Z</time>
      </trkpt>
      <trkpt lat="44.11266" lon="3.26174">
        <ele>597.6</ele>
        <time>2013-07-06T11:06:41Z</time>
      </trkpt>
      <trkpt lat="44.11268" lon="3.26174">
        <ele>597.6</ele>
        <time>2013-07-06T11:06:42Z</time>
      </trkpt>
      <trkpt lat="44.11277" lon="3.26171">
        <ele>597.12</ele>
        <time>2013-07-06T11:06:46Z</time>
      </trkpt>
      <trkpt lat="44.11279" lon="3.26169">
        <ele>597.12</ele>
        <time>2013-07-06T11:06:47Z</time>
      </trkpt>
      <trkpt lat="44.11297" lon="3.2616">
        <ele>597.12</ele>
        <time>2013-07-06T11:06:53Z</time>
      </trkpt>
      <trkpt lat="44.113" lon="3.26161">
        <ele>597.12</ele>
        <time>2013-07-06T11:06:54Z</time>
      </trkpt>
      <trkpt lat="44.11302" lon="3.26161">
        <ele>597.6</ele>
        <time>2013-07-06T11:06:55Z</time>
      </trkpt>
      <trkpt lat="44.11304" lon="3.26161">
        <ele>597.6</ele>
        <time>2013-07-06T11:06:56Z</time>
      </trkpt>
      <trkpt lat="44.11306" lon="3.26159">
        <ele>597.6</ele>
        <time>2013-07-06T11:06:57Z</time>
      </trkpt>
      <trkpt lat="44.11308" lon="3.26157">
        <ele>597.6</ele>
        <time>2013-07-06T11:06:58Z</time>
      </trkpt>
      <trkpt lat="44.11311" lon="3.26156">
        <ele>597.12</ele>
        <time>2013-07-06T11:06:59Z</time>
      </trkpt>
      <trkpt lat="44.11314" lon="3.26155">
        <ele>597.12</ele>
        <time>2013-07-06T11:07:00Z</time>
      </trkpt>
      <trkpt lat="44.11317" lon="3.26154">
        <ele>597.6</ele>
        <time>2013-07-06T11:07:01Z</time>
      </trkpt>
      <trkpt lat="44.11347" lon="3.26138">
        <ele>599.04</ele>
        <time>2013-07-06T11:07:14Z</time>
      </trkpt>
      <trkpt lat="44.11374" lon="3.26134">
        <ele>599.04</ele>
        <time>2013-07-06T11:07:25Z</time>
      </trkpt>
      <trkpt lat="44.11381" lon="3.26137">
        <ele>599.52</ele>
        <time>2013-07-06T11:07:28Z</time>
      </trkpt>
      <trkpt lat="44.11383" lon="3.26139">
        <ele>599.52</ele>
        <time>2013-07-06T11:07:39Z</time>
      </trkpt>
      <trkpt lat="44.11386" lon="3.2614">
        <ele>598.56</ele>
        <time>2013-07-06T11:07:42Z</time>
      </trkpt>
      <trkpt lat="44.11392" lon="3.26143">
        <ele>598.08</ele>
        <time>2013-07-06T11:07:44Z</time>
      </trkpt>
      <trkpt lat="44.11395" lon="3.26147">
        <ele>599.04</ele>
        <time>2013-07-06T11:07:46Z</time>
      </trkpt>
      <trkpt lat="44.11398" lon="3.26149">
        <ele>599.52</ele>
        <time>2013-07-06T11:07:48Z</time>
      </trkpt>
      <trkpt lat="44.11405" lon="3.26158">
        <ele>601.44</ele>
        <time>2013-07-06T11:07:54Z</time>
      </trkpt>
      <trkpt lat="44.11425" lon="3.26162">
        <ele>604.33</ele>
        <time>2013-07-06T11:08:06Z</time>
      </trkpt>
      <trkpt lat="44.1143" lon="3.2616">
        <ele>603.85</ele>
        <time>2013-07-06T11:08:09Z</time>
      </trkpt>
      <trkpt lat="44.1144" lon="3.2616">
        <ele>603.36</ele>
        <time>2013-07-06T11:08:14Z</time>
      </trkpt>
      <trkpt lat="44.11445" lon="3.2616">
        <ele>603.36</ele>
        <time>2013-07-06T11:08:16Z</time>
      </trkpt>
      <trkpt lat="44.1146" lon="3.26156">
        <ele>603.85</ele>
        <time>2013-07-06T11:08:27Z</time>
      </trkpt>
      <trkpt lat="44.1146" lon="3.26156">
        <ele>603.85</ele>
        <time>2013-07-06T11:08:38Z</time>
      </trkpt>
      <trkpt lat="44.11468" lon="3.2615">
        <ele>602.88</ele>
        <time>2013-07-06T11:08:42Z</time>
      </trkpt>
      <trkpt lat="44.11472" lon="3.26149">
        <ele>603.36</ele>
        <time>2013-07-06T11:08:50Z</time>
      </trkpt>
      <trkpt lat="44.11483" lon="3.26142">
        <ele>603.85</ele>
        <time>2013-07-06T11:09:01Z</time>
      </trkpt>
      <trkpt lat="44.11487" lon="3.26138">
        <ele>604.33</ele>
        <time>2013-07-06T11:09:03Z</time>
      </trkpt>
      <trkpt lat="44.11496" lon="3.26125">
        <ele>604.81</ele>
        <time>2013-07-06T11:09:08Z</time>
      </trkpt>
      <trkpt lat="44.11506" lon="3.26112">
        <ele>605.77</ele>
        <time>2013-07-06T11:09:13Z</time>
      </trkpt>
      <trkpt lat="44.11513" lon="3.26101">
        <ele>607.21</ele>
        <time>2013-07-06T11:09:18Z</time>
      </trkpt>
      <trkpt lat="44.11516" lon="3.261">
        <ele>608.65</ele>
        <time>2013-07-06T11:09:20Z</time>
      </trkpt>
      <trkpt lat="44.11524" lon="3.26093">
        <ele>610.57</ele>
        <time>2013-07-06T11:09:31Z</time>
      </trkpt>
      <trkpt lat="44.11529" lon="3.26087">
        <ele>612.02</ele>
        <time>2013-07-06T11:09:36Z</time>
      </trkpt>
      <trkpt lat="44.11532" lon="3.26086">
        <ele>612.98</ele>
        <time>2013-07-06T11:09:49Z</time>
      </trkpt>
      <trkpt lat="44.11532" lon="3.26086">
        <ele>612.98</ele>
        <time>2013-07-06T11:10:10Z</time>
      </trkpt>
      <trkpt lat="44.11532" lon="3.26086">
        <ele>612.5</ele>
        <time>2013-07-06T11:10:36Z</time>
      </trkpt>
      <trkpt lat="44.11532" lon="3.26086">
        <ele>612.02</ele>
        <time>2013-07-06T11:10:57Z</time>
      </trkpt>
      <trkpt lat="44.11532" lon="3.26086">
        <ele>612.02</ele>
        <time>2013-07-06T11:11:26Z</time>
      </trkpt>
      <trkpt lat="44.11533" lon="3.26086">
        <ele>611.54</ele>
        <time>2013-07-06T11:11:52Z</time>
      </trkpt>
      <trkpt lat="44.11533" lon="3.26086">
        <ele>611.06</ele>
        <time>2013-07-06T11:12:17Z</time>
      </trkpt>
      <trkpt lat="44.11532" lon="3.26085">
        <ele>611.06</ele>
        <time>2013-07-06T11:12:33Z</time>
      </trkpt>
      <trkpt lat="44.11533" lon="3.26083">
        <ele>611.06</ele>
        <time>2013-07-06T11:12:52Z</time>
      </trkpt>
      <trkpt lat="44.11538" lon="3.2608">
        <ele>611.54</ele>
        <time>2013-07-06T11:13:06Z</time>
      </trkpt>
      <trkpt lat="44.1154" lon="3.26079">
        <ele>612.02</ele>
        <time>2013-07-06T11:13:08Z</time>
      </trkpt>
      <trkpt lat="44.11557" lon="3.26061">
        <ele>614.9</ele>
        <time>2013-07-06T11:13:25Z</time>
      </trkpt>
      <trkpt lat="44.11566" lon="3.26059">
        <ele>615.86</ele>
        <time>2013-07-06T11:13:36Z</time>
      </trkpt>
      <trkpt lat="44.11575" lon="3.26056">
        <ele>616.34</ele>
        <time>2013-07-06T11:13:49Z</time>
      </trkpt>
      <trkpt lat="44.11588" lon="3.26056">
        <ele>616.82</ele>
        <time>2013-07-06T11:14:01Z</time>
      </trkpt>
      <trkpt lat="44.11588" lon="3.26056">
        <ele>616.34</ele>
        <time>2013-07-06T11:14:23Z</time>
      </trkpt>
      <trkpt lat="44.11592" lon="3.26056">
        <ele>616.34</ele>
        <time>2013-07-06T11:14:35Z</time>
      </trkpt>
      <trkpt lat="44.11607" lon="3.26049">
        <ele>616.82</ele>
        <time>2013-07-06T11:14:42Z</time>
      </trkpt>
      <trkpt lat="44.11617" lon="3.26041">
        <ele>617.78</ele>
        <time>2013-07-06T11:14:51Z</time>
      </trkpt>
      <trkpt lat="44.11625" lon="3.26031">
        <ele>620.19</ele>
        <time>2013-07-06T11:15:02Z</time>
      </trkpt>
      <trkpt lat="44.1163" lon="3.26024">
        <ele>622.11</ele>
        <time>2013-07-06T11:15:10Z</time>
      </trkpt>
      <trkpt lat="44.11632" lon="3.26015">
        <ele>624.99</ele>
        <time>2013-07-06T11:15:21Z</time>
      </trkpt>
      <trkpt lat="44.11633" lon="3.26012">
        <ele>625.96</ele>
        <time>2013-07-06T11:15:29Z</time>
      </trkpt>
      <trkpt lat="44.11631" lon="3.26009">
        <ele>626.92</ele>
        <time>2013-07-06T11:15:43Z</time>
      </trkpt>
      <trkpt lat="44.1163" lon="3.26007">
        <ele>626.44</ele>
        <time>2013-07-06T11:16:05Z</time>
      </trkpt>
      <trkpt lat="44.11608" lon="3.2598">
        <ele>623.07</ele>
        <time>2013-07-06T11:16:14Z</time>
      </trkpt>
      <trkpt lat="44.11602" lon="3.25974">
        <ele>621.15</ele>
        <time>2013-07-06T11:16:16Z</time>
      </trkpt>
      <trkpt lat="44.11601" lon="3.25971">
        <ele>619.71</ele>
        <time>2013-07-06T11:16:18Z</time>
      </trkpt>
      <trkpt lat="44.11602" lon="3.25968">
        <ele>619.71</ele>
        <time>2013-07-06T11:16:24Z</time>
      </trkpt>
      <trkpt lat="44.11602" lon="3.25965">
        <ele>619.23</ele>
        <time>2013-07-06T11:16:25Z</time>
      </trkpt>
      <trkpt lat="44.11602" lon="3.25962">
        <ele>619.23</ele>
        <time>2013-07-06T11:16:26Z</time>
      </trkpt>
      <trkpt lat="44.11601" lon="3.25959">
        <ele>619.23</ele>
        <time>2013-07-06T11:16:27Z</time>
      </trkpt>
      <trkpt lat="44.11601" lon="3.25956">
        <ele>618.75</ele>
        <time>2013-07-06T11:16:28Z</time>
      </trkpt>
      <trkpt lat="44.11602" lon="3.25952">
        <ele>619.23</ele>
        <time>2013-07-06T11:16:29Z</time>
      </trkpt>
      <trkpt lat="44.11611" lon="3.25908">
        <ele>619.71</ele>
        <time>2013-07-06T11:16:41Z</time>
      </trkpt>
      <trkpt lat="44.11611" lon="3.25905">
        <ele>619.23</ele>
        <time>2013-07-06T11:16:42Z</time>
      </trkpt>
      <trkpt lat="44.11612" lon="3.25901">
        <ele>619.23</ele>
        <time>2013-07-06T11:16:43Z</time>
      </trkpt>
      <trkpt lat="44.11613" lon="3.25897">
        <ele>619.71</ele>
        <time>2013-07-06T11:16:44Z</time>
      </trkpt>
      <trkpt lat="44.11614" lon="3.25894">
        <ele>619.23</ele>
        <time>2013-07-06T11:16:45Z</time>
      </trkpt>
      <trkpt lat="44.11616" lon="3.25891">
        <ele>619.23</ele>
        <time>2013-07-06T11:16:46Z</time>
      </trkpt>
      <trkpt lat="44.11619" lon="3.25889">
        <ele>619.71</ele>
        <time>2013-07-06T11:16:47Z</time>
      </trkpt>
      <trkpt lat="44.11621" lon="3.25887">
        <ele>619.71</ele>
        <time>2013-07-06T11:16:48Z</time>
      </trkpt>
      <trkpt lat="44.11623" lon="3.25885">
        <ele>620.19</ele>
        <time>2013-07-06T11:16:49Z</time>
      </trkpt>
      <trkpt lat="44.11646" lon="3.25855">
        <ele>623.55</ele>
        <time>2013-07-06T11:17:02Z</time>
      </trkpt>
      <trkpt lat="44.11648" lon="3.25852">
        <ele>624.03</ele>
        <time>2013-07-06T11:17:04Z</time>
      </trkpt>
      <trkpt lat="44.1165" lon="3.25828">
        <ele>624.51</ele>
        <time>2013-07-06T11:17:11Z</time>
      </trkpt>
      <trkpt lat="44.11648" lon="3.25816">
        <ele>623.55</ele>
        <time>2013-07-06T11:17:13Z</time>
      </trkpt>
      <trkpt lat="44.11648" lon="3.2581">
        <ele>623.55</ele>
        <time>2013-07-06T11:17:14Z</time>
      </trkpt>
      <trkpt lat="44.11655" lon="3.25759">
        <ele>623.55</ele>
        <time>2013-07-06T11:17:25Z</time>
      </trkpt>
      <trkpt lat="44.11658" lon="3.25746">
        <ele>623.55</ele>
        <time>2013-07-06T11:17:28Z</time>
      </trkpt>
      <trkpt lat="44.1166" lon="3.25742">
        <ele>623.55</ele>
        <time>2013-07-06T11:17:29Z</time>
      </trkpt>
      <trkpt lat="44.11664" lon="3.25721">
        <ele>622.59</ele>
        <time>2013-07-06T11:17:34Z</time>
      </trkpt>
      <trkpt lat="44.11665" lon="3.25715">
        <ele>622.11</ele>
        <time>2013-07-06T11:17:35Z</time>
      </trkpt>
      <trkpt lat="44.11666" lon="3.25708">
        <ele>621.63</ele>
        <time>2013-07-06T11:17:36Z</time>
      </trkpt>
      <trkpt lat="44.11668" lon="3.25701">
        <ele>621.15</ele>
        <time>2013-07-06T11:17:37Z</time>
      </trkpt>
      <trkpt lat="44.1167" lon="3.25695">
        <ele>621.15</ele>
        <time>2013-07-06T11:17:38Z</time>
      </trkpt>
      <trkpt lat="44.11674" lon="3.25689">
        <ele>620.67</ele>
        <time>2013-07-06T11:17:39Z</time>
      </trkpt>
      <trkpt lat="44.11676" lon="3.25683">
        <ele>620.67</ele>
        <time>2013-07-06T11:17:40Z</time>
      </trkpt>
      <trkpt lat="44.11677" lon="3.25676">
        <ele>620.19</ele>
        <time>2013-07-06T11:17:41Z</time>
      </trkpt>
      <trkpt lat="44.11677" lon="3.25671">
        <ele>620.67</ele>
        <time>2013-07-06T11:17:42Z</time>
      </trkpt>
      <trkpt lat="44.11676" lon="3.25666">
        <ele>620.67</ele>
        <time>2013-07-06T11:17:43Z</time>
      </trkpt>
      <trkpt lat="44.11675" lon="3.25662">
        <ele>621.63</ele>
        <time>2013-07-06T11:17:44Z</time>
      </trkpt>
      <trkpt lat="44.11674" lon="3.25658">
        <ele>622.11</ele>
        <time>2013-07-06T11:17:45Z</time>
      </trkpt>
      <trkpt lat="44.11674" lon="3.25654">
        <ele>622.11</ele>
        <time>2013-07-06T11:17:46Z</time>
      </trkpt>
      <trkpt lat="44.11674" lon="3.25649">
        <ele>622.11</ele>
        <time>2013-07-06T11:17:47Z</time>
      </trkpt>
      <trkpt lat="44.11671" lon="3.2562">
        <ele>624.51</ele>
        <time>2013-07-06T11:17:56Z</time>
      </trkpt>
      <trkpt lat="44.11671" lon="3.25616">
        <ele>624.51</ele>
        <time>2013-07-06T11:17:57Z</time>
      </trkpt>
      <trkpt lat="44.11671" lon="3.25611">
        <ele>624.99</ele>
        <time>2013-07-06T11:17:58Z</time>
      </trkpt>
      <trkpt lat="44.11671" lon="3.25608">
        <ele>625.47</ele>
        <time>2013-07-06T11:17:59Z</time>
      </trkpt>
      <trkpt lat="44.11671" lon="3.25605">
        <ele>625.96</ele>
        <time>2013-07-06T11:18:00Z</time>
      </trkpt>
      <trkpt lat="44.11671" lon="3.25602">
        <ele>626.44</ele>
        <time>2013-07-06T11:18:01Z</time>
      </trkpt>
      <trkpt lat="44.11671" lon="3.25599">
        <ele>626.92</ele>
        <time>2013-07-06T11:18:02Z</time>
      </trkpt>
      <trkpt lat="44.1167" lon="3.25596">
        <ele>626.92</ele>
        <time>2013-07-06T11:18:03Z</time>
      </trkpt>
      <trkpt lat="44.1167" lon="3.25593">
        <ele>626.92</ele>
        <time>2013-07-06T11:18:04Z</time>
      </trkpt>
      <trkpt lat="44.1167" lon="3.2559">
        <ele>627.4</ele>
        <time>2013-07-06T11:18:05Z</time>
      </trkpt>
      <trkpt lat="44.11669" lon="3.25587">
        <ele>627.88</ele>
        <time>2013-07-06T11:18:06Z</time>
      </trkpt>
      <trkpt lat="44.11669" lon="3.25584">
        <ele>627.4</ele>
        <time>2013-07-06T11:18:07Z</time>
      </trkpt>
      <trkpt lat="44.11669" lon="3.2558">
        <ele>627.4</ele>
        <time>2013-07-06T11:18:08Z</time>
      </trkpt>
      <trkpt lat="44.11668" lon="3.25576">
        <ele>627.88</ele>
        <time>2013-07-06T11:18:09Z</time>
      </trkpt>
      <trkpt lat="44.11667" lon="3.25574">
        <ele>627.88</ele>
        <time>2013-07-06T11:18:10Z</time>
      </trkpt>
      <trkpt lat="44.11666" lon="3.25571">
        <ele>628.36</ele>
        <time>2013-07-06T11:18:11Z</time>
      </trkpt>
      <trkpt lat="44.11662" lon="3.25555">
        <ele>628.84</ele>
        <time>2013-07-06T11:18:16Z</time>
      </trkpt>
      <trkpt lat="44.11663" lon="3.25552">
        <ele>629.32</ele>
        <time>2013-07-06T11:18:17Z</time>
      </trkpt>
      <trkpt lat="44.11664" lon="3.25536">
        <ele>630.76</ele>
        <time>2013-07-06T11:18:23Z</time>
      </trkpt>
      <trkpt lat="44.11664" lon="3.25533">
        <ele>630.76</ele>
        <time>2013-07-06T11:18:24Z</time>
      </trkpt>
      <trkpt lat="44.11665" lon="3.25531">
        <ele>631.24</ele>
        <time>2013-07-06T11:18:25Z</time>
      </trkpt>
      <trkpt lat="44.11666" lon="3.25528">
        <ele>631.24</ele>
        <time>2013-07-06T11:18:26Z</time>
      </trkpt>
      <trkpt lat="44.11667" lon="3.25525">
        <ele>631.24</ele>
        <time>2013-07-06T11:18:27Z</time>
      </trkpt>
      <trkpt lat="44.11669" lon="3.25523">
        <ele>631.72</ele>
        <time>2013-07-06T11:18:28Z</time>
      </trkpt>
      <trkpt lat="44.1167" lon="3.2552">
        <ele>631.72</ele>
        <time>2013-07-06T11:18:29Z</time>
      </trkpt>
      <trkpt lat="44.11671" lon="3.25517">
        <ele>631.72</ele>
        <time>2013-07-06T11:18:30Z</time>
      </trkpt>
      <trkpt lat="44.11672" lon="3.25514">
        <ele>631.72</ele>
        <time>2013-07-06T11:18:31Z</time>
      </trkpt>
      <trkpt lat="44.11676" lon="3.25506">
        <ele>632.2</ele>
        <time>2013-07-06T11:18:34Z</time>
      </trkpt>
      <trkpt lat="44.11678" lon="3.25504">
        <ele>632.68</ele>
        <time>2013-07-06T11:18:35Z</time>
      </trkpt>
      <trkpt lat="44.11679" lon="3.25502">
        <ele>633.17</ele>
        <time>2013-07-06T11:18:36Z</time>
      </trkpt>
      <trkpt lat="44.11682" lon="3.25493">
        <ele>633.65</ele>
        <time>2013-07-06T11:18:39Z</time>
      </trkpt>
      <trkpt lat="44.11682" lon="3.2549">
        <ele>633.65</ele>
        <time>2013-07-06T11:18:40Z</time>
      </trkpt>
      <trkpt lat="44.11682" lon="3.25486">
        <ele>633.65</ele>
        <time>2013-07-06T11:18:41Z</time>
      </trkpt>
      <trkpt lat="44.11684" lon="3.25483">
        <ele>633.17</ele>
        <time>2013-07-06T11:18:42Z</time>
      </trkpt>
      <trkpt lat="44.11686" lon="3.25481">
        <ele>634.13</ele>
        <time>2013-07-06T11:18:49Z</time>
      </trkpt>
      <trkpt lat="44.11687" lon="3.2548">
        <ele>634.13</ele>
        <time>2013-07-06T11:18:56Z</time>
      </trkpt>
      <trkpt lat="44.11689" lon="3.25475">
        <ele>634.13</ele>
        <time>2013-07-06T11:18:59Z</time>
      </trkpt>
      <trkpt lat="44.1169" lon="3.25474">
        <ele>634.13</ele>
        <time>2013-07-06T11:19:00Z</time>
      </trkpt>
      <trkpt lat="44.11692" lon="3.25472">
        <ele>634.13</ele>
        <time>2013-07-06T11:19:01Z</time>
      </trkpt>
      <trkpt lat="44.11693" lon="3.2547">
        <ele>634.61</ele>
        <time>2013-07-06T11:19:02Z</time>
      </trkpt>
      <trkpt lat="44.11694" lon="3.25468">
        <ele>635.09</ele>
        <time>2013-07-06T11:19:03Z</time>
      </trkpt>
      <trkpt lat="44.11696" lon="3.25464">
        <ele>635.57</ele>
        <time>2013-07-06T11:19:05Z</time>
      </trkpt>
      <trkpt lat="44.11698" lon="3.25459">
        <ele>636.05</ele>
        <time>2013-07-06T11:19:07Z</time>
      </trkpt>
      <trkpt lat="44.11699" lon="3.25457">
        <ele>636.05</ele>
        <time>2013-07-06T11:19:08Z</time>
      </trkpt>
      <trkpt lat="44.11716" lon="3.25427">
        <ele>638.93</ele>
        <time>2013-07-06T11:19:20Z</time>
      </trkpt>
      <trkpt lat="44.11717" lon="3.25426">
        <ele>639.41</ele>
        <time>2013-07-06T11:19:21Z</time>
      </trkpt>
      <trkpt lat="44.11718" lon="3.25424">
        <ele>639.89</ele>
        <time>2013-07-06T11:19:22Z</time>
      </trkpt>
      <trkpt lat="44.11719" lon="3.25423">
        <ele>639.89</ele>
        <time>2013-07-06T11:19:23Z</time>
      </trkpt>
      <trkpt lat="44.1172" lon="3.25422">
        <ele>639.89</ele>
        <time>2013-07-06T11:19:24Z</time>
      </trkpt>
      <trkpt lat="44.11722" lon="3.25421">
        <ele>639.89</ele>
        <time>2013-07-06T11:19:25Z</time>
      </trkpt>
      <trkpt lat="44.11723" lon="3.2542">
        <ele>639.89</ele>
        <time>2013-07-06T11:19:26Z</time>
      </trkpt>
      <trkpt lat="44.11724" lon="3.25419">
        <ele>639.89</ele>
        <time>2013-07-06T11:19:27Z</time>
      </trkpt>
      <trkpt lat="44.11726" lon="3.25421">
        <ele>640.38</ele>
        <time>2013-07-06T11:19:28Z</time>
      </trkpt>
      <trkpt lat="44.11727" lon="3.25422">
        <ele>640.38</ele>
        <time>2013-07-06T11:19:29Z</time>
      </trkpt>
      <trkpt lat="44.11727" lon="3.25424">
        <ele>640.38</ele>
        <time>2013-07-06T11:19:30Z</time>
      </trkpt>
      <trkpt lat="44.11726" lon="3.25426">
        <ele>640.86</ele>
        <time>2013-07-06T11:19:31Z</time>
      </trkpt>
      <trkpt lat="44.11726" lon="3.25427">
        <ele>640.86</ele>
        <time>2013-07-06T11:19:32Z</time>
      </trkpt>
      <trkpt lat="44.11725" lon="3.25428">
        <ele>640.38</ele>
        <time>2013-07-06T11:19:33Z</time>
      </trkpt>
      <trkpt lat="44.11724" lon="3.2543">
        <ele>640.86</ele>
        <time>2013-07-06T11:19:44Z</time>
      </trkpt>
      <trkpt lat="44.11724" lon="3.2543">
        <ele>640.86</ele>
        <time>2013-07-06T11:20:04Z</time>
      </trkpt>
      <trkpt lat="44.11724" lon="3.2543">
        <ele>640.38</ele>
        <time>2013-07-06T11:20:27Z</time>
      </trkpt>
      <trkpt lat="44.11724" lon="3.2543">
        <ele>640.86</ele>
        <time>2013-07-06T11:20:52Z</time>
      </trkpt>
      <trkpt lat="44.11726" lon="3.25429">
        <ele>640.38</ele>
        <time>2013-07-06T11:21:04Z</time>
      </trkpt>
      <trkpt lat="44.11725" lon="3.25428">
        <ele>640.38</ele>
        <time>2013-07-06T11:21:07Z</time>
      </trkpt>
      <trkpt lat="44.11725" lon="3.25426">
        <ele>640.38</ele>
        <time>2013-07-06T11:21:08Z</time>
      </trkpt>
      <trkpt lat="44.11726" lon="3.25424">
        <ele>640.38</ele>
        <time>2013-07-06T11:21:09Z</time>
      </trkpt>
      <trkpt lat="44.11726" lon="3.25421">
        <ele>639.89</ele>
        <time>2013-07-06T11:21:10Z</time>
      </trkpt>
      <trkpt lat="44.11727" lon="3.25417">
        <ele>639.89</ele>
        <time>2013-07-06T11:21:11Z</time>
      </trkpt>
      <trkpt lat="44.11726" lon="3.25414">
        <ele>640.38</ele>
        <time>2013-07-06T11:21:12Z</time>
      </trkpt>
      <trkpt lat="44.11723" lon="3.25414">
        <ele>639.41</ele>
        <time>2013-07-06T11:21:13Z</time>
      </trkpt>
      <trkpt lat="44.11722" lon="3.25418">
        <ele>639.41</ele>
        <time>2013-07-06T11:21:14Z</time>
      </trkpt>
      <trkpt lat="44.11722" lon="3.25421">
        <ele>639.89</ele>
        <time>2013-07-06T11:21:15Z</time>
      </trkpt>
      <trkpt lat="44.11723" lon="3.25423">
        <ele>639.89</ele>
        <time>2013-07-06T11:21:16Z</time>
      </trkpt>
      <trkpt lat="44.11725" lon="3.25423">
        <ele>640.38</ele>
        <time>2013-07-06T11:21:17Z</time>
      </trkpt>
      <trkpt lat="44.11731" lon="3.25421">
        <ele>640.86</ele>
        <time>2013-07-06T11:21:23Z</time>
      </trkpt>
      <trkpt lat="44.11734" lon="3.25415">
        <ele>640.38</ele>
        <time>2013-07-06T11:21:27Z</time>
      </trkpt>
      <trkpt lat="44.11735" lon="3.25415">
        <ele>640.38</ele>
        <time>2013-07-06T11:21:28Z</time>
      </trkpt>
      <trkpt lat="44.11736" lon="3.25416">
        <ele>640.38</ele>
        <time>2013-07-06T11:21:29Z</time>
      </trkpt>
      <trkpt lat="44.11737" lon="3.25417">
        <ele>640.86</ele>
        <time>2013-07-06T11:21:30Z</time>
      </trkpt>
      <trkpt lat="44.11738" lon="3.25418">
        <ele>640.86</ele>
        <time>2013-07-06T11:21:31Z</time>
      </trkpt>
      <trkpt lat="44.11739" lon="3.25417">
        <ele>640.86</ele>
        <time>2013-07-06T11:21:32Z</time>
      </trkpt>
      <trkpt lat="44.11739" lon="3.25416">
        <ele>640.86</ele>
        <time>2013-07-06T11:21:33Z</time>
      </trkpt>
      <trkpt lat="44.11739" lon="3.25414">
        <ele>640.86</ele>
        <time>2013-07-06T11:21:34Z</time>
      </trkpt>
      <trkpt lat="44.11739" lon="3.25412">
        <ele>640.86</ele>
        <time>2013-07-06T11:21:35Z</time>
      </trkpt>
      <trkpt lat="44.11738" lon="3.25409">
        <ele>640.86</ele>
        <time>2013-07-06T11:21:38Z</time>
      </trkpt>
      <trkpt lat="44.11736" lon="3.25414">
        <ele>640.86</ele>
        <time>2013-07-06T11:21:41Z</time>
      </trkpt>
      <trkpt lat="44.11738" lon="3.25418">
        <ele>640.86</ele>
        <time>2013-07-06T11:21:56Z</time>
      </trkpt>
      <trkpt lat="44.11739" lon="3.25416">
        <ele>641.34</ele>
        <time>2013-07-06T11:21:58Z</time>
      </trkpt>
      <trkpt lat="44.11748" lon="3.25401">
        <ele>641.82</ele>
        <time>2013-07-06T11:22:07Z</time>
      </trkpt>
      <trkpt lat="44.11768" lon="3.25353">
        <ele>643.74</ele>
        <time>2013-07-06T11:22:27Z</time>
      </trkpt>
      <trkpt lat="44.11791" lon="3.25324">
        <ele>646.14</ele>
        <time>2013-07-06T11:22:42Z</time>
      </trkpt>
      <trkpt lat="44.11822" lon="3.25295">
        <ele>649.03</ele>
        <time>2013-07-06T11:22:59Z</time>
      </trkpt>
      <trkpt lat="44.11829" lon="3.25289">
        <ele>649.03</ele>
        <time>2013-07-06T11:23:03Z</time>
      </trkpt>
      <trkpt lat="44.11852" lon="3.25266">
        <ele>650.95</ele>
        <time>2013-07-06T11:23:17Z</time>
      </trkpt>
      <trkpt lat="44.1188" lon="3.25246">
        <ele>652.87</ele>
        <time>2013-07-06T11:23:32Z</time>
      </trkpt>
      <trkpt lat="44.11893" lon="3.25239">
        <ele>653.83</ele>
        <time>2013-07-06T11:23:39Z</time>
      </trkpt>
      <trkpt lat="44.11926" lon="3.25235">
        <ele>656.24</ele>
        <time>2013-07-06T11:23:53Z</time>
      </trkpt>
      <trkpt lat="44.11952" lon="3.25233">
        <ele>657.68</ele>
        <time>2013-07-06T11:24:06Z</time>
      </trkpt>
      <trkpt lat="44.11986" lon="3.25236">
        <ele>660.08</ele>
        <time>2013-07-06T11:24:22Z</time>
      </trkpt>
      <trkpt lat="44.12014" lon="3.25251">
        <ele>662.49</ele>
        <time>2013-07-06T11:24:37Z</time>
      </trkpt>
      <trkpt lat="44.1204" lon="3.25283">
        <ele>664.89</ele>
        <time>2013-07-06T11:24:53Z</time>
      </trkpt>
      <trkpt lat="44.12048" lon="3.25286">
        <ele>665.37</ele>
        <time>2013-07-06T11:24:57Z</time>
      </trkpt>
      <trkpt lat="44.12077" lon="3.25265">
        <ele>667.29</ele>
        <time>2013-07-06T11:25:11Z</time>
      </trkpt>
      <trkpt lat="44.12103" lon="3.25223">
        <ele>669.7</ele>
        <time>2013-07-06T11:25:28Z</time>
      </trkpt>
      <trkpt lat="44.12137" lon="3.25198">
        <ele>672.1</ele>
        <time>2013-07-06T11:25:45Z</time>
      </trkpt>
      <trkpt lat="44.12167" lon="3.25181">
        <ele>674.02</ele>
        <time>2013-07-06T11:25:59Z</time>
      </trkpt>
      <trkpt lat="44.12197" lon="3.25164">
        <ele>675.94</ele>
        <time>2013-07-06T11:26:13Z</time>
      </trkpt>
      <trkpt lat="44.1223" lon="3.25144">
        <ele>677.87</ele>
        <time>2013-07-06T11:26:28Z</time>
      </trkpt>
      <trkpt lat="44.12261" lon="3.25111">
        <ele>680.75</ele>
        <time>2013-07-06T11:26:44Z</time>
      </trkpt>
      <trkpt lat="44.12304" lon="3.25079">
        <ele>683.15</ele>
        <time>2013-07-06T11:27:02Z</time>
      </trkpt>
      <trkpt lat="44.12337" lon="3.25047">
        <ele>686.04</ele>
        <time>2013-07-06T11:27:16Z</time>
      </trkpt>
      <trkpt lat="44.12362" lon="3.25017">
        <ele>687.96</ele>
        <time>2013-07-06T11:27:28Z</time>
      </trkpt>
      <trkpt lat="44.12383" lon="3.24984">
        <ele>690.36</ele>
        <time>2013-07-06T11:27:42Z</time>
      </trkpt>
      <trkpt lat="44.12384" lon="3.24983">
        <ele>690.36</ele>
        <time>2013-07-06T11:27:43Z</time>
      </trkpt>
      <trkpt lat="44.12388" lon="3.2498">
        <ele>690.84</ele>
        <time>2013-07-06T11:27:56Z</time>
      </trkpt>
      <trkpt lat="44.12391" lon="3.24969">
        <ele>690.84</ele>
        <time>2013-07-06T11:28:06Z</time>
      </trkpt>
      <trkpt lat="44.12396" lon="3.24962">
        <ele>691.33</ele>
        <time>2013-07-06T11:28:18Z</time>
      </trkpt>
      <trkpt lat="44.12395" lon="3.24962">
        <ele>689.88</ele>
        <time>2013-07-06T11:28:27Z</time>
      </trkpt>
      <trkpt lat="44.12402" lon="3.2496">
        <ele>691.33</ele>
        <time>2013-07-06T11:28:56Z</time>
      </trkpt>
      <trkpt lat="44.12408" lon="3.24949">
        <ele>691.33</ele>
        <time>2013-07-06T11:29:00Z</time>
      </trkpt>
      <trkpt lat="44.1243" lon="3.24921">
        <ele>694.21</ele>
        <time>2013-07-06T11:29:15Z</time>
      </trkpt>
      <trkpt lat="44.1246" lon="3.24883">
        <ele>696.13</ele>
        <time>2013-07-06T11:29:33Z</time>
      </trkpt>
      <trkpt lat="44.12494" lon="3.24856">
        <ele>698.05</ele>
        <time>2013-07-06T11:29:50Z</time>
      </trkpt>
      <trkpt lat="44.12526" lon="3.24825">
        <ele>700.94</ele>
        <time>2013-07-06T11:30:07Z</time>
      </trkpt>
      <trkpt lat="44.1256" lon="3.24795">
        <ele>703.34</ele>
        <time>2013-07-06T11:30:26Z</time>
      </trkpt>
      <trkpt lat="44.12584" lon="3.24783">
        <ele>705.26</ele>
        <time>2013-07-06T11:30:38Z</time>
      </trkpt>
      <trkpt lat="44.12605" lon="3.24798">
        <ele>707.19</ele>
        <time>2013-07-06T11:30:50Z</time>
      </trkpt>
      <trkpt lat="44.12609" lon="3.24807">
        <ele>707.67</ele>
        <time>2013-07-06T11:30:54Z</time>
      </trkpt>
      <trkpt lat="44.12621" lon="3.24821">
        <ele>708.63</ele>
        <time>2013-07-06T11:31:02Z</time>
      </trkpt>
      <trkpt lat="44.12645" lon="3.24836">
        <ele>710.07</ele>
        <time>2013-07-06T11:31:15Z</time>
      </trkpt>
      <trkpt lat="44.12667" lon="3.24855">
        <ele>711.51</ele>
        <time>2013-07-06T11:31:28Z</time>
      </trkpt>
      <trkpt lat="44.12688" lon="3.24874">
        <ele>713.44</ele>
        <time>2013-07-06T11:31:40Z</time>
      </trkpt>
      <trkpt lat="44.12722" lon="3.24889">
        <ele>715.84</ele>
        <time>2013-07-06T11:31:56Z</time>
      </trkpt>
      <trkpt lat="44.12748" lon="3.24894">
        <ele>717.28</ele>
        <time>2013-07-06T11:32:09Z</time>
      </trkpt>
      <trkpt lat="44.12777" lon="3.24899">
        <ele>719.2</ele>
        <time>2013-07-06T11:32:22Z</time>
      </trkpt>
      <trkpt lat="44.12811" lon="3.24902">
        <ele>720.65</ele>
        <time>2013-07-06T11:32:37Z</time>
      </trkpt>
      <trkpt lat="44.12849" lon="3.24898">
        <ele>722.09</ele>
        <time>2013-07-06T11:32:52Z</time>
      </trkpt>
      <trkpt lat="44.12887" lon="3.24896">
        <ele>723.05</ele>
        <time>2013-07-06T11:33:08Z</time>
      </trkpt>
      <trkpt lat="44.12929" lon="3.24896">
        <ele>725.45</ele>
        <time>2013-07-06T11:33:26Z</time>
      </trkpt>
      <trkpt lat="44.1295" lon="3.24909">
        <ele>726.41</ele>
        <time>2013-07-06T11:33:38Z</time>
      </trkpt>
      <trkpt lat="44.1295" lon="3.24909">
        <ele>724.49</ele>
        <time>2013-07-06T11:33:46Z</time>
      </trkpt>
      <trkpt lat="44.12954" lon="3.24892">
        <ele>725.93</ele>
        <time>2013-07-06T12:29:36Z</time>
      </trkpt>
      <trkpt lat="44.12951" lon="3.24889">
        <ele>725.93</ele>
        <time>2013-07-06T12:29:37Z</time>
      </trkpt>
      <trkpt lat="44.12962" lon="3.24898">
        <ele>725.93</ele>
        <time>2013-07-06T12:29:51Z</time>
      </trkpt>
      <trkpt lat="44.12954" lon="3.24896">
        <ele>726.41</ele>
        <time>2013-07-06T12:29:53Z</time>
      </trkpt>
      <trkpt lat="44.12933" lon="3.24894">
        <ele>727.86</ele>
        <time>2013-07-06T12:30:02Z</time>
      </trkpt>
      <trkpt lat="44.12929" lon="3.24892">
        <ele>727.37</ele>
        <time>2013-07-06T12:30:04Z</time>
      </trkpt>
      <trkpt lat="44.12893" lon="3.24885">
        <ele>725.93</ele>
        <time>2013-07-06T12:30:15Z</time>
      </trkpt>
      <trkpt lat="44.12838" lon="3.24893">
        <ele>723.53</ele>
        <time>2013-07-06T12:30:27Z</time>
      </trkpt>
      <trkpt lat="44.12816" lon="3.24897">
        <ele>723.05</ele>
        <time>2013-07-06T12:30:32Z</time>
      </trkpt>
      <trkpt lat="44.12811" lon="3.24896">
        <ele>722.57</ele>
        <time>2013-07-06T12:30:33Z</time>
      </trkpt>
      <trkpt lat="44.12789" lon="3.24891">
        <ele>722.09</ele>
        <time>2013-07-06T12:30:38Z</time>
      </trkpt>
      <trkpt lat="44.12785" lon="3.24892">
        <ele>722.09</ele>
        <time>2013-07-06T12:30:39Z</time>
      </trkpt>
      <trkpt lat="44.12766" lon="3.24893">
        <ele>720.16</ele>
        <time>2013-07-06T12:30:43Z</time>
      </trkpt>
      <trkpt lat="44.12744" lon="3.24885">
        <ele>718.72</ele>
        <time>2013-07-06T12:30:48Z</time>
      </trkpt>
      <trkpt lat="44.12739" lon="3.24884">
        <ele>718.72</ele>
        <time>2013-07-06T12:30:49Z</time>
      </trkpt>
      <trkpt lat="44.12734" lon="3.24883">
        <ele>718.24</ele>
        <time>2013-07-06T12:30:50Z</time>
      </trkpt>
      <trkpt lat="44.12706" lon="3.2488">
        <ele>716.8</ele>
        <time>2013-07-06T12:30:55Z</time>
      </trkpt>
      <trkpt lat="44.127" lon="3.24877">
        <ele>716.32</ele>
        <time>2013-07-06T12:30:56Z</time>
      </trkpt>
      <trkpt lat="44.12693" lon="3.24873">
        <ele>715.84</ele>
        <time>2013-07-06T12:30:57Z</time>
      </trkpt>
      <trkpt lat="44.1266" lon="3.24842">
        <ele>712.95</ele>
        <time>2013-07-06T12:31:02Z</time>
      </trkpt>
      <trkpt lat="44.12652" lon="3.24838">
        <ele>712.47</ele>
        <time>2013-07-06T12:31:03Z</time>
      </trkpt>
      <trkpt lat="44.12636" lon="3.2483">
        <ele>711.51</ele>
        <time>2013-07-06T12:31:05Z</time>
      </trkpt>
      <trkpt lat="44.12628" lon="3.24825">
        <ele>711.03</ele>
        <time>2013-07-06T12:31:06Z</time>
      </trkpt>
      <trkpt lat="44.12622" lon="3.24818">
        <ele>710.07</ele>
        <time>2013-07-06T12:31:07Z</time>
      </trkpt>
      <trkpt lat="44.12597" lon="3.24786">
        <ele>708.63</ele>
        <time>2013-07-06T12:31:11Z</time>
      </trkpt>
      <trkpt lat="44.12591" lon="3.24781">
        <ele>708.63</ele>
        <time>2013-07-06T12:31:12Z</time>
      </trkpt>
      <trkpt lat="44.12584" lon="3.24778">
        <ele>708.15</ele>
        <time>2013-07-06T12:31:13Z</time>
      </trkpt>
      <trkpt lat="44.12577" lon="3.24777">
        <ele>707.67</ele>
        <time>2013-07-06T12:31:14Z</time>
      </trkpt>
      <trkpt lat="44.12571" lon="3.24778">
        <ele>707.19</ele>
        <time>2013-07-06T12:31:15Z</time>
      </trkpt>
      <trkpt lat="44.12565" lon="3.24781">
        <ele>706.71</ele>
        <time>2013-07-06T12:31:16Z</time>
      </trkpt>
      <trkpt lat="44.12559" lon="3.24785">
        <ele>706.23</ele>
        <time>2013-07-06T12:31:17Z</time>
      </trkpt>
      <trkpt lat="44.12513" lon="3.24827">
        <ele>702.38</ele>
        <time>2013-07-06T12:31:24Z</time>
      </trkpt>
      <trkpt lat="44.12508" lon="3.24831">
        <ele>702.38</ele>
        <time>2013-07-06T12:31:25Z</time>
      </trkpt>
      <trkpt lat="44.12472" lon="3.24869">
        <ele>699.5</ele>
        <time>2013-07-06T12:31:37Z</time>
      </trkpt>
      <trkpt lat="44.12471" lon="3.24867">
        <ele>699.5</ele>
        <time>2013-07-06T12:31:38Z</time>
      </trkpt>
      <trkpt lat="44.12471" lon="3.24863">
        <ele>699.02</ele>
        <time>2013-07-06T12:31:39Z</time>
      </trkpt>
      <trkpt lat="44.12473" lon="3.2486">
        <ele>699.02</ele>
        <time>2013-07-06T12:31:40Z</time>
      </trkpt>
      <trkpt lat="44.12474" lon="3.24857">
        <ele>699.02</ele>
        <time>2013-07-06T12:31:41Z</time>
      </trkpt>
      <trkpt lat="44.12475" lon="3.24855">
        <ele>699.02</ele>
        <time>2013-07-06T12:31:42Z</time>
      </trkpt>
      <trkpt lat="44.12476" lon="3.24853">
        <ele>699.02</ele>
        <time>2013-07-06T12:31:43Z</time>
      </trkpt>
      <trkpt lat="44.12478" lon="3.24851">
        <ele>698.53</ele>
        <time>2013-07-06T12:31:44Z</time>
      </trkpt>
      <trkpt lat="44.1248" lon="3.2485">
        <ele>699.02</ele>
        <time>2013-07-06T12:31:45Z</time>
      </trkpt>
      <trkpt lat="44.12482" lon="3.24848">
        <ele>698.53</ele>
        <time>2013-07-06T12:31:46Z</time>
      </trkpt>
      <trkpt lat="44.12485" lon="3.24846">
        <ele>698.53</ele>
        <time>2013-07-06T12:31:47Z</time>
      </trkpt>
      <trkpt lat="44.12487" lon="3.24844">
        <ele>698.53</ele>
        <time>2013-07-06T12:31:48Z</time>
      </trkpt>
      <trkpt lat="44.12489" lon="3.24842">
        <ele>698.53</ele>
        <time>2013-07-06T12:31:49Z</time>
      </trkpt>
      <trkpt lat="44.12491" lon="3.24839">
        <ele>698.53</ele>
        <time>2013-07-06T12:31:50Z</time>
      </trkpt>
      <trkpt lat="44.12494" lon="3.24836">
        <ele>698.05</ele>
        <time>2013-07-06T12:31:51Z</time>
      </trkpt>
      <trkpt lat="44.12535" lon="3.24782">
        <ele>694.69</ele>
        <time>2013-07-06T12:32:02Z</time>
      </trkpt>
      <trkpt lat="44.12556" lon="3.24739">
        <ele>691.81</ele>
        <time>2013-07-06T12:32:07Z</time>
      </trkpt>
      <trkpt lat="44.12561" lon="3.24732">
        <ele>691.33</ele>
        <time>2013-07-06T12:32:08Z</time>
      </trkpt>
      <trkpt lat="44.12568" lon="3.24728">
        <ele>690.36</ele>
        <time>2013-07-06T12:32:09Z</time>
      </trkpt>
      <trkpt lat="44.12574" lon="3.24727">
        <ele>690.36</ele>
        <time>2013-07-06T12:32:10Z</time>
      </trkpt>
      <trkpt lat="44.12582" lon="3.24728">
        <ele>689.88</ele>
        <time>2013-07-06T12:32:11Z</time>
      </trkpt>
      <trkpt lat="44.12589" lon="3.24729">
        <ele>689.4</ele>
        <time>2013-07-06T12:32:12Z</time>
      </trkpt>
      <trkpt lat="44.12596" lon="3.24732">
        <ele>688.92</ele>
        <time>2013-07-06T12:32:13Z</time>
      </trkpt>
      <trkpt lat="44.12604" lon="3.24736">
        <ele>688.44</ele>
        <time>2013-07-06T12:32:14Z</time>
      </trkpt>
      <trkpt lat="44.12611" lon="3.2474">
        <ele>687.96</ele>
        <time>2013-07-06T12:32:15Z</time>
      </trkpt>
      <trkpt lat="44.1263" lon="3.24755">
        <ele>686.52</ele>
        <time>2013-07-06T12:32:18Z</time>
      </trkpt>
      <trkpt lat="44.12635" lon="3.24762">
        <ele>686.04</ele>
        <time>2013-07-06T12:32:19Z</time>
      </trkpt>
      <trkpt lat="44.12644" lon="3.24775">
        <ele>684.6</ele>
        <time>2013-07-06T12:32:21Z</time>
      </trkpt>
      <trkpt lat="44.12649" lon="3.2478">
        <ele>683.63</ele>
        <time>2013-07-06T12:32:22Z</time>
      </trkpt>
      <trkpt lat="44.12655" lon="3.24782">
        <ele>683.15</ele>
        <time>2013-07-06T12:32:23Z</time>
      </trkpt>
      <trkpt lat="44.12662" lon="3.24782">
        <ele>682.67</ele>
        <time>2013-07-06T12:32:24Z</time>
      </trkpt>
      <trkpt lat="44.1267" lon="3.24783">
        <ele>682.19</ele>
        <time>2013-07-06T12:32:25Z</time>
      </trkpt>
      <trkpt lat="44.12676" lon="3.24784">
        <ele>681.23</ele>
        <time>2013-07-06T12:32:26Z</time>
      </trkpt>
      <trkpt lat="44.12684" lon="3.24787">
        <ele>680.75</ele>
        <time>2013-07-06T12:32:27Z</time>
      </trkpt>
      <trkpt lat="44.1269" lon="3.24791">
        <ele>679.79</ele>
        <time>2013-07-06T12:32:28Z</time>
      </trkpt>
      <trkpt lat="44.12718" lon="3.24813">
        <ele>676.91</ele>
        <time>2013-07-06T12:32:32Z</time>
      </trkpt>
      <trkpt lat="44.12725" lon="3.24816">
        <ele>676.42</ele>
        <time>2013-07-06T12:32:33Z</time>
      </trkpt>
      <trkpt lat="44.12733" lon="3.24818">
        <ele>675.94</ele>
        <time>2013-07-06T12:32:34Z</time>
      </trkpt>
      <trkpt lat="44.12741" lon="3.24819">
        <ele>675.46</ele>
        <time>2013-07-06T12:32:35Z</time>
      </trkpt>
      <trkpt lat="44.1275" lon="3.24819">
        <ele>674.98</ele>
        <time>2013-07-06T12:32:36Z</time>
      </trkpt>
      <trkpt lat="44.12777" lon="3.24817">
        <ele>673.06</ele>
        <time>2013-07-06T12:32:39Z</time>
      </trkpt>
      <trkpt lat="44.12823" lon="3.24804">
        <ele>669.7</ele>
        <time>2013-07-06T12:32:44Z</time>
      </trkpt>
      <trkpt lat="44.12841" lon="3.24797">
        <ele>668.25</ele>
        <time>2013-07-06T12:32:46Z</time>
      </trkpt>
      <trkpt lat="44.1285" lon="3.24792">
        <ele>667.77</ele>
        <time>2013-07-06T12:32:47Z</time>
      </trkpt>
      <trkpt lat="44.12857" lon="3.24785">
        <ele>667.29</ele>
        <time>2013-07-06T12:32:48Z</time>
      </trkpt>
      <trkpt lat="44.12862" lon="3.24777">
        <ele>667.29</ele>
        <time>2013-07-06T12:32:49Z</time>
      </trkpt>
      <trkpt lat="44.12866" lon="3.24769">
        <ele>666.81</ele>
        <time>2013-07-06T12:32:50Z</time>
      </trkpt>
      <trkpt lat="44.12869" lon="3.2476">
        <ele>666.33</ele>
        <time>2013-07-06T12:32:51Z</time>
      </trkpt>
      <trkpt lat="44.12872" lon="3.24752">
        <ele>665.85</ele>
        <time>2013-07-06T12:32:52Z</time>
      </trkpt>
      <trkpt lat="44.12877" lon="3.24746">
        <ele>665.37</ele>
        <time>2013-07-06T12:32:53Z</time>
      </trkpt>
      <trkpt lat="44.12881" lon="3.24741">
        <ele>664.89</ele>
        <time>2013-07-06T12:32:54Z</time>
      </trkpt>
      <trkpt lat="44.12883" lon="3.24734">
        <ele>664.89</ele>
        <time>2013-07-06T12:32:55Z</time>
      </trkpt>
      <trkpt lat="44.12883" lon="3.24727">
        <ele>664.89</ele>
        <time>2013-07-06T12:32:56Z</time>
      </trkpt>
      <trkpt lat="44.12882" lon="3.24719">
        <ele>664.41</ele>
        <time>2013-07-06T12:32:57Z</time>
      </trkpt>
      <trkpt lat="44.12881" lon="3.24713">
        <ele>664.41</ele>
        <time>2013-07-06T12:32:58Z</time>
      </trkpt>
      <trkpt lat="44.12878" lon="3.24709">
        <ele>664.41</ele>
        <time>2013-07-06T12:32:59Z</time>
      </trkpt>
      <trkpt lat="44.12874" lon="3.24707">
        <ele>664.41</ele>
        <time>2013-07-06T12:33:00Z</time>
      </trkpt>
      <trkpt lat="44.1284" lon="3.24672">
        <ele>665.85</ele>
        <time>2013-07-06T12:33:12Z</time>
      </trkpt>
      <trkpt lat="44.12833" lon="3.24616">
        <ele>666.33</ele>
        <time>2013-07-06T12:33:26Z</time>
      </trkpt>
      <trkpt lat="44.12835" lon="3.24561">
        <ele>666.81</ele>
        <time>2013-07-06T12:33:40Z</time>
      </trkpt>
      <trkpt lat="44.12837" lon="3.2454">
        <ele>668.25</ele>
        <time>2013-07-06T12:33:51Z</time>
      </trkpt>
      <trkpt lat="44.12849" lon="3.24515">
        <ele>667.77</ele>
        <time>2013-07-06T12:34:00Z</time>
      </trkpt>
      <trkpt lat="44.1286" lon="3.245">
        <ele>668.25</ele>
        <time>2013-07-06T12:34:11Z</time>
      </trkpt>
      <trkpt lat="44.12866" lon="3.24495">
        <ele>669.22</ele>
        <time>2013-07-06T12:34:16Z</time>
      </trkpt>
      <trkpt lat="44.12867" lon="3.24495">
        <ele>669.7</ele>
        <time>2013-07-06T12:34:17Z</time>
      </trkpt>
      <trkpt lat="44.12871" lon="3.24492">
        <ele>669.7</ele>
        <time>2013-07-06T12:34:21Z</time>
      </trkpt>
      <trkpt lat="44.12873" lon="3.24491">
        <ele>669.7</ele>
        <time>2013-07-06T12:34:22Z</time>
      </trkpt>
      <trkpt lat="44.12874" lon="3.24489">
        <ele>669.7</ele>
        <time>2013-07-06T12:34:23Z</time>
      </trkpt>
      <trkpt lat="44.1288" lon="3.24484">
        <ele>668.73</ele>
        <time>2013-07-06T12:34:25Z</time>
      </trkpt>
      <trkpt lat="44.12884" lon="3.24481">
        <ele>668.25</ele>
        <time>2013-07-06T12:34:26Z</time>
      </trkpt>
      <trkpt lat="44.12888" lon="3.24479">
        <ele>668.25</ele>
        <time>2013-07-06T12:34:27Z</time>
      </trkpt>
      <trkpt lat="44.1289" lon="3.24479">
        <ele>668.25</ele>
        <time>2013-07-06T12:34:28Z</time>
      </trkpt>
      <trkpt lat="44.12892" lon="3.24478">
        <ele>668.73</ele>
        <time>2013-07-06T12:34:29Z</time>
      </trkpt>
      <trkpt lat="44.12894" lon="3.24477">
        <ele>668.73</ele>
        <time>2013-07-06T12:34:30Z</time>
      </trkpt>
      <trkpt lat="44.12895" lon="3.24476">
        <ele>668.73</ele>
        <time>2013-07-06T12:34:31Z</time>
      </trkpt>
      <trkpt lat="44.12897" lon="3.24475">
        <ele>668.73</ele>
        <time>2013-07-06T12:34:32Z</time>
      </trkpt>
      <trkpt lat="44.12898" lon="3.24474">
        <ele>669.22</ele>
        <time>2013-07-06T12:34:33Z</time>
      </trkpt>
      <trkpt lat="44.12923" lon="3.24471">
        <ele>668.25</ele>
        <time>2013-07-06T12:34:45Z</time>
      </trkpt>
      <trkpt lat="44.12955" lon="3.24452">
        <ele>664.89</ele>
        <time>2013-07-06T12:34:53Z</time>
      </trkpt>
      <trkpt lat="44.12959" lon="3.24448">
        <ele>664.41</ele>
        <time>2013-07-06T12:34:54Z</time>
      </trkpt>
      <trkpt lat="44.12962" lon="3.24444">
        <ele>663.93</ele>
        <time>2013-07-06T12:34:55Z</time>
      </trkpt>
      <trkpt lat="44.12966" lon="3.2444">
        <ele>663.45</ele>
        <time>2013-07-06T12:34:56Z</time>
      </trkpt>
      <trkpt lat="44.12969" lon="3.24437">
        <ele>663.45</ele>
        <time>2013-07-06T12:34:57Z</time>
      </trkpt>
      <trkpt lat="44.12972" lon="3.24434">
        <ele>663.45</ele>
        <time>2013-07-06T12:34:58Z</time>
      </trkpt>
      <trkpt lat="44.12975" lon="3.24431">
        <ele>662.97</ele>
        <time>2013-07-06T12:34:59Z</time>
      </trkpt>
      <trkpt lat="44.12979" lon="3.24426">
        <ele>662.49</ele>
        <time>2013-07-06T12:35:00Z</time>
      </trkpt>
      <trkpt lat="44.12983" lon="3.24421">
        <ele>662.01</ele>
        <time>2013-07-06T12:35:01Z</time>
      </trkpt>
      <trkpt lat="44.12987" lon="3.24417">
        <ele>662.01</ele>
        <time>2013-07-06T12:35:02Z</time>
      </trkpt>
      <trkpt lat="44.12991" lon="3.24413">
        <ele>662.01</ele>
        <time>2013-07-06T12:35:03Z</time>
      </trkpt>
      <trkpt lat="44.12994" lon="3.24409">
        <ele>662.01</ele>
        <time>2013-07-06T12:35:04Z</time>
      </trkpt>
      <trkpt lat="44.12997" lon="3.24406">
        <ele>662.01</ele>
        <time>2013-07-06T12:35:05Z</time>
      </trkpt>
      <trkpt lat="44.13" lon="3.24402">
        <ele>662.49</ele>
        <time>2013-07-06T12:35:06Z</time>
      </trkpt>
      <trkpt lat="44.13003" lon="3.24398">
        <ele>661.52</ele>
        <time>2013-07-06T12:35:07Z</time>
      </trkpt>
      <trkpt lat="44.13008" lon="3.24392">
        <ele>661.04</ele>
        <time>2013-07-06T12:35:09Z</time>
      </trkpt>
      <trkpt lat="44.13011" lon="3.24386">
        <ele>660.56</ele>
        <time>2013-07-06T12:35:11Z</time>
      </trkpt>
      <trkpt lat="44.13012" lon="3.24383">
        <ele>660.08</ele>
        <time>2013-07-06T12:35:12Z</time>
      </trkpt>
      <trkpt lat="44.13012" lon="3.2438">
        <ele>659.6</ele>
        <time>2013-07-06T12:35:13Z</time>
      </trkpt>
      <trkpt lat="44.1301" lon="3.24379">
        <ele>659.12</ele>
        <time>2013-07-06T12:35:14Z</time>
      </trkpt>
      <trkpt lat="44.13008" lon="3.24378">
        <ele>659.12</ele>
        <time>2013-07-06T12:35:15Z</time>
      </trkpt>
      <trkpt lat="44.12992" lon="3.24372">
        <ele>659.12</ele>
        <time>2013-07-06T12:35:27Z</time>
      </trkpt>
      <trkpt lat="44.1297" lon="3.24367">
        <ele>657.68</ele>
        <time>2013-07-06T12:35:37Z</time>
      </trkpt>
      <trkpt lat="44.12962" lon="3.24359">
        <ele>656.24</ele>
        <time>2013-07-06T12:35:40Z</time>
      </trkpt>
      <trkpt lat="44.12948" lon="3.2434">
        <ele>654.8</ele>
        <time>2013-07-06T12:35:44Z</time>
      </trkpt>
      <trkpt lat="44.12939" lon="3.24329">
        <ele>653.35</ele>
        <time>2013-07-06T12:35:46Z</time>
      </trkpt>
      <trkpt lat="44.12929" lon="3.24314">
        <ele>651.91</ele>
        <time>2013-07-06T12:35:49Z</time>
      </trkpt>
      <trkpt lat="44.12927" lon="3.24309">
        <ele>651.91</ele>
        <time>2013-07-06T12:35:50Z</time>
      </trkpt>
      <trkpt lat="44.12923" lon="3.24305">
        <ele>650.95</ele>
        <time>2013-07-06T12:35:51Z</time>
      </trkpt>
      <trkpt lat="44.12916" lon="3.24297">
        <ele>650.47</ele>
        <time>2013-07-06T12:35:53Z</time>
      </trkpt>
      <trkpt lat="44.12914" lon="3.24292">
        <ele>649.99</ele>
        <time>2013-07-06T12:35:54Z</time>
      </trkpt>
      <trkpt lat="44.12912" lon="3.24287">
        <ele>649.99</ele>
        <time>2013-07-06T12:35:55Z</time>
      </trkpt>
      <trkpt lat="44.12911" lon="3.24282">
        <ele>649.51</ele>
        <time>2013-07-06T12:35:56Z</time>
      </trkpt>
      <trkpt lat="44.1291" lon="3.24276">
        <ele>649.51</ele>
        <time>2013-07-06T12:35:57Z</time>
      </trkpt>
      <trkpt lat="44.12909" lon="3.24269">
        <ele>649.51</ele>
        <time>2013-07-06T12:35:58Z</time>
      </trkpt>
      <trkpt lat="44.12909" lon="3.24256">
        <ele>649.03</ele>
        <time>2013-07-06T12:36:00Z</time>
      </trkpt>
      <trkpt lat="44.12918" lon="3.24194">
        <ele>649.51</ele>
        <time>2013-07-06T12:36:13Z</time>
      </trkpt>
      <trkpt lat="44.12927" lon="3.24136">
        <ele>648.07</ele>
        <time>2013-07-06T12:36:25Z</time>
      </trkpt>
      <trkpt lat="44.12927" lon="3.24127">
        <ele>647.59</ele>
        <time>2013-07-06T12:36:27Z</time>
      </trkpt>
      <trkpt lat="44.12927" lon="3.24124">
        <ele>647.1</ele>
        <time>2013-07-06T12:36:28Z</time>
      </trkpt>
      <trkpt lat="44.12926" lon="3.24122">
        <ele>647.1</ele>
        <time>2013-07-06T12:36:29Z</time>
      </trkpt>
      <trkpt lat="44.12925" lon="3.2412">
        <ele>647.59</ele>
        <time>2013-07-06T12:36:31Z</time>
      </trkpt>
      <trkpt lat="44.12924" lon="3.24118">
        <ele>647.59</ele>
        <time>2013-07-06T12:36:32Z</time>
      </trkpt>
      <trkpt lat="44.12929" lon="3.24116">
        <ele>647.59</ele>
        <time>2013-07-06T12:36:33Z</time>
      </trkpt>
      <trkpt lat="44.12932" lon="3.24113">
        <ele>647.59</ele>
        <time>2013-07-06T12:36:34Z</time>
      </trkpt>
      <trkpt lat="44.12926" lon="3.24089">
        <ele>649.51</ele>
        <time>2013-07-06T12:36:45Z</time>
      </trkpt>
      <trkpt lat="44.12924" lon="3.24087">
        <ele>649.51</ele>
        <time>2013-07-06T12:36:46Z</time>
      </trkpt>
      <trkpt lat="44.12918" lon="3.24082">
        <ele>649.03</ele>
        <time>2013-07-06T12:36:48Z</time>
      </trkpt>
      <trkpt lat="44.1291" lon="3.24068">
        <ele>647.59</ele>
        <time>2013-07-06T12:36:52Z</time>
      </trkpt>
      <trkpt lat="44.1288" lon="3.24083">
        <ele>644.7</ele>
        <time>2013-07-06T12:37:05Z</time>
      </trkpt>
      <trkpt lat="44.12851" lon="3.24103">
        <ele>644.7</ele>
        <time>2013-07-06T12:37:17Z</time>
      </trkpt>
      <trkpt lat="44.12834" lon="3.24108">
        <ele>644.7</ele>
        <time>2013-07-06T12:37:28Z</time>
      </trkpt>
      <trkpt lat="44.1283" lon="3.2411">
        <ele>644.7</ele>
        <time>2013-07-06T12:37:45Z</time>
      </trkpt>
      <trkpt lat="44.12808" lon="3.24122">
        <ele>642.78</ele>
        <time>2013-07-06T12:37:55Z</time>
      </trkpt>
      <trkpt lat="44.12793" lon="3.24128">
        <ele>641.82</ele>
        <time>2013-07-06T12:38:14Z</time>
      </trkpt>
      <trkpt lat="44.12769" lon="3.24154">
        <ele>638.45</ele>
        <time>2013-07-06T12:38:23Z</time>
      </trkpt>
      <trkpt lat="44.12751" lon="3.24174">
        <ele>635.57</ele>
        <time>2013-07-06T12:38:29Z</time>
      </trkpt>
      <trkpt lat="44.12748" lon="3.24176">
        <ele>635.09</ele>
        <time>2013-07-06T12:38:30Z</time>
      </trkpt>
      <trkpt lat="44.12743" lon="3.24177">
        <ele>634.61</ele>
        <time>2013-07-06T12:38:31Z</time>
      </trkpt>
      <trkpt lat="44.12735" lon="3.24178">
        <ele>634.13</ele>
        <time>2013-07-06T12:38:33Z</time>
      </trkpt>
      <trkpt lat="44.12726" lon="3.24177">
        <ele>633.17</ele>
        <time>2013-07-06T12:38:35Z</time>
      </trkpt>
      <trkpt lat="44.12721" lon="3.24178">
        <ele>632.68</ele>
        <time>2013-07-06T12:38:36Z</time>
      </trkpt>
      <trkpt lat="44.12698" lon="3.24176">
        <ele>629.32</ele>
        <time>2013-07-06T12:38:40Z</time>
      </trkpt>
      <trkpt lat="44.12677" lon="3.24173">
        <ele>626.92</ele>
        <time>2013-07-06T12:38:44Z</time>
      </trkpt>
      <trkpt lat="44.12662" lon="3.24168">
        <ele>625.96</ele>
        <time>2013-07-06T12:38:47Z</time>
      </trkpt>
      <trkpt lat="44.1265" lon="3.24158">
        <ele>624.99</ele>
        <time>2013-07-06T12:38:50Z</time>
      </trkpt>
      <trkpt lat="44.12647" lon="3.24153">
        <ele>624.99</ele>
        <time>2013-07-06T12:38:51Z</time>
      </trkpt>
      <trkpt lat="44.12645" lon="3.24147">
        <ele>624.99</ele>
        <time>2013-07-06T12:38:52Z</time>
      </trkpt>
      <trkpt lat="44.12644" lon="3.24142">
        <ele>624.99</ele>
        <time>2013-07-06T12:38:53Z</time>
      </trkpt>
      <trkpt lat="44.12644" lon="3.24136">
        <ele>624.99</ele>
        <time>2013-07-06T12:38:54Z</time>
      </trkpt>
      <trkpt lat="44.12644" lon="3.24131">
        <ele>624.99</ele>
        <time>2013-07-06T12:38:55Z</time>
      </trkpt>
      <trkpt lat="44.12644" lon="3.24125">
        <ele>624.99</ele>
        <time>2013-07-06T12:38:56Z</time>
      </trkpt>
      <trkpt lat="44.12645" lon="3.2412">
        <ele>624.99</ele>
        <time>2013-07-06T12:38:57Z</time>
      </trkpt>
      <trkpt lat="44.12646" lon="3.24108">
        <ele>624.51</ele>
        <time>2013-07-06T12:38:59Z</time>
      </trkpt>
      <trkpt lat="44.12645" lon="3.24097">
        <ele>624.51</ele>
        <time>2013-07-06T12:39:01Z</time>
      </trkpt>
      <trkpt lat="44.12644" lon="3.24093">
        <ele>624.99</ele>
        <time>2013-07-06T12:39:02Z</time>
      </trkpt>
      <trkpt lat="44.12642" lon="3.2409">
        <ele>625.47</ele>
        <time>2013-07-06T12:39:03Z</time>
      </trkpt>
      <trkpt lat="44.12639" lon="3.24088">
        <ele>625.47</ele>
        <time>2013-07-06T12:39:04Z</time>
      </trkpt>
      <trkpt lat="44.12635" lon="3.24087">
        <ele>624.99</ele>
        <time>2013-07-06T12:39:05Z</time>
      </trkpt>
      <trkpt lat="44.12632" lon="3.24086">
        <ele>624.99</ele>
        <time>2013-07-06T12:39:06Z</time>
      </trkpt>
      <trkpt lat="44.12627" lon="3.24085">
        <ele>624.51</ele>
        <time>2013-07-06T12:39:07Z</time>
      </trkpt>
      <trkpt lat="44.12623" lon="3.24084">
        <ele>624.51</ele>
        <time>2013-07-06T12:39:08Z</time>
      </trkpt>
      <trkpt lat="44.1262" lon="3.24082">
        <ele>624.51</ele>
        <time>2013-07-06T12:39:09Z</time>
      </trkpt>
      <trkpt lat="44.12606" lon="3.24078">
        <ele>625.47</ele>
        <time>2013-07-06T12:39:14Z</time>
      </trkpt>
      <trkpt lat="44.12603" lon="3.2408">
        <ele>624.99</ele>
        <time>2013-07-06T12:39:15Z</time>
      </trkpt>
      <trkpt lat="44.126" lon="3.2408">
        <ele>624.99</ele>
        <time>2013-07-06T12:39:16Z</time>
      </trkpt>
      <trkpt lat="44.12597" lon="3.24082">
        <ele>624.51</ele>
        <time>2013-07-06T12:39:17Z</time>
      </trkpt>
      <trkpt lat="44.12593" lon="3.24083">
        <ele>624.51</ele>
        <time>2013-07-06T12:39:18Z</time>
      </trkpt>
      <trkpt lat="44.1259" lon="3.24083">
        <ele>624.03</ele>
        <time>2013-07-06T12:39:19Z</time>
      </trkpt>
      <trkpt lat="44.12586" lon="3.24083">
        <ele>623.55</ele>
        <time>2013-07-06T12:39:20Z</time>
      </trkpt>
      <trkpt lat="44.12582" lon="3.24084">
        <ele>623.55</ele>
        <time>2013-07-06T12:39:21Z</time>
      </trkpt>
      <trkpt lat="44.12578" lon="3.24083">
        <ele>623.55</ele>
        <time>2013-07-06T12:39:22Z</time>
      </trkpt>
      <trkpt lat="44.12565" lon="3.24083">
        <ele>622.59</ele>
        <time>2013-07-06T12:39:25Z</time>
      </trkpt>
      <trkpt lat="44.12561" lon="3.24083">
        <ele>623.07</ele>
        <time>2013-07-06T12:39:26Z</time>
      </trkpt>
      <trkpt lat="44.12558" lon="3.24083">
        <ele>623.07</ele>
        <time>2013-07-06T12:39:27Z</time>
      </trkpt>
      <trkpt lat="44.12554" lon="3.24083">
        <ele>623.07</ele>
        <time>2013-07-06T12:39:28Z</time>
      </trkpt>
      <trkpt lat="44.12551" lon="3.24084">
        <ele>622.59</ele>
        <time>2013-07-06T12:39:29Z</time>
      </trkpt>
      <trkpt lat="44.12546" lon="3.24085">
        <ele>622.59</ele>
        <time>2013-07-06T12:39:30Z</time>
      </trkpt>
      <trkpt lat="44.12542" lon="3.24086">
        <ele>622.11</ele>
        <time>2013-07-06T12:39:31Z</time>
      </trkpt>
      <trkpt lat="44.12533" lon="3.24088">
        <ele>621.63</ele>
        <time>2013-07-06T12:39:33Z</time>
      </trkpt>
      <trkpt lat="44.12522" lon="3.24091">
        <ele>621.63</ele>
        <time>2013-07-06T12:39:36Z</time>
      </trkpt>
      <trkpt lat="44.1252" lon="3.24091">
        <ele>621.63</ele>
        <time>2013-07-06T12:39:37Z</time>
      </trkpt>
      <trkpt lat="44.12518" lon="3.24092">
        <ele>621.63</ele>
        <time>2013-07-06T12:39:38Z</time>
      </trkpt>
      <trkpt lat="44.12514" lon="3.24094">
        <ele>621.63</ele>
        <time>2013-07-06T12:39:40Z</time>
      </trkpt>
      <trkpt lat="44.12511" lon="3.24095">
        <ele>621.15</ele>
        <time>2013-07-06T12:39:41Z</time>
      </trkpt>
      <trkpt lat="44.12508" lon="3.24097">
        <ele>621.15</ele>
        <time>2013-07-06T12:39:42Z</time>
      </trkpt>
      <trkpt lat="44.12504" lon="3.24097">
        <ele>620.67</ele>
        <time>2013-07-06T12:39:43Z</time>
      </trkpt>
      <trkpt lat="44.125" lon="3.24098">
        <ele>620.19</ele>
        <time>2013-07-06T12:39:44Z</time>
      </trkpt>
      <trkpt lat="44.12497" lon="3.24099">
        <ele>620.19</ele>
        <time>2013-07-06T12:39:45Z</time>
      </trkpt>
      <trkpt lat="44.12494" lon="3.24099">
        <ele>620.19</ele>
        <time>2013-07-06T12:39:46Z</time>
      </trkpt>
      <trkpt lat="44.12476" lon="3.24102">
        <ele>619.23</ele>
        <time>2013-07-06T12:39:52Z</time>
      </trkpt>
      <trkpt lat="44.12472" lon="3.24102">
        <ele>618.75</ele>
        <time>2013-07-06T12:39:53Z</time>
      </trkpt>
      <trkpt lat="44.12468" lon="3.24102">
        <ele>618.26</ele>
        <time>2013-07-06T12:39:54Z</time>
      </trkpt>
      <trkpt lat="44.12452" lon="3.24103">
        <ele>616.82</ele>
        <time>2013-07-06T12:39:57Z</time>
      </trkpt>
      <trkpt lat="44.12428" lon="3.24104">
        <ele>616.34</ele>
        <time>2013-07-06T12:40:02Z</time>
      </trkpt>
      <trkpt lat="44.12424" lon="3.24104">
        <ele>616.34</ele>
        <time>2013-07-06T12:40:03Z</time>
      </trkpt>
      <trkpt lat="44.12419" lon="3.24104">
        <ele>615.86</ele>
        <time>2013-07-06T12:40:04Z</time>
      </trkpt>
      <trkpt lat="44.12415" lon="3.24105">
        <ele>615.38</ele>
        <time>2013-07-06T12:40:05Z</time>
      </trkpt>
      <trkpt lat="44.1241" lon="3.24105">
        <ele>615.38</ele>
        <time>2013-07-06T12:40:06Z</time>
      </trkpt>
      <trkpt lat="44.12405" lon="3.24104">
        <ele>614.42</ele>
        <time>2013-07-06T12:40:07Z</time>
      </trkpt>
      <trkpt lat="44.12399" lon="3.24102">
        <ele>613.94</ele>
        <time>2013-07-06T12:40:08Z</time>
      </trkpt>
      <trkpt lat="44.12395" lon="3.24101">
        <ele>613.46</ele>
        <time>2013-07-06T12:40:09Z</time>
      </trkpt>
      <trkpt lat="44.12365" lon="3.24074">
        <ele>611.54</ele>
        <time>2013-07-06T12:40:17Z</time>
      </trkpt>
      <trkpt lat="44.12361" lon="3.2407">
        <ele>611.06</ele>
        <time>2013-07-06T12:40:18Z</time>
      </trkpt>
      <trkpt lat="44.12358" lon="3.24066">
        <ele>610.57</ele>
        <time>2013-07-06T12:40:19Z</time>
      </trkpt>
      <trkpt lat="44.12354" lon="3.24062">
        <ele>610.09</ele>
        <time>2013-07-06T12:40:20Z</time>
      </trkpt>
      <trkpt lat="44.1235" lon="3.24059">
        <ele>610.09</ele>
        <time>2013-07-06T12:40:21Z</time>
      </trkpt>
      <trkpt lat="44.12333" lon="3.24032">
        <ele>608.65</ele>
        <time>2013-07-06T12:40:28Z</time>
      </trkpt>
      <trkpt lat="44.12332" lon="3.24026">
        <ele>608.17</ele>
        <time>2013-07-06T12:40:29Z</time>
      </trkpt>
      <trkpt lat="44.12327" lon="3.24005">
        <ele>607.21</ele>
        <time>2013-07-06T12:40:33Z</time>
      </trkpt>
      <trkpt lat="44.12327" lon="3.23992">
        <ele>606.73</ele>
        <time>2013-07-06T12:40:35Z</time>
      </trkpt>
      <trkpt lat="44.12327" lon="3.23986">
        <ele>606.73</ele>
        <time>2013-07-06T12:40:36Z</time>
      </trkpt>
      <trkpt lat="44.12327" lon="3.23979">
        <ele>607.21</ele>
        <time>2013-07-06T12:40:37Z</time>
      </trkpt>
      <trkpt lat="44.12327" lon="3.23972">
        <ele>606.73</ele>
        <time>2013-07-06T12:40:38Z</time>
      </trkpt>
      <trkpt lat="44.12326" lon="3.23965">
        <ele>606.73</ele>
        <time>2013-07-06T12:40:39Z</time>
      </trkpt>
      <trkpt lat="44.12325" lon="3.23958">
        <ele>606.25</ele>
        <time>2013-07-06T12:40:40Z</time>
      </trkpt>
      <trkpt lat="44.12322" lon="3.23935">
        <ele>604.81</ele>
        <time>2013-07-06T12:40:43Z</time>
      </trkpt>
      <trkpt lat="44.12319" lon="3.23902">
        <ele>602.4</ele>
        <time>2013-07-06T12:40:48Z</time>
      </trkpt>
      <trkpt lat="44.12316" lon="3.23872">
        <ele>601.44</ele>
        <time>2013-07-06T12:40:54Z</time>
      </trkpt>
      <trkpt lat="44.12314" lon="3.2385">
        <ele>601.44</ele>
        <time>2013-07-06T12:40:58Z</time>
      </trkpt>
      <trkpt lat="44.12314" lon="3.23844">
        <ele>601.44</ele>
        <time>2013-07-06T12:40:59Z</time>
      </trkpt>
      <trkpt lat="44.12313" lon="3.23837">
        <ele>600.96</ele>
        <time>2013-07-06T12:41:00Z</time>
      </trkpt>
      <trkpt lat="44.12314" lon="3.23831">
        <ele>601.44</ele>
        <time>2013-07-06T12:41:01Z</time>
      </trkpt>
      <trkpt lat="44.12314" lon="3.23825">
        <ele>601.44</ele>
        <time>2013-07-06T12:41:02Z</time>
      </trkpt>
      <trkpt lat="44.12315" lon="3.2382">
        <ele>601.44</ele>
        <time>2013-07-06T12:41:03Z</time>
      </trkpt>
      <trkpt lat="44.12315" lon="3.23811">
        <ele>600.96</ele>
        <time>2013-07-06T12:41:05Z</time>
      </trkpt>
      <trkpt lat="44.12316" lon="3.23806">
        <ele>600.96</ele>
        <time>2013-07-06T12:41:06Z</time>
      </trkpt>
      <trkpt lat="44.12317" lon="3.23801">
        <ele>600.48</ele>
        <time>2013-07-06T12:41:07Z</time>
      </trkpt>
      <trkpt lat="44.12318" lon="3.23796">
        <ele>600</ele>
        <time>2013-07-06T12:41:08Z</time>
      </trkpt>
      <trkpt lat="44.12319" lon="3.23791">
        <ele>599.52</ele>
        <time>2013-07-06T12:41:09Z</time>
      </trkpt>
      <trkpt lat="44.12319" lon="3.23786">
        <ele>599.04</ele>
        <time>2013-07-06T12:41:10Z</time>
      </trkpt>
      <trkpt lat="44.12319" lon="3.23781">
        <ele>598.56</ele>
        <time>2013-07-06T12:41:11Z</time>
      </trkpt>
      <trkpt lat="44.12318" lon="3.23774">
        <ele>597.6</ele>
        <time>2013-07-06T12:41:12Z</time>
      </trkpt>
      <trkpt lat="44.12317" lon="3.23767">
        <ele>597.12</ele>
        <time>2013-07-06T12:41:13Z</time>
      </trkpt>
      <trkpt lat="44.12316" lon="3.2376">
        <ele>596.64</ele>
        <time>2013-07-06T12:41:14Z</time>
      </trkpt>
      <trkpt lat="44.12315" lon="3.23754">
        <ele>596.64</ele>
        <time>2013-07-06T12:41:15Z</time>
      </trkpt>
      <trkpt lat="44.12313" lon="3.23749">
        <ele>596.15</ele>
        <time>2013-07-06T12:41:16Z</time>
      </trkpt>
      <trkpt lat="44.12311" lon="3.23745">
        <ele>596.15</ele>
        <time>2013-07-06T12:41:17Z</time>
      </trkpt>
      <trkpt lat="44.1231" lon="3.2374">
        <ele>596.15</ele>
        <time>2013-07-06T12:41:18Z</time>
      </trkpt>
      <trkpt lat="44.12309" lon="3.23734">
        <ele>595.67</ele>
        <time>2013-07-06T12:41:19Z</time>
      </trkpt>
      <trkpt lat="44.12308" lon="3.23729">
        <ele>595.19</ele>
        <time>2013-07-06T12:41:20Z</time>
      </trkpt>
      <trkpt lat="44.12307" lon="3.23724">
        <ele>594.71</ele>
        <time>2013-07-06T12:41:21Z</time>
      </trkpt>
      <trkpt lat="44.12306" lon="3.23719">
        <ele>594.23</ele>
        <time>2013-07-06T12:41:22Z</time>
      </trkpt>
      <trkpt lat="44.12304" lon="3.23715">
        <ele>593.75</ele>
        <time>2013-07-06T12:41:23Z</time>
      </trkpt>
      <trkpt lat="44.12302" lon="3.23712">
        <ele>593.27</ele>
        <time>2013-07-06T12:41:24Z</time>
      </trkpt>
      <trkpt lat="44.123" lon="3.23708">
        <ele>592.31</ele>
        <time>2013-07-06T12:41:25Z</time>
      </trkpt>
      <trkpt lat="44.12299" lon="3.23703">
        <ele>591.83</ele>
        <time>2013-07-06T12:41:26Z</time>
      </trkpt>
      <trkpt lat="44.12298" lon="3.23698">
        <ele>591.35</ele>
        <time>2013-07-06T12:41:27Z</time>
      </trkpt>
      <trkpt lat="44.12297" lon="3.23695">
        <ele>591.35</ele>
        <time>2013-07-06T12:41:28Z</time>
      </trkpt>
      <trkpt lat="44.12297" lon="3.23691">
        <ele>590.87</ele>
        <time>2013-07-06T12:41:29Z</time>
      </trkpt>
      <trkpt lat="44.12297" lon="3.23686">
        <ele>591.35</ele>
        <time>2013-07-06T12:41:30Z</time>
      </trkpt>
      <trkpt lat="44.12294" lon="3.23651">
        <ele>589.91</ele>
        <time>2013-07-06T12:41:38Z</time>
      </trkpt>
      <trkpt lat="44.12295" lon="3.23646">
        <ele>589.43</ele>
        <time>2013-07-06T12:41:39Z</time>
      </trkpt>
      <trkpt lat="44.12295" lon="3.2364">
        <ele>589.43</ele>
        <time>2013-07-06T12:41:40Z</time>
      </trkpt>
      <trkpt lat="44.12295" lon="3.23634">
        <ele>589.43</ele>
        <time>2013-07-06T12:41:41Z</time>
      </trkpt>
      <trkpt lat="44.12296" lon="3.23628">
        <ele>588.95</ele>
        <time>2013-07-06T12:41:42Z</time>
      </trkpt>
      <trkpt lat="44.12294" lon="3.23605">
        <ele>588.46</ele>
        <time>2013-07-06T12:41:46Z</time>
      </trkpt>
      <trkpt lat="44.12294" lon="3.23599">
        <ele>588.46</ele>
        <time>2013-07-06T12:41:47Z</time>
      </trkpt>
      <trkpt lat="44.12294" lon="3.23594">
        <ele>588.95</ele>
        <time>2013-07-06T12:41:48Z</time>
      </trkpt>
      <trkpt lat="44.12295" lon="3.23576">
        <ele>588.46</ele>
        <time>2013-07-06T12:41:56Z</time>
      </trkpt>
      <trkpt lat="44.12301" lon="3.2356">
        <ele>589.43</ele>
        <time>2013-07-06T12:42:05Z</time>
      </trkpt>
      <trkpt lat="44.12305" lon="3.23547">
        <ele>589.43</ele>
        <time>2013-07-06T12:42:09Z</time>
      </trkpt>
      <trkpt lat="44.12305" lon="3.23544">
        <ele>588.95</ele>
        <time>2013-07-06T12:42:10Z</time>
      </trkpt>
      <trkpt lat="44.12306" lon="3.23541">
        <ele>589.43</ele>
        <time>2013-07-06T12:42:11Z</time>
      </trkpt>
      <trkpt lat="44.12306" lon="3.23538">
        <ele>588.95</ele>
        <time>2013-07-06T12:42:12Z</time>
      </trkpt>
      <trkpt lat="44.12307" lon="3.23534">
        <ele>588.46</ele>
        <time>2013-07-06T12:42:13Z</time>
      </trkpt>
      <trkpt lat="44.12308" lon="3.2353">
        <ele>588.46</ele>
        <time>2013-07-06T12:42:14Z</time>
      </trkpt>
      <trkpt lat="44.12308" lon="3.23527">
        <ele>588.46</ele>
        <time>2013-07-06T12:42:15Z</time>
      </trkpt>
      <trkpt lat="44.12309" lon="3.23523">
        <ele>588.46</ele>
        <time>2013-07-06T12:42:16Z</time>
      </trkpt>
      <trkpt lat="44.12313" lon="3.23505">
        <ele>587.98</ele>
        <time>2013-07-06T12:42:21Z</time>
      </trkpt>
      <trkpt lat="44.12314" lon="3.23502">
        <ele>587.98</ele>
        <time>2013-07-06T12:42:22Z</time>
      </trkpt>
      <trkpt lat="44.12314" lon="3.23499">
        <ele>587.98</ele>
        <time>2013-07-06T12:42:23Z</time>
      </trkpt>
      <trkpt lat="44.12316" lon="3.23488">
        <ele>587.5</ele>
        <time>2013-07-06T12:42:27Z</time>
      </trkpt>
      <trkpt lat="44.1232" lon="3.23479">
        <ele>587.5</ele>
        <time>2013-07-06T12:42:30Z</time>
      </trkpt>
      <trkpt lat="44.1232" lon="3.23475">
        <ele>587.02</ele>
        <time>2013-07-06T12:42:31Z</time>
      </trkpt>
      <trkpt lat="44.12321" lon="3.23472">
        <ele>587.02</ele>
        <time>2013-07-06T12:42:32Z</time>
      </trkpt>
      <trkpt lat="44.12326" lon="3.23434">
        <ele>587.5</ele>
        <time>2013-07-06T12:42:43Z</time>
      </trkpt>
      <trkpt lat="44.12326" lon="3.23431">
        <ele>587.5</ele>
        <time>2013-07-06T12:42:44Z</time>
      </trkpt>
      <trkpt lat="44.12326" lon="3.23427">
        <ele>587.98</ele>
        <time>2013-07-06T12:42:45Z</time>
      </trkpt>
      <trkpt lat="44.12326" lon="3.23424">
        <ele>587.5</ele>
        <time>2013-07-06T12:42:46Z</time>
      </trkpt>
      <trkpt lat="44.12326" lon="3.2342">
        <ele>587.5</ele>
        <time>2013-07-06T12:42:47Z</time>
      </trkpt>
      <trkpt lat="44.12327" lon="3.23417">
        <ele>587.5</ele>
        <time>2013-07-06T12:42:48Z</time>
      </trkpt>
      <trkpt lat="44.12327" lon="3.23413">
        <ele>587.5</ele>
        <time>2013-07-06T12:42:49Z</time>
      </trkpt>
      <trkpt lat="44.12327" lon="3.23409">
        <ele>587.5</ele>
        <time>2013-07-06T12:42:50Z</time>
      </trkpt>
      <trkpt lat="44.12328" lon="3.23406">
        <ele>587.5</ele>
        <time>2013-07-06T12:42:51Z</time>
      </trkpt>
      <trkpt lat="44.12329" lon="3.23403">
        <ele>587.5</ele>
        <time>2013-07-06T12:42:52Z</time>
      </trkpt>
      <trkpt lat="44.12329" lon="3.234">
        <ele>587.5</ele>
        <time>2013-07-06T12:42:53Z</time>
      </trkpt>
      <trkpt lat="44.1233" lon="3.23397">
        <ele>587.5</ele>
        <time>2013-07-06T12:42:54Z</time>
      </trkpt>
      <trkpt lat="44.1233" lon="3.23394">
        <ele>587.5</ele>
        <time>2013-07-06T12:42:55Z</time>
      </trkpt>
      <trkpt lat="44.12337" lon="3.23367">
        <ele>587.02</ele>
        <time>2013-07-06T12:43:06Z</time>
      </trkpt>
      <trkpt lat="44.12358" lon="3.23324">
        <ele>585.1</ele>
        <time>2013-07-06T12:43:17Z</time>
      </trkpt>
      <trkpt lat="44.12369" lon="3.23306">
        <ele>583.66</ele>
        <time>2013-07-06T12:43:22Z</time>
      </trkpt>
      <trkpt lat="44.12369" lon="3.23303">
        <ele>583.66</ele>
        <time>2013-07-06T12:43:23Z</time>
      </trkpt>
      <trkpt lat="44.12368" lon="3.233">
        <ele>582.7</ele>
        <time>2013-07-06T12:43:24Z</time>
      </trkpt>
      <trkpt lat="44.12365" lon="3.23297">
        <ele>582.22</ele>
        <time>2013-07-06T12:43:25Z</time>
      </trkpt>
      <trkpt lat="44.12363" lon="3.23293">
        <ele>582.22</ele>
        <time>2013-07-06T12:43:26Z</time>
      </trkpt>
      <trkpt lat="44.12361" lon="3.23289">
        <ele>581.73</ele>
        <time>2013-07-06T12:43:27Z</time>
      </trkpt>
      <trkpt lat="44.1236" lon="3.23287">
        <ele>581.73</ele>
        <time>2013-07-06T12:43:28Z</time>
      </trkpt>
      <trkpt lat="44.12358" lon="3.23284">
        <ele>581.73</ele>
        <time>2013-07-06T12:43:29Z</time>
      </trkpt>
      <trkpt lat="44.12358" lon="3.2328">
        <ele>581.25</ele>
        <time>2013-07-06T12:43:30Z</time>
      </trkpt>
      <trkpt lat="44.12357" lon="3.23276">
        <ele>580.77</ele>
        <time>2013-07-06T12:43:31Z</time>
      </trkpt>
      <trkpt lat="44.12356" lon="3.23272">
        <ele>580.29</ele>
        <time>2013-07-06T12:43:32Z</time>
      </trkpt>
      <trkpt lat="44.12355" lon="3.2327">
        <ele>579.81</ele>
        <time>2013-07-06T12:43:33Z</time>
      </trkpt>
      <trkpt lat="44.12355" lon="3.23269">
        <ele>579.81</ele>
        <time>2013-07-06T12:43:44Z</time>
      </trkpt>
      <trkpt lat="44.12355" lon="3.23269">
        <ele>579.33</ele>
        <time>2013-07-06T12:44:06Z</time>
      </trkpt>
      <trkpt lat="44.12355" lon="3.23269">
        <ele>578.85</ele>
        <time>2013-07-06T12:44:33Z</time>
      </trkpt>
      <trkpt lat="44.12354" lon="3.23269">
        <ele>578.85</ele>
        <time>2013-07-06T12:45:03Z</time>
      </trkpt>
      <trkpt lat="44.12356" lon="3.23267">
        <ele>577.89</ele>
        <time>2013-07-06T12:45:18Z</time>
      </trkpt>
      <trkpt lat="44.12357" lon="3.23265">
        <ele>577.89</ele>
        <time>2013-07-06T12:45:24Z</time>
      </trkpt>
      <trkpt lat="44.12358" lon="3.23262">
        <ele>577.41</ele>
        <time>2013-07-06T12:45:25Z</time>
      </trkpt>
      <trkpt lat="44.12359" lon="3.23258">
        <ele>576.93</ele>
        <time>2013-07-06T12:45:26Z</time>
      </trkpt>
      <trkpt lat="44.12359" lon="3.23255">
        <ele>576.45</ele>
        <time>2013-07-06T12:45:27Z</time>
      </trkpt>
      <trkpt lat="44.12359" lon="3.23253">
        <ele>575.97</ele>
        <time>2013-07-06T12:45:28Z</time>
      </trkpt>
      <trkpt lat="44.12358" lon="3.23247">
        <ele>575.49</ele>
        <time>2013-07-06T12:45:31Z</time>
      </trkpt>
      <trkpt lat="44.1236" lon="3.23244">
        <ele>575.01</ele>
        <time>2013-07-06T12:45:33Z</time>
      </trkpt>
      <trkpt lat="44.12361" lon="3.23245">
        <ele>574.04</ele>
        <time>2013-07-06T12:45:36Z</time>
      </trkpt>
      <trkpt lat="44.12363" lon="3.23248">
        <ele>573.56</ele>
        <time>2013-07-06T12:45:37Z</time>
      </trkpt>
      <trkpt lat="44.12366" lon="3.2325">
        <ele>573.56</ele>
        <time>2013-07-06T12:45:38Z</time>
      </trkpt>
      <trkpt lat="44.12368" lon="3.23252">
        <ele>573.08</ele>
        <time>2013-07-06T12:45:39Z</time>
      </trkpt>
      <trkpt lat="44.12371" lon="3.23255">
        <ele>572.12</ele>
        <time>2013-07-06T12:45:40Z</time>
      </trkpt>
      <trkpt lat="44.12372" lon="3.23256">
        <ele>572.12</ele>
        <time>2013-07-06T12:45:41Z</time>
      </trkpt>
      <trkpt lat="44.12375" lon="3.23257">
        <ele>571.64</ele>
        <time>2013-07-06T12:45:42Z</time>
      </trkpt>
      <trkpt lat="44.12377" lon="3.23258">
        <ele>570.68</ele>
        <time>2013-07-06T12:45:43Z</time>
      </trkpt>
      <trkpt lat="44.12378" lon="3.23259">
        <ele>570.68</ele>
        <time>2013-07-06T12:45:44Z</time>
      </trkpt>
      <trkpt lat="44.1238" lon="3.23259">
        <ele>570.2</ele>
        <time>2013-07-06T12:45:56Z</time>
      </trkpt>
      <trkpt lat="44.12382" lon="3.23261">
        <ele>570.2</ele>
        <time>2013-07-06T12:45:59Z</time>
      </trkpt>
      <trkpt lat="44.12384" lon="3.23261">
        <ele>569.72</ele>
        <time>2013-07-06T12:46:00Z</time>
      </trkpt>
      <trkpt lat="44.12386" lon="3.23261">
        <ele>569.24</ele>
        <time>2013-07-06T12:46:01Z</time>
      </trkpt>
      <trkpt lat="44.12391" lon="3.2326">
        <ele>568.28</ele>
        <time>2013-07-06T12:46:03Z</time>
      </trkpt>
      <trkpt lat="44.12401" lon="3.23258">
        <ele>566.83</ele>
        <time>2013-07-06T12:46:06Z</time>
      </trkpt>
      <trkpt lat="44.12412" lon="3.23253">
        <ele>565.39</ele>
        <time>2013-07-06T12:46:09Z</time>
      </trkpt>
      <trkpt lat="44.12415" lon="3.23253">
        <ele>564.91</ele>
        <time>2013-07-06T12:46:10Z</time>
      </trkpt>
      <trkpt lat="44.12418" lon="3.23253">
        <ele>563.95</ele>
        <time>2013-07-06T12:46:11Z</time>
      </trkpt>
      <trkpt lat="44.12421" lon="3.23253">
        <ele>563.47</ele>
        <time>2013-07-06T12:46:12Z</time>
      </trkpt>
      <trkpt lat="44.12423" lon="3.23253">
        <ele>563.47</ele>
        <time>2013-07-06T12:46:13Z</time>
      </trkpt>
      <trkpt lat="44.12426" lon="3.23253">
        <ele>562.99</ele>
        <time>2013-07-06T12:46:14Z</time>
      </trkpt>
      <trkpt lat="44.12429" lon="3.23251">
        <ele>562.51</ele>
        <time>2013-07-06T12:46:15Z</time>
      </trkpt>
      <trkpt lat="44.12432" lon="3.23249">
        <ele>562.03</ele>
        <time>2013-07-06T12:46:16Z</time>
      </trkpt>
      <trkpt lat="44.12435" lon="3.23248">
        <ele>561.55</ele>
        <time>2013-07-06T12:46:17Z</time>
      </trkpt>
      <trkpt lat="44.12437" lon="3.23246">
        <ele>561.07</ele>
        <time>2013-07-06T12:46:18Z</time>
      </trkpt>
      <trkpt lat="44.1244" lon="3.23245">
        <ele>560.59</ele>
        <time>2013-07-06T12:46:19Z</time>
      </trkpt>
      <trkpt lat="44.12443" lon="3.23244">
        <ele>560.11</ele>
        <time>2013-07-06T12:46:20Z</time>
      </trkpt>
      <trkpt lat="44.12446" lon="3.23242">
        <ele>559.62</ele>
        <time>2013-07-06T12:46:21Z</time>
      </trkpt>
      <trkpt lat="44.12449" lon="3.2324">
        <ele>559.14</ele>
        <time>2013-07-06T12:46:22Z</time>
      </trkpt>
      <trkpt lat="44.12452" lon="3.23239">
        <ele>558.66</ele>
        <time>2013-07-06T12:46:23Z</time>
      </trkpt>
      <trkpt lat="44.12456" lon="3.23238">
        <ele>558.66</ele>
        <time>2013-07-06T12:46:24Z</time>
      </trkpt>
      <trkpt lat="44.12458" lon="3.23237">
        <ele>558.18</ele>
        <time>2013-07-06T12:46:25Z</time>
      </trkpt>
      <trkpt lat="44.12461" lon="3.23236">
        <ele>558.18</ele>
        <time>2013-07-06T12:46:26Z</time>
      </trkpt>
      <trkpt lat="44.12464" lon="3.23234">
        <ele>558.18</ele>
        <time>2013-07-06T12:46:27Z</time>
      </trkpt>
      <trkpt lat="44.12481" lon="3.23217">
        <ele>555.3</ele>
        <time>2013-07-06T12:46:34Z</time>
      </trkpt>
      <trkpt lat="44.12472" lon="3.23215">
        <ele>551.93</ele>
        <time>2013-07-06T12:46:39Z</time>
      </trkpt>
      <trkpt lat="44.12468" lon="3.23216">
        <ele>551.45</ele>
        <time>2013-07-06T12:46:40Z</time>
      </trkpt>
      <trkpt lat="44.12464" lon="3.23216">
        <ele>550.49</ele>
        <time>2013-07-06T12:46:41Z</time>
      </trkpt>
      <trkpt lat="44.1246" lon="3.23216">
        <ele>550.01</ele>
        <time>2013-07-06T12:46:42Z</time>
      </trkpt>
      <trkpt lat="44.12457" lon="3.23216">
        <ele>549.53</ele>
        <time>2013-07-06T12:46:43Z</time>
      </trkpt>
      <trkpt lat="44.12454" lon="3.23215">
        <ele>549.05</ele>
        <time>2013-07-06T12:46:44Z</time>
      </trkpt>
      <trkpt lat="44.12441" lon="3.23215">
        <ele>546.65</ele>
        <time>2013-07-06T12:46:48Z</time>
      </trkpt>
      <trkpt lat="44.12437" lon="3.23214">
        <ele>546.17</ele>
        <time>2013-07-06T12:46:49Z</time>
      </trkpt>
      <trkpt lat="44.12433" lon="3.23212">
        <ele>545.69</ele>
        <time>2013-07-06T12:46:50Z</time>
      </trkpt>
      <trkpt lat="44.12428" lon="3.23211">
        <ele>545.2</ele>
        <time>2013-07-06T12:46:51Z</time>
      </trkpt>
      <trkpt lat="44.12424" lon="3.2321">
        <ele>544.72</ele>
        <time>2013-07-06T12:46:52Z</time>
      </trkpt>
      <trkpt lat="44.12409" lon="3.23199">
        <ele>541.36</ele>
        <time>2013-07-06T12:46:57Z</time>
      </trkpt>
      <trkpt lat="44.12397" lon="3.23187">
        <ele>539.44</ele>
        <time>2013-07-06T12:47:01Z</time>
      </trkpt>
      <trkpt lat="44.1239" lon="3.23183">
        <ele>537.99</ele>
        <time>2013-07-06T12:47:03Z</time>
      </trkpt>
      <trkpt lat="44.12368" lon="3.23172">
        <ele>535.11</ele>
        <time>2013-07-06T12:47:09Z</time>
      </trkpt>
      <trkpt lat="44.12341" lon="3.23169">
        <ele>532.23</ele>
        <time>2013-07-06T12:47:18Z</time>
      </trkpt>
      <trkpt lat="44.12348" lon="3.2316">
        <ele>529.82</ele>
        <time>2013-07-06T12:47:26Z</time>
      </trkpt>
      <trkpt lat="44.12353" lon="3.23157">
        <ele>529.34</ele>
        <time>2013-07-06T12:47:29Z</time>
      </trkpt>
      <trkpt lat="44.12356" lon="3.23156">
        <ele>528.86</ele>
        <time>2013-07-06T12:47:35Z</time>
      </trkpt>
      <trkpt lat="44.12374" lon="3.23151">
        <ele>526.46</ele>
        <time>2013-07-06T12:47:43Z</time>
      </trkpt>
      <trkpt lat="44.12392" lon="3.23148">
        <ele>524.06</ele>
        <time>2013-07-06T12:47:49Z</time>
      </trkpt>
      <trkpt lat="44.12398" lon="3.23148">
        <ele>522.61</ele>
        <time>2013-07-06T12:47:51Z</time>
      </trkpt>
      <trkpt lat="44.12409" lon="3.23145">
        <ele>520.69</ele>
        <time>2013-07-06T12:48:02Z</time>
      </trkpt>
      <trkpt lat="44.12407" lon="3.23145">
        <ele>519.73</ele>
        <time>2013-07-06T12:48:07Z</time>
      </trkpt>
      <trkpt lat="44.1239" lon="3.23137">
        <ele>516.37</ele>
        <time>2013-07-06T12:48:15Z</time>
      </trkpt>
      <trkpt lat="44.12371" lon="3.23125">
        <ele>513.48</ele>
        <time>2013-07-06T12:48:22Z</time>
      </trkpt>
      <trkpt lat="44.12341" lon="3.23122">
        <ele>511.56</ele>
        <time>2013-07-06T12:48:31Z</time>
      </trkpt>
      <trkpt lat="44.12337" lon="3.23128">
        <ele>511.56</ele>
        <time>2013-07-06T12:48:40Z</time>
      </trkpt>
      <trkpt lat="44.12336" lon="3.2313">
        <ele>511.56</ele>
        <time>2013-07-06T12:48:55Z</time>
      </trkpt>
      <trkpt lat="44.12336" lon="3.2313">
        <ele>511.56</ele>
        <time>2013-07-06T12:48:59Z</time>
      </trkpt>
      <trkpt lat="44.12324" lon="3.23136">
        <ele>509.16</ele>
        <time>2013-07-06T12:49:05Z</time>
      </trkpt>
      <trkpt lat="44.12318" lon="3.23136">
        <ele>507.71</ele>
        <time>2013-07-06T12:49:12Z</time>
      </trkpt>
      <trkpt lat="44.12325" lon="3.23128">
        <ele>506.75</ele>
        <time>2013-07-06T12:49:18Z</time>
      </trkpt>
      <trkpt lat="44.1234" lon="3.23114">
        <ele>505.31</ele>
        <time>2013-07-06T12:49:24Z</time>
      </trkpt>
      <trkpt lat="44.12342" lon="3.23113">
        <ele>505.31</ele>
        <time>2013-07-06T12:49:27Z</time>
      </trkpt>
      <trkpt lat="44.1235" lon="3.23109">
        <ele>504.83</ele>
        <time>2013-07-06T12:49:32Z</time>
      </trkpt>
      <trkpt lat="44.12373" lon="3.23103">
        <ele>501.46</ele>
        <time>2013-07-06T12:49:42Z</time>
      </trkpt>
      <trkpt lat="44.12379" lon="3.23102">
        <ele>500.02</ele>
        <time>2013-07-06T12:49:44Z</time>
      </trkpt>
      <trkpt lat="44.12385" lon="3.23102">
        <ele>498.58</ele>
        <time>2013-07-06T12:49:46Z</time>
      </trkpt>
      <trkpt lat="44.12401" lon="3.23101">
        <ele>496.66</ele>
        <time>2013-07-06T12:49:52Z</time>
      </trkpt>
      <trkpt lat="44.12404" lon="3.23098">
        <ele>495.22</ele>
        <time>2013-07-06T12:49:55Z</time>
      </trkpt>
      <trkpt lat="44.12406" lon="3.23094">
        <ele>495.22</ele>
        <time>2013-07-06T12:50:13Z</time>
      </trkpt>
      <trkpt lat="44.12406" lon="3.23094">
        <ele>494.74</ele>
        <time>2013-07-06T12:50:27Z</time>
      </trkpt>
      <trkpt lat="44.12406" lon="3.23094">
        <ele>494.74</ele>
        <time>2013-07-06T12:50:29Z</time>
      </trkpt>
      <trkpt lat="44.12398" lon="3.23089">
        <ele>492.81</ele>
        <time>2013-07-06T12:50:33Z</time>
      </trkpt>
      <trkpt lat="44.12376" lon="3.23075">
        <ele>488.97</ele>
        <time>2013-07-06T12:50:43Z</time>
      </trkpt>
      <trkpt lat="44.12374" lon="3.23071">
        <ele>489.45</ele>
        <time>2013-07-06T12:50:47Z</time>
      </trkpt>
      <trkpt lat="44.12373" lon="3.23069">
        <ele>488.97</ele>
        <time>2013-07-06T12:50:54Z</time>
      </trkpt>
      <trkpt lat="44.12367" lon="3.23064">
        <ele>488.01</ele>
        <time>2013-07-06T12:50:59Z</time>
      </trkpt>
      <trkpt lat="44.12359" lon="3.23059">
        <ele>486.56</ele>
        <time>2013-07-06T12:51:03Z</time>
      </trkpt>
      <trkpt lat="44.12356" lon="3.23054">
        <ele>485.6</ele>
        <time>2013-07-06T12:51:07Z</time>
      </trkpt>
      <trkpt lat="44.12374" lon="3.23063">
        <ele>481.76</ele>
        <time>2013-07-06T12:51:16Z</time>
      </trkpt>
      <trkpt lat="44.12376" lon="3.23065">
        <ele>481.28</ele>
        <time>2013-07-06T12:51:17Z</time>
      </trkpt>
      <trkpt lat="44.12393" lon="3.23061">
        <ele>478.39</ele>
        <time>2013-07-06T12:51:24Z</time>
      </trkpt>
      <trkpt lat="44.1242" lon="3.23054">
        <ele>475.03</ele>
        <time>2013-07-06T12:51:35Z</time>
      </trkpt>
      <trkpt lat="44.1243" lon="3.23032">
        <ele>472.63</ele>
        <time>2013-07-06T12:51:41Z</time>
      </trkpt>
      <trkpt lat="44.12437" lon="3.23015">
        <ele>470.7</ele>
        <time>2013-07-06T12:51:52Z</time>
      </trkpt>
      <trkpt lat="44.12437" lon="3.23011">
        <ele>470.22</ele>
        <time>2013-07-06T12:52:03Z</time>
      </trkpt>
      <trkpt lat="44.12438" lon="3.2301">
        <ele>469.74</ele>
        <time>2013-07-06T12:52:07Z</time>
      </trkpt>
      <trkpt lat="44.12441" lon="3.22993">
        <ele>468.3</ele>
        <time>2013-07-06T12:52:13Z</time>
      </trkpt>
      <trkpt lat="44.12442" lon="3.2299">
        <ele>467.82</ele>
        <time>2013-07-06T12:52:14Z</time>
      </trkpt>
      <trkpt lat="44.12448" lon="3.2297">
        <ele>466.38</ele>
        <time>2013-07-06T12:52:20Z</time>
      </trkpt>
      <trkpt lat="44.12451" lon="3.22964">
        <ele>465.42</ele>
        <time>2013-07-06T12:52:22Z</time>
      </trkpt>
      <trkpt lat="44.12458" lon="3.22952">
        <ele>463.97</ele>
        <time>2013-07-06T12:52:27Z</time>
      </trkpt>
      <trkpt lat="44.1247" lon="3.22929">
        <ele>461.09</ele>
        <time>2013-07-06T12:52:35Z</time>
      </trkpt>
      <trkpt lat="44.12489" lon="3.22899">
        <ele>457.72</ele>
        <time>2013-07-06T12:52:43Z</time>
      </trkpt>
      <trkpt lat="44.12496" lon="3.22891">
        <ele>455.32</ele>
        <time>2013-07-06T12:52:46Z</time>
      </trkpt>
      <trkpt lat="44.12492" lon="3.22884">
        <ele>452.92</ele>
        <time>2013-07-06T12:52:50Z</time>
      </trkpt>
      <trkpt lat="44.12475" lon="3.22891">
        <ele>451</ele>
        <time>2013-07-06T12:52:56Z</time>
      </trkpt>
      <trkpt lat="44.12473" lon="3.22893">
        <ele>451</ele>
        <time>2013-07-06T12:52:57Z</time>
      </trkpt>
      <trkpt lat="44.12452" lon="3.22908">
        <ele>447.15</ele>
        <time>2013-07-06T12:53:05Z</time>
      </trkpt>
      <trkpt lat="44.1245" lon="3.22909">
        <ele>446.67</ele>
        <time>2013-07-06T12:53:06Z</time>
      </trkpt>
      <trkpt lat="44.12447" lon="3.22908">
        <ele>446.19</ele>
        <time>2013-07-06T12:53:09Z</time>
      </trkpt>
      <trkpt lat="44.12448" lon="3.22906">
        <ele>445.23</ele>
        <time>2013-07-06T12:53:11Z</time>
      </trkpt>
      <trkpt lat="44.1246" lon="3.22895">
        <ele>444.75</ele>
        <time>2013-07-06T12:53:17Z</time>
      </trkpt>
      <trkpt lat="44.12464" lon="3.2289">
        <ele>444.27</ele>
        <time>2013-07-06T12:53:19Z</time>
      </trkpt>
      <trkpt lat="44.12473" lon="3.22874">
        <ele>442.82</ele>
        <time>2013-07-06T12:53:24Z</time>
      </trkpt>
      <trkpt lat="44.12485" lon="3.22858">
        <ele>439.94</ele>
        <time>2013-07-06T12:53:29Z</time>
      </trkpt>
      <trkpt lat="44.125" lon="3.22843">
        <ele>437.54</ele>
        <time>2013-07-06T12:53:37Z</time>
      </trkpt>
      <trkpt lat="44.12503" lon="3.22836">
        <ele>436.1</ele>
        <time>2013-07-06T12:53:40Z</time>
      </trkpt>
      <trkpt lat="44.12503" lon="3.22831">
        <ele>435.13</ele>
        <time>2013-07-06T12:53:42Z</time>
      </trkpt>
      <trkpt lat="44.12502" lon="3.22816">
        <ele>432.73</ele>
        <time>2013-07-06T12:53:47Z</time>
      </trkpt>
      <trkpt lat="44.125" lon="3.22796">
        <ele>430.81</ele>
        <time>2013-07-06T12:53:51Z</time>
      </trkpt>
      <trkpt lat="44.12502" lon="3.22783">
        <ele>429.85</ele>
        <time>2013-07-06T12:53:53Z</time>
      </trkpt>
      <trkpt lat="44.12519" lon="3.2272">
        <ele>426.96</ele>
        <time>2013-07-06T12:54:01Z</time>
      </trkpt>
      <trkpt lat="44.12521" lon="3.22712">
        <ele>426.96</ele>
        <time>2013-07-06T12:54:02Z</time>
      </trkpt>
      <trkpt lat="44.12522" lon="3.22704">
        <ele>426.48</ele>
        <time>2013-07-06T12:54:03Z</time>
      </trkpt>
      <trkpt lat="44.12521" lon="3.22697">
        <ele>426.48</ele>
        <time>2013-07-06T12:54:04Z</time>
      </trkpt>
      <trkpt lat="44.1252" lon="3.2269">
        <ele>426</ele>
        <time>2013-07-06T12:54:05Z</time>
      </trkpt>
      <trkpt lat="44.1252" lon="3.22683">
        <ele>425.52</ele>
        <time>2013-07-06T12:54:06Z</time>
      </trkpt>
      <trkpt lat="44.1252" lon="3.22676">
        <ele>425.52</ele>
        <time>2013-07-06T12:54:07Z</time>
      </trkpt>
      <trkpt lat="44.1252" lon="3.2267">
        <ele>425.52</ele>
        <time>2013-07-06T12:54:08Z</time>
      </trkpt>
      <trkpt lat="44.1252" lon="3.22663">
        <ele>425.52</ele>
        <time>2013-07-06T12:54:16Z</time>
      </trkpt>
      <trkpt lat="44.1252" lon="3.22663">
        <ele>425.04</ele>
        <time>2013-07-06T12:54:39Z</time>
      </trkpt>
      <trkpt lat="44.1252" lon="3.22663">
        <ele>425.04</ele>
        <time>2013-07-06T12:55:05Z</time>
      </trkpt>
      <trkpt lat="44.12519" lon="3.22662">
        <ele>425.52</ele>
        <time>2013-07-06T12:55:34Z</time>
      </trkpt>
      <trkpt lat="44.12519" lon="3.22662">
        <ele>425.04</ele>
        <time>2013-07-06T12:56:08Z</time>
      </trkpt>
      <trkpt lat="44.12519" lon="3.22663">
        <ele>425.04</ele>
        <time>2013-07-06T12:56:32Z</time>
      </trkpt>
      <trkpt lat="44.12519" lon="3.22662">
        <ele>424.56</ele>
        <time>2013-07-06T12:57:01Z</time>
      </trkpt>
      <trkpt lat="44.12519" lon="3.22661">
        <ele>424.56</ele>
        <time>2013-07-06T12:57:33Z</time>
      </trkpt>
      <trkpt lat="44.12519" lon="3.22661">
        <ele>424.08</ele>
        <time>2013-07-06T12:57:56Z</time>
      </trkpt>
      <trkpt lat="44.12518" lon="3.22661">
        <ele>424.08</ele>
        <time>2013-07-06T12:58:25Z</time>
      </trkpt>
      <trkpt lat="44.12519" lon="3.22661">
        <ele>423.6</ele>
        <time>2013-07-06T12:58:52Z</time>
      </trkpt>
      <trkpt lat="44.12519" lon="3.22661">
        <ele>423.6</ele>
        <time>2013-07-06T12:59:22Z</time>
      </trkpt>
      <trkpt lat="44.12519" lon="3.22661">
        <ele>423.6</ele>
        <time>2013-07-06T12:59:51Z</time>
      </trkpt>
      <trkpt lat="44.12519" lon="3.2266">
        <ele>423.6</ele>
        <time>2013-07-06T13:00:13Z</time>
      </trkpt>
      <trkpt lat="44.12521" lon="3.22662">
        <ele>423.6</ele>
        <time>2013-07-06T13:00:31Z</time>
      </trkpt>
      <trkpt lat="44.12521" lon="3.22664">
        <ele>423.6</ele>
        <time>2013-07-06T13:00:32Z</time>
      </trkpt>
      <trkpt lat="44.12521" lon="3.22666">
        <ele>423.12</ele>
        <time>2013-07-06T13:00:33Z</time>
      </trkpt>
      <trkpt lat="44.12519" lon="3.22675">
        <ele>423.6</ele>
        <time>2013-07-06T13:00:37Z</time>
      </trkpt>
      <trkpt lat="44.12517" lon="3.22691">
        <ele>423.6</ele>
        <time>2013-07-06T13:00:44Z</time>
      </trkpt>
      <trkpt lat="44.12525" lon="3.22695">
        <ele>424.08</ele>
        <time>2013-07-06T13:00:50Z</time>
      </trkpt>
      <trkpt lat="44.12517" lon="3.22699">
        <ele>423.6</ele>
        <time>2013-07-06T13:00:59Z</time>
      </trkpt>
      <trkpt lat="44.12516" lon="3.22698">
        <ele>423.6</ele>
        <time>2013-07-06T13:01:00Z</time>
      </trkpt>
      <trkpt lat="44.12516" lon="3.2269">
        <ele>423.12</ele>
        <time>2013-07-06T13:01:04Z</time>
      </trkpt>
      <trkpt lat="44.12522" lon="3.22654">
        <ele>423.12</ele>
        <time>2013-07-06T13:01:18Z</time>
      </trkpt>
      <trkpt lat="44.12521" lon="3.22609">
        <ele>422.16</ele>
        <time>2013-07-06T13:01:32Z</time>
      </trkpt>
      <trkpt lat="44.12521" lon="3.22601">
        <ele>422.16</ele>
        <time>2013-07-06T13:01:36Z</time>
      </trkpt>
      <trkpt lat="44.12518" lon="3.2261">
        <ele>422.64</ele>
        <time>2013-07-06T13:01:41Z</time>
      </trkpt>
      <trkpt lat="44.12521" lon="3.22657">
        <ele>422.64</ele>
        <time>2013-07-06T13:01:52Z</time>
      </trkpt>
      <trkpt lat="44.1252" lon="3.22661">
        <ele>422.64</ele>
        <time>2013-07-06T13:02:01Z</time>
      </trkpt>
      <trkpt lat="44.12521" lon="3.22658">
        <ele>422.64</ele>
        <time>2013-07-06T13:02:09Z</time>
      </trkpt>
      <trkpt lat="44.12522" lon="3.22653">
        <ele>422.16</ele>
        <time>2013-07-06T13:02:12Z</time>
      </trkpt>
      <trkpt lat="44.12521" lon="3.22638">
        <ele>422.16</ele>
        <time>2013-07-06T13:02:17Z</time>
      </trkpt>
      <trkpt lat="44.12522" lon="3.22625">
        <ele>421.68</ele>
        <time>2013-07-06T13:02:21Z</time>
      </trkpt>
      <trkpt lat="44.12521" lon="3.22613">
        <ele>422.16</ele>
        <time>2013-07-06T13:02:25Z</time>
      </trkpt>
      <trkpt lat="44.12521" lon="3.22604">
        <ele>421.68</ele>
        <time>2013-07-06T13:02:28Z</time>
      </trkpt>
      <trkpt lat="44.12517" lon="3.22591">
        <ele>422.16</ele>
        <time>2013-07-06T13:02:37Z</time>
      </trkpt>
      <trkpt lat="44.12517" lon="3.22538">
        <ele>421.19</ele>
        <time>2013-07-06T13:02:53Z</time>
      </trkpt>
      <trkpt lat="44.12515" lon="3.22477">
        <ele>420.23</ele>
        <time>2013-07-06T13:03:06Z</time>
      </trkpt>
      <trkpt lat="44.12505" lon="3.22404">
        <ele>419.75</ele>
        <time>2013-07-06T13:03:20Z</time>
      </trkpt>
      <trkpt lat="44.1247" lon="3.22341">
        <ele>419.27</ele>
        <time>2013-07-06T13:03:33Z</time>
      </trkpt>
      <trkpt lat="44.12459" lon="3.22322">
        <ele>418.79</ele>
        <time>2013-07-06T13:03:37Z</time>
      </trkpt>
      <trkpt lat="44.12453" lon="3.22314">
        <ele>418.79</ele>
        <time>2013-07-06T13:03:39Z</time>
      </trkpt>
      <trkpt lat="44.1245" lon="3.22309">
        <ele>418.79</ele>
        <time>2013-07-06T13:03:40Z</time>
      </trkpt>
      <trkpt lat="44.12448" lon="3.22304">
        <ele>418.79</ele>
        <time>2013-07-06T13:03:41Z</time>
      </trkpt>
      <trkpt lat="44.12446" lon="3.22299">
        <ele>418.79</ele>
        <time>2013-07-06T13:03:42Z</time>
      </trkpt>
      <trkpt lat="44.12444" lon="3.22294">
        <ele>418.79</ele>
        <time>2013-07-06T13:03:43Z</time>
      </trkpt>
      <trkpt lat="44.12443" lon="3.22289">
        <ele>418.79</ele>
        <time>2013-07-06T13:03:44Z</time>
      </trkpt>
      <trkpt lat="44.12441" lon="3.22283">
        <ele>418.79</ele>
        <time>2013-07-06T13:03:45Z</time>
      </trkpt>
      <trkpt lat="44.12439" lon="3.22279">
        <ele>418.79</ele>
        <time>2013-07-06T13:03:46Z</time>
      </trkpt>
      <trkpt lat="44.12427" lon="3.22263">
        <ele>418.79</ele>
        <time>2013-07-06T13:03:55Z</time>
      </trkpt>
      <trkpt lat="44.12427" lon="3.22262">
        <ele>418.31</ele>
        <time>2013-07-06T13:04:15Z</time>
      </trkpt>
      <trkpt lat="44.12427" lon="3.22263">
        <ele>418.31</ele>
        <time>2013-07-06T13:04:38Z</time>
      </trkpt>
      <trkpt lat="44.12427" lon="3.22262">
        <ele>418.31</ele>
        <time>2013-07-06T13:05:06Z</time>
      </trkpt>
      <trkpt lat="44.12427" lon="3.22262">
        <ele>418.31</ele>
        <time>2013-07-06T13:05:30Z</time>
      </trkpt>
      <trkpt lat="44.12427" lon="3.22263">
        <ele>417.83</ele>
        <time>2013-07-06T13:05:52Z</time>
      </trkpt>
      <trkpt lat="44.12427" lon="3.22263">
        <ele>417.83</ele>
        <time>2013-07-06T13:06:10Z</time>
      </trkpt>
      <trkpt lat="44.12428" lon="3.22264">
        <ele>417.83</ele>
        <time>2013-07-06T13:06:28Z</time>
      </trkpt>
      <trkpt lat="44.12428" lon="3.22264">
        <ele>417.83</ele>
        <time>2013-07-06T13:06:52Z</time>
      </trkpt>
      <trkpt lat="44.12427" lon="3.22268">
        <ele>417.83</ele>
        <time>2013-07-06T13:07:10Z</time>
      </trkpt>
      <trkpt lat="44.12426" lon="3.22271">
        <ele>417.83</ele>
        <time>2013-07-06T13:07:12Z</time>
      </trkpt>
      <trkpt lat="44.12426" lon="3.22274">
        <ele>417.83</ele>
        <time>2013-07-06T13:07:23Z</time>
      </trkpt>
      <trkpt lat="44.12426" lon="3.22274">
        <ele>417.83</ele>
        <time>2013-07-06T13:07:44Z</time>
      </trkpt>
      <trkpt lat="44.12426" lon="3.22274">
        <ele>417.83</ele>
        <time>2013-07-06T13:08:01Z</time>
      </trkpt>
      <trkpt lat="44.12426" lon="3.22276">
        <ele>417.83</ele>
        <time>2013-07-06T13:08:15Z</time>
      </trkpt>
      <trkpt lat="44.12426" lon="3.22276">
        <ele>417.83</ele>
        <time>2013-07-06T13:08:40Z</time>
      </trkpt>
      <trkpt lat="44.12426" lon="3.22275">
        <ele>417.35</ele>
        <time>2013-07-06T13:09:12Z</time>
      </trkpt>
      <trkpt lat="44.12426" lon="3.22275">
        <ele>417.35</ele>
        <time>2013-07-06T13:09:41Z</time>
      </trkpt>
      <trkpt lat="44.12426" lon="3.22276">
        <ele>416.39</ele>
        <time>2013-07-06T13:10:11Z</time>
      </trkpt>
      <trkpt lat="44.12426" lon="3.22276">
        <ele>416.87</ele>
        <time>2013-07-06T13:10:42Z</time>
      </trkpt>
      <trkpt lat="44.12426" lon="3.22276">
        <ele>416.87</ele>
        <time>2013-07-06T13:11:12Z</time>
      </trkpt>
      <trkpt lat="44.12426" lon="3.22275">
        <ele>417.35</ele>
        <time>2013-07-06T13:11:41Z</time>
      </trkpt>
      <trkpt lat="44.12426" lon="3.22275">
        <ele>416.87</ele>
        <time>2013-07-06T13:12:10Z</time>
      </trkpt>
      <trkpt lat="44.12426" lon="3.22275">
        <ele>416.87</ele>
        <time>2013-07-06T13:12:31Z</time>
      </trkpt>
      <trkpt lat="44.12426" lon="3.22275">
        <ele>416.87</ele>
        <time>2013-07-06T13:12:56Z</time>
      </trkpt>
      <trkpt lat="44.12426" lon="3.22275">
        <ele>416.87</ele>
        <time>2013-07-06T13:13:21Z</time>
      </trkpt>
      <trkpt lat="44.12426" lon="3.22275">
        <ele>416.87</ele>
        <time>2013-07-06T13:13:48Z</time>
      </trkpt>
      <trkpt lat="44.12427" lon="3.22276">
        <ele>416.87</ele>
        <time>2013-07-06T13:14:02Z</time>
      </trkpt>
      <trkpt lat="44.12428" lon="3.22274">
        <ele>416.87</ele>
        <time>2013-07-06T13:14:29Z</time>
      </trkpt>
      <trkpt lat="44.12426" lon="3.22272">
        <ele>416.87</ele>
        <time>2013-07-06T13:14:31Z</time>
      </trkpt>
      <trkpt lat="44.12425" lon="3.22272">
        <ele>416.87</ele>
        <time>2013-07-06T13:14:32Z</time>
      </trkpt>
      <trkpt lat="44.12423" lon="3.22271">
        <ele>416.87</ele>
        <time>2013-07-06T13:14:33Z</time>
      </trkpt>
      <trkpt lat="44.12421" lon="3.2227">
        <ele>416.87</ele>
        <time>2013-07-06T13:14:34Z</time>
      </trkpt>
      <trkpt lat="44.12419" lon="3.2227">
        <ele>416.39</ele>
        <time>2013-07-06T13:14:35Z</time>
      </trkpt>
      <trkpt lat="44.12417" lon="3.22269">
        <ele>416.39</ele>
        <time>2013-07-06T13:14:36Z</time>
      </trkpt>
      <trkpt lat="44.12415" lon="3.22268">
        <ele>416.87</ele>
        <time>2013-07-06T13:14:37Z</time>
      </trkpt>
      <trkpt lat="44.12372" lon="3.22247">
        <ele>415.43</ele>
        <time>2013-07-06T13:14:53Z</time>
      </trkpt>
      <trkpt lat="44.1236" lon="3.22234">
        <ele>415.43</ele>
        <time>2013-07-06T13:14:57Z</time>
      </trkpt>
      <trkpt lat="44.12357" lon="3.2223">
        <ele>414.95</ele>
        <time>2013-07-06T13:14:58Z</time>
      </trkpt>
      <trkpt lat="44.12355" lon="3.22225">
        <ele>414.95</ele>
        <time>2013-07-06T13:14:59Z</time>
      </trkpt>
      <trkpt lat="44.12352" lon="3.2222">
        <ele>414.95</ele>
        <time>2013-07-06T13:15:00Z</time>
      </trkpt>
      <trkpt lat="44.1235" lon="3.22216">
        <ele>414.95</ele>
        <time>2013-07-06T13:15:01Z</time>
      </trkpt>
      <trkpt lat="44.12349" lon="3.22211">
        <ele>414.95</ele>
        <time>2013-07-06T13:15:02Z</time>
      </trkpt>
      <trkpt lat="44.12332" lon="3.2217">
        <ele>414.95</ele>
        <time>2013-07-06T13:15:11Z</time>
      </trkpt>
      <trkpt lat="44.1233" lon="3.22168">
        <ele>414.95</ele>
        <time>2013-07-06T13:15:12Z</time>
      </trkpt>
      <trkpt lat="44.12327" lon="3.22168">
        <ele>414.95</ele>
        <time>2013-07-06T13:15:13Z</time>
      </trkpt>
      <trkpt lat="44.12322" lon="3.22169">
        <ele>414.47</ele>
        <time>2013-07-06T13:15:17Z</time>
      </trkpt>
      <trkpt lat="44.12321" lon="3.2217">
        <ele>414.47</ele>
        <time>2013-07-06T13:15:18Z</time>
      </trkpt>
      <trkpt lat="44.1232" lon="3.22171">
        <ele>414.47</ele>
        <time>2013-07-06T13:15:19Z</time>
      </trkpt>
      <trkpt lat="44.12294" lon="3.22172">
        <ele>414.47</ele>
        <time>2013-07-06T13:15:32Z</time>
      </trkpt>
      <trkpt lat="44.12275" lon="3.2217">
        <ele>414.95</ele>
        <time>2013-07-06T13:15:44Z</time>
      </trkpt>
      <trkpt lat="44.12248" lon="3.2216">
        <ele>414.47</ele>
        <time>2013-07-06T13:15:55Z</time>
      </trkpt>
      <trkpt lat="44.12246" lon="3.2215">
        <ele>413.98</ele>
        <time>2013-07-06T13:15:57Z</time>
      </trkpt>
      <trkpt lat="44.12246" lon="3.22145">
        <ele>413.98</ele>
        <time>2013-07-06T13:15:58Z</time>
      </trkpt>
      <trkpt lat="44.12246" lon="3.22139">
        <ele>413.98</ele>
        <time>2013-07-06T13:15:59Z</time>
      </trkpt>
      <trkpt lat="44.12246" lon="3.22134">
        <ele>413.5</ele>
        <time>2013-07-06T13:16:00Z</time>
      </trkpt>
      <trkpt lat="44.12245" lon="3.22129">
        <ele>413.5</ele>
        <time>2013-07-06T13:16:01Z</time>
      </trkpt>
      <trkpt lat="44.12239" lon="3.22084">
        <ele>413.5</ele>
        <time>2013-07-06T13:16:09Z</time>
      </trkpt>
      <trkpt lat="44.12229" lon="3.22016">
        <ele>414.47</ele>
        <time>2013-07-06T13:16:23Z</time>
      </trkpt>
      <trkpt lat="44.12223" lon="3.21984">
        <ele>415.91</ele>
        <time>2013-07-06T13:16:32Z</time>
      </trkpt>
      <trkpt lat="44.12205" lon="3.21954">
        <ele>418.31</ele>
        <time>2013-07-06T13:16:45Z</time>
      </trkpt>
      <trkpt lat="44.12186" lon="3.21927">
        <ele>420.23</ele>
        <time>2013-07-06T13:16:59Z</time>
      </trkpt>
      <trkpt lat="44.12166" lon="3.21889">
        <ele>421.68</ele>
        <time>2013-07-06T13:17:15Z</time>
      </trkpt>
      <trkpt lat="44.12156" lon="3.21872">
        <ele>422.16</ele>
        <time>2013-07-06T13:17:23Z</time>
      </trkpt>
      <trkpt lat="44.12155" lon="3.21871">
        <ele>422.16</ele>
        <time>2013-07-06T13:17:24Z</time>
      </trkpt>
      <trkpt lat="44.12132" lon="3.21843">
        <ele>423.6</ele>
        <time>2013-07-06T13:17:37Z</time>
      </trkpt>
      <trkpt lat="44.12104" lon="3.21809">
        <ele>424.56</ele>
        <time>2013-07-06T13:17:53Z</time>
      </trkpt>
      <trkpt lat="44.12091" lon="3.21796">
        <ele>425.04</ele>
        <time>2013-07-06T13:18:00Z</time>
      </trkpt>
      <trkpt lat="44.12068" lon="3.21771">
        <ele>426</ele>
        <time>2013-07-06T13:18:12Z</time>
      </trkpt>
      <trkpt lat="44.12039" lon="3.21752">
        <ele>427.44</ele>
        <time>2013-07-06T13:18:26Z</time>
      </trkpt>
      <trkpt lat="44.12018" lon="3.21767">
        <ele>428.4</ele>
        <time>2013-07-06T13:18:37Z</time>
      </trkpt>
      <trkpt lat="44.11986" lon="3.21781">
        <ele>431.77</ele>
        <time>2013-07-06T13:18:50Z</time>
      </trkpt>
      <trkpt lat="44.11984" lon="3.2178">
        <ele>431.77</ele>
        <time>2013-07-06T13:18:51Z</time>
      </trkpt>
      <trkpt lat="44.11981" lon="3.2178">
        <ele>430.33</ele>
        <time>2013-07-06T13:18:52Z</time>
      </trkpt>
      <trkpt lat="44.11973" lon="3.21752">
        <ele>431.29</ele>
        <time>2013-07-06T13:19:02Z</time>
      </trkpt>
      <trkpt lat="44.11987" lon="3.21717">
        <ele>433.21</ele>
        <time>2013-07-06T13:19:14Z</time>
      </trkpt>
      <trkpt lat="44.11987" lon="3.21714">
        <ele>433.21</ele>
        <time>2013-07-06T13:19:15Z</time>
      </trkpt>
      <trkpt lat="44.11972" lon="3.21681">
        <ele>435.13</ele>
        <time>2013-07-06T13:19:28Z</time>
      </trkpt>
      <trkpt lat="44.11947" lon="3.21675">
        <ele>437.06</ele>
        <time>2013-07-06T13:19:41Z</time>
      </trkpt>
      <trkpt lat="44.11932" lon="3.21671">
        <ele>438.5</ele>
        <time>2013-07-06T13:19:49Z</time>
      </trkpt>
      <trkpt lat="44.11927" lon="3.21641">
        <ele>440.9</ele>
        <time>2013-07-06T13:20:01Z</time>
      </trkpt>
      <trkpt lat="44.11911" lon="3.21605">
        <ele>443.79</ele>
        <time>2013-07-06T13:20:15Z</time>
      </trkpt>
      <trkpt lat="44.11903" lon="3.2159">
        <ele>444.75</ele>
        <time>2013-07-06T13:20:21Z</time>
      </trkpt>
      <trkpt lat="44.11884" lon="3.21553">
        <ele>447.15</ele>
        <time>2013-07-06T13:20:35Z</time>
      </trkpt>
      <trkpt lat="44.11868" lon="3.21516">
        <ele>450.52</ele>
        <time>2013-07-06T13:20:50Z</time>
      </trkpt>
      <trkpt lat="44.11858" lon="3.21491">
        <ele>452.44</ele>
        <time>2013-07-06T13:21:02Z</time>
      </trkpt>
      <trkpt lat="44.11858" lon="3.21489">
        <ele>452.44</ele>
        <time>2013-07-06T13:21:03Z</time>
      </trkpt>
      <trkpt lat="44.11857" lon="3.21487">
        <ele>452.92</ele>
        <time>2013-07-06T13:21:04Z</time>
      </trkpt>
      <trkpt lat="44.11844" lon="3.21466">
        <ele>454.36</ele>
        <time>2013-07-06T13:21:15Z</time>
      </trkpt>
      <trkpt lat="44.11833" lon="3.21442">
        <ele>456.76</ele>
        <time>2013-07-06T13:21:27Z</time>
      </trkpt>
      <trkpt lat="44.11839" lon="3.21421">
        <ele>458.21</ele>
        <time>2013-07-06T13:21:36Z</time>
      </trkpt>
      <trkpt lat="44.11847" lon="3.21416">
        <ele>459.17</ele>
        <time>2013-07-06T13:21:41Z</time>
      </trkpt>
      <trkpt lat="44.11848" lon="3.21415">
        <ele>459.17</ele>
        <time>2013-07-06T13:21:42Z</time>
      </trkpt>
      <trkpt lat="44.11854" lon="3.21388">
        <ele>461.09</ele>
        <time>2013-07-06T13:21:54Z</time>
      </trkpt>
      <trkpt lat="44.11856" lon="3.21359">
        <ele>463.01</ele>
        <time>2013-07-06T13:22:06Z</time>
      </trkpt>
      <trkpt lat="44.11859" lon="3.2134">
        <ele>464.45</ele>
        <time>2013-07-06T13:22:15Z</time>
      </trkpt>
      <trkpt lat="44.1186" lon="3.21339">
        <ele>464.93</ele>
        <time>2013-07-06T13:22:16Z</time>
      </trkpt>
      <trkpt lat="44.11861" lon="3.21338">
        <ele>464.93</ele>
        <time>2013-07-06T13:22:17Z</time>
      </trkpt>
      <trkpt lat="44.11879" lon="3.21314">
        <ele>466.86</ele>
        <time>2013-07-06T13:22:29Z</time>
      </trkpt>
      <trkpt lat="44.11883" lon="3.21299">
        <ele>467.82</ele>
        <time>2013-07-06T13:22:34Z</time>
      </trkpt>
      <trkpt lat="44.1188" lon="3.2129">
        <ele>467.82</ele>
        <time>2013-07-06T13:22:37Z</time>
      </trkpt>
      <trkpt lat="44.11878" lon="3.21289">
        <ele>468.3</ele>
        <time>2013-07-06T13:22:38Z</time>
      </trkpt>
      <trkpt lat="44.11874" lon="3.21276">
        <ele>468.3</ele>
        <time>2013-07-06T13:22:41Z</time>
      </trkpt>
      <trkpt lat="44.11859" lon="3.21302">
        <ele>470.7</ele>
        <time>2013-07-06T13:22:53Z</time>
      </trkpt>
      <trkpt lat="44.11847" lon="3.21317">
        <ele>472.14</ele>
        <time>2013-07-06T13:23:01Z</time>
      </trkpt>
      <trkpt lat="44.11838" lon="3.21345">
        <ele>473.59</ele>
        <time>2013-07-06T13:23:13Z</time>
      </trkpt>
      <trkpt lat="44.11824" lon="3.2137">
        <ele>475.99</ele>
        <time>2013-07-06T13:23:26Z</time>
      </trkpt>
      <trkpt lat="44.11814" lon="3.21385">
        <ele>477.43</ele>
        <time>2013-07-06T13:23:34Z</time>
      </trkpt>
      <trkpt lat="44.11795" lon="3.21412">
        <ele>479.84</ele>
        <time>2013-07-06T13:23:47Z</time>
      </trkpt>
      <trkpt lat="44.11789" lon="3.21443">
        <ele>481.76</ele>
        <time>2013-07-06T13:23:59Z</time>
      </trkpt>
      <trkpt lat="44.11799" lon="3.21478">
        <ele>483.68</ele>
        <time>2013-07-06T13:24:12Z</time>
      </trkpt>
      <trkpt lat="44.11802" lon="3.21501">
        <ele>485.12</ele>
        <time>2013-07-06T13:24:21Z</time>
      </trkpt>
      <trkpt lat="44.11803" lon="3.21535">
        <ele>487.53</ele>
        <time>2013-07-06T13:24:34Z</time>
      </trkpt>
      <trkpt lat="44.11807" lon="3.21572">
        <ele>489.45</ele>
        <time>2013-07-06T13:24:48Z</time>
      </trkpt>
      <trkpt lat="44.11812" lon="3.21602">
        <ele>491.37</ele>
        <time>2013-07-06T13:24:59Z</time>
      </trkpt>
      <trkpt lat="44.1182" lon="3.21632">
        <ele>493.77</ele>
        <time>2013-07-06T13:25:11Z</time>
      </trkpt>
      <trkpt lat="44.11831" lon="3.21675">
        <ele>495.7</ele>
        <time>2013-07-06T13:25:27Z</time>
      </trkpt>
      <trkpt lat="44.11831" lon="3.2171">
        <ele>498.1</ele>
        <time>2013-07-06T13:25:40Z</time>
      </trkpt>
      <trkpt lat="44.11817" lon="3.21742">
        <ele>500.02</ele>
        <time>2013-07-06T13:25:53Z</time>
      </trkpt>
      <trkpt lat="44.11815" lon="3.21747">
        <ele>500.5</ele>
        <time>2013-07-06T13:25:55Z</time>
      </trkpt>
      <trkpt lat="44.11822" lon="3.21787">
        <ele>503.39</ele>
        <time>2013-07-06T13:26:10Z</time>
      </trkpt>
      <trkpt lat="44.11823" lon="3.21793">
        <ele>503.87</ele>
        <time>2013-07-06T13:26:12Z</time>
      </trkpt>
      <trkpt lat="44.11824" lon="3.21815">
        <ele>504.83</ele>
        <time>2013-07-06T13:26:20Z</time>
      </trkpt>
      <trkpt lat="44.11812" lon="3.21851">
        <ele>507.71</ele>
        <time>2013-07-06T13:26:35Z</time>
      </trkpt>
      <trkpt lat="44.11801" lon="3.21886">
        <ele>510.12</ele>
        <time>2013-07-06T13:26:49Z</time>
      </trkpt>
      <trkpt lat="44.11785" lon="3.21908">
        <ele>512.04</ele>
        <time>2013-07-06T13:27:01Z</time>
      </trkpt>
      <trkpt lat="44.11755" lon="3.21928">
        <ele>514.92</ele>
        <time>2013-07-06T13:27:18Z</time>
      </trkpt>
      <trkpt lat="44.11752" lon="3.21934">
        <ele>514.92</ele>
        <time>2013-07-06T13:27:21Z</time>
      </trkpt>
      <trkpt lat="44.11759" lon="3.21974">
        <ele>517.81</ele>
        <time>2013-07-06T13:27:35Z</time>
      </trkpt>
      <trkpt lat="44.1176" lon="3.21982">
        <ele>518.29</ele>
        <time>2013-07-06T13:27:38Z</time>
      </trkpt>
      <trkpt lat="44.11761" lon="3.21999">
        <ele>519.25</ele>
        <time>2013-07-06T13:27:44Z</time>
      </trkpt>
      <trkpt lat="44.11758" lon="3.22046">
        <ele>522.61</ele>
        <time>2013-07-06T13:28:01Z</time>
      </trkpt>
      <trkpt lat="44.11756" lon="3.22082">
        <ele>524.06</ele>
        <time>2013-07-06T13:28:14Z</time>
      </trkpt>
      <trkpt lat="44.1176" lon="3.22091">
        <ele>525.02</ele>
        <time>2013-07-06T13:28:18Z</time>
      </trkpt>
      <trkpt lat="44.11788" lon="3.221">
        <ele>527.42</ele>
        <time>2013-07-06T13:28:32Z</time>
      </trkpt>
      <trkpt lat="44.11814" lon="3.22091">
        <ele>529.82</ele>
        <time>2013-07-06T13:28:46Z</time>
      </trkpt>
      <trkpt lat="44.1184" lon="3.22077">
        <ele>531.27</ele>
        <time>2013-07-06T13:29:00Z</time>
      </trkpt>
      <trkpt lat="44.11866" lon="3.22078">
        <ele>534.63</ele>
        <time>2013-07-06T13:29:13Z</time>
      </trkpt>
      <trkpt lat="44.11895" lon="3.22074">
        <ele>537.03</ele>
        <time>2013-07-06T13:29:27Z</time>
      </trkpt>
      <trkpt lat="44.1192" lon="3.22058">
        <ele>539.44</ele>
        <time>2013-07-06T13:29:42Z</time>
      </trkpt>
      <trkpt lat="44.11945" lon="3.2205">
        <ele>540.88</ele>
        <time>2013-07-06T13:29:54Z</time>
      </trkpt>
      <trkpt lat="44.11949" lon="3.22058">
        <ele>541.36</ele>
        <time>2013-07-06T13:29:58Z</time>
      </trkpt>
      <trkpt lat="44.11925" lon="3.22071">
        <ele>542.8</ele>
        <time>2013-07-06T13:30:09Z</time>
      </trkpt>
      <trkpt lat="44.11899" lon="3.22087">
        <ele>543.76</ele>
        <time>2013-07-06T13:30:20Z</time>
      </trkpt>
      <trkpt lat="44.11872" lon="3.22102">
        <ele>544.72</ele>
        <time>2013-07-06T13:30:31Z</time>
      </trkpt>
      <trkpt lat="44.11841" lon="3.22112">
        <ele>547.13</ele>
        <time>2013-07-06T13:30:44Z</time>
      </trkpt>
      <trkpt lat="44.11812" lon="3.22136">
        <ele>548.57</ele>
        <time>2013-07-06T13:30:59Z</time>
      </trkpt>
      <trkpt lat="44.11786" lon="3.22159">
        <ele>551.45</ele>
        <time>2013-07-06T13:31:13Z</time>
      </trkpt>
      <trkpt lat="44.11763" lon="3.22176">
        <ele>553.38</ele>
        <time>2013-07-06T13:31:25Z</time>
      </trkpt>
      <trkpt lat="44.11736" lon="3.22186">
        <ele>555.3</ele>
        <time>2013-07-06T13:31:37Z</time>
      </trkpt>
      <trkpt lat="44.11708" lon="3.22175">
        <ele>557.22</ele>
        <time>2013-07-06T13:31:50Z</time>
      </trkpt>
      <trkpt lat="44.1169" lon="3.22154">
        <ele>559.14</ele>
        <time>2013-07-06T13:32:01Z</time>
      </trkpt>
      <trkpt lat="44.11665" lon="3.22119">
        <ele>561.55</ele>
        <time>2013-07-06T13:32:16Z</time>
      </trkpt>
      <trkpt lat="44.11666" lon="3.22097">
        <ele>562.51</ele>
        <time>2013-07-06T13:32:23Z</time>
      </trkpt>
      <trkpt lat="44.11686" lon="3.22055">
        <ele>564.91</ele>
        <time>2013-07-06T13:32:39Z</time>
      </trkpt>
      <trkpt lat="44.11676" lon="3.22015">
        <ele>567.32</ele>
        <time>2013-07-06T13:32:53Z</time>
      </trkpt>
      <trkpt lat="44.11655" lon="3.21981">
        <ele>570.2</ele>
        <time>2013-07-06T13:33:07Z</time>
      </trkpt>
      <trkpt lat="44.11645" lon="3.21971">
        <ele>571.16</ele>
        <time>2013-07-06T13:33:13Z</time>
      </trkpt>
      <trkpt lat="44.11622" lon="3.21935">
        <ele>574.04</ele>
        <time>2013-07-06T13:33:30Z</time>
      </trkpt>
      <trkpt lat="44.11631" lon="3.21899">
        <ele>575.49</ele>
        <time>2013-07-06T13:33:43Z</time>
      </trkpt>
      <trkpt lat="44.11653" lon="3.21868">
        <ele>577.89</ele>
        <time>2013-07-06T13:33:57Z</time>
      </trkpt>
      <trkpt lat="44.11672" lon="3.21832">
        <ele>579.81</ele>
        <time>2013-07-06T13:34:11Z</time>
      </trkpt>
      <trkpt lat="44.11665" lon="3.21792">
        <ele>582.22</ele>
        <time>2013-07-06T13:34:25Z</time>
      </trkpt>
      <trkpt lat="44.11667" lon="3.21747">
        <ele>584.62</ele>
        <time>2013-07-06T13:34:40Z</time>
      </trkpt>
      <trkpt lat="44.11673" lon="3.21711">
        <ele>586.06</ele>
        <time>2013-07-06T13:34:53Z</time>
      </trkpt>
      <trkpt lat="44.11665" lon="3.21667">
        <ele>588.95</ele>
        <time>2013-07-06T13:35:08Z</time>
      </trkpt>
      <trkpt lat="44.11656" lon="3.21631">
        <ele>591.35</ele>
        <time>2013-07-06T13:35:22Z</time>
      </trkpt>
      <trkpt lat="44.11646" lon="3.21583">
        <ele>593.27</ele>
        <time>2013-07-06T13:35:38Z</time>
      </trkpt>
      <trkpt lat="44.11641" lon="3.21558">
        <ele>594.71</ele>
        <time>2013-07-06T13:35:48Z</time>
      </trkpt>
      <trkpt lat="44.11633" lon="3.21517">
        <ele>596.64</ele>
        <time>2013-07-06T13:36:02Z</time>
      </trkpt>
      <trkpt lat="44.11631" lon="3.21506">
        <ele>597.12</ele>
        <time>2013-07-06T13:36:06Z</time>
      </trkpt>
      <trkpt lat="44.11616" lon="3.21469">
        <ele>599.04</ele>
        <time>2013-07-06T13:36:20Z</time>
      </trkpt>
      <trkpt lat="44.11593" lon="3.21435">
        <ele>602.4</ele>
        <time>2013-07-06T13:36:36Z</time>
      </trkpt>
      <trkpt lat="44.11578" lon="3.21402">
        <ele>604.81</ele>
        <time>2013-07-06T13:36:51Z</time>
      </trkpt>
      <trkpt lat="44.11578" lon="3.21392">
        <ele>605.29</ele>
        <time>2013-07-06T13:36:54Z</time>
      </trkpt>
      <trkpt lat="44.11583" lon="3.21343">
        <ele>607.69</ele>
        <time>2013-07-06T13:37:10Z</time>
      </trkpt>
      <trkpt lat="44.11584" lon="3.2134">
        <ele>608.17</ele>
        <time>2013-07-06T13:37:11Z</time>
      </trkpt>
      <trkpt lat="44.11603" lon="3.21303">
        <ele>610.57</ele>
        <time>2013-07-06T13:37:26Z</time>
      </trkpt>
      <trkpt lat="44.1162" lon="3.21269">
        <ele>612.5</ele>
        <time>2013-07-06T13:37:39Z</time>
      </trkpt>
      <trkpt lat="44.11645" lon="3.2122">
        <ele>615.38</ele>
        <time>2013-07-06T13:37:57Z</time>
      </trkpt>
      <trkpt lat="44.11655" lon="3.21174">
        <ele>617.78</ele>
        <time>2013-07-06T13:38:12Z</time>
      </trkpt>
      <trkpt lat="44.11673" lon="3.21136">
        <ele>620.67</ele>
        <time>2013-07-06T13:38:26Z</time>
      </trkpt>
      <trkpt lat="44.11657" lon="3.21128">
        <ele>621.63</ele>
        <time>2013-07-06T13:38:35Z</time>
      </trkpt>
      <trkpt lat="44.11651" lon="3.21136">
        <ele>622.11</ele>
        <time>2013-07-06T13:38:38Z</time>
      </trkpt>
      <trkpt lat="44.11627" lon="3.21173">
        <ele>624.99</ele>
        <time>2013-07-06T13:38:54Z</time>
      </trkpt>
      <trkpt lat="44.11599" lon="3.212">
        <ele>627.88</ele>
        <time>2013-07-06T13:39:09Z</time>
      </trkpt>
      <trkpt lat="44.11587" lon="3.21237">
        <ele>629.8</ele>
        <time>2013-07-06T13:39:22Z</time>
      </trkpt>
      <trkpt lat="44.11567" lon="3.21268">
        <ele>632.2</ele>
        <time>2013-07-06T13:39:36Z</time>
      </trkpt>
      <trkpt lat="44.1154" lon="3.21281">
        <ele>634.61</ele>
        <time>2013-07-06T13:39:50Z</time>
      </trkpt>
      <trkpt lat="44.11535" lon="3.21282">
        <ele>635.09</ele>
        <time>2013-07-06T13:39:52Z</time>
      </trkpt>
      <trkpt lat="44.11518" lon="3.21276">
        <ele>636.53</ele>
        <time>2013-07-06T13:40:00Z</time>
      </trkpt>
      <trkpt lat="44.11491" lon="3.21283">
        <ele>638.93</ele>
        <time>2013-07-06T13:40:13Z</time>
      </trkpt>
      <trkpt lat="44.11466" lon="3.21306">
        <ele>641.34</ele>
        <time>2013-07-06T13:40:27Z</time>
      </trkpt>
      <trkpt lat="44.1144" lon="3.2132">
        <ele>642.3</ele>
        <time>2013-07-06T13:40:39Z</time>
      </trkpt>
      <trkpt lat="44.11411" lon="3.21338">
        <ele>643.74</ele>
        <time>2013-07-06T13:40:51Z</time>
      </trkpt>
      <trkpt lat="44.11378" lon="3.21348">
        <ele>644.7</ele>
        <time>2013-07-06T13:41:04Z</time>
      </trkpt>
      <trkpt lat="44.11343" lon="3.21354">
        <ele>646.62</ele>
        <time>2013-07-06T13:41:17Z</time>
      </trkpt>
      <trkpt lat="44.11312" lon="3.21366">
        <ele>647.59</ele>
        <time>2013-07-06T13:41:29Z</time>
      </trkpt>
      <trkpt lat="44.11282" lon="3.2137">
        <ele>649.51</ele>
        <time>2013-07-06T13:41:41Z</time>
      </trkpt>
      <trkpt lat="44.11247" lon="3.21377">
        <ele>651.43</ele>
        <time>2013-07-06T13:41:54Z</time>
      </trkpt>
      <trkpt lat="44.11211" lon="3.21386">
        <ele>652.87</ele>
        <time>2013-07-06T13:42:07Z</time>
      </trkpt>
      <trkpt lat="44.11174" lon="3.214">
        <ele>653.83</ele>
        <time>2013-07-06T13:42:20Z</time>
      </trkpt>
      <trkpt lat="44.11139" lon="3.21411">
        <ele>653.83</ele>
        <time>2013-07-06T13:42:32Z</time>
      </trkpt>
      <trkpt lat="44.11118" lon="3.21419">
        <ele>653.83</ele>
        <time>2013-07-06T13:42:38Z</time>
      </trkpt>
      <trkpt lat="44.11114" lon="3.21418">
        <ele>653.83</ele>
        <time>2013-07-06T13:42:39Z</time>
      </trkpt>
      <trkpt lat="44.11075" lon="3.21415">
        <ele>656.24</ele>
        <time>2013-07-06T13:42:51Z</time>
      </trkpt>
      <trkpt lat="44.11045" lon="3.2144">
        <ele>658.16</ele>
        <time>2013-07-06T13:43:04Z</time>
      </trkpt>
      <trkpt lat="44.11023" lon="3.21478">
        <ele>661.52</ele>
        <time>2013-07-06T13:43:18Z</time>
      </trkpt>
      <trkpt lat="44.10998" lon="3.21514">
        <ele>664.41</ele>
        <time>2013-07-06T13:43:33Z</time>
      </trkpt>
      <trkpt lat="44.10977" lon="3.21541">
        <ele>666.81</ele>
        <time>2013-07-06T13:43:47Z</time>
      </trkpt>
      <trkpt lat="44.1095" lon="3.21573">
        <ele>669.7</ele>
        <time>2013-07-06T13:44:03Z</time>
      </trkpt>
      <trkpt lat="44.10925" lon="3.21601">
        <ele>672.58</ele>
        <time>2013-07-06T13:44:17Z</time>
      </trkpt>
      <trkpt lat="44.10903" lon="3.21629">
        <ele>674.98</ele>
        <time>2013-07-06T13:44:30Z</time>
      </trkpt>
      <trkpt lat="44.10874" lon="3.21656">
        <ele>677.87</ele>
        <time>2013-07-06T13:44:45Z</time>
      </trkpt>
      <trkpt lat="44.10846" lon="3.21676">
        <ele>680.75</ele>
        <time>2013-07-06T13:44:58Z</time>
      </trkpt>
      <trkpt lat="44.10807" lon="3.21707">
        <ele>683.15</ele>
        <time>2013-07-06T13:45:16Z</time>
      </trkpt>
      <trkpt lat="44.10785" lon="3.21725">
        <ele>684.6</ele>
        <time>2013-07-06T13:45:27Z</time>
      </trkpt>
      <trkpt lat="44.10781" lon="3.21738">
        <ele>686.04</ele>
        <time>2013-07-06T13:45:36Z</time>
      </trkpt>
      <trkpt lat="44.10781" lon="3.21741">
        <ele>686.52</ele>
        <time>2013-07-06T13:45:46Z</time>
      </trkpt>
      <trkpt lat="44.1078" lon="3.21741">
        <ele>686.52</ele>
        <time>2013-07-06T13:45:57Z</time>
      </trkpt>
      <trkpt lat="44.10788" lon="3.21745">
        <ele>686.52</ele>
        <time>2013-07-06T14:04:30Z</time>
      </trkpt>
      <trkpt lat="44.10787" lon="3.21745">
        <ele>686.52</ele>
        <time>2013-07-06T14:04:31Z</time>
      </trkpt>
      <trkpt lat="44.10785" lon="3.21741">
        <ele>689.88</ele>
        <time>2013-07-06T14:04:41Z</time>
      </trkpt>
      <trkpt lat="44.10785" lon="3.21741">
        <ele>692.77</ele>
        <time>2013-07-06T14:04:49Z</time>
      </trkpt>
      <trkpt lat="44.10784" lon="3.21741">
        <ele>696.13</ele>
        <time>2013-07-06T14:05:01Z</time>
      </trkpt>
      <trkpt lat="44.10784" lon="3.2174">
        <ele>699.02</ele>
        <time>2013-07-06T14:05:17Z</time>
      </trkpt>
      <trkpt lat="44.10786" lon="3.21738">
        <ele>701.42</ele>
        <time>2013-07-06T14:05:42Z</time>
      </trkpt>
      <trkpt lat="44.10787" lon="3.21739">
        <ele>701.42</ele>
        <time>2013-07-06T14:05:47Z</time>
      </trkpt>
      <trkpt lat="44.10786" lon="3.21728">
        <ele>699.98</ele>
        <time>2013-07-06T14:05:58Z</time>
      </trkpt>
      <trkpt lat="44.10787" lon="3.21727">
        <ele>700.94</ele>
        <time>2013-07-06T14:06:25Z</time>
      </trkpt>
      <trkpt lat="44.10786" lon="3.21729">
        <ele>700.46</ele>
        <time>2013-07-06T14:06:48Z</time>
      </trkpt>
      <trkpt lat="44.10786" lon="3.21731">
        <ele>700.46</ele>
        <time>2013-07-06T14:06:53Z</time>
      </trkpt>
      <trkpt lat="44.10794" lon="3.21754">
        <ele>701.9</ele>
        <time>2013-07-06T14:07:07Z</time>
      </trkpt>
      <trkpt lat="44.10798" lon="3.21756">
        <ele>701.9</ele>
        <time>2013-07-06T14:07:10Z</time>
      </trkpt>
      <trkpt lat="44.10801" lon="3.21767">
        <ele>701.9</ele>
        <time>2013-07-06T14:07:15Z</time>
      </trkpt>
      <trkpt lat="44.10802" lon="3.21793">
        <ele>701.42</ele>
        <time>2013-07-06T14:07:21Z</time>
      </trkpt>
      <trkpt lat="44.10805" lon="3.21798">
        <ele>700.94</ele>
        <time>2013-07-06T14:07:22Z</time>
      </trkpt>
      <trkpt lat="44.10809" lon="3.21803">
        <ele>700.46</ele>
        <time>2013-07-06T14:07:23Z</time>
      </trkpt>
      <trkpt lat="44.10826" lon="3.21827">
        <ele>697.09</ele>
        <time>2013-07-06T14:07:28Z</time>
      </trkpt>
      <trkpt lat="44.10829" lon="3.21833">
        <ele>696.13</ele>
        <time>2013-07-06T14:07:29Z</time>
      </trkpt>
      <trkpt lat="44.10832" lon="3.21839">
        <ele>695.65</ele>
        <time>2013-07-06T14:07:30Z</time>
      </trkpt>
      <trkpt lat="44.10833" lon="3.21846">
        <ele>695.17</ele>
        <time>2013-07-06T14:07:31Z</time>
      </trkpt>
      <trkpt lat="44.10835" lon="3.21854">
        <ele>694.21</ele>
        <time>2013-07-06T14:07:32Z</time>
      </trkpt>
      <trkpt lat="44.10836" lon="3.21862">
        <ele>693.25</ele>
        <time>2013-07-06T14:07:33Z</time>
      </trkpt>
      <trkpt lat="44.10839" lon="3.21869">
        <ele>692.77</ele>
        <time>2013-07-06T14:07:34Z</time>
      </trkpt>
      <trkpt lat="44.10844" lon="3.21874">
        <ele>692.29</ele>
        <time>2013-07-06T14:07:35Z</time>
      </trkpt>
      <trkpt lat="44.10849" lon="3.21878">
        <ele>692.29</ele>
        <time>2013-07-06T14:07:36Z</time>
      </trkpt>
      <trkpt lat="44.10888" lon="3.2191">
        <ele>692.77</ele>
        <time>2013-07-06T14:07:47Z</time>
      </trkpt>
      <trkpt lat="44.10916" lon="3.21938">
        <ele>695.17</ele>
        <time>2013-07-06T14:08:01Z</time>
      </trkpt>
      <trkpt lat="44.10928" lon="3.21953">
        <ele>696.61</ele>
        <time>2013-07-06T14:08:08Z</time>
      </trkpt>
      <trkpt lat="44.10929" lon="3.21956">
        <ele>696.61</ele>
        <time>2013-07-06T14:08:09Z</time>
      </trkpt>
      <trkpt lat="44.10948" lon="3.21981">
        <ele>698.53</ele>
        <time>2013-07-06T14:08:22Z</time>
      </trkpt>
      <trkpt lat="44.10952" lon="3.21987">
        <ele>699.02</ele>
        <time>2013-07-06T14:08:25Z</time>
      </trkpt>
      <trkpt lat="44.10953" lon="3.21988">
        <ele>699.5</ele>
        <time>2013-07-06T14:08:26Z</time>
      </trkpt>
      <trkpt lat="44.10955" lon="3.2199">
        <ele>699.98</ele>
        <time>2013-07-06T14:08:27Z</time>
      </trkpt>
      <trkpt lat="44.10976" lon="3.2203">
        <ele>700.94</ele>
        <time>2013-07-06T14:08:43Z</time>
      </trkpt>
      <trkpt lat="44.11004" lon="3.22051">
        <ele>701.9</ele>
        <time>2013-07-06T14:08:57Z</time>
      </trkpt>
      <trkpt lat="44.11028" lon="3.22078">
        <ele>702.38</ele>
        <time>2013-07-06T14:09:10Z</time>
      </trkpt>
      <trkpt lat="44.1103" lon="3.22112">
        <ele>703.34</ele>
        <time>2013-07-06T14:09:22Z</time>
      </trkpt>
      <trkpt lat="44.11024" lon="3.22132">
        <ele>704.78</ele>
        <time>2013-07-06T14:09:31Z</time>
      </trkpt>
      <trkpt lat="44.11023" lon="3.22135">
        <ele>704.78</ele>
        <time>2013-07-06T14:09:32Z</time>
      </trkpt>
      <trkpt lat="44.11023" lon="3.22137">
        <ele>705.26</ele>
        <time>2013-07-06T14:09:33Z</time>
      </trkpt>
      <trkpt lat="44.11023" lon="3.2214">
        <ele>705.26</ele>
        <time>2013-07-06T14:09:34Z</time>
      </trkpt>
      <trkpt lat="44.11022" lon="3.22142">
        <ele>705.26</ele>
        <time>2013-07-06T14:09:35Z</time>
      </trkpt>
      <trkpt lat="44.11022" lon="3.22144">
        <ele>705.26</ele>
        <time>2013-07-06T14:09:36Z</time>
      </trkpt>
      <trkpt lat="44.11022" lon="3.22158">
        <ele>706.71</ele>
        <time>2013-07-06T14:09:42Z</time>
      </trkpt>
      <trkpt lat="44.11022" lon="3.2216">
        <ele>706.71</ele>
        <time>2013-07-06T14:09:43Z</time>
      </trkpt>
      <trkpt lat="44.11022" lon="3.22162">
        <ele>706.71</ele>
        <time>2013-07-06T14:09:44Z</time>
      </trkpt>
      <trkpt lat="44.11016" lon="3.22201">
        <ele>709.59</ele>
        <time>2013-07-06T14:10:01Z</time>
      </trkpt>
      <trkpt lat="44.11014" lon="3.2221">
        <ele>710.07</ele>
        <time>2013-07-06T14:10:05Z</time>
      </trkpt>
      <trkpt lat="44.11014" lon="3.22212">
        <ele>710.07</ele>
        <time>2013-07-06T14:10:06Z</time>
      </trkpt>
      <trkpt lat="44.11014" lon="3.22214">
        <ele>710.55</ele>
        <time>2013-07-06T14:10:07Z</time>
      </trkpt>
      <trkpt lat="44.11014" lon="3.22244">
        <ele>712.95</ele>
        <time>2013-07-06T14:10:21Z</time>
      </trkpt>
      <trkpt lat="44.11014" lon="3.22256">
        <ele>713.92</ele>
        <time>2013-07-06T14:10:27Z</time>
      </trkpt>
      <trkpt lat="44.11014" lon="3.22258">
        <ele>713.92</ele>
        <time>2013-07-06T14:10:28Z</time>
      </trkpt>
      <trkpt lat="44.11013" lon="3.2226">
        <ele>714.4</ele>
        <time>2013-07-06T14:10:29Z</time>
      </trkpt>
      <trkpt lat="44.11013" lon="3.22262">
        <ele>714.4</ele>
        <time>2013-07-06T14:10:30Z</time>
      </trkpt>
      <trkpt lat="44.11013" lon="3.22264">
        <ele>714.88</ele>
        <time>2013-07-06T14:10:31Z</time>
      </trkpt>
      <trkpt lat="44.11013" lon="3.22266">
        <ele>714.88</ele>
        <time>2013-07-06T14:10:32Z</time>
      </trkpt>
      <trkpt lat="44.11012" lon="3.22268">
        <ele>715.36</ele>
        <time>2013-07-06T14:10:33Z</time>
      </trkpt>
      <trkpt lat="44.11012" lon="3.2227">
        <ele>715.36</ele>
        <time>2013-07-06T14:10:34Z</time>
      </trkpt>
      <trkpt lat="44.11011" lon="3.22272">
        <ele>715.36</ele>
        <time>2013-07-06T14:10:35Z</time>
      </trkpt>
      <trkpt lat="44.11011" lon="3.22274">
        <ele>715.36</ele>
        <time>2013-07-06T14:10:36Z</time>
      </trkpt>
      <trkpt lat="44.11011" lon="3.22276">
        <ele>715.84</ele>
        <time>2013-07-06T14:10:37Z</time>
      </trkpt>
      <trkpt lat="44.1101" lon="3.22278">
        <ele>715.84</ele>
        <time>2013-07-06T14:10:38Z</time>
      </trkpt>
      <trkpt lat="44.11005" lon="3.22311">
        <ele>717.76</ele>
        <time>2013-07-06T14:10:53Z</time>
      </trkpt>
      <trkpt lat="44.11005" lon="3.22313">
        <ele>717.76</ele>
        <time>2013-07-06T14:10:54Z</time>
      </trkpt>
      <trkpt lat="44.11004" lon="3.22347">
        <ele>720.65</ele>
        <time>2013-07-06T14:11:10Z</time>
      </trkpt>
      <trkpt lat="44.11003" lon="3.22351">
        <ele>721.13</ele>
        <time>2013-07-06T14:11:12Z</time>
      </trkpt>
      <trkpt lat="44.11002" lon="3.22353">
        <ele>721.61</ele>
        <time>2013-07-06T14:11:13Z</time>
      </trkpt>
      <trkpt lat="44.11002" lon="3.22355">
        <ele>721.61</ele>
        <time>2013-07-06T14:11:14Z</time>
      </trkpt>
      <trkpt lat="44.11002" lon="3.22357">
        <ele>721.61</ele>
        <time>2013-07-06T14:11:15Z</time>
      </trkpt>
      <trkpt lat="44.11001" lon="3.22359">
        <ele>721.61</ele>
        <time>2013-07-06T14:11:16Z</time>
      </trkpt>
      <trkpt lat="44.11001" lon="3.22362">
        <ele>721.61</ele>
        <time>2013-07-06T14:11:17Z</time>
      </trkpt>
      <trkpt lat="44.11" lon="3.22364">
        <ele>722.09</ele>
        <time>2013-07-06T14:11:18Z</time>
      </trkpt>
      <trkpt lat="44.10999" lon="3.22366">
        <ele>722.09</ele>
        <time>2013-07-06T14:11:19Z</time>
      </trkpt>
      <trkpt lat="44.10999" lon="3.22368">
        <ele>722.09</ele>
        <time>2013-07-06T14:11:20Z</time>
      </trkpt>
      <trkpt lat="44.10999" lon="3.2237">
        <ele>722.09</ele>
        <time>2013-07-06T14:11:21Z</time>
      </trkpt>
      <trkpt lat="44.10998" lon="3.22373">
        <ele>722.09</ele>
        <time>2013-07-06T14:11:22Z</time>
      </trkpt>
      <trkpt lat="44.10998" lon="3.22375">
        <ele>722.57</ele>
        <time>2013-07-06T14:11:23Z</time>
      </trkpt>
      <trkpt lat="44.10996" lon="3.22404">
        <ele>724.97</ele>
        <time>2013-07-06T14:11:37Z</time>
      </trkpt>
      <trkpt lat="44.10991" lon="3.22435">
        <ele>726.89</ele>
        <time>2013-07-06T14:11:52Z</time>
      </trkpt>
      <trkpt lat="44.10991" lon="3.2244">
        <ele>727.37</ele>
        <time>2013-07-06T14:11:54Z</time>
      </trkpt>
      <trkpt lat="44.10991" lon="3.22442">
        <ele>727.37</ele>
        <time>2013-07-06T14:11:55Z</time>
      </trkpt>
      <trkpt lat="44.1099" lon="3.22444">
        <ele>727.86</ele>
        <time>2013-07-06T14:11:56Z</time>
      </trkpt>
      <trkpt lat="44.1099" lon="3.22446">
        <ele>727.86</ele>
        <time>2013-07-06T14:11:57Z</time>
      </trkpt>
      <trkpt lat="44.1099" lon="3.22448">
        <ele>727.86</ele>
        <time>2013-07-06T14:11:58Z</time>
      </trkpt>
      <trkpt lat="44.10989" lon="3.2245">
        <ele>728.34</ele>
        <time>2013-07-06T14:11:59Z</time>
      </trkpt>
      <trkpt lat="44.10989" lon="3.22459">
        <ele>728.82</ele>
        <time>2013-07-06T14:12:04Z</time>
      </trkpt>
      <trkpt lat="44.10988" lon="3.22461">
        <ele>729.3</ele>
        <time>2013-07-06T14:12:05Z</time>
      </trkpt>
      <trkpt lat="44.10988" lon="3.22467">
        <ele>729.78</ele>
        <time>2013-07-06T14:12:08Z</time>
      </trkpt>
      <trkpt lat="44.10987" lon="3.22469">
        <ele>729.78</ele>
        <time>2013-07-06T14:12:09Z</time>
      </trkpt>
      <trkpt lat="44.10987" lon="3.22471">
        <ele>729.78</ele>
        <time>2013-07-06T14:12:10Z</time>
      </trkpt>
      <trkpt lat="44.10987" lon="3.22474">
        <ele>730.26</ele>
        <time>2013-07-06T14:12:11Z</time>
      </trkpt>
      <trkpt lat="44.10987" lon="3.22476">
        <ele>730.26</ele>
        <time>2013-07-06T14:12:12Z</time>
      </trkpt>
      <trkpt lat="44.10988" lon="3.22478">
        <ele>730.26</ele>
        <time>2013-07-06T14:12:13Z</time>
      </trkpt>
      <trkpt lat="44.10987" lon="3.22481">
        <ele>730.74</ele>
        <time>2013-07-06T14:12:14Z</time>
      </trkpt>
      <trkpt lat="44.10986" lon="3.22502">
        <ele>732.18</ele>
        <time>2013-07-06T14:12:25Z</time>
      </trkpt>
      <trkpt lat="44.10986" lon="3.22504">
        <ele>732.66</ele>
        <time>2013-07-06T14:12:26Z</time>
      </trkpt>
      <trkpt lat="44.10986" lon="3.22506">
        <ele>732.66</ele>
        <time>2013-07-06T14:12:27Z</time>
      </trkpt>
      <trkpt lat="44.10986" lon="3.22508">
        <ele>733.14</ele>
        <time>2013-07-06T14:12:28Z</time>
      </trkpt>
      <trkpt lat="44.10986" lon="3.2251">
        <ele>733.14</ele>
        <time>2013-07-06T14:12:29Z</time>
      </trkpt>
      <trkpt lat="44.10986" lon="3.22512">
        <ele>733.62</ele>
        <time>2013-07-06T14:12:30Z</time>
      </trkpt>
      <trkpt lat="44.10986" lon="3.22513">
        <ele>733.62</ele>
        <time>2013-07-06T14:12:31Z</time>
      </trkpt>
      <trkpt lat="44.10986" lon="3.22515">
        <ele>734.1</ele>
        <time>2013-07-06T14:12:32Z</time>
      </trkpt>
      <trkpt lat="44.10985" lon="3.22517">
        <ele>734.1</ele>
        <time>2013-07-06T14:12:33Z</time>
      </trkpt>
      <trkpt lat="44.10985" lon="3.22519">
        <ele>734.1</ele>
        <time>2013-07-06T14:12:34Z</time>
      </trkpt>
      <trkpt lat="44.10985" lon="3.22521">
        <ele>734.58</ele>
        <time>2013-07-06T14:12:35Z</time>
      </trkpt>
      <trkpt lat="44.10985" lon="3.22522">
        <ele>734.58</ele>
        <time>2013-07-06T14:12:36Z</time>
      </trkpt>
      <trkpt lat="44.10986" lon="3.22524">
        <ele>734.58</ele>
        <time>2013-07-06T14:12:37Z</time>
      </trkpt>
      <trkpt lat="44.10986" lon="3.22526">
        <ele>735.07</ele>
        <time>2013-07-06T14:12:38Z</time>
      </trkpt>
      <trkpt lat="44.10986" lon="3.22528">
        <ele>735.55</ele>
        <time>2013-07-06T14:12:39Z</time>
      </trkpt>
      <trkpt lat="44.10986" lon="3.2254">
        <ele>736.99</ele>
        <time>2013-07-06T14:12:45Z</time>
      </trkpt>
      <trkpt lat="44.10986" lon="3.22542">
        <ele>736.99</ele>
        <time>2013-07-06T14:12:46Z</time>
      </trkpt>
      <trkpt lat="44.10986" lon="3.22544">
        <ele>737.47</ele>
        <time>2013-07-06T14:13:00Z</time>
      </trkpt>
      <trkpt lat="44.10986" lon="3.22544">
        <ele>737.47</ele>
        <time>2013-07-06T14:13:18Z</time>
      </trkpt>
      <trkpt lat="44.10986" lon="3.22544">
        <ele>737.47</ele>
        <time>2013-07-06T14:13:42Z</time>
      </trkpt>
      <trkpt lat="44.10986" lon="3.22544">
        <ele>737.47</ele>
        <time>2013-07-06T14:13:46Z</time>
      </trkpt>
      <trkpt lat="44.10986" lon="3.22547">
        <ele>737.47</ele>
        <time>2013-07-06T14:13:47Z</time>
      </trkpt>
      <trkpt lat="44.10986" lon="3.22549">
        <ele>737.47</ele>
        <time>2013-07-06T14:13:48Z</time>
      </trkpt>
      <trkpt lat="44.10986" lon="3.22551">
        <ele>737.95</ele>
        <time>2013-07-06T14:13:49Z</time>
      </trkpt>
      <trkpt lat="44.10985" lon="3.22553">
        <ele>737.95</ele>
        <time>2013-07-06T14:13:50Z</time>
      </trkpt>
      <trkpt lat="44.10985" lon="3.22558">
        <ele>738.43</ele>
        <time>2013-07-06T14:13:53Z</time>
      </trkpt>
      <trkpt lat="44.10986" lon="3.2256">
        <ele>738.43</ele>
        <time>2013-07-06T14:13:54Z</time>
      </trkpt>
      <trkpt lat="44.10985" lon="3.22567">
        <ele>738.91</ele>
        <time>2013-07-06T14:13:58Z</time>
      </trkpt>
      <trkpt lat="44.10985" lon="3.22568">
        <ele>739.39</ele>
        <time>2013-07-06T14:13:59Z</time>
      </trkpt>
      <trkpt lat="44.10985" lon="3.2257">
        <ele>739.39</ele>
        <time>2013-07-06T14:14:00Z</time>
      </trkpt>
      <trkpt lat="44.10984" lon="3.22577">
        <ele>739.87</ele>
        <time>2013-07-06T14:14:04Z</time>
      </trkpt>
      <trkpt lat="44.10984" lon="3.22583">
        <ele>740.35</ele>
        <time>2013-07-06T14:14:15Z</time>
      </trkpt>
      <trkpt lat="44.10981" lon="3.2259">
        <ele>739.87</ele>
        <time>2013-07-06T14:14:21Z</time>
      </trkpt>
      <trkpt lat="44.1098" lon="3.22592">
        <ele>740.35</ele>
        <time>2013-07-06T14:14:22Z</time>
      </trkpt>
      <trkpt lat="44.10979" lon="3.22595">
        <ele>739.87</ele>
        <time>2013-07-06T14:14:23Z</time>
      </trkpt>
      <trkpt lat="44.10979" lon="3.22597">
        <ele>740.35</ele>
        <time>2013-07-06T14:14:24Z</time>
      </trkpt>
      <trkpt lat="44.10978" lon="3.22599">
        <ele>739.87</ele>
        <time>2013-07-06T14:14:25Z</time>
      </trkpt>
      <trkpt lat="44.10977" lon="3.22601">
        <ele>740.35</ele>
        <time>2013-07-06T14:14:26Z</time>
      </trkpt>
      <trkpt lat="44.10976" lon="3.22605">
        <ele>740.35</ele>
        <time>2013-07-06T14:14:40Z</time>
      </trkpt>
      <trkpt lat="44.10975" lon="3.22607">
        <ele>740.35</ele>
        <time>2013-07-06T14:14:53Z</time>
      </trkpt>
      <trkpt lat="44.10974" lon="3.22608">
        <ele>740.35</ele>
        <time>2013-07-06T14:14:54Z</time>
      </trkpt>
      <trkpt lat="44.10973" lon="3.22611">
        <ele>740.35</ele>
        <time>2013-07-06T14:14:55Z</time>
      </trkpt>
      <trkpt lat="44.10973" lon="3.22612">
        <ele>740.35</ele>
        <time>2013-07-06T14:14:56Z</time>
      </trkpt>
      <trkpt lat="44.10973" lon="3.22614">
        <ele>740.35</ele>
        <time>2013-07-06T14:14:57Z</time>
      </trkpt>
      <trkpt lat="44.10973" lon="3.22616">
        <ele>740.35</ele>
        <time>2013-07-06T14:14:58Z</time>
      </trkpt>
      <trkpt lat="44.10969" lon="3.22633">
        <ele>740.83</ele>
        <time>2013-07-06T14:15:04Z</time>
      </trkpt>
      <trkpt lat="44.10968" lon="3.22643">
        <ele>740.83</ele>
        <time>2013-07-06T14:15:07Z</time>
      </trkpt>
      <trkpt lat="44.10967" lon="3.22646">
        <ele>741.31</ele>
        <time>2013-07-06T14:15:08Z</time>
      </trkpt>
      <trkpt lat="44.10966" lon="3.22649">
        <ele>741.31</ele>
        <time>2013-07-06T14:15:09Z</time>
      </trkpt>
      <trkpt lat="44.10965" lon="3.22676">
        <ele>743.72</ele>
        <time>2013-07-06T14:15:19Z</time>
      </trkpt>
      <trkpt lat="44.10965" lon="3.22679">
        <ele>744.2</ele>
        <time>2013-07-06T14:15:20Z</time>
      </trkpt>
      <trkpt lat="44.10965" lon="3.22681">
        <ele>744.2</ele>
        <time>2013-07-06T14:15:21Z</time>
      </trkpt>
      <trkpt lat="44.10957" lon="3.22713">
        <ele>745.64</ele>
        <time>2013-07-06T14:15:35Z</time>
      </trkpt>
      <trkpt lat="44.10936" lon="3.22738">
        <ele>748.04</ele>
        <time>2013-07-06T14:15:48Z</time>
      </trkpt>
      <trkpt lat="44.10917" lon="3.22759">
        <ele>749</ele>
        <time>2013-07-06T14:16:01Z</time>
      </trkpt>
      <trkpt lat="44.10897" lon="3.22778">
        <ele>750.45</ele>
        <time>2013-07-06T14:16:13Z</time>
      </trkpt>
      <trkpt lat="44.10886" lon="3.22798">
        <ele>750.45</ele>
        <time>2013-07-06T14:16:20Z</time>
      </trkpt>
      <trkpt lat="44.10885" lon="3.22803">
        <ele>749.97</ele>
        <time>2013-07-06T14:16:21Z</time>
      </trkpt>
      <trkpt lat="44.10883" lon="3.22807">
        <ele>749.97</ele>
        <time>2013-07-06T14:16:22Z</time>
      </trkpt>
      <trkpt lat="44.10861" lon="3.22852">
        <ele>747.56</ele>
        <time>2013-07-06T14:16:33Z</time>
      </trkpt>
      <trkpt lat="44.10857" lon="3.22863">
        <ele>747.08</ele>
        <time>2013-07-06T14:16:35Z</time>
      </trkpt>
      <trkpt lat="44.10851" lon="3.22883">
        <ele>746.6</ele>
        <time>2013-07-06T14:16:38Z</time>
      </trkpt>
      <trkpt lat="44.10849" lon="3.2289">
        <ele>746.12</ele>
        <time>2013-07-06T14:16:39Z</time>
      </trkpt>
      <trkpt lat="44.10849" lon="3.22898">
        <ele>745.64</ele>
        <time>2013-07-06T14:16:40Z</time>
      </trkpt>
      <trkpt lat="44.10849" lon="3.22906">
        <ele>745.16</ele>
        <time>2013-07-06T14:16:41Z</time>
      </trkpt>
      <trkpt lat="44.10848" lon="3.22914">
        <ele>744.68</ele>
        <time>2013-07-06T14:16:42Z</time>
      </trkpt>
      <trkpt lat="44.10848" lon="3.22923">
        <ele>744.2</ele>
        <time>2013-07-06T14:16:43Z</time>
      </trkpt>
      <trkpt lat="44.10848" lon="3.22931">
        <ele>743.72</ele>
        <time>2013-07-06T14:16:44Z</time>
      </trkpt>
      <trkpt lat="44.10851" lon="3.22999">
        <ele>744.2</ele>
        <time>2013-07-06T14:16:55Z</time>
      </trkpt>
      <trkpt lat="44.10841" lon="3.23032">
        <ele>745.16</ele>
        <time>2013-07-06T14:17:04Z</time>
      </trkpt>
      <trkpt lat="44.1083" lon="3.23083">
        <ele>746.6</ele>
        <time>2013-07-06T14:17:20Z</time>
      </trkpt>
      <trkpt lat="44.10819" lon="3.23128">
        <ele>749.49</ele>
        <time>2013-07-06T14:17:36Z</time>
      </trkpt>
      <trkpt lat="44.10814" lon="3.23165">
        <ele>752.37</ele>
        <time>2013-07-06T14:17:50Z</time>
      </trkpt>
      <trkpt lat="44.10811" lon="3.23189">
        <ele>755.25</ele>
        <time>2013-07-06T14:18:00Z</time>
      </trkpt>
      <trkpt lat="44.10811" lon="3.23195">
        <ele>756.21</ele>
        <time>2013-07-06T14:18:03Z</time>
      </trkpt>
      <trkpt lat="44.10811" lon="3.23198">
        <ele>756.69</ele>
        <time>2013-07-06T14:18:04Z</time>
      </trkpt>
      <trkpt lat="44.10811" lon="3.232">
        <ele>756.69</ele>
        <time>2013-07-06T14:18:05Z</time>
      </trkpt>
      <trkpt lat="44.10805" lon="3.23223">
        <ele>759.58</ele>
        <time>2013-07-06T14:18:17Z</time>
      </trkpt>
      <trkpt lat="44.108" lon="3.23253">
        <ele>762.46</ele>
        <time>2013-07-06T14:18:33Z</time>
      </trkpt>
      <trkpt lat="44.10799" lon="3.23279">
        <ele>764.87</ele>
        <time>2013-07-06T14:18:44Z</time>
      </trkpt>
      <trkpt lat="44.10799" lon="3.23281">
        <ele>765.35</ele>
        <time>2013-07-06T14:18:45Z</time>
      </trkpt>
      <trkpt lat="44.10799" lon="3.23284">
        <ele>765.83</ele>
        <time>2013-07-06T14:18:46Z</time>
      </trkpt>
      <trkpt lat="44.108" lon="3.23286">
        <ele>765.83</ele>
        <time>2013-07-06T14:18:47Z</time>
      </trkpt>
      <trkpt lat="44.108" lon="3.23289">
        <ele>766.31</ele>
        <time>2013-07-06T14:18:48Z</time>
      </trkpt>
      <trkpt lat="44.108" lon="3.23291">
        <ele>766.31</ele>
        <time>2013-07-06T14:18:49Z</time>
      </trkpt>
      <trkpt lat="44.10801" lon="3.23294">
        <ele>766.79</ele>
        <time>2013-07-06T14:18:50Z</time>
      </trkpt>
      <trkpt lat="44.10801" lon="3.23296">
        <ele>766.79</ele>
        <time>2013-07-06T14:18:51Z</time>
      </trkpt>
      <trkpt lat="44.10801" lon="3.23299">
        <ele>767.27</ele>
        <time>2013-07-06T14:18:52Z</time>
      </trkpt>
      <trkpt lat="44.10803" lon="3.23313">
        <ele>767.75</ele>
        <time>2013-07-06T14:18:58Z</time>
      </trkpt>
      <trkpt lat="44.10803" lon="3.23315">
        <ele>767.75</ele>
        <time>2013-07-06T14:18:59Z</time>
      </trkpt>
      <trkpt lat="44.10804" lon="3.23317">
        <ele>767.75</ele>
        <time>2013-07-06T14:19:00Z</time>
      </trkpt>
      <trkpt lat="44.10804" lon="3.2335">
        <ele>769.67</ele>
        <time>2013-07-06T14:19:13Z</time>
      </trkpt>
      <trkpt lat="44.10803" lon="3.23367">
        <ele>771.11</ele>
        <time>2013-07-06T14:19:20Z</time>
      </trkpt>
      <trkpt lat="44.10803" lon="3.23369">
        <ele>771.11</ele>
        <time>2013-07-06T14:19:21Z</time>
      </trkpt>
      <trkpt lat="44.10803" lon="3.23372">
        <ele>771.11</ele>
        <time>2013-07-06T14:19:22Z</time>
      </trkpt>
      <trkpt lat="44.10804" lon="3.23375">
        <ele>771.6</ele>
        <time>2013-07-06T14:19:23Z</time>
      </trkpt>
      <trkpt lat="44.10804" lon="3.23378">
        <ele>771.6</ele>
        <time>2013-07-06T14:19:24Z</time>
      </trkpt>
      <trkpt lat="44.10804" lon="3.2338">
        <ele>772.08</ele>
        <time>2013-07-06T14:19:25Z</time>
      </trkpt>
      <trkpt lat="44.10803" lon="3.23411">
        <ele>774</ele>
        <time>2013-07-06T14:19:37Z</time>
      </trkpt>
      <trkpt lat="44.10803" lon="3.23418">
        <ele>774.96</ele>
        <time>2013-07-06T14:19:40Z</time>
      </trkpt>
      <trkpt lat="44.10803" lon="3.23449">
        <ele>776.88</ele>
        <time>2013-07-06T14:19:52Z</time>
      </trkpt>
      <trkpt lat="44.10803" lon="3.23483">
        <ele>779.29</ele>
        <time>2013-07-06T14:20:06Z</time>
      </trkpt>
      <trkpt lat="44.10805" lon="3.23491">
        <ele>780.25</ele>
        <time>2013-07-06T14:20:11Z</time>
      </trkpt>
      <trkpt lat="44.10804" lon="3.23494">
        <ele>780.25</ele>
        <time>2013-07-06T14:20:14Z</time>
      </trkpt>
      <trkpt lat="44.10803" lon="3.23494">
        <ele>780.25</ele>
        <time>2013-07-06T14:20:15Z</time>
      </trkpt>
      <trkpt lat="44.10802" lon="3.23494">
        <ele>780.25</ele>
        <time>2013-07-06T14:20:16Z</time>
      </trkpt>
      <trkpt lat="44.10801" lon="3.23494">
        <ele>780.73</ele>
        <time>2013-07-06T14:20:17Z</time>
      </trkpt>
      <trkpt lat="44.108" lon="3.23494">
        <ele>780.73</ele>
        <time>2013-07-06T14:20:18Z</time>
      </trkpt>
      <trkpt lat="44.10798" lon="3.23493">
        <ele>780.25</ele>
        <time>2013-07-06T14:20:19Z</time>
      </trkpt>
      <trkpt lat="44.10796" lon="3.23491">
        <ele>781.21</ele>
        <time>2013-07-06T14:20:33Z</time>
      </trkpt>
      <trkpt lat="44.10796" lon="3.23492">
        <ele>780.73</ele>
        <time>2013-07-06T14:20:50Z</time>
      </trkpt>
      <trkpt lat="44.10796" lon="3.23492">
        <ele>780.73</ele>
        <time>2013-07-06T14:21:13Z</time>
      </trkpt>
      <trkpt lat="44.10796" lon="3.23492">
        <ele>780.73</ele>
        <time>2013-07-06T14:21:47Z</time>
      </trkpt>
      <trkpt lat="44.10796" lon="3.23492">
        <ele>780.73</ele>
        <time>2013-07-06T14:22:19Z</time>
      </trkpt>
      <trkpt lat="44.10794" lon="3.23493">
        <ele>780.73</ele>
        <time>2013-07-06T14:22:50Z</time>
      </trkpt>
      <trkpt lat="44.10793" lon="3.23494">
        <ele>780.73</ele>
        <time>2013-07-06T14:22:51Z</time>
      </trkpt>
      <trkpt lat="44.10791" lon="3.23493">
        <ele>780.73</ele>
        <time>2013-07-06T14:22:52Z</time>
      </trkpt>
      <trkpt lat="44.10777" lon="3.2349">
        <ele>781.21</ele>
        <time>2013-07-06T14:23:00Z</time>
      </trkpt>
      <trkpt lat="44.10775" lon="3.2349">
        <ele>781.21</ele>
        <time>2013-07-06T14:23:01Z</time>
      </trkpt>
      <trkpt lat="44.10773" lon="3.23489">
        <ele>781.21</ele>
        <time>2013-07-06T14:23:02Z</time>
      </trkpt>
      <trkpt lat="44.10771" lon="3.2349">
        <ele>781.21</ele>
        <time>2013-07-06T14:23:03Z</time>
      </trkpt>
      <trkpt lat="44.10768" lon="3.2349">
        <ele>781.21</ele>
        <time>2013-07-06T14:23:04Z</time>
      </trkpt>
      <trkpt lat="44.10766" lon="3.23489">
        <ele>781.21</ele>
        <time>2013-07-06T14:23:05Z</time>
      </trkpt>
      <trkpt lat="44.10764" lon="3.23489">
        <ele>781.21</ele>
        <time>2013-07-06T14:23:06Z</time>
      </trkpt>
      <trkpt lat="44.10762" lon="3.23488">
        <ele>781.69</ele>
        <time>2013-07-06T14:23:07Z</time>
      </trkpt>
      <trkpt lat="44.10726" lon="3.23491">
        <ele>782.65</ele>
        <time>2013-07-06T14:23:22Z</time>
      </trkpt>
      <trkpt lat="44.10686" lon="3.23502">
        <ele>783.13</ele>
        <time>2013-07-06T14:23:37Z</time>
      </trkpt>
      <trkpt lat="44.10632" lon="3.23514">
        <ele>781.69</ele>
        <time>2013-07-06T14:23:52Z</time>
      </trkpt>
      <trkpt lat="44.1062" lon="3.23516">
        <ele>781.21</ele>
        <time>2013-07-06T14:23:55Z</time>
      </trkpt>
      <trkpt lat="44.10591" lon="3.23522">
        <ele>780.73</ele>
        <time>2013-07-06T14:24:02Z</time>
      </trkpt>
      <trkpt lat="44.10586" lon="3.23523">
        <ele>780.25</ele>
        <time>2013-07-06T14:24:03Z</time>
      </trkpt>
      <trkpt lat="44.10582" lon="3.23523">
        <ele>780.25</ele>
        <time>2013-07-06T14:24:04Z</time>
      </trkpt>
      <trkpt lat="44.10578" lon="3.23524">
        <ele>779.77</ele>
        <time>2013-07-06T14:24:05Z</time>
      </trkpt>
      <trkpt lat="44.10574" lon="3.23525">
        <ele>780.25</ele>
        <time>2013-07-06T14:24:06Z</time>
      </trkpt>
      <trkpt lat="44.1057" lon="3.23526">
        <ele>779.77</ele>
        <time>2013-07-06T14:24:07Z</time>
      </trkpt>
      <trkpt lat="44.10566" lon="3.23527">
        <ele>779.77</ele>
        <time>2013-07-06T14:24:08Z</time>
      </trkpt>
      <trkpt lat="44.10512" lon="3.23541">
        <ele>780.25</ele>
        <time>2013-07-06T14:24:22Z</time>
      </trkpt>
      <trkpt lat="44.10472" lon="3.23576">
        <ele>781.69</ele>
        <time>2013-07-06T14:24:37Z</time>
      </trkpt>
      <trkpt lat="44.10433" lon="3.23624">
        <ele>782.65</ele>
        <time>2013-07-06T14:24:53Z</time>
      </trkpt>
      <trkpt lat="44.10386" lon="3.23692">
        <ele>783.13</ele>
        <time>2013-07-06T14:25:11Z</time>
      </trkpt>
      <trkpt lat="44.10378" lon="3.23705">
        <ele>783.13</ele>
        <time>2013-07-06T14:25:14Z</time>
      </trkpt>
      <trkpt lat="44.10369" lon="3.23723">
        <ele>783.13</ele>
        <time>2013-07-06T14:25:18Z</time>
      </trkpt>
      <trkpt lat="44.10366" lon="3.23728">
        <ele>783.13</ele>
        <time>2013-07-06T14:25:19Z</time>
      </trkpt>
      <trkpt lat="44.10363" lon="3.23733">
        <ele>783.13</ele>
        <time>2013-07-06T14:25:20Z</time>
      </trkpt>
      <trkpt lat="44.1036" lon="3.23737">
        <ele>783.13</ele>
        <time>2013-07-06T14:25:21Z</time>
      </trkpt>
      <trkpt lat="44.10358" lon="3.23741">
        <ele>783.13</ele>
        <time>2013-07-06T14:25:22Z</time>
      </trkpt>
      <trkpt lat="44.10343" lon="3.23768">
        <ele>783.13</ele>
        <time>2013-07-06T14:25:28Z</time>
      </trkpt>
      <trkpt lat="44.10341" lon="3.23773">
        <ele>782.65</ele>
        <time>2013-07-06T14:25:29Z</time>
      </trkpt>
      <trkpt lat="44.10332" lon="3.2379">
        <ele>782.65</ele>
        <time>2013-07-06T14:25:32Z</time>
      </trkpt>
      <trkpt lat="44.10313" lon="3.23834">
        <ele>781.69</ele>
        <time>2013-07-06T14:25:40Z</time>
      </trkpt>
      <trkpt lat="44.10268" lon="3.23911">
        <ele>781.21</ele>
        <time>2013-07-06T14:25:55Z</time>
      </trkpt>
      <trkpt lat="44.10258" lon="3.23925">
        <ele>781.21</ele>
        <time>2013-07-06T14:25:58Z</time>
      </trkpt>
      <trkpt lat="44.10255" lon="3.2393">
        <ele>780.73</ele>
        <time>2013-07-06T14:25:59Z</time>
      </trkpt>
      <trkpt lat="44.10251" lon="3.23933">
        <ele>780.73</ele>
        <time>2013-07-06T14:26:00Z</time>
      </trkpt>
      <trkpt lat="44.10243" lon="3.2394">
        <ele>780.73</ele>
        <time>2013-07-06T14:26:02Z</time>
      </trkpt>
      <trkpt lat="44.10222" lon="3.23946">
        <ele>780.25</ele>
        <time>2013-07-06T14:26:11Z</time>
      </trkpt>
      <trkpt lat="44.10222" lon="3.23946">
        <ele>780.73</ele>
        <time>2013-07-06T14:26:27Z</time>
      </trkpt>
      <trkpt lat="44.10221" lon="3.23947">
        <ele>780.25</ele>
        <time>2013-07-06T14:26:28Z</time>
      </trkpt>
      <trkpt lat="44.10219" lon="3.23949">
        <ele>779.77</ele>
        <time>2013-07-06T14:26:29Z</time>
      </trkpt>
      <trkpt lat="44.10216" lon="3.23948">
        <ele>779.77</ele>
        <time>2013-07-06T14:26:30Z</time>
      </trkpt>
      <trkpt lat="44.10213" lon="3.23948">
        <ele>779.29</ele>
        <time>2013-07-06T14:26:31Z</time>
      </trkpt>
      <trkpt lat="44.10209" lon="3.23947">
        <ele>779.29</ele>
        <time>2013-07-06T14:26:32Z</time>
      </trkpt>
      <trkpt lat="44.10205" lon="3.23947">
        <ele>779.29</ele>
        <time>2013-07-06T14:26:33Z</time>
      </trkpt>
      <trkpt lat="44.102" lon="3.23947">
        <ele>778.81</ele>
        <time>2013-07-06T14:26:34Z</time>
      </trkpt>
      <trkpt lat="44.10195" lon="3.23947">
        <ele>778.32</ele>
        <time>2013-07-06T14:26:35Z</time>
      </trkpt>
      <trkpt lat="44.10189" lon="3.23948">
        <ele>777.84</ele>
        <time>2013-07-06T14:26:36Z</time>
      </trkpt>
      <trkpt lat="44.10183" lon="3.23947">
        <ele>777.36</ele>
        <time>2013-07-06T14:26:37Z</time>
      </trkpt>
      <trkpt lat="44.10156" lon="3.23946">
        <ele>774.48</ele>
        <time>2013-07-06T14:26:41Z</time>
      </trkpt>
      <trkpt lat="44.10148" lon="3.23946">
        <ele>773.52</ele>
        <time>2013-07-06T14:26:42Z</time>
      </trkpt>
      <trkpt lat="44.10123" lon="3.23949">
        <ele>771.11</ele>
        <time>2013-07-06T14:26:45Z</time>
      </trkpt>
      <trkpt lat="44.10083" lon="3.23951">
        <ele>767.75</ele>
        <time>2013-07-06T14:26:49Z</time>
      </trkpt>
      <trkpt lat="44.10073" lon="3.23951">
        <ele>766.79</ele>
        <time>2013-07-06T14:26:50Z</time>
      </trkpt>
      <trkpt lat="44.10029" lon="3.23951">
        <ele>762.46</ele>
        <time>2013-07-06T14:26:54Z</time>
      </trkpt>
      <trkpt lat="44.10019" lon="3.2395">
        <ele>761.98</ele>
        <time>2013-07-06T14:26:55Z</time>
      </trkpt>
      <trkpt lat="44.09989" lon="3.23946">
        <ele>760.06</ele>
        <time>2013-07-06T14:26:58Z</time>
      </trkpt>
      <trkpt lat="44.09944" lon="3.23944">
        <ele>756.21</ele>
        <time>2013-07-06T14:27:04Z</time>
      </trkpt>
      <trkpt lat="44.0994" lon="3.23946">
        <ele>756.21</ele>
        <time>2013-07-06T14:27:05Z</time>
      </trkpt>
      <trkpt lat="44.09938" lon="3.23949">
        <ele>755.73</ele>
        <time>2013-07-06T14:27:06Z</time>
      </trkpt>
      <trkpt lat="44.09944" lon="3.23966">
        <ele>754.77</ele>
        <time>2013-07-06T14:27:10Z</time>
      </trkpt>
      <trkpt lat="44.09948" lon="3.23968">
        <ele>754.29</ele>
        <time>2013-07-06T14:27:11Z</time>
      </trkpt>
      <trkpt lat="44.09952" lon="3.23972">
        <ele>753.81</ele>
        <time>2013-07-06T14:27:12Z</time>
      </trkpt>
      <trkpt lat="44.09963" lon="3.2398">
        <ele>752.37</ele>
        <time>2013-07-06T14:27:14Z</time>
      </trkpt>
      <trkpt lat="44.09968" lon="3.23987">
        <ele>751.89</ele>
        <time>2013-07-06T14:27:15Z</time>
      </trkpt>
      <trkpt lat="44.09979" lon="3.24002">
        <ele>750.45</ele>
        <time>2013-07-06T14:27:17Z</time>
      </trkpt>
      <trkpt lat="44.09989" lon="3.24022">
        <ele>749</ele>
        <time>2013-07-06T14:27:19Z</time>
      </trkpt>
      <trkpt lat="44.09992" lon="3.24032">
        <ele>748.04</ele>
        <time>2013-07-06T14:27:20Z</time>
      </trkpt>
      <trkpt lat="44.09994" lon="3.24041">
        <ele>748.04</ele>
        <time>2013-07-06T14:27:21Z</time>
      </trkpt>
      <trkpt lat="44.09996" lon="3.2405">
        <ele>747.56</ele>
        <time>2013-07-06T14:27:22Z</time>
      </trkpt>
      <trkpt lat="44.09996" lon="3.2406">
        <ele>747.56</ele>
        <time>2013-07-06T14:27:23Z</time>
      </trkpt>
      <trkpt lat="44.09996" lon="3.24069">
        <ele>747.08</ele>
        <time>2013-07-06T14:27:24Z</time>
      </trkpt>
      <trkpt lat="44.09996" lon="3.24077">
        <ele>746.6</ele>
        <time>2013-07-06T14:27:25Z</time>
      </trkpt>
      <trkpt lat="44.09994" lon="3.24086">
        <ele>746.12</ele>
        <time>2013-07-06T14:27:26Z</time>
      </trkpt>
      <trkpt lat="44.0999" lon="3.24094">
        <ele>745.16</ele>
        <time>2013-07-06T14:27:27Z</time>
      </trkpt>
      <trkpt lat="44.09982" lon="3.24113">
        <ele>744.2</ele>
        <time>2013-07-06T14:27:29Z</time>
      </trkpt>
      <trkpt lat="44.0998" lon="3.24123">
        <ele>744.2</ele>
        <time>2013-07-06T14:27:30Z</time>
      </trkpt>
      <trkpt lat="44.09979" lon="3.24132">
        <ele>743.72</ele>
        <time>2013-07-06T14:27:31Z</time>
      </trkpt>
      <trkpt lat="44.09978" lon="3.24141">
        <ele>743.24</ele>
        <time>2013-07-06T14:27:32Z</time>
      </trkpt>
      <trkpt lat="44.09976" lon="3.24148">
        <ele>743.24</ele>
        <time>2013-07-06T14:27:33Z</time>
      </trkpt>
      <trkpt lat="44.09973" lon="3.24154">
        <ele>742.76</ele>
        <time>2013-07-06T14:27:34Z</time>
      </trkpt>
      <trkpt lat="44.0997" lon="3.24159">
        <ele>742.28</ele>
        <time>2013-07-06T14:27:35Z</time>
      </trkpt>
      <trkpt lat="44.09965" lon="3.24163">
        <ele>742.28</ele>
        <time>2013-07-06T14:27:36Z</time>
      </trkpt>
      <trkpt lat="44.09961" lon="3.24167">
        <ele>741.79</ele>
        <time>2013-07-06T14:27:37Z</time>
      </trkpt>
      <trkpt lat="44.09957" lon="3.24171">
        <ele>741.31</ele>
        <time>2013-07-06T14:27:38Z</time>
      </trkpt>
      <trkpt lat="44.0994" lon="3.24191">
        <ele>739.39</ele>
        <time>2013-07-06T14:27:42Z</time>
      </trkpt>
      <trkpt lat="44.09937" lon="3.24195">
        <ele>739.39</ele>
        <time>2013-07-06T14:27:43Z</time>
      </trkpt>
      <trkpt lat="44.09934" lon="3.24199">
        <ele>738.43</ele>
        <time>2013-07-06T14:27:44Z</time>
      </trkpt>
      <trkpt lat="44.09929" lon="3.24203">
        <ele>737.95</ele>
        <time>2013-07-06T14:27:46Z</time>
      </trkpt>
      <trkpt lat="44.09926" lon="3.24203">
        <ele>737.47</ele>
        <time>2013-07-06T14:27:47Z</time>
      </trkpt>
      <trkpt lat="44.09924" lon="3.24202">
        <ele>737.47</ele>
        <time>2013-07-06T14:27:48Z</time>
      </trkpt>
      <trkpt lat="44.09923" lon="3.24202">
        <ele>737.47</ele>
        <time>2013-07-06T14:27:49Z</time>
      </trkpt>
      <trkpt lat="44.09921" lon="3.24202">
        <ele>737.47</ele>
        <time>2013-07-06T14:27:50Z</time>
      </trkpt>
      <trkpt lat="44.09919" lon="3.24203">
        <ele>737.47</ele>
        <time>2013-07-06T14:27:51Z</time>
      </trkpt>
      <trkpt lat="44.09918" lon="3.24201">
        <ele>737.47</ele>
        <time>2013-07-06T14:28:01Z</time>
      </trkpt>
      <trkpt lat="44.09917" lon="3.24202">
        <ele>736.99</ele>
        <time>2013-07-06T14:28:06Z</time>
      </trkpt>
      <trkpt lat="44.09915" lon="3.24203">
        <ele>736.99</ele>
        <time>2013-07-06T14:28:07Z</time>
      </trkpt>
      <trkpt lat="44.09913" lon="3.24204">
        <ele>736.99</ele>
        <time>2013-07-06T14:28:08Z</time>
      </trkpt>
      <trkpt lat="44.09911" lon="3.24207">
        <ele>736.99</ele>
        <time>2013-07-06T14:28:09Z</time>
      </trkpt>
      <trkpt lat="44.09908" lon="3.2421">
        <ele>736.99</ele>
        <time>2013-07-06T14:28:10Z</time>
      </trkpt>
      <trkpt lat="44.09906" lon="3.24213">
        <ele>736.51</ele>
        <time>2013-07-06T14:28:11Z</time>
      </trkpt>
      <trkpt lat="44.09904" lon="3.24216">
        <ele>736.51</ele>
        <time>2013-07-06T14:28:12Z</time>
      </trkpt>
      <trkpt lat="44.09902" lon="3.24219">
        <ele>736.51</ele>
        <time>2013-07-06T14:28:13Z</time>
      </trkpt>
      <trkpt lat="44.099" lon="3.24222">
        <ele>736.51</ele>
        <time>2013-07-06T14:28:14Z</time>
      </trkpt>
      <trkpt lat="44.09898" lon="3.24225">
        <ele>736.51</ele>
        <time>2013-07-06T14:28:15Z</time>
      </trkpt>
      <trkpt lat="44.09888" lon="3.2424">
        <ele>736.03</ele>
        <time>2013-07-06T14:28:20Z</time>
      </trkpt>
      <trkpt lat="44.09885" lon="3.24241">
        <ele>736.03</ele>
        <time>2013-07-06T14:28:21Z</time>
      </trkpt>
      <trkpt lat="44.09881" lon="3.24243">
        <ele>736.03</ele>
        <time>2013-07-06T14:28:22Z</time>
      </trkpt>
      <trkpt lat="44.09877" lon="3.24244">
        <ele>736.03</ele>
        <time>2013-07-06T14:28:23Z</time>
      </trkpt>
      <trkpt lat="44.09872" lon="3.24245">
        <ele>736.51</ele>
        <time>2013-07-06T14:28:24Z</time>
      </trkpt>
      <trkpt lat="44.09868" lon="3.24246">
        <ele>736.51</ele>
        <time>2013-07-06T14:28:25Z</time>
      </trkpt>
      <trkpt lat="44.09824" lon="3.24277">
        <ele>736.99</ele>
        <time>2013-07-06T14:28:37Z</time>
      </trkpt>
      <trkpt lat="44.09799" lon="3.24323">
        <ele>738.43</ele>
        <time>2013-07-06T14:28:50Z</time>
      </trkpt>
      <trkpt lat="44.09771" lon="3.24357">
        <ele>740.83</ele>
        <time>2013-07-06T14:29:03Z</time>
      </trkpt>
      <trkpt lat="44.09742" lon="3.24375">
        <ele>740.35</ele>
        <time>2013-07-06T14:29:14Z</time>
      </trkpt>
      <trkpt lat="44.09734" lon="3.24379">
        <ele>740.35</ele>
        <time>2013-07-06T14:29:16Z</time>
      </trkpt>
      <trkpt lat="44.0973" lon="3.24383">
        <ele>739.87</ele>
        <time>2013-07-06T14:29:17Z</time>
      </trkpt>
      <trkpt lat="44.09719" lon="3.24397">
        <ele>739.39</ele>
        <time>2013-07-06T14:29:20Z</time>
      </trkpt>
      <trkpt lat="44.09678" lon="3.24466">
        <ele>737.95</ele>
        <time>2013-07-06T14:29:33Z</time>
      </trkpt>
      <trkpt lat="44.09675" lon="3.24471">
        <ele>737.95</ele>
        <time>2013-07-06T14:29:34Z</time>
      </trkpt>
      <trkpt lat="44.09656" lon="3.245">
        <ele>737.95</ele>
        <time>2013-07-06T14:29:41Z</time>
      </trkpt>
      <trkpt lat="44.09653" lon="3.24504">
        <ele>737.95</ele>
        <time>2013-07-06T14:29:42Z</time>
      </trkpt>
      <trkpt lat="44.09607" lon="3.24544">
        <ele>738.43</ele>
        <time>2013-07-06T14:29:55Z</time>
      </trkpt>
      <trkpt lat="44.09572" lon="3.24588">
        <ele>740.35</ele>
        <time>2013-07-06T14:30:08Z</time>
      </trkpt>
      <trkpt lat="44.09557" lon="3.24608">
        <ele>740.35</ele>
        <time>2013-07-06T14:30:13Z</time>
      </trkpt>
      <trkpt lat="44.09554" lon="3.24611">
        <ele>740.35</ele>
        <time>2013-07-06T14:30:14Z</time>
      </trkpt>
      <trkpt lat="44.09547" lon="3.24617">
        <ele>740.35</ele>
        <time>2013-07-06T14:30:16Z</time>
      </trkpt>
      <trkpt lat="44.09543" lon="3.24619">
        <ele>740.35</ele>
        <time>2013-07-06T14:30:17Z</time>
      </trkpt>
      <trkpt lat="44.09509" lon="3.24638">
        <ele>742.76</ele>
        <time>2013-07-06T14:30:30Z</time>
      </trkpt>
      <trkpt lat="44.09476" lon="3.24652">
        <ele>743.72</ele>
        <time>2013-07-06T14:30:43Z</time>
      </trkpt>
      <trkpt lat="44.09437" lon="3.24668">
        <ele>745.16</ele>
        <time>2013-07-06T14:30:57Z</time>
      </trkpt>
      <trkpt lat="44.09419" lon="3.2468">
        <ele>744.68</ele>
        <time>2013-07-06T14:31:03Z</time>
      </trkpt>
      <trkpt lat="44.09414" lon="3.24681">
        <ele>744.68</ele>
        <time>2013-07-06T14:31:04Z</time>
      </trkpt>
      <trkpt lat="44.0941" lon="3.24682">
        <ele>744.68</ele>
        <time>2013-07-06T14:31:05Z</time>
      </trkpt>
      <trkpt lat="44.09405" lon="3.24683">
        <ele>744.2</ele>
        <time>2013-07-06T14:31:06Z</time>
      </trkpt>
      <trkpt lat="44.094" lon="3.24683">
        <ele>744.2</ele>
        <time>2013-07-06T14:31:07Z</time>
      </trkpt>
      <trkpt lat="44.09384" lon="3.24685">
        <ele>744.68</ele>
        <time>2013-07-06T14:31:11Z</time>
      </trkpt>
      <trkpt lat="44.0938" lon="3.24686">
        <ele>744.68</ele>
        <time>2013-07-06T14:31:12Z</time>
      </trkpt>
      <trkpt lat="44.09376" lon="3.24687">
        <ele>744.2</ele>
        <time>2013-07-06T14:31:13Z</time>
      </trkpt>
      <trkpt lat="44.09371" lon="3.24689">
        <ele>744.2</ele>
        <time>2013-07-06T14:31:14Z</time>
      </trkpt>
      <trkpt lat="44.09367" lon="3.2469">
        <ele>743.72</ele>
        <time>2013-07-06T14:31:15Z</time>
      </trkpt>
      <trkpt lat="44.09345" lon="3.24696">
        <ele>742.76</ele>
        <time>2013-07-06T14:31:19Z</time>
      </trkpt>
      <trkpt lat="44.09334" lon="3.247">
        <ele>742.28</ele>
        <time>2013-07-06T14:31:21Z</time>
      </trkpt>
      <trkpt lat="44.09264" lon="3.2473">
        <ele>742.28</ele>
        <time>2013-07-06T14:31:35Z</time>
      </trkpt>
      <trkpt lat="44.09223" lon="3.2472">
        <ele>743.24</ele>
        <time>2013-07-06T14:31:49Z</time>
      </trkpt>
      <trkpt lat="44.09203" lon="3.24695">
        <ele>742.28</ele>
        <time>2013-07-06T14:31:56Z</time>
      </trkpt>
      <trkpt lat="44.092" lon="3.2469">
        <ele>741.79</ele>
        <time>2013-07-06T14:31:57Z</time>
      </trkpt>
      <trkpt lat="44.09197" lon="3.24684">
        <ele>741.31</ele>
        <time>2013-07-06T14:31:58Z</time>
      </trkpt>
      <trkpt lat="44.0919" lon="3.24668">
        <ele>740.83</ele>
        <time>2013-07-06T14:32:01Z</time>
      </trkpt>
      <trkpt lat="44.09187" lon="3.24663">
        <ele>740.83</ele>
        <time>2013-07-06T14:32:02Z</time>
      </trkpt>
      <trkpt lat="44.09184" lon="3.24659">
        <ele>740.83</ele>
        <time>2013-07-06T14:32:03Z</time>
      </trkpt>
      <trkpt lat="44.09145" lon="3.24621">
        <ele>740.83</ele>
        <time>2013-07-06T14:32:16Z</time>
      </trkpt>
      <trkpt lat="44.09136" lon="3.24616">
        <ele>741.79</ele>
        <time>2013-07-06T14:32:20Z</time>
      </trkpt>
      <trkpt lat="44.09135" lon="3.24617">
        <ele>741.79</ele>
        <time>2013-07-06T14:32:21Z</time>
      </trkpt>
      <trkpt lat="44.09133" lon="3.24623">
        <ele>741.79</ele>
        <time>2013-07-06T14:32:24Z</time>
      </trkpt>
      <trkpt lat="44.09118" lon="3.2462">
        <ele>741.79</ele>
        <time>2013-07-06T14:32:28Z</time>
      </trkpt>
      <trkpt lat="44.0911" lon="3.24616">
        <ele>742.28</ele>
        <time>2013-07-06T14:32:39Z</time>
      </trkpt>
      <trkpt lat="44.0911" lon="3.24616">
        <ele>742.28</ele>
        <time>2013-07-06T14:33:05Z</time>
      </trkpt>
      <trkpt lat="44.09109" lon="3.24616">
        <ele>741.79</ele>
        <time>2013-07-06T14:33:07Z</time>
      </trkpt>
      <trkpt lat="44.0908" lon="3.24619">
        <ele>742.76</ele>
        <time>2013-07-06T14:33:19Z</time>
      </trkpt>
      <trkpt lat="44.09073" lon="3.24618">
        <ele>742.76</ele>
        <time>2013-07-06T14:33:22Z</time>
      </trkpt>
      <trkpt lat="44.09045" lon="3.24598">
        <ele>742.28</ele>
        <time>2013-07-06T14:33:34Z</time>
      </trkpt>
      <trkpt lat="44.09041" lon="3.24592">
        <ele>742.76</ele>
        <time>2013-07-06T14:33:39Z</time>
      </trkpt>
      <trkpt lat="44.09031" lon="3.24595">
        <ele>742.28</ele>
        <time>2013-07-06T14:33:51Z</time>
      </trkpt>
      <trkpt lat="44.09031" lon="3.24595">
        <ele>742.28</ele>
        <time>2013-07-06T14:34:13Z</time>
      </trkpt>
      <trkpt lat="44.09031" lon="3.24595">
        <ele>742.28</ele>
        <time>2013-07-06T14:34:22Z</time>
      </trkpt>
      <trkpt lat="44.09029" lon="3.24596">
        <ele>743.24</ele>
        <time>2013-07-06T14:43:42Z</time>
      </trkpt>
      <trkpt lat="44.09029" lon="3.24595">
        <ele>743.24</ele>
        <time>2013-07-06T14:43:43Z</time>
      </trkpt>
      <trkpt lat="44.09031" lon="3.24597">
        <ele>743.24</ele>
        <time>2013-07-06T14:43:56Z</time>
      </trkpt>
      <trkpt lat="44.09033" lon="3.24593">
        <ele>743.24</ele>
        <time>2013-07-06T14:44:09Z</time>
      </trkpt>
      <trkpt lat="44.09035" lon="3.24592">
        <ele>743.24</ele>
        <time>2013-07-06T14:44:24Z</time>
      </trkpt>
      <trkpt lat="44.09038" lon="3.24591">
        <ele>743.24</ele>
        <time>2013-07-06T14:44:41Z</time>
      </trkpt>
      <trkpt lat="44.09039" lon="3.24589">
        <ele>743.72</ele>
        <time>2013-07-06T14:44:55Z</time>
      </trkpt>
      <trkpt lat="44.09039" lon="3.24588">
        <ele>743.72</ele>
        <time>2013-07-06T14:44:59Z</time>
      </trkpt>
      <trkpt lat="44.09037" lon="3.24584">
        <ele>743.24</ele>
        <time>2013-07-06T14:45:02Z</time>
      </trkpt>
      <trkpt lat="44.09027" lon="3.24574">
        <ele>742.76</ele>
        <time>2013-07-06T14:45:14Z</time>
      </trkpt>
      <trkpt lat="44.09026" lon="3.2457">
        <ele>742.76</ele>
        <time>2013-07-06T14:45:21Z</time>
      </trkpt>
      <trkpt lat="44.0903" lon="3.24544">
        <ele>741.31</ele>
        <time>2013-07-06T14:45:28Z</time>
      </trkpt>
      <trkpt lat="44.09032" lon="3.24538">
        <ele>740.83</ele>
        <time>2013-07-06T14:45:29Z</time>
      </trkpt>
      <trkpt lat="44.09034" lon="3.24533">
        <ele>740.83</ele>
        <time>2013-07-06T14:45:30Z</time>
      </trkpt>
      <trkpt lat="44.09037" lon="3.24529">
        <ele>740.83</ele>
        <time>2013-07-06T14:45:31Z</time>
      </trkpt>
      <trkpt lat="44.0904" lon="3.24526">
        <ele>740.35</ele>
        <time>2013-07-06T14:45:32Z</time>
      </trkpt>
      <trkpt lat="44.09044" lon="3.24523">
        <ele>739.87</ele>
        <time>2013-07-06T14:45:33Z</time>
      </trkpt>
      <trkpt lat="44.09048" lon="3.24519">
        <ele>739.87</ele>
        <time>2013-07-06T14:45:34Z</time>
      </trkpt>
      <trkpt lat="44.0905" lon="3.24514">
        <ele>739.39</ele>
        <time>2013-07-06T14:45:35Z</time>
      </trkpt>
      <trkpt lat="44.09052" lon="3.24507">
        <ele>738.91</ele>
        <time>2013-07-06T14:45:36Z</time>
      </trkpt>
      <trkpt lat="44.09057" lon="3.24474">
        <ele>736.99</ele>
        <time>2013-07-06T14:45:40Z</time>
      </trkpt>
      <trkpt lat="44.09058" lon="3.24458">
        <ele>736.51</ele>
        <time>2013-07-06T14:45:42Z</time>
      </trkpt>
      <trkpt lat="44.09057" lon="3.24451">
        <ele>736.51</ele>
        <time>2013-07-06T14:45:43Z</time>
      </trkpt>
      <trkpt lat="44.09053" lon="3.24445">
        <ele>736.51</ele>
        <time>2013-07-06T14:45:44Z</time>
      </trkpt>
      <trkpt lat="44.09021" lon="3.24402">
        <ele>738.43</ele>
        <time>2013-07-06T14:45:56Z</time>
      </trkpt>
      <trkpt lat="44.09003" lon="3.24362">
        <ele>739.87</ele>
        <time>2013-07-06T14:46:08Z</time>
      </trkpt>
      <trkpt lat="44.08994" lon="3.24306">
        <ele>739.87</ele>
        <time>2013-07-06T14:46:19Z</time>
      </trkpt>
      <trkpt lat="44.08966" lon="3.2423">
        <ele>741.31</ele>
        <time>2013-07-06T14:46:37Z</time>
      </trkpt>
      <trkpt lat="44.08956" lon="3.24176">
        <ele>740.83</ele>
        <time>2013-07-06T14:46:46Z</time>
      </trkpt>
      <trkpt lat="44.08954" lon="3.2417">
        <ele>740.83</ele>
        <time>2013-07-06T14:46:47Z</time>
      </trkpt>
      <trkpt lat="44.08951" lon="3.24165">
        <ele>740.83</ele>
        <time>2013-07-06T14:46:48Z</time>
      </trkpt>
      <trkpt lat="44.08949" lon="3.24161">
        <ele>741.31</ele>
        <time>2013-07-06T14:46:49Z</time>
      </trkpt>
      <trkpt lat="44.08946" lon="3.24157">
        <ele>741.79</ele>
        <time>2013-07-06T14:46:50Z</time>
      </trkpt>
      <trkpt lat="44.08943" lon="3.24153">
        <ele>741.31</ele>
        <time>2013-07-06T14:46:51Z</time>
      </trkpt>
      <trkpt lat="44.08931" lon="3.24136">
        <ele>741.31</ele>
        <time>2013-07-06T14:46:55Z</time>
      </trkpt>
      <trkpt lat="44.08894" lon="3.2406">
        <ele>742.76</ele>
        <time>2013-07-06T14:47:11Z</time>
      </trkpt>
      <trkpt lat="44.08862" lon="3.24008">
        <ele>745.64</ele>
        <time>2013-07-06T14:47:27Z</time>
      </trkpt>
      <trkpt lat="44.08841" lon="3.23983">
        <ele>744.68</ele>
        <time>2013-07-06T14:47:42Z</time>
      </trkpt>
      <trkpt lat="44.0884" lon="3.23984">
        <ele>744.68</ele>
        <time>2013-07-06T14:47:56Z</time>
      </trkpt>
      <trkpt lat="44.0884" lon="3.23983">
        <ele>744.68</ele>
        <time>2013-07-06T14:48:09Z</time>
      </trkpt>
      <trkpt lat="44.08839" lon="3.2398">
        <ele>745.16</ele>
        <time>2013-07-06T14:48:23Z</time>
      </trkpt>
      <trkpt lat="44.08839" lon="3.2398">
        <ele>744.68</ele>
        <time>2013-07-06T14:48:50Z</time>
      </trkpt>
      <trkpt lat="44.08839" lon="3.23978">
        <ele>744.2</ele>
        <time>2013-07-06T14:49:05Z</time>
      </trkpt>
      <trkpt lat="44.0884" lon="3.23978">
        <ele>745.16</ele>
        <time>2013-07-06T14:49:32Z</time>
      </trkpt>
      <trkpt lat="44.0884" lon="3.23978">
        <ele>745.16</ele>
        <time>2013-07-06T14:49:35Z</time>
      </trkpt>
      <trkpt lat="44.08845" lon="3.2398">
        <ele>745.16</ele>
        <time>2013-07-06T14:49:38Z</time>
      </trkpt>
      <trkpt lat="44.08847" lon="3.23982">
        <ele>744.68</ele>
        <time>2013-07-06T14:49:39Z</time>
      </trkpt>
      <trkpt lat="44.08849" lon="3.23985">
        <ele>745.16</ele>
        <time>2013-07-06T14:49:40Z</time>
      </trkpt>
      <trkpt lat="44.0885" lon="3.23988">
        <ele>745.16</ele>
        <time>2013-07-06T14:49:41Z</time>
      </trkpt>
      <trkpt lat="44.08852" lon="3.23992">
        <ele>745.16</ele>
        <time>2013-07-06T14:49:42Z</time>
      </trkpt>
      <trkpt lat="44.08874" lon="3.24028">
        <ele>744.68</ele>
        <time>2013-07-06T14:49:53Z</time>
      </trkpt>
      <trkpt lat="44.08915" lon="3.24102">
        <ele>741.31</ele>
        <time>2013-07-06T14:50:05Z</time>
      </trkpt>
      <trkpt lat="44.08936" lon="3.24143">
        <ele>741.31</ele>
        <time>2013-07-06T14:50:11Z</time>
      </trkpt>
      <trkpt lat="44.0894" lon="3.24148">
        <ele>741.31</ele>
        <time>2013-07-06T14:50:12Z</time>
      </trkpt>
      <trkpt lat="44.08954" lon="3.24168">
        <ele>741.31</ele>
        <time>2013-07-06T14:50:16Z</time>
      </trkpt>
      <trkpt lat="44.08956" lon="3.24174">
        <ele>740.83</ele>
        <time>2013-07-06T14:50:17Z</time>
      </trkpt>
      <trkpt lat="44.08958" lon="3.24181">
        <ele>740.83</ele>
        <time>2013-07-06T14:50:18Z</time>
      </trkpt>
      <trkpt lat="44.08959" lon="3.24188">
        <ele>740.83</ele>
        <time>2013-07-06T14:50:19Z</time>
      </trkpt>
      <trkpt lat="44.0896" lon="3.24195">
        <ele>740.83</ele>
        <time>2013-07-06T14:50:20Z</time>
      </trkpt>
      <trkpt lat="44.08982" lon="3.24275">
        <ele>740.35</ele>
        <time>2013-07-06T14:50:34Z</time>
      </trkpt>
      <trkpt lat="44.08998" lon="3.24319">
        <ele>739.39</ele>
        <time>2013-07-06T14:50:40Z</time>
      </trkpt>
      <trkpt lat="44.09" lon="3.24327">
        <ele>738.91</ele>
        <time>2013-07-06T14:50:41Z</time>
      </trkpt>
      <trkpt lat="44.09001" lon="3.24336">
        <ele>738.91</ele>
        <time>2013-07-06T14:50:42Z</time>
      </trkpt>
      <trkpt lat="44.09002" lon="3.24353">
        <ele>738.91</ele>
        <time>2013-07-06T14:50:44Z</time>
      </trkpt>
      <trkpt lat="44.09004" lon="3.2436">
        <ele>739.39</ele>
        <time>2013-07-06T14:50:45Z</time>
      </trkpt>
      <trkpt lat="44.09006" lon="3.24367">
        <ele>739.39</ele>
        <time>2013-07-06T14:50:46Z</time>
      </trkpt>
      <trkpt lat="44.09037" lon="3.24423">
        <ele>736.99</ele>
        <time>2013-07-06T14:50:55Z</time>
      </trkpt>
      <trkpt lat="44.09056" lon="3.24446">
        <ele>736.51</ele>
        <time>2013-07-06T14:50:59Z</time>
      </trkpt>
      <trkpt lat="44.0906" lon="3.24454">
        <ele>736.51</ele>
        <time>2013-07-06T14:51:00Z</time>
      </trkpt>
      <trkpt lat="44.09061" lon="3.24462">
        <ele>736.03</ele>
        <time>2013-07-06T14:51:01Z</time>
      </trkpt>
      <trkpt lat="44.09062" lon="3.2447">
        <ele>736.51</ele>
        <time>2013-07-06T14:51:02Z</time>
      </trkpt>
      <trkpt lat="44.09061" lon="3.24479">
        <ele>736.03</ele>
        <time>2013-07-06T14:51:03Z</time>
      </trkpt>
      <trkpt lat="44.0906" lon="3.24487">
        <ele>736.51</ele>
        <time>2013-07-06T14:51:04Z</time>
      </trkpt>
      <trkpt lat="44.09054" lon="3.24515">
        <ele>737.47</ele>
        <time>2013-07-06T14:51:08Z</time>
      </trkpt>
      <trkpt lat="44.09052" lon="3.2452">
        <ele>738.43</ele>
        <time>2013-07-06T14:51:09Z</time>
      </trkpt>
      <trkpt lat="44.09049" lon="3.24524">
        <ele>738.91</ele>
        <time>2013-07-06T14:51:10Z</time>
      </trkpt>
      <trkpt lat="44.09045" lon="3.24527">
        <ele>739.39</ele>
        <time>2013-07-06T14:51:11Z</time>
      </trkpt>
      <trkpt lat="44.09042" lon="3.2453">
        <ele>739.87</ele>
        <time>2013-07-06T14:51:12Z</time>
      </trkpt>
      <trkpt lat="44.09039" lon="3.24533">
        <ele>739.87</ele>
        <time>2013-07-06T14:51:13Z</time>
      </trkpt>
      <trkpt lat="44.09036" lon="3.24538">
        <ele>740.35</ele>
        <time>2013-07-06T14:51:14Z</time>
      </trkpt>
      <trkpt lat="44.09034" lon="3.24543">
        <ele>740.35</ele>
        <time>2013-07-06T14:51:15Z</time>
      </trkpt>
      <trkpt lat="44.09033" lon="3.24548">
        <ele>740.83</ele>
        <time>2013-07-06T14:51:16Z</time>
      </trkpt>
      <trkpt lat="44.09032" lon="3.24553">
        <ele>741.31</ele>
        <time>2013-07-06T14:51:17Z</time>
      </trkpt>
      <trkpt lat="44.09029" lon="3.24573">
        <ele>742.28</ele>
        <time>2013-07-06T14:51:21Z</time>
      </trkpt>
      <trkpt lat="44.09031" lon="3.24577">
        <ele>742.28</ele>
        <time>2013-07-06T14:51:22Z</time>
      </trkpt>
      <trkpt lat="44.09033" lon="3.24581">
        <ele>742.76</ele>
        <time>2013-07-06T14:51:23Z</time>
      </trkpt>
      <trkpt lat="44.09035" lon="3.24584">
        <ele>742.28</ele>
        <time>2013-07-06T14:51:24Z</time>
      </trkpt>
      <trkpt lat="44.09038" lon="3.24587">
        <ele>742.76</ele>
        <time>2013-07-06T14:51:25Z</time>
      </trkpt>
      <trkpt lat="44.0904" lon="3.2459">
        <ele>742.76</ele>
        <time>2013-07-06T14:51:26Z</time>
      </trkpt>
      <trkpt lat="44.09064" lon="3.24616">
        <ele>743.24</ele>
        <time>2013-07-06T14:51:36Z</time>
      </trkpt>
      <trkpt lat="44.09068" lon="3.24619">
        <ele>743.24</ele>
        <time>2013-07-06T14:51:38Z</time>
      </trkpt>
      <trkpt lat="44.09069" lon="3.24621">
        <ele>743.72</ele>
        <time>2013-07-06T14:51:39Z</time>
      </trkpt>
      <trkpt lat="44.09069" lon="3.24621">
        <ele>743.72</ele>
        <time>2013-07-06T14:51:40Z</time>
      </trkpt>
      <trkpt lat="44.09067" lon="3.24626">
        <ele>743.72</ele>
        <time>2013-07-06T14:51:45Z</time>
      </trkpt>
      <trkpt lat="44.09067" lon="3.24628">
        <ele>743.72</ele>
        <time>2013-07-06T14:51:53Z</time>
      </trkpt>
      <trkpt lat="44.09067" lon="3.24629">
        <ele>743.72</ele>
        <time>2013-07-06T14:51:54Z</time>
      </trkpt>
      <trkpt lat="44.09067" lon="3.24632">
        <ele>743.72</ele>
        <time>2013-07-06T14:51:55Z</time>
      </trkpt>
      <trkpt lat="44.09067" lon="3.24635">
        <ele>743.72</ele>
        <time>2013-07-06T14:51:56Z</time>
      </trkpt>
      <trkpt lat="44.09067" lon="3.24638">
        <ele>743.72</ele>
        <time>2013-07-06T14:51:57Z</time>
      </trkpt>
      <trkpt lat="44.09066" lon="3.24641">
        <ele>743.72</ele>
        <time>2013-07-06T14:51:58Z</time>
      </trkpt>
      <trkpt lat="44.09066" lon="3.24644">
        <ele>743.72</ele>
        <time>2013-07-06T14:51:59Z</time>
      </trkpt>
      <trkpt lat="44.09066" lon="3.24672">
        <ele>743.24</ele>
        <time>2013-07-06T14:52:08Z</time>
      </trkpt>
      <trkpt lat="44.0905" lon="3.24698">
        <ele>743.24</ele>
        <time>2013-07-06T14:52:18Z</time>
      </trkpt>
      <trkpt lat="44.09025" lon="3.24716">
        <ele>742.28</ele>
        <time>2013-07-06T14:52:27Z</time>
      </trkpt>
      <trkpt lat="44.09017" lon="3.24722">
        <ele>742.28</ele>
        <time>2013-07-06T14:52:29Z</time>
      </trkpt>
      <trkpt lat="44.09005" lon="3.24732">
        <ele>741.79</ele>
        <time>2013-07-06T14:52:32Z</time>
      </trkpt>
      <trkpt lat="44.09001" lon="3.24734">
        <ele>741.79</ele>
        <time>2013-07-06T14:52:33Z</time>
      </trkpt>
      <trkpt lat="44.08997" lon="3.24737">
        <ele>741.79</ele>
        <time>2013-07-06T14:52:34Z</time>
      </trkpt>
      <trkpt lat="44.08994" lon="3.2474">
        <ele>742.28</ele>
        <time>2013-07-06T14:52:35Z</time>
      </trkpt>
      <trkpt lat="44.0899" lon="3.24742">
        <ele>742.76</ele>
        <time>2013-07-06T14:52:36Z</time>
      </trkpt>
      <trkpt lat="44.08971" lon="3.24749">
        <ele>744.68</ele>
        <time>2013-07-06T14:52:45Z</time>
      </trkpt>
      <trkpt lat="44.08948" lon="3.24761">
        <ele>746.6</ele>
        <time>2013-07-06T14:52:58Z</time>
      </trkpt>
      <trkpt lat="44.08936" lon="3.24768">
        <ele>747.56</ele>
        <time>2013-07-06T14:53:04Z</time>
      </trkpt>
      <trkpt lat="44.08934" lon="3.24769">
        <ele>748.04</ele>
        <time>2013-07-06T14:53:05Z</time>
      </trkpt>
      <trkpt lat="44.08932" lon="3.2477">
        <ele>748.04</ele>
        <time>2013-07-06T14:53:06Z</time>
      </trkpt>
      <trkpt lat="44.08931" lon="3.24771">
        <ele>748.52</ele>
        <time>2013-07-06T14:53:07Z</time>
      </trkpt>
      <trkpt lat="44.08929" lon="3.24773">
        <ele>748.52</ele>
        <time>2013-07-06T14:53:08Z</time>
      </trkpt>
      <trkpt lat="44.08927" lon="3.24774">
        <ele>749</ele>
        <time>2013-07-06T14:53:09Z</time>
      </trkpt>
      <trkpt lat="44.08911" lon="3.24785">
        <ele>750.45</ele>
        <time>2013-07-06T14:53:18Z</time>
      </trkpt>
      <trkpt lat="44.08907" lon="3.24792">
        <ele>751.41</ele>
        <time>2013-07-06T14:53:22Z</time>
      </trkpt>
      <trkpt lat="44.08907" lon="3.24794">
        <ele>751.41</ele>
        <time>2013-07-06T14:53:23Z</time>
      </trkpt>
      <trkpt lat="44.08905" lon="3.24795">
        <ele>751.89</ele>
        <time>2013-07-06T14:53:24Z</time>
      </trkpt>
      <trkpt lat="44.08904" lon="3.24797">
        <ele>751.89</ele>
        <time>2013-07-06T14:53:25Z</time>
      </trkpt>
      <trkpt lat="44.08902" lon="3.24798">
        <ele>751.89</ele>
        <time>2013-07-06T14:53:26Z</time>
      </trkpt>
      <trkpt lat="44.08901" lon="3.24799">
        <ele>752.37</ele>
        <time>2013-07-06T14:53:27Z</time>
      </trkpt>
      <trkpt lat="44.0888" lon="3.2481">
        <ele>753.33</ele>
        <time>2013-07-06T14:53:40Z</time>
      </trkpt>
      <trkpt lat="44.08868" lon="3.24813">
        <ele>754.29</ele>
        <time>2013-07-06T14:53:47Z</time>
      </trkpt>
      <trkpt lat="44.08867" lon="3.24814">
        <ele>754.29</ele>
        <time>2013-07-06T14:53:48Z</time>
      </trkpt>
      <trkpt lat="44.08865" lon="3.24815">
        <ele>754.29</ele>
        <time>2013-07-06T14:53:49Z</time>
      </trkpt>
      <trkpt lat="44.08859" lon="3.24818">
        <ele>754.77</ele>
        <time>2013-07-06T14:53:52Z</time>
      </trkpt>
      <trkpt lat="44.08858" lon="3.2482">
        <ele>754.77</ele>
        <time>2013-07-06T14:53:53Z</time>
      </trkpt>
      <trkpt lat="44.08857" lon="3.24822">
        <ele>755.25</ele>
        <time>2013-07-06T14:53:54Z</time>
      </trkpt>
      <trkpt lat="44.08856" lon="3.24823">
        <ele>755.25</ele>
        <time>2013-07-06T14:53:55Z</time>
      </trkpt>
      <trkpt lat="44.08855" lon="3.24825">
        <ele>755.73</ele>
        <time>2013-07-06T14:53:56Z</time>
      </trkpt>
      <trkpt lat="44.08836" lon="3.24859">
        <ele>756.69</ele>
        <time>2013-07-06T14:54:11Z</time>
      </trkpt>
      <trkpt lat="44.08808" lon="3.24898">
        <ele>757.18</ele>
        <time>2013-07-06T14:54:26Z</time>
      </trkpt>
      <trkpt lat="44.08789" lon="3.24921">
        <ele>759.58</ele>
        <time>2013-07-06T14:54:38Z</time>
      </trkpt>
      <trkpt lat="44.08772" lon="3.24951">
        <ele>761.02</ele>
        <time>2013-07-06T14:54:51Z</time>
      </trkpt>
      <trkpt lat="44.08764" lon="3.24968">
        <ele>761.5</ele>
        <time>2013-07-06T14:54:57Z</time>
      </trkpt>
      <trkpt lat="44.08763" lon="3.24971">
        <ele>761.5</ele>
        <time>2013-07-06T14:54:58Z</time>
      </trkpt>
      <trkpt lat="44.08762" lon="3.24974">
        <ele>761.5</ele>
        <time>2013-07-06T14:54:59Z</time>
      </trkpt>
      <trkpt lat="44.08761" lon="3.24977">
        <ele>761.98</ele>
        <time>2013-07-06T14:55:00Z</time>
      </trkpt>
      <trkpt lat="44.0876" lon="3.24981">
        <ele>761.98</ele>
        <time>2013-07-06T14:55:01Z</time>
      </trkpt>
      <trkpt lat="44.08747" lon="3.25017">
        <ele>761.98</ele>
        <time>2013-07-06T14:55:13Z</time>
      </trkpt>
      <trkpt lat="44.08737" lon="3.25045">
        <ele>763.42</ele>
        <time>2013-07-06T14:55:24Z</time>
      </trkpt>
      <trkpt lat="44.08736" lon="3.25047">
        <ele>763.42</ele>
        <time>2013-07-06T14:55:25Z</time>
      </trkpt>
      <trkpt lat="44.08726" lon="3.25057">
        <ele>764.39</ele>
        <time>2013-07-06T14:55:32Z</time>
      </trkpt>
      <trkpt lat="44.08724" lon="3.25059">
        <ele>764.39</ele>
        <time>2013-07-06T14:55:33Z</time>
      </trkpt>
      <trkpt lat="44.08722" lon="3.25061">
        <ele>764.39</ele>
        <time>2013-07-06T14:55:34Z</time>
      </trkpt>
      <trkpt lat="44.08721" lon="3.25063">
        <ele>764.39</ele>
        <time>2013-07-06T14:55:35Z</time>
      </trkpt>
      <trkpt lat="44.08719" lon="3.25064">
        <ele>764.39</ele>
        <time>2013-07-06T14:55:36Z</time>
      </trkpt>
      <trkpt lat="44.08717" lon="3.25065">
        <ele>764.39</ele>
        <time>2013-07-06T14:55:37Z</time>
      </trkpt>
      <trkpt lat="44.08715" lon="3.25067">
        <ele>764.87</ele>
        <time>2013-07-06T14:55:38Z</time>
      </trkpt>
      <trkpt lat="44.08714" lon="3.25068">
        <ele>764.87</ele>
        <time>2013-07-06T14:55:39Z</time>
      </trkpt>
      <trkpt lat="44.08711" lon="3.25072">
        <ele>764.87</ele>
        <time>2013-07-06T14:55:44Z</time>
      </trkpt>
      <trkpt lat="44.08709" lon="3.25073">
        <ele>764.87</ele>
        <time>2013-07-06T14:55:46Z</time>
      </trkpt>
      <trkpt lat="44.08707" lon="3.25074">
        <ele>764.87</ele>
        <time>2013-07-06T14:55:48Z</time>
      </trkpt>
      <trkpt lat="44.08705" lon="3.25075">
        <ele>764.87</ele>
        <time>2013-07-06T14:55:49Z</time>
      </trkpt>
      <trkpt lat="44.08702" lon="3.25076">
        <ele>764.87</ele>
        <time>2013-07-06T14:55:50Z</time>
      </trkpt>
      <trkpt lat="44.08699" lon="3.25076">
        <ele>764.87</ele>
        <time>2013-07-06T14:55:51Z</time>
      </trkpt>
      <trkpt lat="44.08696" lon="3.25076">
        <ele>764.87</ele>
        <time>2013-07-06T14:55:52Z</time>
      </trkpt>
      <trkpt lat="44.08694" lon="3.25076">
        <ele>764.87</ele>
        <time>2013-07-06T14:55:53Z</time>
      </trkpt>
      <trkpt lat="44.08691" lon="3.25077">
        <ele>764.87</ele>
        <time>2013-07-06T14:55:54Z</time>
      </trkpt>
      <trkpt lat="44.08689" lon="3.25079">
        <ele>764.87</ele>
        <time>2013-07-06T14:55:55Z</time>
      </trkpt>
      <trkpt lat="44.08687" lon="3.25081">
        <ele>764.87</ele>
        <time>2013-07-06T14:55:56Z</time>
      </trkpt>
      <trkpt lat="44.08668" lon="3.25096">
        <ele>765.35</ele>
        <time>2013-07-06T14:56:06Z</time>
      </trkpt>
      <trkpt lat="44.08645" lon="3.25114">
        <ele>765.35</ele>
        <time>2013-07-06T14:56:18Z</time>
      </trkpt>
      <trkpt lat="44.08635" lon="3.25118">
        <ele>765.83</ele>
        <time>2013-07-06T14:56:23Z</time>
      </trkpt>
      <trkpt lat="44.08633" lon="3.25119">
        <ele>765.35</ele>
        <time>2013-07-06T14:56:36Z</time>
      </trkpt>
      <trkpt lat="44.08629" lon="3.25124">
        <ele>765.35</ele>
        <time>2013-07-06T14:56:54Z</time>
      </trkpt>
      <trkpt lat="44.08627" lon="3.25129">
        <ele>765.35</ele>
        <time>2013-07-06T14:57:00Z</time>
      </trkpt>
      <trkpt lat="44.08625" lon="3.2513">
        <ele>765.35</ele>
        <time>2013-07-06T14:57:01Z</time>
      </trkpt>
      <trkpt lat="44.08624" lon="3.25131">
        <ele>765.35</ele>
        <time>2013-07-06T14:57:02Z</time>
      </trkpt>
      <trkpt lat="44.08623" lon="3.25133">
        <ele>764.87</ele>
        <time>2013-07-06T14:57:03Z</time>
      </trkpt>
      <trkpt lat="44.08621" lon="3.25135">
        <ele>764.87</ele>
        <time>2013-07-06T14:57:04Z</time>
      </trkpt>
      <trkpt lat="44.086" lon="3.25163">
        <ele>763.9</ele>
        <time>2013-07-06T14:57:17Z</time>
      </trkpt>
      <trkpt lat="44.08581" lon="3.25174">
        <ele>763.42</ele>
        <time>2013-07-06T14:57:29Z</time>
      </trkpt>
      <trkpt lat="44.08563" lon="3.25191">
        <ele>760.54</ele>
        <time>2013-07-06T14:57:40Z</time>
      </trkpt>
      <trkpt lat="44.08551" lon="3.252">
        <ele>758.62</ele>
        <time>2013-07-06T14:57:52Z</time>
      </trkpt>
      <trkpt lat="44.08545" lon="3.25206">
        <ele>757.66</ele>
        <time>2013-07-06T14:58:03Z</time>
      </trkpt>
      <trkpt lat="44.08536" lon="3.25209">
        <ele>756.69</ele>
        <time>2013-07-06T14:58:16Z</time>
      </trkpt>
      <trkpt lat="44.08528" lon="3.2521">
        <ele>756.21</ele>
        <time>2013-07-06T14:58:21Z</time>
      </trkpt>
      <trkpt lat="44.08524" lon="3.25212">
        <ele>755.73</ele>
        <time>2013-07-06T14:58:24Z</time>
      </trkpt>
      <trkpt lat="44.08512" lon="3.25217">
        <ele>754.77</ele>
        <time>2013-07-06T14:58:31Z</time>
      </trkpt>
      <trkpt lat="44.08508" lon="3.25219">
        <ele>754.77</ele>
        <time>2013-07-06T14:58:40Z</time>
      </trkpt>
      <trkpt lat="44.08505" lon="3.25222">
        <ele>753.81</ele>
        <time>2013-07-06T14:58:51Z</time>
      </trkpt>
      <trkpt lat="44.08505" lon="3.25222">
        <ele>753.33</ele>
        <time>2013-07-06T14:59:11Z</time>
      </trkpt>
      <trkpt lat="44.08503" lon="3.25223">
        <ele>753.33</ele>
        <time>2013-07-06T14:59:14Z</time>
      </trkpt>
      <trkpt lat="44.08493" lon="3.25227">
        <ele>751.89</ele>
        <time>2013-07-06T14:59:18Z</time>
      </trkpt>
      <trkpt lat="44.08467" lon="3.25235">
        <ele>748.52</ele>
        <time>2013-07-06T14:59:29Z</time>
      </trkpt>
      <trkpt lat="44.08451" lon="3.25247">
        <ele>746.6</ele>
        <time>2013-07-06T14:59:41Z</time>
      </trkpt>
      <trkpt lat="44.08449" lon="3.25251">
        <ele>746.12</ele>
        <time>2013-07-06T14:59:47Z</time>
      </trkpt>
      <trkpt lat="44.08442" lon="3.25253">
        <ele>746.12</ele>
        <time>2013-07-06T14:59:51Z</time>
      </trkpt>
      <trkpt lat="44.08427" lon="3.25267">
        <ele>743.24</ele>
        <time>2013-07-06T15:00:00Z</time>
      </trkpt>
      <trkpt lat="44.08421" lon="3.25272">
        <ele>741.79</ele>
        <time>2013-07-06T15:00:13Z</time>
      </trkpt>
      <trkpt lat="44.08421" lon="3.25272">
        <ele>741.79</ele>
        <time>2013-07-06T15:00:36Z</time>
      </trkpt>
      <trkpt lat="44.0842" lon="3.25273">
        <ele>741.79</ele>
        <time>2013-07-06T15:01:00Z</time>
      </trkpt>
      <trkpt lat="44.08419" lon="3.25274">
        <ele>741.31</ele>
        <time>2013-07-06T15:01:08Z</time>
      </trkpt>
      <trkpt lat="44.0841" lon="3.25281">
        <ele>739.87</ele>
        <time>2013-07-06T15:01:12Z</time>
      </trkpt>
      <trkpt lat="44.08404" lon="3.25287">
        <ele>736.99</ele>
        <time>2013-07-06T15:01:16Z</time>
      </trkpt>
      <trkpt lat="44.08403" lon="3.25295">
        <ele>735.55</ele>
        <time>2013-07-06T15:01:19Z</time>
      </trkpt>
      <trkpt lat="44.08386" lon="3.25296">
        <ele>731.7</ele>
        <time>2013-07-06T15:01:26Z</time>
      </trkpt>
      <trkpt lat="44.08377" lon="3.25299">
        <ele>730.74</ele>
        <time>2013-07-06T15:01:29Z</time>
      </trkpt>
      <trkpt lat="44.08367" lon="3.25299">
        <ele>727.86</ele>
        <time>2013-07-06T15:01:34Z</time>
      </trkpt>
      <trkpt lat="44.08367" lon="3.25309">
        <ele>726.41</ele>
        <time>2013-07-06T15:01:38Z</time>
      </trkpt>
      <trkpt lat="44.08371" lon="3.25324">
        <ele>726.89</ele>
        <time>2013-07-06T15:01:47Z</time>
      </trkpt>
      <trkpt lat="44.0837" lon="3.25331">
        <ele>726.41</ele>
        <time>2013-07-06T15:01:55Z</time>
      </trkpt>
      <trkpt lat="44.08356" lon="3.25348">
        <ele>724.01</ele>
        <time>2013-07-06T15:02:05Z</time>
      </trkpt>
      <trkpt lat="44.08352" lon="3.25351">
        <ele>723.05</ele>
        <time>2013-07-06T15:02:07Z</time>
      </trkpt>
      <trkpt lat="44.08348" lon="3.25355">
        <ele>722.09</ele>
        <time>2013-07-06T15:02:09Z</time>
      </trkpt>
      <trkpt lat="44.08338" lon="3.25365">
        <ele>720.16</ele>
        <time>2013-07-06T15:02:13Z</time>
      </trkpt>
      <trkpt lat="44.08337" lon="3.25368">
        <ele>720.16</ele>
        <time>2013-07-06T15:02:22Z</time>
      </trkpt>
      <trkpt lat="44.08336" lon="3.25371">
        <ele>720.16</ele>
        <time>2013-07-06T15:02:43Z</time>
      </trkpt>
      <trkpt lat="44.08334" lon="3.25373">
        <ele>719.68</ele>
        <time>2013-07-06T15:02:45Z</time>
      </trkpt>
      <trkpt lat="44.08327" lon="3.25385">
        <ele>718.72</ele>
        <time>2013-07-06T15:02:49Z</time>
      </trkpt>
      <trkpt lat="44.08313" lon="3.25397">
        <ele>716.32</ele>
        <time>2013-07-06T15:02:54Z</time>
      </trkpt>
      <trkpt lat="44.08296" lon="3.25407">
        <ele>713.92</ele>
        <time>2013-07-06T15:03:00Z</time>
      </trkpt>
      <trkpt lat="44.08289" lon="3.25428">
        <ele>713.44</ele>
        <time>2013-07-06T15:03:09Z</time>
      </trkpt>
      <trkpt lat="44.08287" lon="3.25433">
        <ele>713.44</ele>
        <time>2013-07-06T15:03:16Z</time>
      </trkpt>
      <trkpt lat="44.0827" lon="3.25457">
        <ele>710.07</ele>
        <time>2013-07-06T15:03:25Z</time>
      </trkpt>
      <trkpt lat="44.08266" lon="3.25461">
        <ele>709.59</ele>
        <time>2013-07-06T15:03:27Z</time>
      </trkpt>
      <trkpt lat="44.08263" lon="3.25465">
        <ele>708.63</ele>
        <time>2013-07-06T15:03:29Z</time>
      </trkpt>
      <trkpt lat="44.08243" lon="3.25477">
        <ele>705.26</ele>
        <time>2013-07-06T15:03:37Z</time>
      </trkpt>
      <trkpt lat="44.08237" lon="3.2548">
        <ele>704.78</ele>
        <time>2013-07-06T15:03:39Z</time>
      </trkpt>
      <trkpt lat="44.08232" lon="3.25485">
        <ele>703.34</ele>
        <time>2013-07-06T15:03:41Z</time>
      </trkpt>
      <trkpt lat="44.08224" lon="3.25497">
        <ele>701.42</ele>
        <time>2013-07-06T15:03:45Z</time>
      </trkpt>
      <trkpt lat="44.08212" lon="3.25505">
        <ele>699.5</ele>
        <time>2013-07-06T15:03:50Z</time>
      </trkpt>
      <trkpt lat="44.08209" lon="3.25514">
        <ele>699.02</ele>
        <time>2013-07-06T15:04:02Z</time>
      </trkpt>
      <trkpt lat="44.08205" lon="3.25515">
        <ele>698.53</ele>
        <time>2013-07-06T15:04:10Z</time>
      </trkpt>
      <trkpt lat="44.08202" lon="3.25518">
        <ele>698.05</ele>
        <time>2013-07-06T15:04:12Z</time>
      </trkpt>
      <trkpt lat="44.08185" lon="3.25541">
        <ele>698.05</ele>
        <time>2013-07-06T15:04:22Z</time>
      </trkpt>
      <trkpt lat="44.08178" lon="3.25554">
        <ele>698.53</ele>
        <time>2013-07-06T15:04:28Z</time>
      </trkpt>
      <trkpt lat="44.08169" lon="3.25562">
        <ele>699.5</ele>
        <time>2013-07-06T15:04:33Z</time>
      </trkpt>
      <trkpt lat="44.08156" lon="3.25574">
        <ele>700.46</ele>
        <time>2013-07-06T15:04:40Z</time>
      </trkpt>
      <trkpt lat="44.08148" lon="3.25585">
        <ele>700.94</ele>
        <time>2013-07-06T15:04:46Z</time>
      </trkpt>
      <trkpt lat="44.0814" lon="3.25589">
        <ele>700.94</ele>
        <time>2013-07-06T15:04:49Z</time>
      </trkpt>
      <trkpt lat="44.08129" lon="3.25583">
        <ele>701.42</ele>
        <time>2013-07-06T15:04:59Z</time>
      </trkpt>
      <trkpt lat="44.08128" lon="3.25582">
        <ele>701.42</ele>
        <time>2013-07-06T15:05:11Z</time>
      </trkpt>
      <trkpt lat="44.08124" lon="3.2558">
        <ele>701.42</ele>
        <time>2013-07-06T15:05:13Z</time>
      </trkpt>
      <trkpt lat="44.08113" lon="3.25579">
        <ele>701.9</ele>
        <time>2013-07-06T15:05:19Z</time>
      </trkpt>
      <trkpt lat="44.0809" lon="3.25574">
        <ele>702.86</ele>
        <time>2013-07-06T15:05:30Z</time>
      </trkpt>
      <trkpt lat="44.08083" lon="3.25571">
        <ele>703.34</ele>
        <time>2013-07-06T15:05:33Z</time>
      </trkpt>
      <trkpt lat="44.08076" lon="3.25566">
        <ele>703.34</ele>
        <time>2013-07-06T15:05:37Z</time>
      </trkpt>
      <trkpt lat="44.08055" lon="3.25565">
        <ele>701.42</ele>
        <time>2013-07-06T15:05:46Z</time>
      </trkpt>
      <trkpt lat="44.08054" lon="3.25567">
        <ele>700.94</ele>
        <time>2013-07-06T15:05:47Z</time>
      </trkpt>
      <trkpt lat="44.08053" lon="3.25567">
        <ele>700.46</ele>
        <time>2013-07-06T15:05:48Z</time>
      </trkpt>
      <trkpt lat="44.0804" lon="3.25566">
        <ele>699.02</ele>
        <time>2013-07-06T15:05:56Z</time>
      </trkpt>
      <trkpt lat="44.08036" lon="3.2557">
        <ele>698.53</ele>
        <time>2013-07-06T15:06:00Z</time>
      </trkpt>
      <trkpt lat="44.08032" lon="3.25577">
        <ele>698.53</ele>
        <time>2013-07-06T15:06:03Z</time>
      </trkpt>
      <trkpt lat="44.08024" lon="3.25586">
        <ele>699.5</ele>
        <time>2013-07-06T15:06:10Z</time>
      </trkpt>
      <trkpt lat="44.08017" lon="3.25599">
        <ele>699.5</ele>
        <time>2013-07-06T15:06:14Z</time>
      </trkpt>
      <trkpt lat="44.08013" lon="3.25618">
        <ele>701.42</ele>
        <time>2013-07-06T15:06:22Z</time>
      </trkpt>
      <trkpt lat="44.08012" lon="3.25626">
        <ele>701.9</ele>
        <time>2013-07-06T15:06:25Z</time>
      </trkpt>
      <trkpt lat="44.08011" lon="3.25633">
        <ele>702.86</ele>
        <time>2013-07-06T15:06:28Z</time>
      </trkpt>
      <trkpt lat="44.08011" lon="3.25637">
        <ele>702.86</ele>
        <time>2013-07-06T15:06:30Z</time>
      </trkpt>
      <trkpt lat="44.08008" lon="3.25651">
        <ele>704.78</ele>
        <time>2013-07-06T15:06:42Z</time>
      </trkpt>
      <trkpt lat="44.08007" lon="3.25664">
        <ele>706.23</ele>
        <time>2013-07-06T15:06:54Z</time>
      </trkpt>
      <trkpt lat="44.08003" lon="3.25684">
        <ele>708.15</ele>
        <time>2013-07-06T15:07:05Z</time>
      </trkpt>
      <trkpt lat="44.08002" lon="3.25701">
        <ele>709.59</ele>
        <time>2013-07-06T15:07:16Z</time>
      </trkpt>
      <trkpt lat="44.08002" lon="3.25705">
        <ele>710.07</ele>
        <time>2013-07-06T15:07:19Z</time>
      </trkpt>
      <trkpt lat="44.08002" lon="3.25716">
        <ele>711.99</ele>
        <time>2013-07-06T15:07:28Z</time>
      </trkpt>
      <trkpt lat="44.08001" lon="3.25726">
        <ele>713.44</ele>
        <time>2013-07-06T15:07:34Z</time>
      </trkpt>
      <trkpt lat="44.08003" lon="3.25733">
        <ele>713.44</ele>
        <time>2013-07-06T15:07:50Z</time>
      </trkpt>
      <trkpt lat="44.08001" lon="3.25743">
        <ele>714.88</ele>
        <time>2013-07-06T15:08:05Z</time>
      </trkpt>
      <trkpt lat="44.08001" lon="3.25744">
        <ele>714.88</ele>
        <time>2013-07-06T15:08:06Z</time>
      </trkpt>
      <trkpt lat="44.07999" lon="3.25756">
        <ele>716.32</ele>
        <time>2013-07-06T15:08:14Z</time>
      </trkpt>
      <trkpt lat="44.07999" lon="3.25769">
        <ele>717.76</ele>
        <time>2013-07-06T15:08:23Z</time>
      </trkpt>
      <trkpt lat="44.07998" lon="3.2578">
        <ele>718.72</ele>
        <time>2013-07-06T15:08:30Z</time>
      </trkpt>
      <trkpt lat="44.07997" lon="3.25791">
        <ele>719.68</ele>
        <time>2013-07-06T15:08:36Z</time>
      </trkpt>
      <trkpt lat="44.07996" lon="3.25801">
        <ele>721.13</ele>
        <time>2013-07-06T15:08:48Z</time>
      </trkpt>
      <trkpt lat="44.07996" lon="3.25801">
        <ele>721.13</ele>
        <time>2013-07-06T15:08:49Z</time>
      </trkpt>
      <trkpt lat="44.07996" lon="3.25808">
        <ele>722.09</ele>
        <time>2013-07-06T15:08:53Z</time>
      </trkpt>
      <trkpt lat="44.07994" lon="3.25839">
        <ele>724.49</ele>
        <time>2013-07-06T15:09:06Z</time>
      </trkpt>
      <trkpt lat="44.07993" lon="3.25849">
        <ele>724.49</ele>
        <time>2013-07-06T15:09:11Z</time>
      </trkpt>
      <trkpt lat="44.07992" lon="3.25859">
        <ele>725.45</ele>
        <time>2013-07-06T15:09:17Z</time>
      </trkpt>
      <trkpt lat="44.07991" lon="3.2587">
        <ele>725.93</ele>
        <time>2013-07-06T15:09:22Z</time>
      </trkpt>
      <trkpt lat="44.0799" lon="3.25882">
        <ele>726.41</ele>
        <time>2013-07-06T15:09:27Z</time>
      </trkpt>
      <trkpt lat="44.07988" lon="3.25892">
        <ele>727.37</ele>
        <time>2013-07-06T15:09:33Z</time>
      </trkpt>
      <trkpt lat="44.07987" lon="3.259">
        <ele>727.86</ele>
        <time>2013-07-06T15:09:37Z</time>
      </trkpt>
      <trkpt lat="44.07985" lon="3.25905">
        <ele>728.34</ele>
        <time>2013-07-06T15:09:40Z</time>
      </trkpt>
      <trkpt lat="44.07984" lon="3.25918">
        <ele>729.3</ele>
        <time>2013-07-06T15:09:47Z</time>
      </trkpt>
      <trkpt lat="44.07982" lon="3.25941">
        <ele>731.22</ele>
        <time>2013-07-06T15:10:00Z</time>
      </trkpt>
      <trkpt lat="44.07982" lon="3.25943">
        <ele>731.7</ele>
        <time>2013-07-06T15:10:01Z</time>
      </trkpt>
      <trkpt lat="44.07982" lon="3.25952">
        <ele>732.66</ele>
        <time>2013-07-06T15:10:08Z</time>
      </trkpt>
      <trkpt lat="44.07981" lon="3.25968">
        <ele>735.07</ele>
        <time>2013-07-06T15:10:22Z</time>
      </trkpt>
      <trkpt lat="44.07981" lon="3.25983">
        <ele>736.51</ele>
        <time>2013-07-06T15:10:33Z</time>
      </trkpt>
      <trkpt lat="44.0798" lon="3.26002">
        <ele>739.39</ele>
        <time>2013-07-06T15:10:47Z</time>
      </trkpt>
      <trkpt lat="44.0798" lon="3.26007">
        <ele>739.87</ele>
        <time>2013-07-06T15:10:52Z</time>
      </trkpt>
      <trkpt lat="44.07976" lon="3.2603">
        <ele>742.28</ele>
        <time>2013-07-06T15:11:07Z</time>
      </trkpt>
      <trkpt lat="44.07967" lon="3.26053">
        <ele>744.68</ele>
        <time>2013-07-06T15:11:22Z</time>
      </trkpt>
      <trkpt lat="44.07964" lon="3.2606">
        <ele>745.16</ele>
        <time>2013-07-06T15:11:29Z</time>
      </trkpt>
      <trkpt lat="44.0796" lon="3.26069">
        <ele>745.64</ele>
        <time>2013-07-06T15:11:34Z</time>
      </trkpt>
      <trkpt lat="44.07948" lon="3.2609">
        <ele>746.6</ele>
        <time>2013-07-06T15:11:47Z</time>
      </trkpt>
      <trkpt lat="44.07943" lon="3.26095">
        <ele>746.6</ele>
        <time>2013-07-06T15:11:59Z</time>
      </trkpt>
      <trkpt lat="44.07943" lon="3.26096">
        <ele>746.6</ele>
        <time>2013-07-06T15:12:20Z</time>
      </trkpt>
      <trkpt lat="44.07943" lon="3.26096">
        <ele>746.6</ele>
        <time>2013-07-06T15:12:37Z</time>
      </trkpt>
      <trkpt lat="44.07942" lon="3.26097">
        <ele>746.6</ele>
        <time>2013-07-06T15:12:45Z</time>
      </trkpt>
      <trkpt lat="44.07935" lon="3.26107">
        <ele>747.08</ele>
        <time>2013-07-06T15:12:50Z</time>
      </trkpt>
      <trkpt lat="44.07923" lon="3.26121">
        <ele>747.56</ele>
        <time>2013-07-06T15:12:56Z</time>
      </trkpt>
      <trkpt lat="44.07908" lon="3.26134">
        <ele>748.52</ele>
        <time>2013-07-06T15:13:04Z</time>
      </trkpt>
      <trkpt lat="44.07896" lon="3.26141">
        <ele>749.49</ele>
        <time>2013-07-06T15:13:10Z</time>
      </trkpt>
      <trkpt lat="44.0787" lon="3.26154">
        <ele>751.41</ele>
        <time>2013-07-06T15:13:23Z</time>
      </trkpt>
      <trkpt lat="44.07868" lon="3.26155">
        <ele>751.41</ele>
        <time>2013-07-06T15:13:24Z</time>
      </trkpt>
      <trkpt lat="44.07866" lon="3.26157">
        <ele>751.89</ele>
        <time>2013-07-06T15:13:26Z</time>
      </trkpt>
      <trkpt lat="44.07858" lon="3.26168">
        <ele>751.41</ele>
        <time>2013-07-06T15:13:32Z</time>
      </trkpt>
      <trkpt lat="44.07854" lon="3.2617">
        <ele>751.41</ele>
        <time>2013-07-06T15:13:44Z</time>
      </trkpt>
      <trkpt lat="44.07854" lon="3.2617">
        <ele>751.41</ele>
        <time>2013-07-06T15:14:03Z</time>
      </trkpt>
      <trkpt lat="44.07854" lon="3.2617">
        <ele>751.41</ele>
        <time>2013-07-06T15:14:23Z</time>
      </trkpt>
      <trkpt lat="44.07851" lon="3.26175">
        <ele>750.93</ele>
        <time>2013-07-06T15:14:26Z</time>
      </trkpt>
      <trkpt lat="44.07838" lon="3.26195">
        <ele>749.97</ele>
        <time>2013-07-06T15:14:35Z</time>
      </trkpt>
      <trkpt lat="44.07836" lon="3.26199">
        <ele>749.97</ele>
        <time>2013-07-06T15:14:36Z</time>
      </trkpt>
      <trkpt lat="44.07832" lon="3.26206">
        <ele>749.97</ele>
        <time>2013-07-06T15:14:38Z</time>
      </trkpt>
      <trkpt lat="44.07828" lon="3.2622">
        <ele>749</ele>
        <time>2013-07-06T15:14:42Z</time>
      </trkpt>
      <trkpt lat="44.0782" lon="3.26257">
        <ele>746.12</ele>
        <time>2013-07-06T15:14:51Z</time>
      </trkpt>
      <trkpt lat="44.07816" lon="3.26303">
        <ele>747.08</ele>
        <time>2013-07-06T15:15:01Z</time>
      </trkpt>
      <trkpt lat="44.07817" lon="3.26328">
        <ele>748.52</ele>
        <time>2013-07-06T15:15:10Z</time>
      </trkpt>
      <trkpt lat="44.07817" lon="3.26328">
        <ele>748.04</ele>
        <time>2013-07-06T15:15:29Z</time>
      </trkpt>
      <trkpt lat="44.07816" lon="3.26338">
        <ele>748.52</ele>
        <time>2013-07-06T15:15:43Z</time>
      </trkpt>
      <trkpt lat="44.07813" lon="3.26347">
        <ele>750.45</ele>
        <time>2013-07-06T15:15:54Z</time>
      </trkpt>
      <trkpt lat="44.07813" lon="3.26359">
        <ele>750.93</ele>
        <time>2013-07-06T15:16:01Z</time>
      </trkpt>
      <trkpt lat="44.0781" lon="3.26379">
        <ele>749.97</ele>
        <time>2013-07-06T15:16:15Z</time>
      </trkpt>
      <trkpt lat="44.0781" lon="3.26381">
        <ele>749.97</ele>
        <time>2013-07-06T15:16:28Z</time>
      </trkpt>
      <trkpt lat="44.0781" lon="3.26381">
        <ele>749.97</ele>
        <time>2013-07-06T15:16:35Z</time>
      </trkpt>
      <trkpt lat="44.07807" lon="3.26388">
        <ele>749.97</ele>
        <time>2013-07-06T15:16:39Z</time>
      </trkpt>
      <trkpt lat="44.07803" lon="3.26397">
        <ele>750.45</ele>
        <time>2013-07-06T15:16:43Z</time>
      </trkpt>
      <trkpt lat="44.07791" lon="3.26425">
        <ele>750.93</ele>
        <time>2013-07-06T15:16:55Z</time>
      </trkpt>
      <trkpt lat="44.07786" lon="3.26434">
        <ele>750.93</ele>
        <time>2013-07-06T15:16:59Z</time>
      </trkpt>
      <trkpt lat="44.07783" lon="3.26443">
        <ele>750.93</ele>
        <time>2013-07-06T15:17:04Z</time>
      </trkpt>
      <trkpt lat="44.07781" lon="3.26448">
        <ele>750.93</ele>
        <time>2013-07-06T15:17:16Z</time>
      </trkpt>
      <trkpt lat="44.07777" lon="3.26459">
        <ele>750.93</ele>
        <time>2013-07-06T15:17:29Z</time>
      </trkpt>
      <trkpt lat="44.07774" lon="3.26467">
        <ele>750.45</ele>
        <time>2013-07-06T15:17:43Z</time>
      </trkpt>
      <trkpt lat="44.07773" lon="3.2647">
        <ele>750.45</ele>
        <time>2013-07-06T15:18:00Z</time>
      </trkpt>
      <trkpt lat="44.07773" lon="3.2647">
        <ele>750.45</ele>
        <time>2013-07-06T15:18:23Z</time>
      </trkpt>
      <trkpt lat="44.07772" lon="3.26471">
        <ele>750.93</ele>
        <time>2013-07-06T15:18:48Z</time>
      </trkpt>
      <trkpt lat="44.07772" lon="3.26471">
        <ele>750.45</ele>
        <time>2013-07-06T15:19:06Z</time>
      </trkpt>
      <trkpt lat="44.07769" lon="3.26484">
        <ele>749.49</ele>
        <time>2013-07-06T15:19:16Z</time>
      </trkpt>
      <trkpt lat="44.07769" lon="3.26485">
        <ele>749.49</ele>
        <time>2013-07-06T15:19:21Z</time>
      </trkpt>
      <trkpt lat="44.07767" lon="3.26516">
        <ele>746.6</ele>
        <time>2013-07-06T15:19:29Z</time>
      </trkpt>
      <trkpt lat="44.07759" lon="3.2656">
        <ele>743.24</ele>
        <time>2013-07-06T15:19:37Z</time>
      </trkpt>
      <trkpt lat="44.07757" lon="3.26564">
        <ele>742.76</ele>
        <time>2013-07-06T15:19:38Z</time>
      </trkpt>
      <trkpt lat="44.07746" lon="3.26586">
        <ele>740.35</ele>
        <time>2013-07-06T15:19:42Z</time>
      </trkpt>
      <trkpt lat="44.07742" lon="3.26598">
        <ele>739.87</ele>
        <time>2013-07-06T15:19:44Z</time>
      </trkpt>
      <trkpt lat="44.07739" lon="3.26619">
        <ele>738.91</ele>
        <time>2013-07-06T15:19:48Z</time>
      </trkpt>
      <trkpt lat="44.07737" lon="3.26651">
        <ele>737.47</ele>
        <time>2013-07-06T15:19:53Z</time>
      </trkpt>
      <trkpt lat="44.0773" lon="3.26676">
        <ele>736.99</ele>
        <time>2013-07-06T15:19:57Z</time>
      </trkpt>
      <trkpt lat="44.07725" lon="3.26704">
        <ele>735.07</ele>
        <time>2013-07-06T15:20:01Z</time>
      </trkpt>
      <trkpt lat="44.07716" lon="3.26735">
        <ele>733.62</ele>
        <time>2013-07-06T15:20:05Z</time>
      </trkpt>
      <trkpt lat="44.07701" lon="3.26786">
        <ele>730.74</ele>
        <time>2013-07-06T15:20:16Z</time>
      </trkpt>
      <trkpt lat="44.07697" lon="3.26795">
        <ele>730.26</ele>
        <time>2013-07-06T15:20:19Z</time>
      </trkpt>
      <trkpt lat="44.0769" lon="3.26827">
        <ele>727.86</ele>
        <time>2013-07-06T15:20:27Z</time>
      </trkpt>
      <trkpt lat="44.07673" lon="3.26862">
        <ele>725.93</ele>
        <time>2013-07-06T15:20:33Z</time>
      </trkpt>
      <trkpt lat="44.07648" lon="3.26914">
        <ele>722.09</ele>
        <time>2013-07-06T15:20:40Z</time>
      </trkpt>
      <trkpt lat="44.07631" lon="3.26948">
        <ele>720.16</ele>
        <time>2013-07-06T15:20:44Z</time>
      </trkpt>
      <trkpt lat="44.07619" lon="3.26974">
        <ele>719.2</ele>
        <time>2013-07-06T15:20:47Z</time>
      </trkpt>
      <trkpt lat="44.07614" lon="3.26992">
        <ele>718.24</ele>
        <time>2013-07-06T15:20:49Z</time>
      </trkpt>
      <trkpt lat="44.07602" lon="3.27026">
        <ele>716.32</ele>
        <time>2013-07-06T15:20:53Z</time>
      </trkpt>
      <trkpt lat="44.07586" lon="3.27052">
        <ele>715.36</ele>
        <time>2013-07-06T15:21:00Z</time>
      </trkpt>
      <trkpt lat="44.07588" lon="3.27056">
        <ele>715.36</ele>
        <time>2013-07-06T15:21:10Z</time>
      </trkpt>
      <trkpt lat="44.07588" lon="3.27056">
        <ele>715.36</ele>
        <time>2013-07-06T15:21:38Z</time>
      </trkpt>
      <trkpt lat="44.07588" lon="3.27056">
        <ele>715.36</ele>
        <time>2013-07-06T15:22:10Z</time>
      </trkpt>
      <trkpt lat="44.07588" lon="3.27056">
        <ele>715.36</ele>
        <time>2013-07-06T15:22:37Z</time>
      </trkpt>
      <trkpt lat="44.07588" lon="3.27056">
        <ele>715.36</ele>
        <time>2013-07-06T15:22:42Z</time>
      </trkpt>
      <trkpt lat="44.07585" lon="3.27056">
        <ele>715.84</ele>
        <time>2013-07-06T15:26:11Z</time>
      </trkpt>
      <trkpt lat="44.07585" lon="3.27058">
        <ele>715.84</ele>
        <time>2013-07-06T15:26:12Z</time>
      </trkpt>
      <trkpt lat="44.07585" lon="3.27056">
        <ele>713.92</ele>
        <time>2013-07-06T15:26:33Z</time>
      </trkpt>
      <trkpt lat="44.07587" lon="3.27057">
        <ele>713.44</ele>
        <time>2013-07-06T15:26:51Z</time>
      </trkpt>
      <trkpt lat="44.07587" lon="3.27058">
        <ele>712.95</ele>
        <time>2013-07-06T15:27:02Z</time>
      </trkpt>
      <trkpt lat="44.0758" lon="3.27073">
        <ele>711.99</ele>
        <time>2013-07-06T15:27:12Z</time>
      </trkpt>
      <trkpt lat="44.07579" lon="3.2708">
        <ele>711.51</ele>
        <time>2013-07-06T15:27:15Z</time>
      </trkpt>
      <trkpt lat="44.07572" lon="3.271">
        <ele>710.07</ele>
        <time>2013-07-06T15:27:19Z</time>
      </trkpt>
      <trkpt lat="44.07567" lon="3.27116">
        <ele>708.63</ele>
        <time>2013-07-06T15:27:22Z</time>
      </trkpt>
      <trkpt lat="44.07549" lon="3.27153">
        <ele>705.26</ele>
        <time>2013-07-06T15:27:28Z</time>
      </trkpt>
      <trkpt lat="44.07535" lon="3.27179">
        <ele>702.38</ele>
        <time>2013-07-06T15:27:32Z</time>
      </trkpt>
      <trkpt lat="44.07527" lon="3.27201">
        <ele>699.98</ele>
        <time>2013-07-06T15:27:35Z</time>
      </trkpt>
      <trkpt lat="44.07528" lon="3.27241">
        <ele>696.13</ele>
        <time>2013-07-06T15:27:40Z</time>
      </trkpt>
      <trkpt lat="44.07516" lon="3.27255">
        <ele>692.77</ele>
        <time>2013-07-06T15:27:45Z</time>
      </trkpt>
      <trkpt lat="44.07493" lon="3.27231">
        <ele>689.88</ele>
        <time>2013-07-06T15:27:50Z</time>
      </trkpt>
      <trkpt lat="44.0749" lon="3.27224">
        <ele>689.88</ele>
        <time>2013-07-06T15:27:51Z</time>
      </trkpt>
      <trkpt lat="44.07476" lon="3.27197">
        <ele>688.92</ele>
        <time>2013-07-06T15:27:58Z</time>
      </trkpt>
      <trkpt lat="44.07476" lon="3.27197">
        <ele>688.44</ele>
        <time>2013-07-06T15:28:02Z</time>
      </trkpt>
      <trkpt lat="44.07483" lon="3.27218">
        <ele>689.4</ele>
        <time>2013-07-06T15:28:12Z</time>
      </trkpt>
      <trkpt lat="44.07485" lon="3.27237">
        <ele>687.48</ele>
        <time>2013-07-06T15:28:16Z</time>
      </trkpt>
      <trkpt lat="44.07486" lon="3.2725">
        <ele>686.52</ele>
        <time>2013-07-06T15:28:18Z</time>
      </trkpt>
      <trkpt lat="44.0749" lon="3.27296">
        <ele>683.15</ele>
        <time>2013-07-06T15:28:25Z</time>
      </trkpt>
      <trkpt lat="44.07504" lon="3.27311">
        <ele>682.67</ele>
        <time>2013-07-06T15:28:28Z</time>
      </trkpt>
      <trkpt lat="44.07543" lon="3.27349">
        <ele>679.31</ele>
        <time>2013-07-06T15:28:36Z</time>
      </trkpt>
      <trkpt lat="44.0755" lon="3.27354">
        <ele>678.35</ele>
        <time>2013-07-06T15:28:37Z</time>
      </trkpt>
      <trkpt lat="44.07578" lon="3.27367">
        <ele>676.91</ele>
        <time>2013-07-06T15:28:42Z</time>
      </trkpt>
      <trkpt lat="44.07598" lon="3.27368">
        <ele>674.98</ele>
        <time>2013-07-06T15:28:46Z</time>
      </trkpt>
      <trkpt lat="44.0761" lon="3.27361">
        <ele>674.02</ele>
        <time>2013-07-06T15:28:49Z</time>
      </trkpt>
      <trkpt lat="44.07623" lon="3.2733">
        <ele>670.66</ele>
        <time>2013-07-06T15:28:57Z</time>
      </trkpt>
      <trkpt lat="44.07624" lon="3.27318">
        <ele>670.18</ele>
        <time>2013-07-06T15:28:59Z</time>
      </trkpt>
      <trkpt lat="44.07628" lon="3.27299">
        <ele>668.25</ele>
        <time>2013-07-06T15:29:02Z</time>
      </trkpt>
      <trkpt lat="44.0764" lon="3.2727">
        <ele>665.85</ele>
        <time>2013-07-06T15:29:06Z</time>
      </trkpt>
      <trkpt lat="44.07653" lon="3.27249">
        <ele>663.93</ele>
        <time>2013-07-06T15:29:09Z</time>
      </trkpt>
      <trkpt lat="44.07657" lon="3.27243">
        <ele>662.97</ele>
        <time>2013-07-06T15:29:10Z</time>
      </trkpt>
      <trkpt lat="44.07685" lon="3.27214">
        <ele>659.12</ele>
        <time>2013-07-06T15:29:15Z</time>
      </trkpt>
      <trkpt lat="44.07691" lon="3.27209">
        <ele>657.68</ele>
        <time>2013-07-06T15:29:16Z</time>
      </trkpt>
      <trkpt lat="44.07713" lon="3.27197">
        <ele>656.24</ele>
        <time>2013-07-06T15:29:19Z</time>
      </trkpt>
      <trkpt lat="44.0773" lon="3.27198">
        <ele>654.8</ele>
        <time>2013-07-06T15:29:22Z</time>
      </trkpt>
      <trkpt lat="44.07735" lon="3.27202">
        <ele>654.31</ele>
        <time>2013-07-06T15:29:24Z</time>
      </trkpt>
      <trkpt lat="44.07702" lon="3.2722">
        <ele>650.47</ele>
        <time>2013-07-06T15:29:31Z</time>
      </trkpt>
      <trkpt lat="44.07693" lon="3.27235">
        <ele>649.03</ele>
        <time>2013-07-06T15:29:33Z</time>
      </trkpt>
      <trkpt lat="44.07687" lon="3.27248">
        <ele>647.59</ele>
        <time>2013-07-06T15:29:34Z</time>
      </trkpt>
      <trkpt lat="44.07681" lon="3.27267">
        <ele>646.14</ele>
        <time>2013-07-06T15:29:36Z</time>
      </trkpt>
      <trkpt lat="44.07678" lon="3.27279">
        <ele>644.7</ele>
        <time>2013-07-06T15:29:37Z</time>
      </trkpt>
      <trkpt lat="44.07675" lon="3.27293">
        <ele>643.26</ele>
        <time>2013-07-06T15:29:38Z</time>
      </trkpt>
      <trkpt lat="44.07672" lon="3.27309">
        <ele>641.34</ele>
        <time>2013-07-06T15:29:39Z</time>
      </trkpt>
      <trkpt lat="44.07676" lon="3.27385">
        <ele>637.49</ele>
        <time>2013-07-06T15:29:45Z</time>
      </trkpt>
      <trkpt lat="44.07678" lon="3.27397">
        <ele>636.53</ele>
        <time>2013-07-06T15:29:46Z</time>
      </trkpt>
      <trkpt lat="44.0767" lon="3.27447">
        <ele>632.2</ele>
        <time>2013-07-06T15:29:50Z</time>
      </trkpt>
      <trkpt lat="44.07652" lon="3.27477">
        <ele>629.8</ele>
        <time>2013-07-06T15:29:53Z</time>
      </trkpt>
      <trkpt lat="44.07628" lon="3.27505">
        <ele>625.96</ele>
        <time>2013-07-06T15:29:56Z</time>
      </trkpt>
      <trkpt lat="44.07616" lon="3.27557">
        <ele>623.07</ele>
        <time>2013-07-06T15:30:01Z</time>
      </trkpt>
      <trkpt lat="44.07631" lon="3.2762">
        <ele>618.26</ele>
        <time>2013-07-06T15:30:06Z</time>
      </trkpt>
      <trkpt lat="44.07641" lon="3.27655">
        <ele>615.38</ele>
        <time>2013-07-06T15:30:09Z</time>
      </trkpt>
      <trkpt lat="44.07671" lon="3.27699">
        <ele>610.57</ele>
        <time>2013-07-06T15:30:14Z</time>
      </trkpt>
      <trkpt lat="44.07698" lon="3.27729">
        <ele>607.21</ele>
        <time>2013-07-06T15:30:18Z</time>
      </trkpt>
      <trkpt lat="44.077" lon="3.27771">
        <ele>605.29</ele>
        <time>2013-07-06T15:30:24Z</time>
      </trkpt>
      <trkpt lat="44.07717" lon="3.27807">
        <ele>601.92</ele>
        <time>2013-07-06T15:30:29Z</time>
      </trkpt>
      <trkpt lat="44.07725" lon="3.27834">
        <ele>600</ele>
        <time>2013-07-06T15:30:32Z</time>
      </trkpt>
      <trkpt lat="44.07709" lon="3.27862">
        <ele>598.56</ele>
        <time>2013-07-06T15:30:37Z</time>
      </trkpt>
      <trkpt lat="44.07718" lon="3.27862">
        <ele>597.12</ele>
        <time>2013-07-06T15:30:40Z</time>
      </trkpt>
      <trkpt lat="44.07736" lon="3.27818">
        <ele>594.23</ele>
        <time>2013-07-06T15:30:48Z</time>
      </trkpt>
      <trkpt lat="44.07734" lon="3.278">
        <ele>592.79</ele>
        <time>2013-07-06T15:30:50Z</time>
      </trkpt>
      <trkpt lat="44.07733" lon="3.27774">
        <ele>590.87</ele>
        <time>2013-07-06T15:30:53Z</time>
      </trkpt>
      <trkpt lat="44.07743" lon="3.27763">
        <ele>590.39</ele>
        <time>2013-07-06T15:30:55Z</time>
      </trkpt>
      <trkpt lat="44.07753" lon="3.27728">
        <ele>586.54</ele>
        <time>2013-07-06T15:30:59Z</time>
      </trkpt>
      <trkpt lat="44.07737" lon="3.27673">
        <ele>581.73</ele>
        <time>2013-07-06T15:31:04Z</time>
      </trkpt>
      <trkpt lat="44.07723" lon="3.27637">
        <ele>578.37</ele>
        <time>2013-07-06T15:31:07Z</time>
      </trkpt>
      <trkpt lat="44.07722" lon="3.27592">
        <ele>575.01</ele>
        <time>2013-07-06T15:31:12Z</time>
      </trkpt>
      <trkpt lat="44.07752" lon="3.27575">
        <ele>571.16</ele>
        <time>2013-07-06T15:31:16Z</time>
      </trkpt>
      <trkpt lat="44.07763" lon="3.27568">
        <ele>569.24</ele>
        <time>2013-07-06T15:31:17Z</time>
      </trkpt>
      <trkpt lat="44.07792" lon="3.27532">
        <ele>565.39</ele>
        <time>2013-07-06T15:31:21Z</time>
      </trkpt>
      <trkpt lat="44.0781" lon="3.27505">
        <ele>562.99</ele>
        <time>2013-07-06T15:31:23Z</time>
      </trkpt>
      <trkpt lat="44.07827" lon="3.27455">
        <ele>558.66</ele>
        <time>2013-07-06T15:31:27Z</time>
      </trkpt>
      <trkpt lat="44.0783" lon="3.27422">
        <ele>557.7</ele>
        <time>2013-07-06T15:31:30Z</time>
      </trkpt>
      <trkpt lat="44.07848" lon="3.27411">
        <ele>553.86</ele>
        <time>2013-07-06T15:31:35Z</time>
      </trkpt>
      <trkpt lat="44.07856" lon="3.27415">
        <ele>552.41</ele>
        <time>2013-07-06T15:31:36Z</time>
      </trkpt>
      <trkpt lat="44.07875" lon="3.27423">
        <ele>550.97</ele>
        <time>2013-07-06T15:31:38Z</time>
      </trkpt>
      <trkpt lat="44.07919" lon="3.27411">
        <ele>546.65</ele>
        <time>2013-07-06T15:31:43Z</time>
      </trkpt>
      <trkpt lat="44.07967" lon="3.27398">
        <ele>541.36</ele>
        <time>2013-07-06T15:31:49Z</time>
      </trkpt>
      <trkpt lat="44.07982" lon="3.27394">
        <ele>538.48</ele>
        <time>2013-07-06T15:31:51Z</time>
      </trkpt>
      <trkpt lat="44.08" lon="3.27384">
        <ele>536.55</ele>
        <time>2013-07-06T15:31:53Z</time>
      </trkpt>
      <trkpt lat="44.08028" lon="3.27376">
        <ele>533.67</ele>
        <time>2013-07-06T15:31:56Z</time>
      </trkpt>
      <trkpt lat="44.08033" lon="3.27374">
        <ele>533.19</ele>
        <time>2013-07-06T15:31:57Z</time>
      </trkpt>
      <trkpt lat="44.08052" lon="3.27362">
        <ele>531.27</ele>
        <time>2013-07-06T15:32:00Z</time>
      </trkpt>
      <trkpt lat="44.08088" lon="3.27382">
        <ele>526.94</ele>
        <time>2013-07-06T15:32:04Z</time>
      </trkpt>
      <trkpt lat="44.08113" lon="3.27386">
        <ele>525.02</ele>
        <time>2013-07-06T15:32:08Z</time>
      </trkpt>
      <trkpt lat="44.0812" lon="3.27384">
        <ele>525.02</ele>
        <time>2013-07-06T15:32:09Z</time>
      </trkpt>
      <trkpt lat="44.08129" lon="3.27384">
        <ele>524.54</ele>
        <time>2013-07-06T15:32:11Z</time>
      </trkpt>
      <trkpt lat="44.08132" lon="3.27382">
        <ele>523.58</ele>
        <time>2013-07-06T15:32:12Z</time>
      </trkpt>
      <trkpt lat="44.08137" lon="3.27359">
        <ele>520.69</ele>
        <time>2013-07-06T15:32:17Z</time>
      </trkpt>
      <trkpt lat="44.08138" lon="3.27348">
        <ele>518.77</ele>
        <time>2013-07-06T15:32:19Z</time>
      </trkpt>
      <trkpt lat="44.08138" lon="3.27342">
        <ele>517.81</ele>
        <time>2013-07-06T15:32:20Z</time>
      </trkpt>
      <trkpt lat="44.08121" lon="3.2734">
        <ele>516.37</ele>
        <time>2013-07-06T15:32:23Z</time>
      </trkpt>
      <trkpt lat="44.08112" lon="3.27347">
        <ele>515.88</ele>
        <time>2013-07-06T15:32:24Z</time>
      </trkpt>
      <trkpt lat="44.08053" lon="3.27422">
        <ele>515.4</ele>
        <time>2013-07-06T15:32:25Z</time>
      </trkpt>
      <trkpt lat="44.08031" lon="3.2745">
        <ele>512.52</ele>
        <time>2013-07-06T15:32:28Z</time>
      </trkpt>
      <trkpt lat="44.08012" lon="3.27477">
        <ele>509.16</ele>
        <time>2013-07-06T15:32:31Z</time>
      </trkpt>
      <trkpt lat="44.07998" lon="3.27493">
        <ele>507.23</ele>
        <time>2013-07-06T15:32:33Z</time>
      </trkpt>
      <trkpt lat="44.07968" lon="3.27529">
        <ele>503.39</ele>
        <time>2013-07-06T15:32:38Z</time>
      </trkpt>
      <trkpt lat="44.0797" lon="3.27549">
        <ele>501.46</ele>
        <time>2013-07-06T15:32:41Z</time>
      </trkpt>
      <trkpt lat="44.07975" lon="3.27552">
        <ele>500.98</ele>
        <time>2013-07-06T15:32:42Z</time>
      </trkpt>
      <trkpt lat="44.0798" lon="3.27554">
        <ele>500.98</ele>
        <time>2013-07-06T15:32:43Z</time>
      </trkpt>
      <trkpt lat="44.08007" lon="3.27563">
        <ele>496.66</ele>
        <time>2013-07-06T15:32:47Z</time>
      </trkpt>
      <trkpt lat="44.08014" lon="3.27567">
        <ele>495.7</ele>
        <time>2013-07-06T15:32:48Z</time>
      </trkpt>
      <trkpt lat="44.08021" lon="3.27573">
        <ele>494.74</ele>
        <time>2013-07-06T15:32:49Z</time>
      </trkpt>
      <trkpt lat="44.08036" lon="3.2759">
        <ele>492.33</ele>
        <time>2013-07-06T15:32:51Z</time>
      </trkpt>
      <trkpt lat="44.08045" lon="3.27606">
        <ele>490.89</ele>
        <time>2013-07-06T15:32:52Z</time>
      </trkpt>
      <trkpt lat="44.08061" lon="3.27642">
        <ele>488.01</ele>
        <time>2013-07-06T15:32:55Z</time>
      </trkpt>
      <trkpt lat="44.08106" lon="3.27701">
        <ele>482.24</ele>
        <time>2013-07-06T15:33:01Z</time>
      </trkpt>
      <trkpt lat="44.0812" lon="3.27722">
        <ele>479.35</ele>
        <time>2013-07-06T15:33:03Z</time>
      </trkpt>
      <trkpt lat="44.08125" lon="3.27732">
        <ele>478.39</ele>
        <time>2013-07-06T15:33:04Z</time>
      </trkpt>
      <trkpt lat="44.08134" lon="3.27788">
        <ele>474.55</ele>
        <time>2013-07-06T15:33:09Z</time>
      </trkpt>
      <trkpt lat="44.08129" lon="3.27813">
        <ele>472.14</ele>
        <time>2013-07-06T15:33:11Z</time>
      </trkpt>
      <trkpt lat="44.08106" lon="3.27859">
        <ele>467.82</ele>
        <time>2013-07-06T15:33:15Z</time>
      </trkpt>
      <trkpt lat="44.08087" lon="3.27884">
        <ele>466.38</ele>
        <time>2013-07-06T15:33:18Z</time>
      </trkpt>
      <trkpt lat="44.08077" lon="3.27895">
        <ele>465.9</ele>
        <time>2013-07-06T15:33:20Z</time>
      </trkpt>
      <trkpt lat="44.08072" lon="3.27904">
        <ele>465.9</ele>
        <time>2013-07-06T15:33:27Z</time>
      </trkpt>
      <trkpt lat="44.08072" lon="3.27903">
        <ele>465.42</ele>
        <time>2013-07-06T15:33:44Z</time>
      </trkpt>
      <trkpt lat="44.08073" lon="3.27902">
        <ele>465.42</ele>
        <time>2013-07-06T15:33:50Z</time>
      </trkpt>
      <trkpt lat="44.08076" lon="3.27904">
        <ele>465.42</ele>
        <time>2013-07-06T15:33:54Z</time>
      </trkpt>
      <trkpt lat="44.08072" lon="3.27908">
        <ele>465.42</ele>
        <time>2013-07-06T15:34:02Z</time>
      </trkpt>
      <trkpt lat="44.08075" lon="3.27903">
        <ele>464.93</ele>
        <time>2013-07-06T15:34:11Z</time>
      </trkpt>
      <trkpt lat="44.08075" lon="3.279">
        <ele>464.93</ele>
        <time>2013-07-06T15:34:31Z</time>
      </trkpt>
      <trkpt lat="44.08075" lon="3.279">
        <ele>464.93</ele>
        <time>2013-07-06T15:34:56Z</time>
      </trkpt>
      <trkpt lat="44.08076" lon="3.279">
        <ele>464.45</ele>
        <time>2013-07-06T15:35:17Z</time>
      </trkpt>
      <trkpt lat="44.08076" lon="3.27898">
        <ele>463.97</ele>
        <time>2013-07-06T15:35:50Z</time>
      </trkpt>
      <trkpt lat="44.08076" lon="3.27898">
        <ele>463.97</ele>
        <time>2013-07-06T15:36:00Z</time>
      </trkpt>
      <trkpt lat="44.08073" lon="3.27907">
        <ele>463.97</ele>
        <time>2013-07-06T15:36:06Z</time>
      </trkpt>
      <trkpt lat="44.08042" lon="3.27929">
        <ele>463.97</ele>
        <time>2013-07-06T15:36:19Z</time>
      </trkpt>
      <trkpt lat="44.07995" lon="3.27955">
        <ele>463.97</ele>
        <time>2013-07-06T15:36:34Z</time>
      </trkpt>
      <trkpt lat="44.07935" lon="3.27985">
        <ele>464.45</ele>
        <time>2013-07-06T15:36:52Z</time>
      </trkpt>
      <trkpt lat="44.07878" lon="3.28005">
        <ele>465.42</ele>
        <time>2013-07-06T15:37:08Z</time>
      </trkpt>
      <trkpt lat="44.07834" lon="3.28013">
        <ele>466.38</ele>
        <time>2013-07-06T15:37:21Z</time>
      </trkpt>
      <trkpt lat="44.07784" lon="3.28041">
        <ele>466.38</ele>
        <time>2013-07-06T15:37:36Z</time>
      </trkpt>
      <trkpt lat="44.07781" lon="3.28045">
        <ele>466.38</ele>
        <time>2013-07-06T15:37:37Z</time>
      </trkpt>
      <trkpt lat="44.07765" lon="3.28062">
        <ele>466.38</ele>
        <time>2013-07-06T15:37:42Z</time>
      </trkpt>
      <trkpt lat="44.07747" lon="3.28087">
        <ele>465.9</ele>
        <time>2013-07-06T15:37:48Z</time>
      </trkpt>
      <trkpt lat="44.07741" lon="3.28095">
        <ele>465.9</ele>
        <time>2013-07-06T15:37:50Z</time>
      </trkpt>
      <trkpt lat="44.0771" lon="3.2817">
        <ele>466.38</ele>
        <time>2013-07-06T15:38:05Z</time>
      </trkpt>
      <trkpt lat="44.07691" lon="3.28259">
        <ele>466.38</ele>
        <time>2013-07-06T15:38:20Z</time>
      </trkpt>
      <trkpt lat="44.07657" lon="3.28361">
        <ele>466.38</ele>
        <time>2013-07-06T15:38:37Z</time>
      </trkpt>
      <trkpt lat="44.07607" lon="3.28427">
        <ele>466.38</ele>
        <time>2013-07-06T15:38:52Z</time>
      </trkpt>
      <trkpt lat="44.07536" lon="3.28493">
        <ele>467.82</ele>
        <time>2013-07-06T15:39:10Z</time>
      </trkpt>
      <trkpt lat="44.07514" lon="3.28512">
        <ele>468.3</ele>
        <time>2013-07-06T15:39:16Z</time>
      </trkpt>
      <trkpt lat="44.07506" lon="3.28515">
        <ele>468.3</ele>
        <time>2013-07-06T15:39:18Z</time>
      </trkpt>
      <trkpt lat="44.07489" lon="3.28517">
        <ele>468.78</ele>
        <time>2013-07-06T15:39:22Z</time>
      </trkpt>
      <trkpt lat="44.0744" lon="3.28504">
        <ele>469.74</ele>
        <time>2013-07-06T15:39:35Z</time>
      </trkpt>
      <trkpt lat="44.07394" lon="3.28526">
        <ele>470.7</ele>
        <time>2013-07-06T15:39:48Z</time>
      </trkpt>
      <trkpt lat="44.07353" lon="3.28601">
        <ele>472.63</ele>
        <time>2013-07-06T15:40:05Z</time>
      </trkpt>
      <trkpt lat="44.0732" lon="3.28666">
        <ele>474.55</ele>
        <time>2013-07-06T15:40:20Z</time>
      </trkpt>
      <trkpt lat="44.07274" lon="3.28736">
        <ele>475.99</ele>
        <time>2013-07-06T15:40:38Z</time>
      </trkpt>
      <trkpt lat="44.07238" lon="3.28784">
        <ele>476.47</ele>
        <time>2013-07-06T15:40:51Z</time>
      </trkpt>
      <trkpt lat="44.07181" lon="3.28844">
        <ele>478.39</ele>
        <time>2013-07-06T15:41:09Z</time>
      </trkpt>
      <trkpt lat="44.07134" lon="3.28915">
        <ele>479.35</ele>
        <time>2013-07-06T15:41:27Z</time>
      </trkpt>
      <trkpt lat="44.07109" lon="3.28971">
        <ele>480.32</ele>
        <time>2013-07-06T15:41:40Z</time>
      </trkpt>
      <trkpt lat="44.07103" lon="3.29041">
        <ele>481.28</ele>
        <time>2013-07-06T15:41:54Z</time>
      </trkpt>
      <trkpt lat="44.07114" lon="3.29127">
        <ele>482.72</ele>
        <time>2013-07-06T15:42:10Z</time>
      </trkpt>
      <trkpt lat="44.07122" lon="3.29165">
        <ele>483.2</ele>
        <time>2013-07-06T15:42:17Z</time>
      </trkpt>
      <trkpt lat="44.07122" lon="3.29171">
        <ele>483.2</ele>
        <time>2013-07-06T15:42:18Z</time>
      </trkpt>
      <trkpt lat="44.07131" lon="3.29215">
        <ele>483.68</ele>
        <time>2013-07-06T15:42:26Z</time>
      </trkpt>
      <trkpt lat="44.07132" lon="3.29227">
        <ele>482.72</ele>
        <time>2013-07-06T15:42:28Z</time>
      </trkpt>
      <trkpt lat="44.07132" lon="3.29233">
        <ele>483.68</ele>
        <time>2013-07-06T15:42:29Z</time>
      </trkpt>
      <trkpt lat="44.07131" lon="3.29238">
        <ele>485.12</ele>
        <time>2013-07-06T15:42:30Z</time>
      </trkpt>
      <trkpt lat="44.07131" lon="3.29244">
        <ele>484.16</ele>
        <time>2013-07-06T15:42:31Z</time>
      </trkpt>
      <trkpt lat="44.0713" lon="3.29261">
        <ele>484.64</ele>
        <time>2013-07-06T15:42:34Z</time>
      </trkpt>
      <trkpt lat="44.07129" lon="3.29267">
        <ele>484.64</ele>
        <time>2013-07-06T15:42:35Z</time>
      </trkpt>
      <trkpt lat="44.07128" lon="3.29272">
        <ele>484.64</ele>
        <time>2013-07-06T15:42:36Z</time>
      </trkpt>
      <trkpt lat="44.071" lon="3.2933">
        <ele>485.6</ele>
        <time>2013-07-06T15:42:50Z</time>
      </trkpt>
      <trkpt lat="44.07096" lon="3.29332">
        <ele>485.6</ele>
        <time>2013-07-06T15:42:51Z</time>
      </trkpt>
      <trkpt lat="44.07092" lon="3.29332">
        <ele>485.6</ele>
        <time>2013-07-06T15:42:52Z</time>
      </trkpt>
      <trkpt lat="44.07088" lon="3.29332">
        <ele>486.08</ele>
        <time>2013-07-06T15:42:53Z</time>
      </trkpt>
      <trkpt lat="44.07084" lon="3.29331">
        <ele>486.08</ele>
        <time>2013-07-06T15:42:54Z</time>
      </trkpt>
      <trkpt lat="44.07081" lon="3.29329">
        <ele>486.08</ele>
        <time>2013-07-06T15:42:55Z</time>
      </trkpt>
      <trkpt lat="44.07077" lon="3.29327">
        <ele>486.08</ele>
        <time>2013-07-06T15:42:56Z</time>
      </trkpt>
      <trkpt lat="44.07074" lon="3.29325">
        <ele>486.56</ele>
        <time>2013-07-06T15:42:57Z</time>
      </trkpt>
      <trkpt lat="44.07071" lon="3.29322">
        <ele>486.56</ele>
        <time>2013-07-06T15:42:58Z</time>
      </trkpt>
      <trkpt lat="44.07023" lon="3.29279">
        <ele>487.53</ele>
        <time>2013-07-06T15:43:13Z</time>
      </trkpt>
      <trkpt lat="44.0697" lon="3.29258">
        <ele>488.01</ele>
        <time>2013-07-06T15:43:27Z</time>
      </trkpt>
      <trkpt lat="44.06951" lon="3.29252">
        <ele>488.01</ele>
        <time>2013-07-06T15:43:32Z</time>
      </trkpt>
      <trkpt lat="44.06947" lon="3.29251">
        <ele>488.01</ele>
        <time>2013-07-06T15:43:33Z</time>
      </trkpt>
      <trkpt lat="44.06936" lon="3.29246">
        <ele>488.49</ele>
        <time>2013-07-06T15:43:36Z</time>
      </trkpt>
      <trkpt lat="44.06932" lon="3.29245">
        <ele>488.49</ele>
        <time>2013-07-06T15:43:37Z</time>
      </trkpt>
      <trkpt lat="44.06884" lon="3.29234">
        <ele>489.45</ele>
        <time>2013-07-06T15:43:50Z</time>
      </trkpt>
      <trkpt lat="44.06842" lon="3.29248">
        <ele>489.93</ele>
        <time>2013-07-06T15:44:01Z</time>
      </trkpt>
      <trkpt lat="44.06831" lon="3.29256">
        <ele>489.93</ele>
        <time>2013-07-06T15:44:04Z</time>
      </trkpt>
      <trkpt lat="44.06822" lon="3.2926">
        <ele>489.93</ele>
        <time>2013-07-06T15:44:06Z</time>
      </trkpt>
      <trkpt lat="44.06818" lon="3.29261">
        <ele>489.93</ele>
        <time>2013-07-06T15:44:07Z</time>
      </trkpt>
      <trkpt lat="44.06814" lon="3.29262">
        <ele>489.93</ele>
        <time>2013-07-06T15:44:08Z</time>
      </trkpt>
      <trkpt lat="44.06809" lon="3.29263">
        <ele>489.45</ele>
        <time>2013-07-06T15:44:09Z</time>
      </trkpt>
      <trkpt lat="44.06804" lon="3.29262">
        <ele>489.93</ele>
        <time>2013-07-06T15:44:10Z</time>
      </trkpt>
      <trkpt lat="44.06799" lon="3.29261">
        <ele>489.45</ele>
        <time>2013-07-06T15:44:11Z</time>
      </trkpt>
      <trkpt lat="44.06795" lon="3.29259">
        <ele>489.45</ele>
        <time>2013-07-06T15:44:12Z</time>
      </trkpt>
      <trkpt lat="44.0679" lon="3.29258">
        <ele>489.45</ele>
        <time>2013-07-06T15:44:13Z</time>
      </trkpt>
      <trkpt lat="44.06776" lon="3.29255">
        <ele>488.97</ele>
        <time>2013-07-06T15:44:16Z</time>
      </trkpt>
      <trkpt lat="44.06772" lon="3.29255">
        <ele>488.97</ele>
        <time>2013-07-06T15:44:17Z</time>
      </trkpt>
      <trkpt lat="44.06767" lon="3.29255">
        <ele>488.97</ele>
        <time>2013-07-06T15:44:18Z</time>
      </trkpt>
      <trkpt lat="44.06762" lon="3.29258">
        <ele>488.97</ele>
        <time>2013-07-06T15:44:19Z</time>
      </trkpt>
      <trkpt lat="44.06757" lon="3.29261">
        <ele>488.97</ele>
        <time>2013-07-06T15:44:20Z</time>
      </trkpt>
      <trkpt lat="44.06753" lon="3.29266">
        <ele>488.49</ele>
        <time>2013-07-06T15:44:21Z</time>
      </trkpt>
      <trkpt lat="44.06748" lon="3.2927">
        <ele>488.49</ele>
        <time>2013-07-06T15:44:22Z</time>
      </trkpt>
      <trkpt lat="44.06744" lon="3.29275">
        <ele>488.49</ele>
        <time>2013-07-06T15:44:23Z</time>
      </trkpt>
      <trkpt lat="44.0674" lon="3.2928">
        <ele>488.49</ele>
        <time>2013-07-06T15:44:24Z</time>
      </trkpt>
      <trkpt lat="44.067" lon="3.29345">
        <ele>486.56</ele>
        <time>2013-07-06T15:44:34Z</time>
      </trkpt>
      <trkpt lat="44.06666" lon="3.29465">
        <ele>484.16</ele>
        <time>2013-07-06T15:44:48Z</time>
      </trkpt>
      <trkpt lat="44.06634" lon="3.29594">
        <ele>480.8</ele>
        <time>2013-07-06T15:45:01Z</time>
      </trkpt>
      <trkpt lat="44.06624" lon="3.29645">
        <ele>479.35</ele>
        <time>2013-07-06T15:45:06Z</time>
      </trkpt>
      <trkpt lat="44.06579" lon="3.29784">
        <ele>475.99</ele>
        <time>2013-07-06T15:45:20Z</time>
      </trkpt>
      <trkpt lat="44.06523" lon="3.29875">
        <ele>472.63</ele>
        <time>2013-07-06T15:45:30Z</time>
      </trkpt>
      <trkpt lat="44.06517" lon="3.29885">
        <ele>472.63</ele>
        <time>2013-07-06T15:45:31Z</time>
      </trkpt>
      <trkpt lat="44.06499" lon="3.29913">
        <ele>471.66</ele>
        <time>2013-07-06T15:45:34Z</time>
      </trkpt>
      <trkpt lat="44.06418" lon="3.29966">
        <ele>469.26</ele>
        <time>2013-07-06T15:45:44Z</time>
      </trkpt>
      <trkpt lat="44.06331" lon="3.30009">
        <ele>469.26</ele>
        <time>2013-07-06T15:45:57Z</time>
      </trkpt>
      <trkpt lat="44.06261" lon="3.30016">
        <ele>470.22</ele>
        <time>2013-07-06T15:46:10Z</time>
      </trkpt>
      <trkpt lat="44.06211" lon="3.30025">
        <ele>471.18</ele>
        <time>2013-07-06T15:46:20Z</time>
      </trkpt>
      <trkpt lat="44.06145" lon="3.30037">
        <ele>472.63</ele>
        <time>2013-07-06T15:46:34Z</time>
      </trkpt>
      <trkpt lat="44.06128" lon="3.30039">
        <ele>472.63</ele>
        <time>2013-07-06T15:46:38Z</time>
      </trkpt>
      <trkpt lat="44.06119" lon="3.30042">
        <ele>472.63</ele>
        <time>2013-07-06T15:46:40Z</time>
      </trkpt>
      <trkpt lat="44.06094" lon="3.30047">
        <ele>473.11</ele>
        <time>2013-07-06T15:46:46Z</time>
      </trkpt>
      <trkpt lat="44.06029" lon="3.30047">
        <ele>473.59</ele>
        <time>2013-07-06T15:47:02Z</time>
      </trkpt>
      <trkpt lat="44.05988" lon="3.30029">
        <ele>474.55</ele>
        <time>2013-07-06T15:47:13Z</time>
      </trkpt>
      <trkpt lat="44.05962" lon="3.30015">
        <ele>474.55</ele>
        <time>2013-07-06T15:47:20Z</time>
      </trkpt>
      <trkpt lat="44.05943" lon="3.30003">
        <ele>475.03</ele>
        <time>2013-07-06T15:47:25Z</time>
      </trkpt>
      <trkpt lat="44.05922" lon="3.29996">
        <ele>475.03</ele>
        <time>2013-07-06T15:47:30Z</time>
      </trkpt>
      <trkpt lat="44.05849" lon="3.29972">
        <ele>475.99</ele>
        <time>2013-07-06T15:47:48Z</time>
      </trkpt>
      <trkpt lat="44.05778" lon="3.29976">
        <ele>476.95</ele>
        <time>2013-07-06T15:48:05Z</time>
      </trkpt>
      <trkpt lat="44.05769" lon="3.29979">
        <ele>476.95</ele>
        <time>2013-07-06T15:48:07Z</time>
      </trkpt>
      <trkpt lat="44.05687" lon="3.30014">
        <ele>477.91</ele>
        <time>2013-07-06T15:48:26Z</time>
      </trkpt>
      <trkpt lat="44.05676" lon="3.30023">
        <ele>478.39</ele>
        <time>2013-07-06T15:48:29Z</time>
      </trkpt>
      <trkpt lat="44.05625" lon="3.30073">
        <ele>478.87</ele>
        <time>2013-07-06T15:48:43Z</time>
      </trkpt>
      <trkpt lat="44.05611" lon="3.30088">
        <ele>479.84</ele>
        <time>2013-07-06T15:48:47Z</time>
      </trkpt>
      <trkpt lat="44.05583" lon="3.30128">
        <ele>479.84</ele>
        <time>2013-07-06T15:48:56Z</time>
      </trkpt>
      <trkpt lat="44.05532" lon="3.30208">
        <ele>481.28</ele>
        <time>2013-07-06T15:49:13Z</time>
      </trkpt>
      <trkpt lat="44.05528" lon="3.30212">
        <ele>481.28</ele>
        <time>2013-07-06T15:49:14Z</time>
      </trkpt>
      <trkpt lat="44.05517" lon="3.30223">
        <ele>481.28</ele>
        <time>2013-07-06T15:49:17Z</time>
      </trkpt>
      <trkpt lat="44.05509" lon="3.30228">
        <ele>481.28</ele>
        <time>2013-07-06T15:49:19Z</time>
      </trkpt>
      <trkpt lat="44.05486" lon="3.30239">
        <ele>481.76</ele>
        <time>2013-07-06T15:49:25Z</time>
      </trkpt>
      <trkpt lat="44.05477" lon="3.30274">
        <ele>481.28</ele>
        <time>2013-07-06T15:49:35Z</time>
      </trkpt>
      <trkpt lat="44.05475" lon="3.30276">
        <ele>480.8</ele>
        <time>2013-07-06T15:49:36Z</time>
      </trkpt>
      <trkpt lat="44.05466" lon="3.30275">
        <ele>480.32</ele>
        <time>2013-07-06T15:49:46Z</time>
      </trkpt>
      <trkpt lat="44.05466" lon="3.30274">
        <ele>480.32</ele>
        <time>2013-07-06T15:50:07Z</time>
      </trkpt>
      <trkpt lat="44.05466" lon="3.30274">
        <ele>480.32</ele>
        <time>2013-07-06T15:50:28Z</time>
      </trkpt>
      <trkpt lat="44.05466" lon="3.30274">
        <ele>479.84</ele>
        <time>2013-07-06T15:50:54Z</time>
      </trkpt>
      <trkpt lat="44.05466" lon="3.30274">
        <ele>479.84</ele>
        <time>2013-07-06T15:51:27Z</time>
      </trkpt>
      <trkpt lat="44.05466" lon="3.30274">
        <ele>479.84</ele>
        <time>2013-07-06T15:51:55Z</time>
      </trkpt>
      <trkpt lat="44.05466" lon="3.30274">
        <ele>479.35</ele>
        <time>2013-07-06T15:52:26Z</time>
      </trkpt>
      <trkpt lat="44.05466" lon="3.30274">
        <ele>479.35</ele>
        <time>2013-07-06T15:52:39Z</time>
      </trkpt>
      <trkpt lat="44.05467" lon="3.30277">
        <ele>479.35</ele>
        <time>2013-07-06T15:52:50Z</time>
      </trkpt>
      <trkpt lat="44.05467" lon="3.30277">
        <ele>478.87</ele>
        <time>2013-07-06T15:53:20Z</time>
      </trkpt>
      <trkpt lat="44.05463" lon="3.30278">
        <ele>479.35</ele>
        <time>2013-07-06T15:54:22Z</time>
      </trkpt>
      <trkpt lat="44.05463" lon="3.30277">
        <ele>479.35</ele>
        <time>2013-07-06T15:54:23Z</time>
      </trkpt>
      <trkpt lat="44.05463" lon="3.30278">
        <ele>479.35</ele>
        <time>2013-07-06T15:54:54Z</time>
      </trkpt>
      <trkpt lat="44.05467" lon="3.3028">
        <ele>478.87</ele>
        <time>2013-07-06T15:55:16Z</time>
      </trkpt>
      <trkpt lat="44.05459" lon="3.30295">
        <ele>477.91</ele>
        <time>2013-07-06T15:55:21Z</time>
      </trkpt>
      <trkpt lat="44.05429" lon="3.30316">
        <ele>474.07</ele>
        <time>2013-07-06T15:55:26Z</time>
      </trkpt>
      <trkpt lat="44.05414" lon="3.30326">
        <ele>471.18</ele>
        <time>2013-07-06T15:55:28Z</time>
      </trkpt>
      <trkpt lat="44.05406" lon="3.30332">
        <ele>469.74</ele>
        <time>2013-07-06T15:55:29Z</time>
      </trkpt>
      <trkpt lat="44.05382" lon="3.30372">
        <ele>466.86</ele>
        <time>2013-07-06T15:55:33Z</time>
      </trkpt>
      <trkpt lat="44.0536" lon="3.30459">
        <ele>468.3</ele>
        <time>2013-07-06T15:55:41Z</time>
      </trkpt>
      <trkpt lat="44.0536" lon="3.30466">
        <ele>467.82</ele>
        <time>2013-07-06T15:55:42Z</time>
      </trkpt>
      <trkpt lat="44.05362" lon="3.30471">
        <ele>467.82</ele>
        <time>2013-07-06T15:55:43Z</time>
      </trkpt>
      <trkpt lat="44.05388" lon="3.30487">
        <ele>470.22</ele>
        <time>2013-07-06T15:55:52Z</time>
      </trkpt>
      <trkpt lat="44.05419" lon="3.30486">
        <ele>472.14</ele>
        <time>2013-07-06T15:56:04Z</time>
      </trkpt>
      <trkpt lat="44.05454" lon="3.30487">
        <ele>475.03</ele>
        <time>2013-07-06T15:56:19Z</time>
      </trkpt>
      <trkpt lat="44.05487" lon="3.30492">
        <ele>477.43</ele>
        <time>2013-07-06T15:56:34Z</time>
      </trkpt>
      <trkpt lat="44.05522" lon="3.30489">
        <ele>479.84</ele>
        <time>2013-07-06T15:56:50Z</time>
      </trkpt>
      <trkpt lat="44.05561" lon="3.30472">
        <ele>482.72</ele>
        <time>2013-07-06T15:57:06Z</time>
      </trkpt>
      <trkpt lat="44.05598" lon="3.30457">
        <ele>485.6</ele>
        <time>2013-07-06T15:57:23Z</time>
      </trkpt>
      <trkpt lat="44.05624" lon="3.30464">
        <ele>488.49</ele>
        <time>2013-07-06T15:57:37Z</time>
      </trkpt>
      <trkpt lat="44.05616" lon="3.30506">
        <ele>489.93</ele>
        <time>2013-07-06T15:57:52Z</time>
      </trkpt>
      <trkpt lat="44.05607" lon="3.30536">
        <ele>491.37</ele>
        <time>2013-07-06T15:58:03Z</time>
      </trkpt>
      <trkpt lat="44.05595" lon="3.3057">
        <ele>493.77</ele>
        <time>2013-07-06T15:58:16Z</time>
      </trkpt>
      <trkpt lat="44.05592" lon="3.3058">
        <ele>494.26</ele>
        <time>2013-07-06T15:58:20Z</time>
      </trkpt>
      <trkpt lat="44.05575" lon="3.3061">
        <ele>496.18</ele>
        <time>2013-07-06T15:58:34Z</time>
      </trkpt>
      <trkpt lat="44.0556" lon="3.30644">
        <ele>498.1</ele>
        <time>2013-07-06T15:58:49Z</time>
      </trkpt>
      <trkpt lat="44.05543" lon="3.30682">
        <ele>500.5</ele>
        <time>2013-07-06T15:59:04Z</time>
      </trkpt>
      <trkpt lat="44.05523" lon="3.30713">
        <ele>502.43</ele>
        <time>2013-07-06T15:59:18Z</time>
      </trkpt>
      <trkpt lat="44.05502" lon="3.3074">
        <ele>504.35</ele>
        <time>2013-07-06T15:59:31Z</time>
      </trkpt>
      <trkpt lat="44.05484" lon="3.30767">
        <ele>506.27</ele>
        <time>2013-07-06T15:59:44Z</time>
      </trkpt>
      <trkpt lat="44.05462" lon="3.308">
        <ele>508.67</ele>
        <time>2013-07-06T15:59:59Z</time>
      </trkpt>
      <trkpt lat="44.05441" lon="3.30829">
        <ele>510.12</ele>
        <time>2013-07-06T16:00:11Z</time>
      </trkpt>
      <trkpt lat="44.05441" lon="3.30832">
        <ele>510.12</ele>
        <time>2013-07-06T16:00:12Z</time>
      </trkpt>
      <trkpt lat="44.05445" lon="3.30832">
        <ele>510.12</ele>
        <time>2013-07-06T16:00:17Z</time>
      </trkpt>
      <trkpt lat="44.0544" lon="3.30838">
        <ele>510.12</ele>
        <time>2013-07-06T16:00:23Z</time>
      </trkpt>
      <trkpt lat="44.05444" lon="3.30828">
        <ele>510.12</ele>
        <time>2013-07-06T16:00:32Z</time>
      </trkpt>
      <trkpt lat="44.05441" lon="3.30837">
        <ele>510.12</ele>
        <time>2013-07-06T16:00:40Z</time>
      </trkpt>
      <trkpt lat="44.05442" lon="3.30829">
        <ele>510.12</ele>
        <time>2013-07-06T16:00:46Z</time>
      </trkpt>
      <trkpt lat="44.05442" lon="3.30832">
        <ele>509.64</ele>
        <time>2013-07-06T16:00:54Z</time>
      </trkpt>
      <trkpt lat="44.05449" lon="3.30853">
        <ele>510.12</ele>
        <time>2013-07-06T16:01:02Z</time>
      </trkpt>
      <trkpt lat="44.05481" lon="3.30857">
        <ele>510.12</ele>
        <time>2013-07-06T16:01:15Z</time>
      </trkpt>
      <trkpt lat="44.05517" lon="3.3082">
        <ele>511.08</ele>
        <time>2013-07-06T16:01:31Z</time>
      </trkpt>
      <trkpt lat="44.05553" lon="3.30802">
        <ele>513</ele>
        <time>2013-07-06T16:01:46Z</time>
      </trkpt>
      <trkpt lat="44.05584" lon="3.30776">
        <ele>515.4</ele>
        <time>2013-07-06T16:02:02Z</time>
      </trkpt>
      <trkpt lat="44.05613" lon="3.30742">
        <ele>517.81</ele>
        <time>2013-07-06T16:02:19Z</time>
      </trkpt>
      <trkpt lat="44.05634" lon="3.30716">
        <ele>519.73</ele>
        <time>2013-07-06T16:02:32Z</time>
      </trkpt>
      <trkpt lat="44.05639" lon="3.30713">
        <ele>520.21</ele>
        <time>2013-07-06T16:02:34Z</time>
      </trkpt>
      <trkpt lat="44.05666" lon="3.30684">
        <ele>522.61</ele>
        <time>2013-07-06T16:02:49Z</time>
      </trkpt>
      <trkpt lat="44.05692" lon="3.30648">
        <ele>524.54</ele>
        <time>2013-07-06T16:03:06Z</time>
      </trkpt>
      <trkpt lat="44.05724" lon="3.30622">
        <ele>526.94</ele>
        <time>2013-07-06T16:03:22Z</time>
      </trkpt>
      <trkpt lat="44.05747" lon="3.30604">
        <ele>527.9</ele>
        <time>2013-07-06T16:03:36Z</time>
      </trkpt>
      <trkpt lat="44.05752" lon="3.30569">
        <ele>529.34</ele>
        <time>2013-07-06T16:03:50Z</time>
      </trkpt>
      <trkpt lat="44.05753" lon="3.30553">
        <ele>530.3</ele>
        <time>2013-07-06T16:03:57Z</time>
      </trkpt>
      <trkpt lat="44.05754" lon="3.30549">
        <ele>530.79</ele>
        <time>2013-07-06T16:04:09Z</time>
      </trkpt>
      <trkpt lat="44.05754" lon="3.30549">
        <ele>531.27</ele>
        <time>2013-07-06T16:04:32Z</time>
      </trkpt>
      <trkpt lat="44.05754" lon="3.30549">
        <ele>530.79</ele>
        <time>2013-07-06T16:05:05Z</time>
      </trkpt>
      <trkpt lat="44.05754" lon="3.30549">
        <ele>530.79</ele>
        <time>2013-07-06T16:05:40Z</time>
      </trkpt>
      <trkpt lat="44.05754" lon="3.30549">
        <ele>530.79</ele>
        <time>2013-07-06T16:06:10Z</time>
      </trkpt>
      <trkpt lat="44.05754" lon="3.30549">
        <ele>530.79</ele>
        <time>2013-07-06T16:06:40Z</time>
      </trkpt>
      <trkpt lat="44.05754" lon="3.30549">
        <ele>530.79</ele>
        <time>2013-07-06T16:07:09Z</time>
      </trkpt>
      <trkpt lat="44.05755" lon="3.30552">
        <ele>530.3</ele>
        <time>2013-07-06T16:07:26Z</time>
      </trkpt>
      <trkpt lat="44.05755" lon="3.30553">
        <ele>530.3</ele>
        <time>2013-07-06T16:07:53Z</time>
      </trkpt>
      <trkpt lat="44.05755" lon="3.30555">
        <ele>530.3</ele>
        <time>2013-07-06T16:07:59Z</time>
      </trkpt>
      <trkpt lat="44.05755" lon="3.30566">
        <ele>529.82</ele>
        <time>2013-07-06T16:08:03Z</time>
      </trkpt>
      <trkpt lat="44.05747" lon="3.30585">
        <ele>527.42</ele>
        <time>2013-07-06T16:08:09Z</time>
      </trkpt>
      <trkpt lat="44.05741" lon="3.30611">
        <ele>526.94</ele>
        <time>2013-07-06T16:08:15Z</time>
      </trkpt>
      <trkpt lat="44.05742" lon="3.30625">
        <ele>526.94</ele>
        <time>2013-07-06T16:08:22Z</time>
      </trkpt>
      <trkpt lat="44.05745" lon="3.3063">
        <ele>526.94</ele>
        <time>2013-07-06T16:08:26Z</time>
      </trkpt>
      <trkpt lat="44.05748" lon="3.30635">
        <ele>527.42</ele>
        <time>2013-07-06T16:08:31Z</time>
      </trkpt>
      <trkpt lat="44.05747" lon="3.30661">
        <ele>526.46</ele>
        <time>2013-07-06T16:08:44Z</time>
      </trkpt>
      <trkpt lat="44.05744" lon="3.30694">
        <ele>526.46</ele>
        <time>2013-07-06T16:08:56Z</time>
      </trkpt>
      <trkpt lat="44.05728" lon="3.30748">
        <ele>527.42</ele>
        <time>2013-07-06T16:09:13Z</time>
      </trkpt>
      <trkpt lat="44.05722" lon="3.30797">
        <ele>528.38</ele>
        <time>2013-07-06T16:09:29Z</time>
      </trkpt>
      <trkpt lat="44.05725" lon="3.30841">
        <ele>529.34</ele>
        <time>2013-07-06T16:09:42Z</time>
      </trkpt>
      <trkpt lat="44.05736" lon="3.30901">
        <ele>530.3</ele>
        <time>2013-07-06T16:10:00Z</time>
      </trkpt>
      <trkpt lat="44.05747" lon="3.30947">
        <ele>531.27</ele>
        <time>2013-07-06T16:10:14Z</time>
      </trkpt>
      <trkpt lat="44.05775" lon="3.30989">
        <ele>532.71</ele>
        <time>2013-07-06T16:10:30Z</time>
      </trkpt>
      <trkpt lat="44.05789" lon="3.31028">
        <ele>533.67</ele>
        <time>2013-07-06T16:10:42Z</time>
      </trkpt>
      <trkpt lat="44.05816" lon="3.31043">
        <ele>534.63</ele>
        <time>2013-07-06T16:10:54Z</time>
      </trkpt>
      <trkpt lat="44.05852" lon="3.31056">
        <ele>535.59</ele>
        <time>2013-07-06T16:11:10Z</time>
      </trkpt>
      <trkpt lat="44.05886" lon="3.31099">
        <ele>536.07</ele>
        <time>2013-07-06T16:11:27Z</time>
      </trkpt>
      <trkpt lat="44.05889" lon="3.31141">
        <ele>537.51</ele>
        <time>2013-07-06T16:11:39Z</time>
      </trkpt>
      <trkpt lat="44.05897" lon="3.31188">
        <ele>537.99</ele>
        <time>2013-07-06T16:11:52Z</time>
      </trkpt>
      <trkpt lat="44.05914" lon="3.31234">
        <ele>539.44</ele>
        <time>2013-07-06T16:12:06Z</time>
      </trkpt>
      <trkpt lat="44.05935" lon="3.31259">
        <ele>540.88</ele>
        <time>2013-07-06T16:12:18Z</time>
      </trkpt>
      <trkpt lat="44.05968" lon="3.3129">
        <ele>542.8</ele>
        <time>2013-07-06T16:12:35Z</time>
      </trkpt>
      <trkpt lat="44.05995" lon="3.3131">
        <ele>544.24</ele>
        <time>2013-07-06T16:12:48Z</time>
      </trkpt>
      <trkpt lat="44.06025" lon="3.31325">
        <ele>545.69</ele>
        <time>2013-07-06T16:13:01Z</time>
      </trkpt>
      <trkpt lat="44.06059" lon="3.31339">
        <ele>547.13</ele>
        <time>2013-07-06T16:13:15Z</time>
      </trkpt>
      <trkpt lat="44.06092" lon="3.31365">
        <ele>549.05</ele>
        <time>2013-07-06T16:13:30Z</time>
      </trkpt>
      <trkpt lat="44.0613" lon="3.31393">
        <ele>549.53</ele>
        <time>2013-07-06T16:13:45Z</time>
      </trkpt>
      <trkpt lat="44.0617" lon="3.31411">
        <ele>551.45</ele>
        <time>2013-07-06T16:14:01Z</time>
      </trkpt>
      <trkpt lat="44.06211" lon="3.31422">
        <ele>552.9</ele>
        <time>2013-07-06T16:14:16Z</time>
      </trkpt>
      <trkpt lat="44.06227" lon="3.31469">
        <ele>554.82</ele>
        <time>2013-07-06T16:14:30Z</time>
      </trkpt>
      <trkpt lat="44.06247" lon="3.31522">
        <ele>556.26</ele>
        <time>2013-07-06T16:14:46Z</time>
      </trkpt>
      <trkpt lat="44.06279" lon="3.3155">
        <ele>557.22</ele>
        <time>2013-07-06T16:15:00Z</time>
      </trkpt>
      <trkpt lat="44.06323" lon="3.31583">
        <ele>559.14</ele>
        <time>2013-07-06T16:15:17Z</time>
      </trkpt>
      <trkpt lat="44.06341" lon="3.31635">
        <ele>560.59</ele>
        <time>2013-07-06T16:15:30Z</time>
      </trkpt>
      <trkpt lat="44.06368" lon="3.31682">
        <ele>562.03</ele>
        <time>2013-07-06T16:15:44Z</time>
      </trkpt>
      <trkpt lat="44.06411" lon="3.3173">
        <ele>563.47</ele>
        <time>2013-07-06T16:16:02Z</time>
      </trkpt>
      <trkpt lat="44.06445" lon="3.31786">
        <ele>565.39</ele>
        <time>2013-07-06T16:16:19Z</time>
      </trkpt>
      <trkpt lat="44.06446" lon="3.31835">
        <ele>566.35</ele>
        <time>2013-07-06T16:16:31Z</time>
      </trkpt>
      <trkpt lat="44.06464" lon="3.3189">
        <ele>567.8</ele>
        <time>2013-07-06T16:16:45Z</time>
      </trkpt>
      <trkpt lat="44.06494" lon="3.31928">
        <ele>569.24</ele>
        <time>2013-07-06T16:16:58Z</time>
      </trkpt>
      <trkpt lat="44.06508" lon="3.31932">
        <ele>569.72</ele>
        <time>2013-07-06T16:17:05Z</time>
      </trkpt>
      <trkpt lat="44.06535" lon="3.31924">
        <ele>569.72</ele>
        <time>2013-07-06T16:17:17Z</time>
      </trkpt>
      <trkpt lat="44.06561" lon="3.31906">
        <ele>569.24</ele>
        <time>2013-07-06T16:17:25Z</time>
      </trkpt>
      <trkpt lat="44.06573" lon="3.3188">
        <ele>568.28</ele>
        <time>2013-07-06T16:17:30Z</time>
      </trkpt>
      <trkpt lat="44.06575" lon="3.3186">
        <ele>567.8</ele>
        <time>2013-07-06T16:17:33Z</time>
      </trkpt>
      <trkpt lat="44.06555" lon="3.31766">
        <ele>564.43</ele>
        <time>2013-07-06T16:17:47Z</time>
      </trkpt>
      <trkpt lat="44.06553" lon="3.31759">
        <ele>564.91</ele>
        <time>2013-07-06T16:17:48Z</time>
      </trkpt>
      <trkpt lat="44.06564" lon="3.31719">
        <ele>564.91</ele>
        <time>2013-07-06T16:17:54Z</time>
      </trkpt>
      <trkpt lat="44.06626" lon="3.31643">
        <ele>563.47</ele>
        <time>2013-07-06T16:18:08Z</time>
      </trkpt>
      <trkpt lat="44.06642" lon="3.31619">
        <ele>563.47</ele>
        <time>2013-07-06T16:18:12Z</time>
      </trkpt>
      <trkpt lat="44.06679" lon="3.31621">
        <ele>562.51</ele>
        <time>2013-07-06T16:18:19Z</time>
      </trkpt>
      <trkpt lat="44.06723" lon="3.31664">
        <ele>562.51</ele>
        <time>2013-07-06T16:18:29Z</time>
      </trkpt>
      <trkpt lat="44.06734" lon="3.31669">
        <ele>562.03</ele>
        <time>2013-07-06T16:18:31Z</time>
      </trkpt>
      <trkpt lat="44.0677" lon="3.31692">
        <ele>562.51</ele>
        <time>2013-07-06T16:18:38Z</time>
      </trkpt>
      <trkpt lat="44.0684" lon="3.31769">
        <ele>561.55</ele>
        <time>2013-07-06T16:18:54Z</time>
      </trkpt>
      <trkpt lat="44.06871" lon="3.31862">
        <ele>561.07</ele>
        <time>2013-07-06T16:19:07Z</time>
      </trkpt>
      <trkpt lat="44.06897" lon="3.31932">
        <ele>561.55</ele>
        <time>2013-07-06T16:19:17Z</time>
      </trkpt>
      <trkpt lat="44.06941" lon="3.31984">
        <ele>560.11</ele>
        <time>2013-07-06T16:19:28Z</time>
      </trkpt>
      <trkpt lat="44.07012" lon="3.32032">
        <ele>559.14</ele>
        <time>2013-07-06T16:19:42Z</time>
      </trkpt>
      <trkpt lat="44.07072" lon="3.32086">
        <ele>557.22</ele>
        <time>2013-07-06T16:19:54Z</time>
      </trkpt>
      <trkpt lat="44.0712" lon="3.32097">
        <ele>556.74</ele>
        <time>2013-07-06T16:20:03Z</time>
      </trkpt>
      <trkpt lat="44.07143" lon="3.32113">
        <ele>555.78</ele>
        <time>2013-07-06T16:20:08Z</time>
      </trkpt>
      <trkpt lat="44.07154" lon="3.32131">
        <ele>555.78</ele>
        <time>2013-07-06T16:20:11Z</time>
      </trkpt>
      <trkpt lat="44.07165" lon="3.3215">
        <ele>555.78</ele>
        <time>2013-07-06T16:20:14Z</time>
      </trkpt>
      <trkpt lat="44.07205" lon="3.32217">
        <ele>555.3</ele>
        <time>2013-07-06T16:20:24Z</time>
      </trkpt>
      <trkpt lat="44.07206" lon="3.32248">
        <ele>554.82</ele>
        <time>2013-07-06T16:20:28Z</time>
      </trkpt>
      <trkpt lat="44.07201" lon="3.32277">
        <ele>554.34</ele>
        <time>2013-07-06T16:20:31Z</time>
      </trkpt>
      <trkpt lat="44.07195" lon="3.32304">
        <ele>554.34</ele>
        <time>2013-07-06T16:20:34Z</time>
      </trkpt>
      <trkpt lat="44.07187" lon="3.32349">
        <ele>553.86</ele>
        <time>2013-07-06T16:20:39Z</time>
      </trkpt>
      <trkpt lat="44.07188" lon="3.32479">
        <ele>551.93</ele>
        <time>2013-07-06T16:20:54Z</time>
      </trkpt>
      <trkpt lat="44.07192" lon="3.3254">
        <ele>550.97</ele>
        <time>2013-07-06T16:21:01Z</time>
      </trkpt>
      <trkpt lat="44.07204" lon="3.3258">
        <ele>550.97</ele>
        <time>2013-07-06T16:21:06Z</time>
      </trkpt>
      <trkpt lat="44.07238" lon="3.32658">
        <ele>549.53</ele>
        <time>2013-07-06T16:21:16Z</time>
      </trkpt>
      <trkpt lat="44.07234" lon="3.32732">
        <ele>548.09</ele>
        <time>2013-07-06T16:21:24Z</time>
      </trkpt>
      <trkpt lat="44.07229" lon="3.32784">
        <ele>548.57</ele>
        <time>2013-07-06T16:21:31Z</time>
      </trkpt>
      <trkpt lat="44.07237" lon="3.32796">
        <ele>548.57</ele>
        <time>2013-07-06T16:21:33Z</time>
      </trkpt>
      <trkpt lat="44.07246" lon="3.32818">
        <ele>548.09</ele>
        <time>2013-07-06T16:21:36Z</time>
      </trkpt>
      <trkpt lat="44.0725" lon="3.32851">
        <ele>548.09</ele>
        <time>2013-07-06T16:21:40Z</time>
      </trkpt>
      <trkpt lat="44.0727" lon="3.32907">
        <ele>547.61</ele>
        <time>2013-07-06T16:21:48Z</time>
      </trkpt>
      <trkpt lat="44.07311" lon="3.32963">
        <ele>547.61</ele>
        <time>2013-07-06T16:21:58Z</time>
      </trkpt>
      <trkpt lat="44.07326" lon="3.32991">
        <ele>547.13</ele>
        <time>2013-07-06T16:22:02Z</time>
      </trkpt>
      <trkpt lat="44.07347" lon="3.33019">
        <ele>547.13</ele>
        <time>2013-07-06T16:22:07Z</time>
      </trkpt>
      <trkpt lat="44.07382" lon="3.33066">
        <ele>546.65</ele>
        <time>2013-07-06T16:22:15Z</time>
      </trkpt>
      <trkpt lat="44.07387" lon="3.33114">
        <ele>546.65</ele>
        <time>2013-07-06T16:22:21Z</time>
      </trkpt>
      <trkpt lat="44.07353" lon="3.332">
        <ele>545.69</ele>
        <time>2013-07-06T16:22:33Z</time>
      </trkpt>
      <trkpt lat="44.07348" lon="3.33214">
        <ele>545.2</ele>
        <time>2013-07-06T16:22:35Z</time>
      </trkpt>
      <trkpt lat="44.07343" lon="3.33218">
        <ele>544.72</ele>
        <time>2013-07-06T16:22:36Z</time>
      </trkpt>
      <trkpt lat="44.07337" lon="3.3322">
        <ele>543.76</ele>
        <time>2013-07-06T16:22:37Z</time>
      </trkpt>
      <trkpt lat="44.07332" lon="3.33218">
        <ele>543.76</ele>
        <time>2013-07-06T16:22:38Z</time>
      </trkpt>
      <trkpt lat="44.07326" lon="3.33216">
        <ele>543.76</ele>
        <time>2013-07-06T16:22:39Z</time>
      </trkpt>
      <trkpt lat="44.07321" lon="3.33215">
        <ele>543.76</ele>
        <time>2013-07-06T16:22:40Z</time>
      </trkpt>
      <trkpt lat="44.07315" lon="3.33214">
        <ele>544.24</ele>
        <time>2013-07-06T16:22:41Z</time>
      </trkpt>
      <trkpt lat="44.0731" lon="3.33215">
        <ele>544.24</ele>
        <time>2013-07-06T16:22:42Z</time>
      </trkpt>
      <trkpt lat="44.07304" lon="3.33217">
        <ele>543.76</ele>
        <time>2013-07-06T16:22:43Z</time>
      </trkpt>
      <trkpt lat="44.073" lon="3.33221">
        <ele>543.76</ele>
        <time>2013-07-06T16:22:44Z</time>
      </trkpt>
      <trkpt lat="44.07296" lon="3.33226">
        <ele>543.76</ele>
        <time>2013-07-06T16:22:45Z</time>
      </trkpt>
      <trkpt lat="44.07293" lon="3.33233">
        <ele>543.76</ele>
        <time>2013-07-06T16:22:46Z</time>
      </trkpt>
      <trkpt lat="44.0729" lon="3.3324">
        <ele>543.28</ele>
        <time>2013-07-06T16:22:47Z</time>
      </trkpt>
      <trkpt lat="44.07287" lon="3.33247">
        <ele>542.8</ele>
        <time>2013-07-06T16:22:48Z</time>
      </trkpt>
      <trkpt lat="44.07279" lon="3.33269">
        <ele>541.84</ele>
        <time>2013-07-06T16:22:51Z</time>
      </trkpt>
      <trkpt lat="44.07275" lon="3.33276">
        <ele>541.84</ele>
        <time>2013-07-06T16:22:52Z</time>
      </trkpt>
      <trkpt lat="44.0727" lon="3.33281">
        <ele>541.84</ele>
        <time>2013-07-06T16:22:53Z</time>
      </trkpt>
      <trkpt lat="44.07252" lon="3.333">
        <ele>541.36</ele>
        <time>2013-07-06T16:22:57Z</time>
      </trkpt>
      <trkpt lat="44.07251" lon="3.33305">
        <ele>541.84</ele>
        <time>2013-07-06T16:22:58Z</time>
      </trkpt>
      <trkpt lat="44.07252" lon="3.33311">
        <ele>540.88</ele>
        <time>2013-07-06T16:22:59Z</time>
      </trkpt>
      <trkpt lat="44.07256" lon="3.33328">
        <ele>540.88</ele>
        <time>2013-07-06T16:23:01Z</time>
      </trkpt>
      <trkpt lat="44.07259" lon="3.33334">
        <ele>541.36</ele>
        <time>2013-07-06T16:23:02Z</time>
      </trkpt>
      <trkpt lat="44.07264" lon="3.33338">
        <ele>540.88</ele>
        <time>2013-07-06T16:23:03Z</time>
      </trkpt>
      <trkpt lat="44.07273" lon="3.3334">
        <ele>540.4</ele>
        <time>2013-07-06T16:23:05Z</time>
      </trkpt>
      <trkpt lat="44.07279" lon="3.33341">
        <ele>540.4</ele>
        <time>2013-07-06T16:23:06Z</time>
      </trkpt>
      <trkpt lat="44.0729" lon="3.33343">
        <ele>539.92</ele>
        <time>2013-07-06T16:23:08Z</time>
      </trkpt>
      <trkpt lat="44.07296" lon="3.33346">
        <ele>539.44</ele>
        <time>2013-07-06T16:23:09Z</time>
      </trkpt>
      <trkpt lat="44.07302" lon="3.33351">
        <ele>538.96</ele>
        <time>2013-07-06T16:23:10Z</time>
      </trkpt>
      <trkpt lat="44.07306" lon="3.33356">
        <ele>538.48</ele>
        <time>2013-07-06T16:23:11Z</time>
      </trkpt>
      <trkpt lat="44.07311" lon="3.33363">
        <ele>538.96</ele>
        <time>2013-07-06T16:23:12Z</time>
      </trkpt>
      <trkpt lat="44.07315" lon="3.33369">
        <ele>538.96</ele>
        <time>2013-07-06T16:23:13Z</time>
      </trkpt>
      <trkpt lat="44.07319" lon="3.33375">
        <ele>538.96</ele>
        <time>2013-07-06T16:23:14Z</time>
      </trkpt>
      <trkpt lat="44.07331" lon="3.33394">
        <ele>538.48</ele>
        <time>2013-07-06T16:23:17Z</time>
      </trkpt>
      <trkpt lat="44.07334" lon="3.334">
        <ele>538.48</ele>
        <time>2013-07-06T16:23:18Z</time>
      </trkpt>
      <trkpt lat="44.07363" lon="3.33469">
        <ele>539.92</ele>
        <time>2013-07-06T16:23:31Z</time>
      </trkpt>
      <trkpt lat="44.07389" lon="3.335">
        <ele>540.88</ele>
        <time>2013-07-06T16:23:40Z</time>
      </trkpt>
      <trkpt lat="44.07393" lon="3.33503">
        <ele>540.4</ele>
        <time>2013-07-06T16:23:41Z</time>
      </trkpt>
      <trkpt lat="44.07397" lon="3.33504">
        <ele>540.88</ele>
        <time>2013-07-06T16:23:42Z</time>
      </trkpt>
      <trkpt lat="44.07401" lon="3.33505">
        <ele>541.36</ele>
        <time>2013-07-06T16:23:43Z</time>
      </trkpt>
      <trkpt lat="44.07405" lon="3.33506">
        <ele>541.36</ele>
        <time>2013-07-06T16:23:44Z</time>
      </trkpt>
      <trkpt lat="44.07445" lon="3.3351">
        <ele>542.32</ele>
        <time>2013-07-06T16:23:54Z</time>
      </trkpt>
      <trkpt lat="44.07504" lon="3.33494">
        <ele>543.76</ele>
        <time>2013-07-06T16:24:08Z</time>
      </trkpt>
      <trkpt lat="44.07525" lon="3.33498">
        <ele>543.76</ele>
        <time>2013-07-06T16:24:12Z</time>
      </trkpt>
      <trkpt lat="44.0753" lon="3.33501">
        <ele>543.76</ele>
        <time>2013-07-06T16:24:13Z</time>
      </trkpt>
      <trkpt lat="44.07535" lon="3.33506">
        <ele>544.24</ele>
        <time>2013-07-06T16:24:14Z</time>
      </trkpt>
      <trkpt lat="44.07539" lon="3.33511">
        <ele>544.24</ele>
        <time>2013-07-06T16:24:15Z</time>
      </trkpt>
      <trkpt lat="44.07542" lon="3.33518">
        <ele>544.24</ele>
        <time>2013-07-06T16:24:16Z</time>
      </trkpt>
      <trkpt lat="44.07544" lon="3.33525">
        <ele>544.24</ele>
        <time>2013-07-06T16:24:17Z</time>
      </trkpt>
      <trkpt lat="44.07546" lon="3.33533">
        <ele>544.24</ele>
        <time>2013-07-06T16:24:18Z</time>
      </trkpt>
      <trkpt lat="44.07546" lon="3.3354">
        <ele>544.24</ele>
        <time>2013-07-06T16:24:19Z</time>
      </trkpt>
      <trkpt lat="44.07546" lon="3.33548">
        <ele>544.72</ele>
        <time>2013-07-06T16:24:20Z</time>
      </trkpt>
      <trkpt lat="44.07543" lon="3.33577">
        <ele>544.24</ele>
        <time>2013-07-06T16:24:24Z</time>
      </trkpt>
      <trkpt lat="44.07542" lon="3.33583">
        <ele>544.24</ele>
        <time>2013-07-06T16:24:25Z</time>
      </trkpt>
      <trkpt lat="44.07512" lon="3.33665">
        <ele>546.17</ele>
        <time>2013-07-06T16:24:40Z</time>
      </trkpt>
      <trkpt lat="44.07499" lon="3.337">
        <ele>546.65</ele>
        <time>2013-07-06T16:24:47Z</time>
      </trkpt>
      <trkpt lat="44.07498" lon="3.33706">
        <ele>547.13</ele>
        <time>2013-07-06T16:24:48Z</time>
      </trkpt>
      <trkpt lat="44.07494" lon="3.3373">
        <ele>547.13</ele>
        <time>2013-07-06T16:24:52Z</time>
      </trkpt>
      <trkpt lat="44.07494" lon="3.33736">
        <ele>547.13</ele>
        <time>2013-07-06T16:24:53Z</time>
      </trkpt>
      <trkpt lat="44.07492" lon="3.33791">
        <ele>547.13</ele>
        <time>2013-07-06T16:25:02Z</time>
      </trkpt>
      <trkpt lat="44.07492" lon="3.33798">
        <ele>547.13</ele>
        <time>2013-07-06T16:25:03Z</time>
      </trkpt>
      <trkpt lat="44.07494" lon="3.33828">
        <ele>547.61</ele>
        <time>2013-07-06T16:25:08Z</time>
      </trkpt>
      <trkpt lat="44.07495" lon="3.33833">
        <ele>547.61</ele>
        <time>2013-07-06T16:25:09Z</time>
      </trkpt>
      <trkpt lat="44.07496" lon="3.33839">
        <ele>547.61</ele>
        <time>2013-07-06T16:25:10Z</time>
      </trkpt>
      <trkpt lat="44.0753" lon="3.33908">
        <ele>547.61</ele>
        <time>2013-07-06T16:25:24Z</time>
      </trkpt>
      <trkpt lat="44.07548" lon="3.33933">
        <ele>548.09</ele>
        <time>2013-07-06T16:25:30Z</time>
      </trkpt>
      <trkpt lat="44.07552" lon="3.33936">
        <ele>548.09</ele>
        <time>2013-07-06T16:25:31Z</time>
      </trkpt>
      <trkpt lat="44.07556" lon="3.33938">
        <ele>548.09</ele>
        <time>2013-07-06T16:25:32Z</time>
      </trkpt>
      <trkpt lat="44.07561" lon="3.3394">
        <ele>548.09</ele>
        <time>2013-07-06T16:25:33Z</time>
      </trkpt>
      <trkpt lat="44.07565" lon="3.33941">
        <ele>548.09</ele>
        <time>2013-07-06T16:25:34Z</time>
      </trkpt>
      <trkpt lat="44.0757" lon="3.33942">
        <ele>548.09</ele>
        <time>2013-07-06T16:25:35Z</time>
      </trkpt>
      <trkpt lat="44.07574" lon="3.33943">
        <ele>548.09</ele>
        <time>2013-07-06T16:25:36Z</time>
      </trkpt>
      <trkpt lat="44.07613" lon="3.33953">
        <ele>548.57</ele>
        <time>2013-07-06T16:25:47Z</time>
      </trkpt>
      <trkpt lat="44.07643" lon="3.33976">
        <ele>549.05</ele>
        <time>2013-07-06T16:25:58Z</time>
      </trkpt>
      <trkpt lat="44.07657" lon="3.33995">
        <ele>549.05</ele>
        <time>2013-07-06T16:26:03Z</time>
      </trkpt>
      <trkpt lat="44.07659" lon="3.34">
        <ele>549.05</ele>
        <time>2013-07-06T16:26:04Z</time>
      </trkpt>
      <trkpt lat="44.07661" lon="3.34006">
        <ele>549.05</ele>
        <time>2013-07-06T16:26:05Z</time>
      </trkpt>
      <trkpt lat="44.07664" lon="3.34018">
        <ele>549.05</ele>
        <time>2013-07-06T16:26:07Z</time>
      </trkpt>
      <trkpt lat="44.07668" lon="3.3404">
        <ele>549.05</ele>
        <time>2013-07-06T16:26:11Z</time>
      </trkpt>
      <trkpt lat="44.07668" lon="3.34046">
        <ele>549.53</ele>
        <time>2013-07-06T16:26:12Z</time>
      </trkpt>
      <trkpt lat="44.07665" lon="3.34075">
        <ele>550.01</ele>
        <time>2013-07-06T16:26:17Z</time>
      </trkpt>
      <trkpt lat="44.07663" lon="3.3408">
        <ele>550.01</ele>
        <time>2013-07-06T16:26:18Z</time>
      </trkpt>
      <trkpt lat="44.07662" lon="3.34086">
        <ele>550.49</ele>
        <time>2013-07-06T16:26:19Z</time>
      </trkpt>
      <trkpt lat="44.07652" lon="3.34125">
        <ele>550.49</ele>
        <time>2013-07-06T16:26:26Z</time>
      </trkpt>
      <trkpt lat="44.07635" lon="3.34227">
        <ele>551.93</ele>
        <time>2013-07-06T16:26:44Z</time>
      </trkpt>
      <trkpt lat="44.07632" lon="3.34238">
        <ele>551.93</ele>
        <time>2013-07-06T16:26:46Z</time>
      </trkpt>
      <trkpt lat="44.07625" lon="3.34295">
        <ele>552.9</ele>
        <time>2013-07-06T16:26:56Z</time>
      </trkpt>
      <trkpt lat="44.07626" lon="3.34301">
        <ele>552.9</ele>
        <time>2013-07-06T16:26:57Z</time>
      </trkpt>
      <trkpt lat="44.0764" lon="3.34401">
        <ele>553.86</ele>
        <time>2013-07-06T16:27:14Z</time>
      </trkpt>
      <trkpt lat="44.07641" lon="3.34408">
        <ele>553.38</ele>
        <time>2013-07-06T16:27:15Z</time>
      </trkpt>
      <trkpt lat="44.07647" lon="3.34439">
        <ele>553.86</ele>
        <time>2013-07-06T16:27:20Z</time>
      </trkpt>
      <trkpt lat="44.07651" lon="3.34494">
        <ele>553.86</ele>
        <time>2013-07-06T16:27:28Z</time>
      </trkpt>
      <trkpt lat="44.07651" lon="3.34501">
        <ele>553.86</ele>
        <time>2013-07-06T16:27:29Z</time>
      </trkpt>
      <trkpt lat="44.0765" lon="3.34508">
        <ele>553.86</ele>
        <time>2013-07-06T16:27:30Z</time>
      </trkpt>
      <trkpt lat="44.07649" lon="3.34515">
        <ele>553.86</ele>
        <time>2013-07-06T16:27:31Z</time>
      </trkpt>
      <trkpt lat="44.07647" lon="3.34522">
        <ele>553.86</ele>
        <time>2013-07-06T16:27:32Z</time>
      </trkpt>
      <trkpt lat="44.0764" lon="3.34555">
        <ele>553.86</ele>
        <time>2013-07-06T16:27:37Z</time>
      </trkpt>
      <trkpt lat="44.07624" lon="3.34616">
        <ele>553.38</ele>
        <time>2013-07-06T16:27:46Z</time>
      </trkpt>
      <trkpt lat="44.07588" lon="3.34686">
        <ele>552.41</ele>
        <time>2013-07-06T16:27:58Z</time>
      </trkpt>
      <trkpt lat="44.07557" lon="3.34742">
        <ele>550.97</ele>
        <time>2013-07-06T16:28:07Z</time>
      </trkpt>
      <trkpt lat="44.07544" lon="3.34782">
        <ele>549.05</ele>
        <time>2013-07-06T16:28:12Z</time>
      </trkpt>
      <trkpt lat="44.07542" lon="3.34791">
        <ele>549.05</ele>
        <time>2013-07-06T16:28:13Z</time>
      </trkpt>
      <trkpt lat="44.07537" lon="3.34868">
        <ele>546.65</ele>
        <time>2013-07-06T16:28:21Z</time>
      </trkpt>
      <trkpt lat="44.07538" lon="3.34878">
        <ele>546.17</ele>
        <time>2013-07-06T16:28:22Z</time>
      </trkpt>
      <trkpt lat="44.07539" lon="3.34888">
        <ele>545.69</ele>
        <time>2013-07-06T16:28:23Z</time>
      </trkpt>
      <trkpt lat="44.07541" lon="3.34898">
        <ele>545.2</ele>
        <time>2013-07-06T16:28:24Z</time>
      </trkpt>
      <trkpt lat="44.07544" lon="3.34908">
        <ele>545.2</ele>
        <time>2013-07-06T16:28:25Z</time>
      </trkpt>
      <trkpt lat="44.07573" lon="3.35025">
        <ele>542.32</ele>
        <time>2013-07-06T16:28:37Z</time>
      </trkpt>
      <trkpt lat="44.07576" lon="3.35034">
        <ele>542.8</ele>
        <time>2013-07-06T16:28:38Z</time>
      </trkpt>
      <trkpt lat="44.07635" lon="3.35145">
        <ele>542.32</ele>
        <time>2013-07-06T16:28:52Z</time>
      </trkpt>
      <trkpt lat="44.07641" lon="3.35152">
        <ele>541.84</ele>
        <time>2013-07-06T16:28:53Z</time>
      </trkpt>
      <trkpt lat="44.07657" lon="3.35172">
        <ele>541.84</ele>
        <time>2013-07-06T16:28:56Z</time>
      </trkpt>
      <trkpt lat="44.07714" lon="3.35291">
        <ele>538.96</ele>
        <time>2013-07-06T16:29:10Z</time>
      </trkpt>
      <trkpt lat="44.07717" lon="3.35302">
        <ele>538.48</ele>
        <time>2013-07-06T16:29:11Z</time>
      </trkpt>
      <trkpt lat="44.07718" lon="3.35314">
        <ele>537.99</ele>
        <time>2013-07-06T16:29:12Z</time>
      </trkpt>
      <trkpt lat="44.07721" lon="3.35339">
        <ele>537.03</ele>
        <time>2013-07-06T16:29:14Z</time>
      </trkpt>
      <trkpt lat="44.07723" lon="3.354">
        <ele>535.11</ele>
        <time>2013-07-06T16:29:19Z</time>
      </trkpt>
      <trkpt lat="44.0772" lon="3.35457">
        <ele>533.19</ele>
        <time>2013-07-06T16:29:24Z</time>
      </trkpt>
      <trkpt lat="44.07717" lon="3.35468">
        <ele>532.71</ele>
        <time>2013-07-06T16:29:25Z</time>
      </trkpt>
      <trkpt lat="44.07714" lon="3.35477">
        <ele>532.71</ele>
        <time>2013-07-06T16:29:26Z</time>
      </trkpt>
      <trkpt lat="44.07709" lon="3.35485">
        <ele>532.71</ele>
        <time>2013-07-06T16:29:27Z</time>
      </trkpt>
      <trkpt lat="44.07704" lon="3.35493">
        <ele>532.71</ele>
        <time>2013-07-06T16:29:28Z</time>
      </trkpt>
      <trkpt lat="44.07698" lon="3.35499">
        <ele>532.23</ele>
        <time>2013-07-06T16:29:29Z</time>
      </trkpt>
      <trkpt lat="44.07692" lon="3.35505">
        <ele>532.23</ele>
        <time>2013-07-06T16:29:30Z</time>
      </trkpt>
      <trkpt lat="44.07687" lon="3.35511">
        <ele>532.23</ele>
        <time>2013-07-06T16:29:31Z</time>
      </trkpt>
      <trkpt lat="44.07682" lon="3.35518">
        <ele>531.75</ele>
        <time>2013-07-06T16:29:32Z</time>
      </trkpt>
      <trkpt lat="44.07674" lon="3.35532">
        <ele>530.79</ele>
        <time>2013-07-06T16:29:34Z</time>
      </trkpt>
      <trkpt lat="44.07674" lon="3.35541">
        <ele>530.79</ele>
        <time>2013-07-06T16:29:35Z</time>
      </trkpt>
      <trkpt lat="44.07674" lon="3.3555">
        <ele>529.82</ele>
        <time>2013-07-06T16:29:36Z</time>
      </trkpt>
      <trkpt lat="44.07677" lon="3.35556">
        <ele>530.3</ele>
        <time>2013-07-06T16:29:37Z</time>
      </trkpt>
      <trkpt lat="44.07684" lon="3.35564">
        <ele>530.79</ele>
        <time>2013-07-06T16:29:38Z</time>
      </trkpt>
      <trkpt lat="44.07691" lon="3.3557">
        <ele>530.79</ele>
        <time>2013-07-06T16:29:39Z</time>
      </trkpt>
      <trkpt lat="44.07701" lon="3.35582">
        <ele>530.79</ele>
        <time>2013-07-06T16:29:41Z</time>
      </trkpt>
      <trkpt lat="44.07703" lon="3.35588">
        <ele>531.27</ele>
        <time>2013-07-06T16:29:42Z</time>
      </trkpt>
      <trkpt lat="44.07704" lon="3.35595">
        <ele>531.27</ele>
        <time>2013-07-06T16:29:43Z</time>
      </trkpt>
      <trkpt lat="44.07704" lon="3.35602">
        <ele>531.27</ele>
        <time>2013-07-06T16:29:44Z</time>
      </trkpt>
      <trkpt lat="44.07702" lon="3.35608">
        <ele>531.75</ele>
        <time>2013-07-06T16:29:45Z</time>
      </trkpt>
      <trkpt lat="44.077" lon="3.35613">
        <ele>531.75</ele>
        <time>2013-07-06T16:29:46Z</time>
      </trkpt>
      <trkpt lat="44.07679" lon="3.35667">
        <ele>534.63</ele>
        <time>2013-07-06T16:29:59Z</time>
      </trkpt>
      <trkpt lat="44.07661" lon="3.35703">
        <ele>536.07</ele>
        <time>2013-07-06T16:30:09Z</time>
      </trkpt>
      <trkpt lat="44.07651" lon="3.35724">
        <ele>537.51</ele>
        <time>2013-07-06T16:30:17Z</time>
      </trkpt>
      <trkpt lat="44.07642" lon="3.3575">
        <ele>537.99</ele>
        <time>2013-07-06T16:30:26Z</time>
      </trkpt>
      <trkpt lat="44.07643" lon="3.35752">
        <ele>538.48</ele>
        <time>2013-07-06T16:30:27Z</time>
      </trkpt>
      <trkpt lat="44.07642" lon="3.35755">
        <ele>538.48</ele>
        <time>2013-07-06T16:30:28Z</time>
      </trkpt>
      <trkpt lat="44.07642" lon="3.35758">
        <ele>538.48</ele>
        <time>2013-07-06T16:30:29Z</time>
      </trkpt>
      <trkpt lat="44.07641" lon="3.35761">
        <ele>538.48</ele>
        <time>2013-07-06T16:30:30Z</time>
      </trkpt>
      <trkpt lat="44.07639" lon="3.35764">
        <ele>538.96</ele>
        <time>2013-07-06T16:30:31Z</time>
      </trkpt>
      <trkpt lat="44.07639" lon="3.35766">
        <ele>538.96</ele>
        <time>2013-07-06T16:30:32Z</time>
      </trkpt>
      <trkpt lat="44.07638" lon="3.35769">
        <ele>538.96</ele>
        <time>2013-07-06T16:30:33Z</time>
      </trkpt>
      <trkpt lat="44.07638" lon="3.35772">
        <ele>538.96</ele>
        <time>2013-07-06T16:30:34Z</time>
      </trkpt>
      <trkpt lat="44.07638" lon="3.35775">
        <ele>539.44</ele>
        <time>2013-07-06T16:30:35Z</time>
      </trkpt>
      <trkpt lat="44.07639" lon="3.35777">
        <ele>539.44</ele>
        <time>2013-07-06T16:30:36Z</time>
      </trkpt>
      <trkpt lat="44.07639" lon="3.35779">
        <ele>539.44</ele>
        <time>2013-07-06T16:30:37Z</time>
      </trkpt>
      <trkpt lat="44.07638" lon="3.35782">
        <ele>539.44</ele>
        <time>2013-07-06T16:30:38Z</time>
      </trkpt>
      <trkpt lat="44.07638" lon="3.35784">
        <ele>539.92</ele>
        <time>2013-07-06T16:30:39Z</time>
      </trkpt>
      <trkpt lat="44.07637" lon="3.35786">
        <ele>539.92</ele>
        <time>2013-07-06T16:30:40Z</time>
      </trkpt>
      <trkpt lat="44.07637" lon="3.35789">
        <ele>539.92</ele>
        <time>2013-07-06T16:30:41Z</time>
      </trkpt>
      <trkpt lat="44.07638" lon="3.35791">
        <ele>539.92</ele>
        <time>2013-07-06T16:30:42Z</time>
      </trkpt>
      <trkpt lat="44.07638" lon="3.35793">
        <ele>539.92</ele>
        <time>2013-07-06T16:30:43Z</time>
      </trkpt>
      <trkpt lat="44.07638" lon="3.35796">
        <ele>539.92</ele>
        <time>2013-07-06T16:30:44Z</time>
      </trkpt>
      <trkpt lat="44.07638" lon="3.35799">
        <ele>539.92</ele>
        <time>2013-07-06T16:30:45Z</time>
      </trkpt>
      <trkpt lat="44.07637" lon="3.35801">
        <ele>540.4</ele>
        <time>2013-07-06T16:30:46Z</time>
      </trkpt>
      <trkpt lat="44.07637" lon="3.35803">
        <ele>540.4</ele>
        <time>2013-07-06T16:30:47Z</time>
      </trkpt>
      <trkpt lat="44.07636" lon="3.35806">
        <ele>540.4</ele>
        <time>2013-07-06T16:30:48Z</time>
      </trkpt>
      <trkpt lat="44.07636" lon="3.35808">
        <ele>540.4</ele>
        <time>2013-07-06T16:30:49Z</time>
      </trkpt>
      <trkpt lat="44.07637" lon="3.35811">
        <ele>540.4</ele>
        <time>2013-07-06T16:30:50Z</time>
      </trkpt>
      <trkpt lat="44.07638" lon="3.35813">
        <ele>540.4</ele>
        <time>2013-07-06T16:30:51Z</time>
      </trkpt>
      <trkpt lat="44.07638" lon="3.35816">
        <ele>540.88</ele>
        <time>2013-07-06T16:30:52Z</time>
      </trkpt>
      <trkpt lat="44.07638" lon="3.3582">
        <ele>540.88</ele>
        <time>2013-07-06T16:30:53Z</time>
      </trkpt>
      <trkpt lat="44.07639" lon="3.35824">
        <ele>540.88</ele>
        <time>2013-07-06T16:30:54Z</time>
      </trkpt>
      <trkpt lat="44.07639" lon="3.35871">
        <ele>541.84</ele>
        <time>2013-07-06T16:31:04Z</time>
      </trkpt>
      <trkpt lat="44.07639" lon="3.35876">
        <ele>541.84</ele>
        <time>2013-07-06T16:31:05Z</time>
      </trkpt>
      <trkpt lat="44.07639" lon="3.35882">
        <ele>541.84</ele>
        <time>2013-07-06T16:31:06Z</time>
      </trkpt>
      <trkpt lat="44.07639" lon="3.35887">
        <ele>542.32</ele>
        <time>2013-07-06T16:31:07Z</time>
      </trkpt>
      <trkpt lat="44.0764" lon="3.35893">
        <ele>542.32</ele>
        <time>2013-07-06T16:31:08Z</time>
      </trkpt>
      <trkpt lat="44.0764" lon="3.35898">
        <ele>542.32</ele>
        <time>2013-07-06T16:31:09Z</time>
      </trkpt>
      <trkpt lat="44.07639" lon="3.35941">
        <ele>547.13</ele>
        <time>2013-07-06T16:31:18Z</time>
      </trkpt>
      <trkpt lat="44.07639" lon="3.35946">
        <ele>543.76</ele>
        <time>2013-07-06T16:31:19Z</time>
      </trkpt>
      <trkpt lat="44.07645" lon="3.36003">
        <ele>545.2</ele>
        <time>2013-07-06T16:31:32Z</time>
      </trkpt>
      <trkpt lat="44.07644" lon="3.36077">
        <ele>545.69</ele>
        <time>2013-07-06T16:31:46Z</time>
      </trkpt>
      <trkpt lat="44.0763" lon="3.36147">
        <ele>545.69</ele>
        <time>2013-07-06T16:32:00Z</time>
      </trkpt>
      <trkpt lat="44.07624" lon="3.36178">
        <ele>545.69</ele>
        <time>2013-07-06T16:32:06Z</time>
      </trkpt>
      <trkpt lat="44.07622" lon="3.36184">
        <ele>545.69</ele>
        <time>2013-07-06T16:32:07Z</time>
      </trkpt>
      <trkpt lat="44.07601" lon="3.36259">
        <ele>547.61</ele>
        <time>2013-07-06T16:32:23Z</time>
      </trkpt>
      <trkpt lat="44.07588" lon="3.36301">
        <ele>548.57</ele>
        <time>2013-07-06T16:32:33Z</time>
      </trkpt>
      <trkpt lat="44.07575" lon="3.3635">
        <ele>549.53</ele>
        <time>2013-07-06T16:32:45Z</time>
      </trkpt>
      <trkpt lat="44.07568" lon="3.36368">
        <ele>550.01</ele>
        <time>2013-07-06T16:32:50Z</time>
      </trkpt>
      <trkpt lat="44.07568" lon="3.36373">
        <ele>550.01</ele>
        <time>2013-07-06T16:32:51Z</time>
      </trkpt>
      <trkpt lat="44.07568" lon="3.36377">
        <ele>550.49</ele>
        <time>2013-07-06T16:32:52Z</time>
      </trkpt>
      <trkpt lat="44.07567" lon="3.36381">
        <ele>550.49</ele>
        <time>2013-07-06T16:32:53Z</time>
      </trkpt>
      <trkpt lat="44.07566" lon="3.36385">
        <ele>550.49</ele>
        <time>2013-07-06T16:32:54Z</time>
      </trkpt>
      <trkpt lat="44.07565" lon="3.3639">
        <ele>550.49</ele>
        <time>2013-07-06T16:32:55Z</time>
      </trkpt>
      <trkpt lat="44.07564" lon="3.36394">
        <ele>550.49</ele>
        <time>2013-07-06T16:32:56Z</time>
      </trkpt>
      <trkpt lat="44.07563" lon="3.36399">
        <ele>550.49</ele>
        <time>2013-07-06T16:32:57Z</time>
      </trkpt>
      <trkpt lat="44.07563" lon="3.36404">
        <ele>550.49</ele>
        <time>2013-07-06T16:32:58Z</time>
      </trkpt>
      <trkpt lat="44.07563" lon="3.36408">
        <ele>550.97</ele>
        <time>2013-07-06T16:32:59Z</time>
      </trkpt>
      <trkpt lat="44.07563" lon="3.36413">
        <ele>550.97</ele>
        <time>2013-07-06T16:33:00Z</time>
      </trkpt>
      <trkpt lat="44.07565" lon="3.36482">
        <ele>552.9</ele>
        <time>2013-07-06T16:33:15Z</time>
      </trkpt>
      <trkpt lat="44.07567" lon="3.36549">
        <ele>554.82</ele>
        <time>2013-07-06T16:33:30Z</time>
      </trkpt>
      <trkpt lat="44.07559" lon="3.36612">
        <ele>556.74</ele>
        <time>2013-07-06T16:33:44Z</time>
      </trkpt>
      <trkpt lat="44.07553" lon="3.36692">
        <ele>558.18</ele>
        <time>2013-07-06T16:34:01Z</time>
      </trkpt>
      <trkpt lat="44.07553" lon="3.36695">
        <ele>558.66</ele>
        <time>2013-07-06T16:34:02Z</time>
      </trkpt>
      <trkpt lat="44.07552" lon="3.36698">
        <ele>558.66</ele>
        <time>2013-07-06T16:34:03Z</time>
      </trkpt>
      <trkpt lat="44.07551" lon="3.367">
        <ele>558.66</ele>
        <time>2013-07-06T16:34:04Z</time>
      </trkpt>
      <trkpt lat="44.07549" lon="3.36702">
        <ele>558.66</ele>
        <time>2013-07-06T16:34:05Z</time>
      </trkpt>
      <trkpt lat="44.07549" lon="3.36704">
        <ele>559.14</ele>
        <time>2013-07-06T16:34:06Z</time>
      </trkpt>
      <trkpt lat="44.07548" lon="3.36706">
        <ele>559.14</ele>
        <time>2013-07-06T16:34:07Z</time>
      </trkpt>
      <trkpt lat="44.07548" lon="3.36708">
        <ele>559.14</ele>
        <time>2013-07-06T16:34:08Z</time>
      </trkpt>
      <trkpt lat="44.07549" lon="3.3671">
        <ele>559.14</ele>
        <time>2013-07-06T16:34:09Z</time>
      </trkpt>
      <trkpt lat="44.07549" lon="3.36703">
        <ele>558.66</ele>
        <time>2013-07-06T16:34:16Z</time>
      </trkpt>
      <trkpt lat="44.07549" lon="3.36717">
        <ele>559.14</ele>
        <time>2013-07-06T16:34:21Z</time>
      </trkpt>
      <trkpt lat="44.07547" lon="3.36768">
        <ele>559.62</ele>
        <time>2013-07-06T16:34:34Z</time>
      </trkpt>
      <trkpt lat="44.0756" lon="3.36829">
        <ele>560.59</ele>
        <time>2013-07-06T16:34:49Z</time>
      </trkpt>
      <trkpt lat="44.07584" lon="3.36893">
        <ele>562.03</ele>
        <time>2013-07-06T16:35:05Z</time>
      </trkpt>
      <trkpt lat="44.07623" lon="3.36933">
        <ele>562.99</ele>
        <time>2013-07-06T16:35:20Z</time>
      </trkpt>
      <trkpt lat="44.07656" lon="3.36989">
        <ele>564.43</ele>
        <time>2013-07-06T16:35:36Z</time>
      </trkpt>
      <trkpt lat="44.07675" lon="3.37058">
        <ele>564.43</ele>
        <time>2013-07-06T16:35:51Z</time>
      </trkpt>
      <trkpt lat="44.07691" lon="3.37123">
        <ele>564.43</ele>
        <time>2013-07-06T16:36:05Z</time>
      </trkpt>
      <trkpt lat="44.07685" lon="3.37196">
        <ele>565.39</ele>
        <time>2013-07-06T16:36:19Z</time>
      </trkpt>
      <trkpt lat="44.07686" lon="3.37202">
        <ele>565.39</ele>
        <time>2013-07-06T16:36:20Z</time>
      </trkpt>
      <trkpt lat="44.07687" lon="3.37208">
        <ele>565.87</ele>
        <time>2013-07-06T16:36:21Z</time>
      </trkpt>
      <trkpt lat="44.07698" lon="3.37243">
        <ele>566.35</ele>
        <time>2013-07-06T16:36:27Z</time>
      </trkpt>
      <trkpt lat="44.07737" lon="3.37344">
        <ele>566.83</ele>
        <time>2013-07-06T16:36:44Z</time>
      </trkpt>
      <trkpt lat="44.07753" lon="3.37424">
        <ele>567.32</ele>
        <time>2013-07-06T16:36:56Z</time>
      </trkpt>
      <trkpt lat="44.07754" lon="3.37431">
        <ele>567.8</ele>
        <time>2013-07-06T16:36:57Z</time>
      </trkpt>
      <trkpt lat="44.07754" lon="3.37541">
        <ele>568.28</ele>
        <time>2013-07-06T16:37:12Z</time>
      </trkpt>
      <trkpt lat="44.07754" lon="3.37549">
        <ele>568.76</ele>
        <time>2013-07-06T16:37:13Z</time>
      </trkpt>
      <trkpt lat="44.07755" lon="3.37556">
        <ele>568.76</ele>
        <time>2013-07-06T16:37:14Z</time>
      </trkpt>
      <trkpt lat="44.07757" lon="3.37564">
        <ele>568.76</ele>
        <time>2013-07-06T16:37:15Z</time>
      </trkpt>
      <trkpt lat="44.0776" lon="3.3757">
        <ele>568.76</ele>
        <time>2013-07-06T16:37:16Z</time>
      </trkpt>
      <trkpt lat="44.07764" lon="3.37575">
        <ele>568.76</ele>
        <time>2013-07-06T16:37:17Z</time>
      </trkpt>
      <trkpt lat="44.07768" lon="3.3758">
        <ele>568.76</ele>
        <time>2013-07-06T16:37:18Z</time>
      </trkpt>
      <trkpt lat="44.07772" lon="3.37585">
        <ele>568.76</ele>
        <time>2013-07-06T16:37:19Z</time>
      </trkpt>
      <trkpt lat="44.07781" lon="3.37594">
        <ele>568.76</ele>
        <time>2013-07-06T16:37:21Z</time>
      </trkpt>
      <trkpt lat="44.07786" lon="3.37597">
        <ele>568.28</ele>
        <time>2013-07-06T16:37:22Z</time>
      </trkpt>
      <trkpt lat="44.07791" lon="3.376">
        <ele>568.28</ele>
        <time>2013-07-06T16:37:23Z</time>
      </trkpt>
      <trkpt lat="44.07844" lon="3.37624">
        <ele>569.24</ele>
        <time>2013-07-06T16:37:34Z</time>
      </trkpt>
      <trkpt lat="44.07849" lon="3.37627">
        <ele>569.24</ele>
        <time>2013-07-06T16:37:35Z</time>
      </trkpt>
      <trkpt lat="44.07902" lon="3.37655">
        <ele>570.2</ele>
        <time>2013-07-06T16:37:47Z</time>
      </trkpt>
      <trkpt lat="44.07906" lon="3.3766">
        <ele>569.72</ele>
        <time>2013-07-06T16:37:48Z</time>
      </trkpt>
      <trkpt lat="44.07909" lon="3.37665">
        <ele>570.2</ele>
        <time>2013-07-06T16:37:49Z</time>
      </trkpt>
      <trkpt lat="44.0792" lon="3.37688">
        <ele>570.2</ele>
        <time>2013-07-06T16:37:53Z</time>
      </trkpt>
      <trkpt lat="44.07966" lon="3.37761">
        <ele>569.72</ele>
        <time>2013-07-06T16:38:07Z</time>
      </trkpt>
      <trkpt lat="44.07964" lon="3.37773">
        <ele>569.72</ele>
        <time>2013-07-06T16:38:08Z</time>
      </trkpt>
      <trkpt lat="44.07966" lon="3.37789">
        <ele>569.72</ele>
        <time>2013-07-06T16:38:10Z</time>
      </trkpt>
      <trkpt lat="44.07975" lon="3.37889">
        <ele>569.24</ele>
        <time>2013-07-06T16:38:23Z</time>
      </trkpt>
      <trkpt lat="44.07975" lon="3.37912">
        <ele>569.24</ele>
        <time>2013-07-06T16:38:26Z</time>
      </trkpt>
      <trkpt lat="44.07973" lon="3.3792">
        <ele>568.76</ele>
        <time>2013-07-06T16:38:27Z</time>
      </trkpt>
      <trkpt lat="44.07971" lon="3.37928">
        <ele>568.76</ele>
        <time>2013-07-06T16:38:28Z</time>
      </trkpt>
      <trkpt lat="44.07968" lon="3.37935">
        <ele>568.76</ele>
        <time>2013-07-06T16:38:29Z</time>
      </trkpt>
      <trkpt lat="44.07964" lon="3.37941">
        <ele>568.76</ele>
        <time>2013-07-06T16:38:30Z</time>
      </trkpt>
      <trkpt lat="44.07959" lon="3.37947">
        <ele>568.76</ele>
        <time>2013-07-06T16:38:31Z</time>
      </trkpt>
      <trkpt lat="44.07955" lon="3.37953">
        <ele>568.76</ele>
        <time>2013-07-06T16:38:32Z</time>
      </trkpt>
      <trkpt lat="44.07899" lon="3.3802">
        <ele>569.24</ele>
        <time>2013-07-06T16:38:44Z</time>
      </trkpt>
      <trkpt lat="44.07895" lon="3.38027">
        <ele>569.24</ele>
        <time>2013-07-06T16:38:45Z</time>
      </trkpt>
      <trkpt lat="44.07892" lon="3.38035">
        <ele>569.24</ele>
        <time>2013-07-06T16:38:46Z</time>
      </trkpt>
      <trkpt lat="44.0789" lon="3.38044">
        <ele>568.76</ele>
        <time>2013-07-06T16:38:47Z</time>
      </trkpt>
      <trkpt lat="44.07889" lon="3.38053">
        <ele>568.76</ele>
        <time>2013-07-06T16:38:48Z</time>
      </trkpt>
      <trkpt lat="44.07889" lon="3.38062">
        <ele>568.76</ele>
        <time>2013-07-06T16:38:49Z</time>
      </trkpt>
      <trkpt lat="44.07902" lon="3.38143">
        <ele>567.8</ele>
        <time>2013-07-06T16:38:58Z</time>
      </trkpt>
      <trkpt lat="44.07893" lon="3.38268">
        <ele>567.8</ele>
        <time>2013-07-06T16:39:12Z</time>
      </trkpt>
      <trkpt lat="44.07893" lon="3.38278">
        <ele>568.28</ele>
        <time>2013-07-06T16:39:13Z</time>
      </trkpt>
      <trkpt lat="44.07895" lon="3.38345">
        <ele>567.32</ele>
        <time>2013-07-06T16:39:20Z</time>
      </trkpt>
      <trkpt lat="44.07893" lon="3.38354">
        <ele>567.8</ele>
        <time>2013-07-06T16:39:21Z</time>
      </trkpt>
      <trkpt lat="44.0788" lon="3.38405">
        <ele>567.8</ele>
        <time>2013-07-06T16:39:27Z</time>
      </trkpt>
      <trkpt lat="44.07879" lon="3.38413">
        <ele>567.8</ele>
        <time>2013-07-06T16:39:28Z</time>
      </trkpt>
      <trkpt lat="44.07879" lon="3.38422">
        <ele>568.28</ele>
        <time>2013-07-06T16:39:29Z</time>
      </trkpt>
      <trkpt lat="44.07881" lon="3.38431">
        <ele>567.8</ele>
        <time>2013-07-06T16:39:30Z</time>
      </trkpt>
      <trkpt lat="44.07884" lon="3.38439">
        <ele>567.8</ele>
        <time>2013-07-06T16:39:31Z</time>
      </trkpt>
      <trkpt lat="44.07887" lon="3.38447">
        <ele>567.8</ele>
        <time>2013-07-06T16:39:32Z</time>
      </trkpt>
      <trkpt lat="44.07889" lon="3.38456">
        <ele>567.32</ele>
        <time>2013-07-06T16:39:33Z</time>
      </trkpt>
      <trkpt lat="44.07889" lon="3.38465">
        <ele>566.83</ele>
        <time>2013-07-06T16:39:34Z</time>
      </trkpt>
      <trkpt lat="44.07888" lon="3.38475">
        <ele>566.83</ele>
        <time>2013-07-06T16:39:35Z</time>
      </trkpt>
      <trkpt lat="44.07884" lon="3.38483">
        <ele>567.32</ele>
        <time>2013-07-06T16:39:36Z</time>
      </trkpt>
      <trkpt lat="44.07879" lon="3.38489">
        <ele>567.8</ele>
        <time>2013-07-06T16:39:37Z</time>
      </trkpt>
      <trkpt lat="44.07874" lon="3.38496">
        <ele>567.8</ele>
        <time>2013-07-06T16:39:38Z</time>
      </trkpt>
      <trkpt lat="44.0787" lon="3.38503">
        <ele>567.8</ele>
        <time>2013-07-06T16:39:39Z</time>
      </trkpt>
      <trkpt lat="44.07867" lon="3.38511">
        <ele>568.28</ele>
        <time>2013-07-06T16:39:40Z</time>
      </trkpt>
      <trkpt lat="44.07865" lon="3.38521">
        <ele>568.28</ele>
        <time>2013-07-06T16:39:41Z</time>
      </trkpt>
      <trkpt lat="44.07864" lon="3.3853">
        <ele>568.28</ele>
        <time>2013-07-06T16:39:42Z</time>
      </trkpt>
      <trkpt lat="44.07865" lon="3.3854">
        <ele>568.28</ele>
        <time>2013-07-06T16:39:43Z</time>
      </trkpt>
      <trkpt lat="44.07865" lon="3.38549">
        <ele>568.28</ele>
        <time>2013-07-06T16:39:44Z</time>
      </trkpt>
      <trkpt lat="44.07868" lon="3.38577">
        <ele>567.8</ele>
        <time>2013-07-06T16:39:47Z</time>
      </trkpt>
      <trkpt lat="44.07868" lon="3.38586">
        <ele>567.8</ele>
        <time>2013-07-06T16:39:48Z</time>
      </trkpt>
      <trkpt lat="44.07867" lon="3.38595">
        <ele>567.8</ele>
        <time>2013-07-06T16:39:49Z</time>
      </trkpt>
      <trkpt lat="44.07866" lon="3.38604">
        <ele>567.8</ele>
        <time>2013-07-06T16:39:50Z</time>
      </trkpt>
      <trkpt lat="44.07864" lon="3.38613">
        <ele>567.8</ele>
        <time>2013-07-06T16:39:51Z</time>
      </trkpt>
      <trkpt lat="44.0786" lon="3.3863">
        <ele>567.8</ele>
        <time>2013-07-06T16:39:53Z</time>
      </trkpt>
      <trkpt lat="44.07844" lon="3.3869">
        <ele>567.8</ele>
        <time>2013-07-06T16:40:00Z</time>
      </trkpt>
      <trkpt lat="44.07844" lon="3.38699">
        <ele>567.8</ele>
        <time>2013-07-06T16:40:01Z</time>
      </trkpt>
      <trkpt lat="44.07844" lon="3.38709">
        <ele>567.8</ele>
        <time>2013-07-06T16:40:02Z</time>
      </trkpt>
      <trkpt lat="44.07845" lon="3.38838">
        <ele>567.8</ele>
        <time>2013-07-06T16:40:17Z</time>
      </trkpt>
      <trkpt lat="44.07844" lon="3.38845">
        <ele>567.8</ele>
        <time>2013-07-06T16:40:18Z</time>
      </trkpt>
      <trkpt lat="44.07843" lon="3.38851">
        <ele>567.8</ele>
        <time>2013-07-06T16:40:19Z</time>
      </trkpt>
      <trkpt lat="44.07841" lon="3.38857">
        <ele>567.8</ele>
        <time>2013-07-06T16:40:20Z</time>
      </trkpt>
      <trkpt lat="44.07837" lon="3.38862">
        <ele>567.8</ele>
        <time>2013-07-06T16:40:21Z</time>
      </trkpt>
      <trkpt lat="44.07833" lon="3.38866">
        <ele>566.83</ele>
        <time>2013-07-06T16:40:22Z</time>
      </trkpt>
      <trkpt lat="44.07827" lon="3.38869">
        <ele>565.87</ele>
        <time>2013-07-06T16:40:23Z</time>
      </trkpt>
      <trkpt lat="44.0782" lon="3.38872">
        <ele>564.91</ele>
        <time>2013-07-06T16:40:24Z</time>
      </trkpt>
      <trkpt lat="44.07776" lon="3.38887">
        <ele>561.55</ele>
        <time>2013-07-06T16:40:30Z</time>
      </trkpt>
      <trkpt lat="44.07761" lon="3.38892">
        <ele>560.59</ele>
        <time>2013-07-06T16:40:32Z</time>
      </trkpt>
      <trkpt lat="44.07715" lon="3.38901">
        <ele>561.07</ele>
        <time>2013-07-06T16:40:39Z</time>
      </trkpt>
      <trkpt lat="44.07709" lon="3.38901">
        <ele>560.59</ele>
        <time>2013-07-06T16:40:40Z</time>
      </trkpt>
      <trkpt lat="44.07703" lon="3.38903">
        <ele>560.59</ele>
        <time>2013-07-06T16:40:41Z</time>
      </trkpt>
      <trkpt lat="44.07695" lon="3.38907">
        <ele>560.59</ele>
        <time>2013-07-06T16:40:42Z</time>
      </trkpt>
      <trkpt lat="44.07689" lon="3.3891">
        <ele>560.59</ele>
        <time>2013-07-06T16:40:43Z</time>
      </trkpt>
      <trkpt lat="44.07683" lon="3.38912">
        <ele>560.59</ele>
        <time>2013-07-06T16:40:44Z</time>
      </trkpt>
      <trkpt lat="44.07678" lon="3.38915">
        <ele>560.59</ele>
        <time>2013-07-06T16:40:45Z</time>
      </trkpt>
      <trkpt lat="44.07675" lon="3.3892">
        <ele>561.07</ele>
        <time>2013-07-06T16:40:46Z</time>
      </trkpt>
      <trkpt lat="44.07679" lon="3.38936">
        <ele>561.55</ele>
        <time>2013-07-06T16:40:51Z</time>
      </trkpt>
      <trkpt lat="44.07679" lon="3.38937">
        <ele>562.03</ele>
        <time>2013-07-06T16:41:04Z</time>
      </trkpt>
      <trkpt lat="44.07679" lon="3.38938">
        <ele>562.03</ele>
        <time>2013-07-06T16:41:21Z</time>
      </trkpt>
      <trkpt lat="44.07679" lon="3.38937">
        <ele>562.03</ele>
        <time>2013-07-06T16:41:48Z</time>
      </trkpt>
      <trkpt lat="44.07679" lon="3.38937">
        <ele>562.51</ele>
        <time>2013-07-06T16:42:17Z</time>
      </trkpt>
      <trkpt lat="44.07679" lon="3.38938">
        <ele>562.51</ele>
        <time>2013-07-06T16:42:52Z</time>
      </trkpt>
      <trkpt lat="44.0768" lon="3.38938">
        <ele>562.03</ele>
        <time>2013-07-06T16:43:25Z</time>
      </trkpt>
    </trkseg>
  </trk>
</gpx>